<?xml version="1.0" encoding="UTF-8" standalone="no" ?>
<gpx xmlns="http://www.topografix.com/GPX/1/1" xmlns:xsi="http://www.w3.org/2001/XMLSchema-instance" xsi:schemaLocation="http://www.topografix.com/GPX/1/1 http://www.topografix.com/GPX/1/1/gpx.xsd" version="1.1" creator="VisuGPX - https://www.visugpx.com">
  <metadata>
    <name>Tour des grandes vignes</name>
    <desc><![CDATA[tour d\'olivier 5h30]]></desc>
  </metadata>
  <trk>
    <name><![CDATA[Tracé actuel: 03 AVR 2011 13:29]]></name>
    <trkseg>
      <trkpt lat="45.56434" lon="5.93929">
        <ele>287.09</ele>
        <time>2011-04-03T11:29:19Z</time>
      </trkpt>
      <trkpt lat="45.56431" lon="5.93925">
        <ele>288.05</ele>
        <time>2011-04-03T11:29:42Z</time>
      </trkpt>
      <trkpt lat="45.56432" lon="5.93923">
        <ele>287.57</ele>
        <time>2011-04-03T11:29:44Z</time>
      </trkpt>
      <trkpt lat="45.56435" lon="5.9394">
        <ele>287.57</ele>
        <time>2011-04-03T11:29:51Z</time>
      </trkpt>
      <trkpt lat="45.56411" lon="5.93943">
        <ele>288.05</ele>
        <time>2011-04-03T11:30:04Z</time>
      </trkpt>
      <trkpt lat="45.56376" lon="5.93964">
        <ele>288.53</ele>
        <time>2011-04-03T11:30:16Z</time>
      </trkpt>
      <trkpt lat="45.56342" lon="5.94001">
        <ele>288.53</ele>
        <time>2011-04-03T11:30:26Z</time>
      </trkpt>
      <trkpt lat="45.56335" lon="5.94011">
        <ele>288.53</ele>
        <time>2011-04-03T11:30:28Z</time>
      </trkpt>
      <trkpt lat="45.56332" lon="5.94018">
        <ele>288.05</ele>
        <time>2011-04-03T11:30:29Z</time>
      </trkpt>
      <trkpt lat="45.56329" lon="5.94023">
        <ele>288.53</ele>
        <time>2011-04-03T11:30:30Z</time>
      </trkpt>
      <trkpt lat="45.56326" lon="5.94029">
        <ele>288.53</ele>
        <time>2011-04-03T11:30:31Z</time>
      </trkpt>
      <trkpt lat="45.56323" lon="5.94034">
        <ele>288.05</ele>
        <time>2011-04-03T11:30:32Z</time>
      </trkpt>
      <trkpt lat="45.56265" lon="5.94077">
        <ele>288.53</ele>
        <time>2011-04-03T11:30:45Z</time>
      </trkpt>
      <trkpt lat="45.56252" lon="5.94073">
        <ele>288.53</ele>
        <time>2011-04-03T11:30:47Z</time>
      </trkpt>
      <trkpt lat="45.56229" lon="5.94077">
        <ele>289.01</ele>
        <time>2011-04-03T11:30:51Z</time>
      </trkpt>
      <trkpt lat="45.56213" lon="5.94072">
        <ele>289.01</ele>
        <time>2011-04-03T11:30:54Z</time>
      </trkpt>
      <trkpt lat="45.56208" lon="5.94067">
        <ele>289.01</ele>
        <time>2011-04-03T11:30:55Z</time>
      </trkpt>
      <trkpt lat="45.56204" lon="5.94062">
        <ele>288.53</ele>
        <time>2011-04-03T11:30:56Z</time>
      </trkpt>
      <trkpt lat="45.56199" lon="5.94059">
        <ele>288.53</ele>
        <time>2011-04-03T11:30:57Z</time>
      </trkpt>
      <trkpt lat="45.56194" lon="5.94058">
        <ele>289.01</ele>
        <time>2011-04-03T11:30:58Z</time>
      </trkpt>
      <trkpt lat="45.56188" lon="5.9406">
        <ele>289.01</ele>
        <time>2011-04-03T11:30:59Z</time>
      </trkpt>
      <trkpt lat="45.56183" lon="5.94063">
        <ele>289.01</ele>
        <time>2011-04-03T11:31:00Z</time>
      </trkpt>
      <trkpt lat="45.56179" lon="5.94067">
        <ele>289.49</ele>
        <time>2011-04-03T11:31:01Z</time>
      </trkpt>
      <trkpt lat="45.56165" lon="5.94078">
        <ele>289.01</ele>
        <time>2011-04-03T11:31:04Z</time>
      </trkpt>
      <trkpt lat="45.56132" lon="5.94114">
        <ele>289.97</ele>
        <time>2011-04-03T11:31:12Z</time>
      </trkpt>
      <trkpt lat="45.56126" lon="5.94151">
        <ele>289.97</ele>
        <time>2011-04-03T11:31:21Z</time>
      </trkpt>
      <trkpt lat="45.56119" lon="5.94178">
        <ele>289.49</ele>
        <time>2011-04-03T11:31:26Z</time>
      </trkpt>
      <trkpt lat="45.5612" lon="5.94182">
        <ele>289.49</ele>
        <time>2011-04-03T11:31:27Z</time>
      </trkpt>
      <trkpt lat="45.5612" lon="5.94188">
        <ele>289.01</ele>
        <time>2011-04-03T11:31:28Z</time>
      </trkpt>
      <trkpt lat="45.5612" lon="5.94194">
        <ele>288.53</ele>
        <time>2011-04-03T11:31:29Z</time>
      </trkpt>
      <trkpt lat="45.56119" lon="5.942">
        <ele>289.01</ele>
        <time>2011-04-03T11:31:30Z</time>
      </trkpt>
      <trkpt lat="45.56117" lon="5.94205">
        <ele>288.53</ele>
        <time>2011-04-03T11:31:31Z</time>
      </trkpt>
      <trkpt lat="45.56115" lon="5.9421">
        <ele>289.01</ele>
        <time>2011-04-03T11:31:32Z</time>
      </trkpt>
      <trkpt lat="45.56112" lon="5.94215">
        <ele>289.01</ele>
        <time>2011-04-03T11:31:33Z</time>
      </trkpt>
      <trkpt lat="45.56111" lon="5.94222">
        <ele>289.01</ele>
        <time>2011-04-03T11:31:34Z</time>
      </trkpt>
      <trkpt lat="45.56112" lon="5.94229">
        <ele>289.49</ele>
        <time>2011-04-03T11:31:35Z</time>
      </trkpt>
      <trkpt lat="45.56113" lon="5.94235">
        <ele>289.01</ele>
        <time>2011-04-03T11:31:36Z</time>
      </trkpt>
      <trkpt lat="45.56115" lon="5.94241">
        <ele>289.01</ele>
        <time>2011-04-03T11:31:37Z</time>
      </trkpt>
      <trkpt lat="45.56117" lon="5.94255">
        <ele>289.01</ele>
        <time>2011-04-03T11:31:39Z</time>
      </trkpt>
      <trkpt lat="45.56117" lon="5.94262">
        <ele>289.01</ele>
        <time>2011-04-03T11:31:40Z</time>
      </trkpt>
      <trkpt lat="45.56116" lon="5.94268">
        <ele>289.01</ele>
        <time>2011-04-03T11:31:41Z</time>
      </trkpt>
      <trkpt lat="45.56105" lon="5.9438">
        <ele>289.49</ele>
        <time>2011-04-03T11:31:56Z</time>
      </trkpt>
      <trkpt lat="45.56104" lon="5.94387">
        <ele>289.49</ele>
        <time>2011-04-03T11:31:57Z</time>
      </trkpt>
      <trkpt lat="45.56081" lon="5.94483">
        <ele>290.46</ele>
        <time>2011-04-03T11:32:10Z</time>
      </trkpt>
      <trkpt lat="45.56079" lon="5.9449">
        <ele>289.49</ele>
        <time>2011-04-03T11:32:11Z</time>
      </trkpt>
      <trkpt lat="45.56076" lon="5.94497">
        <ele>289.97</ele>
        <time>2011-04-03T11:32:12Z</time>
      </trkpt>
      <trkpt lat="45.56067" lon="5.94518">
        <ele>289.49</ele>
        <time>2011-04-03T11:32:15Z</time>
      </trkpt>
      <trkpt lat="45.56063" lon="5.94524">
        <ele>289.49</ele>
        <time>2011-04-03T11:32:16Z</time>
      </trkpt>
      <trkpt lat="45.56058" lon="5.94528">
        <ele>289.49</ele>
        <time>2011-04-03T11:32:17Z</time>
      </trkpt>
      <trkpt lat="45.56053" lon="5.94531">
        <ele>289.97</ele>
        <time>2011-04-03T11:32:18Z</time>
      </trkpt>
      <trkpt lat="45.56047" lon="5.94534">
        <ele>289.49</ele>
        <time>2011-04-03T11:32:19Z</time>
      </trkpt>
      <trkpt lat="45.56041" lon="5.94535">
        <ele>289.49</ele>
        <time>2011-04-03T11:32:20Z</time>
      </trkpt>
      <trkpt lat="45.55966" lon="5.94555">
        <ele>290.46</ele>
        <time>2011-04-03T11:32:33Z</time>
      </trkpt>
      <trkpt lat="45.55961" lon="5.94558">
        <ele>289.97</ele>
        <time>2011-04-03T11:32:34Z</time>
      </trkpt>
      <trkpt lat="45.55956" lon="5.94562">
        <ele>289.97</ele>
        <time>2011-04-03T11:32:35Z</time>
      </trkpt>
      <trkpt lat="45.55951" lon="5.94566">
        <ele>289.97</ele>
        <time>2011-04-03T11:32:36Z</time>
      </trkpt>
      <trkpt lat="45.55947" lon="5.94571">
        <ele>289.97</ele>
        <time>2011-04-03T11:32:37Z</time>
      </trkpt>
      <trkpt lat="45.55943" lon="5.94577">
        <ele>290.46</ele>
        <time>2011-04-03T11:32:38Z</time>
      </trkpt>
      <trkpt lat="45.55939" lon="5.94584">
        <ele>289.97</ele>
        <time>2011-04-03T11:32:39Z</time>
      </trkpt>
      <trkpt lat="45.55936" lon="5.9459">
        <ele>289.97</ele>
        <time>2011-04-03T11:32:40Z</time>
      </trkpt>
      <trkpt lat="45.55893" lon="5.94675">
        <ele>290.46</ele>
        <time>2011-04-03T11:32:53Z</time>
      </trkpt>
      <trkpt lat="45.5588" lon="5.94713">
        <ele>290.94</ele>
        <time>2011-04-03T11:32:58Z</time>
      </trkpt>
      <trkpt lat="45.55868" lon="5.94776">
        <ele>291.42</ele>
        <time>2011-04-03T11:33:06Z</time>
      </trkpt>
      <trkpt lat="45.55866" lon="5.94782">
        <ele>291.42</ele>
        <time>2011-04-03T11:33:07Z</time>
      </trkpt>
      <trkpt lat="45.55862" lon="5.94786">
        <ele>291.42</ele>
        <time>2011-04-03T11:33:08Z</time>
      </trkpt>
      <trkpt lat="45.55858" lon="5.9479">
        <ele>291.42</ele>
        <time>2011-04-03T11:33:09Z</time>
      </trkpt>
      <trkpt lat="45.55852" lon="5.94793">
        <ele>291.9</ele>
        <time>2011-04-03T11:33:10Z</time>
      </trkpt>
      <trkpt lat="45.55769" lon="5.94842">
        <ele>292.38</ele>
        <time>2011-04-03T11:33:26Z</time>
      </trkpt>
      <trkpt lat="45.55765" lon="5.94846">
        <ele>292.38</ele>
        <time>2011-04-03T11:33:27Z</time>
      </trkpt>
      <trkpt lat="45.5576" lon="5.94854">
        <ele>292.38</ele>
        <time>2011-04-03T11:33:29Z</time>
      </trkpt>
      <trkpt lat="45.5576" lon="5.94859">
        <ele>292.38</ele>
        <time>2011-04-03T11:33:30Z</time>
      </trkpt>
      <trkpt lat="45.55762" lon="5.94865">
        <ele>291.9</ele>
        <time>2011-04-03T11:33:31Z</time>
      </trkpt>
      <trkpt lat="45.55763" lon="5.94871">
        <ele>291.9</ele>
        <time>2011-04-03T11:33:32Z</time>
      </trkpt>
      <trkpt lat="45.55762" lon="5.94877">
        <ele>291.9</ele>
        <time>2011-04-03T11:33:33Z</time>
      </trkpt>
      <trkpt lat="45.55759" lon="5.94882">
        <ele>291.9</ele>
        <time>2011-04-03T11:33:34Z</time>
      </trkpt>
      <trkpt lat="45.55755" lon="5.94886">
        <ele>291.9</ele>
        <time>2011-04-03T11:33:35Z</time>
      </trkpt>
      <trkpt lat="45.55721" lon="5.94915">
        <ele>292.38</ele>
        <time>2011-04-03T11:33:42Z</time>
      </trkpt>
      <trkpt lat="45.55716" lon="5.94921">
        <ele>292.38</ele>
        <time>2011-04-03T11:33:43Z</time>
      </trkpt>
      <trkpt lat="45.55712" lon="5.94927">
        <ele>292.38</ele>
        <time>2011-04-03T11:33:44Z</time>
      </trkpt>
      <trkpt lat="45.55651" lon="5.9501">
        <ele>292.38</ele>
        <time>2011-04-03T11:33:58Z</time>
      </trkpt>
      <trkpt lat="45.55579" lon="5.951">
        <ele>291.9</ele>
        <time>2011-04-03T11:34:13Z</time>
      </trkpt>
      <trkpt lat="45.55504" lon="5.95195">
        <ele>292.38</ele>
        <time>2011-04-03T11:34:29Z</time>
      </trkpt>
      <trkpt lat="45.55431" lon="5.95292">
        <ele>291.9</ele>
        <time>2011-04-03T11:34:45Z</time>
      </trkpt>
      <trkpt lat="45.55399" lon="5.9533">
        <ele>292.38</ele>
        <time>2011-04-03T11:34:52Z</time>
      </trkpt>
      <trkpt lat="45.55385" lon="5.95342">
        <ele>293.82</ele>
        <time>2011-04-03T11:34:55Z</time>
      </trkpt>
      <trkpt lat="45.55351" lon="5.95382">
        <ele>294.78</ele>
        <time>2011-04-03T11:35:04Z</time>
      </trkpt>
      <trkpt lat="45.55348" lon="5.95388">
        <ele>294.78</ele>
        <time>2011-04-03T11:35:05Z</time>
      </trkpt>
      <trkpt lat="45.55346" lon="5.95394">
        <ele>295.26</ele>
        <time>2011-04-03T11:35:06Z</time>
      </trkpt>
      <trkpt lat="45.55346" lon="5.954">
        <ele>295.26</ele>
        <time>2011-04-03T11:35:07Z</time>
      </trkpt>
      <trkpt lat="45.55347" lon="5.95407">
        <ele>295.26</ele>
        <time>2011-04-03T11:35:08Z</time>
      </trkpt>
      <trkpt lat="45.55351" lon="5.95413">
        <ele>294.78</ele>
        <time>2011-04-03T11:35:09Z</time>
      </trkpt>
      <trkpt lat="45.55354" lon="5.95419">
        <ele>294.3</ele>
        <time>2011-04-03T11:35:10Z</time>
      </trkpt>
      <trkpt lat="45.55359" lon="5.95423">
        <ele>294.3</ele>
        <time>2011-04-03T11:35:11Z</time>
      </trkpt>
      <trkpt lat="45.55363" lon="5.95427">
        <ele>294.3</ele>
        <time>2011-04-03T11:35:12Z</time>
      </trkpt>
      <trkpt lat="45.55368" lon="5.9543">
        <ele>294.3</ele>
        <time>2011-04-03T11:35:13Z</time>
      </trkpt>
      <trkpt lat="45.55373" lon="5.9543">
        <ele>294.3</ele>
        <time>2011-04-03T11:35:14Z</time>
      </trkpt>
      <trkpt lat="45.55379" lon="5.95426">
        <ele>293.82</ele>
        <time>2011-04-03T11:35:15Z</time>
      </trkpt>
      <trkpt lat="45.55383" lon="5.95419">
        <ele>293.82</ele>
        <time>2011-04-03T11:35:16Z</time>
      </trkpt>
      <trkpt lat="45.55388" lon="5.95412">
        <ele>293.34</ele>
        <time>2011-04-03T11:35:17Z</time>
      </trkpt>
      <trkpt lat="45.55394" lon="5.9541">
        <ele>293.34</ele>
        <time>2011-04-03T11:35:18Z</time>
      </trkpt>
      <trkpt lat="45.55399" lon="5.95412">
        <ele>293.34</ele>
        <time>2011-04-03T11:35:19Z</time>
      </trkpt>
      <trkpt lat="45.55405" lon="5.95416">
        <ele>292.86</ele>
        <time>2011-04-03T11:35:20Z</time>
      </trkpt>
      <trkpt lat="45.5541" lon="5.95419">
        <ele>292.86</ele>
        <time>2011-04-03T11:35:21Z</time>
      </trkpt>
      <trkpt lat="45.55416" lon="5.95423">
        <ele>292.38</ele>
        <time>2011-04-03T11:35:22Z</time>
      </trkpt>
      <trkpt lat="45.55421" lon="5.95425">
        <ele>292.86</ele>
        <time>2011-04-03T11:35:23Z</time>
      </trkpt>
      <trkpt lat="45.55428" lon="5.95426">
        <ele>292.86</ele>
        <time>2011-04-03T11:35:24Z</time>
      </trkpt>
      <trkpt lat="45.55433" lon="5.95425">
        <ele>292.86</ele>
        <time>2011-04-03T11:35:25Z</time>
      </trkpt>
      <trkpt lat="45.55439" lon="5.95422">
        <ele>292.86</ele>
        <time>2011-04-03T11:35:26Z</time>
      </trkpt>
      <trkpt lat="45.55444" lon="5.95419">
        <ele>292.86</ele>
        <time>2011-04-03T11:35:27Z</time>
      </trkpt>
      <trkpt lat="45.55449" lon="5.95414">
        <ele>292.86</ele>
        <time>2011-04-03T11:35:28Z</time>
      </trkpt>
      <trkpt lat="45.55454" lon="5.95409">
        <ele>292.86</ele>
        <time>2011-04-03T11:35:29Z</time>
      </trkpt>
      <trkpt lat="45.55459" lon="5.95403">
        <ele>292.86</ele>
        <time>2011-04-03T11:35:30Z</time>
      </trkpt>
      <trkpt lat="45.55462" lon="5.95396">
        <ele>291.9</ele>
        <time>2011-04-03T11:35:31Z</time>
      </trkpt>
      <trkpt lat="45.55465" lon="5.95387">
        <ele>291.9</ele>
        <time>2011-04-03T11:35:32Z</time>
      </trkpt>
      <trkpt lat="45.55468" lon="5.95379">
        <ele>291.9</ele>
        <time>2011-04-03T11:35:33Z</time>
      </trkpt>
      <trkpt lat="45.55473" lon="5.95373">
        <ele>291.9</ele>
        <time>2011-04-03T11:35:34Z</time>
      </trkpt>
      <trkpt lat="45.55479" lon="5.95373">
        <ele>291.42</ele>
        <time>2011-04-03T11:35:35Z</time>
      </trkpt>
      <trkpt lat="45.55484" lon="5.95379">
        <ele>291.42</ele>
        <time>2011-04-03T11:35:36Z</time>
      </trkpt>
      <trkpt lat="45.55489" lon="5.95385">
        <ele>290.94</ele>
        <time>2011-04-03T11:35:37Z</time>
      </trkpt>
      <trkpt lat="45.55492" lon="5.95391">
        <ele>291.42</ele>
        <time>2011-04-03T11:35:38Z</time>
      </trkpt>
      <trkpt lat="45.5552" lon="5.95443">
        <ele>291.9</ele>
        <time>2011-04-03T11:35:45Z</time>
      </trkpt>
      <trkpt lat="45.55524" lon="5.95452">
        <ele>292.86</ele>
        <time>2011-04-03T11:35:47Z</time>
      </trkpt>
      <trkpt lat="45.55534" lon="5.95472">
        <ele>293.34</ele>
        <time>2011-04-03T11:35:51Z</time>
      </trkpt>
      <trkpt lat="45.55544" lon="5.95494">
        <ele>294.78</ele>
        <time>2011-04-03T11:35:55Z</time>
      </trkpt>
      <trkpt lat="45.55587" lon="5.95571">
        <ele>295.26</ele>
        <time>2011-04-03T11:36:10Z</time>
      </trkpt>
      <trkpt lat="45.55654" lon="5.95646">
        <ele>296.22</ele>
        <time>2011-04-03T11:36:26Z</time>
      </trkpt>
      <trkpt lat="45.55723" lon="5.95724">
        <ele>298.15</ele>
        <time>2011-04-03T11:36:43Z</time>
      </trkpt>
      <trkpt lat="45.5579" lon="5.95796">
        <ele>297.67</ele>
        <time>2011-04-03T11:36:59Z</time>
      </trkpt>
      <trkpt lat="45.55795" lon="5.95801">
        <ele>297.18</ele>
        <time>2011-04-03T11:37:00Z</time>
      </trkpt>
      <trkpt lat="45.55802" lon="5.95811">
        <ele>297.18</ele>
        <time>2011-04-03T11:37:07Z</time>
      </trkpt>
      <trkpt lat="45.55815" lon="5.9583">
        <ele>297.18</ele>
        <time>2011-04-03T11:37:23Z</time>
      </trkpt>
      <trkpt lat="45.55882" lon="5.95905">
        <ele>296.22</ele>
        <time>2011-04-03T11:37:38Z</time>
      </trkpt>
      <trkpt lat="45.55963" lon="5.95971">
        <ele>297.18</ele>
        <time>2011-04-03T11:37:54Z</time>
      </trkpt>
      <trkpt lat="45.56005" lon="5.96006">
        <ele>297.18</ele>
        <time>2011-04-03T11:38:02Z</time>
      </trkpt>
      <trkpt lat="45.5601" lon="5.96008">
        <ele>297.67</ele>
        <time>2011-04-03T11:38:03Z</time>
      </trkpt>
      <trkpt lat="45.56022" lon="5.96014">
        <ele>297.18</ele>
        <time>2011-04-03T11:38:05Z</time>
      </trkpt>
      <trkpt lat="45.56027" lon="5.96018">
        <ele>297.18</ele>
        <time>2011-04-03T11:38:06Z</time>
      </trkpt>
      <trkpt lat="45.56032" lon="5.96023">
        <ele>297.67</ele>
        <time>2011-04-03T11:38:07Z</time>
      </trkpt>
      <trkpt lat="45.56038" lon="5.96026">
        <ele>297.18</ele>
        <time>2011-04-03T11:38:08Z</time>
      </trkpt>
      <trkpt lat="45.56044" lon="5.9603">
        <ele>297.18</ele>
        <time>2011-04-03T11:38:09Z</time>
      </trkpt>
      <trkpt lat="45.56048" lon="5.96036">
        <ele>297.18</ele>
        <time>2011-04-03T11:38:10Z</time>
      </trkpt>
      <trkpt lat="45.56053" lon="5.96042">
        <ele>297.67</ele>
        <time>2011-04-03T11:38:11Z</time>
      </trkpt>
      <trkpt lat="45.56058" lon="5.96048">
        <ele>297.67</ele>
        <time>2011-04-03T11:38:12Z</time>
      </trkpt>
      <trkpt lat="45.56064" lon="5.96052">
        <ele>297.18</ele>
        <time>2011-04-03T11:38:13Z</time>
      </trkpt>
      <trkpt lat="45.5607" lon="5.96055">
        <ele>297.67</ele>
        <time>2011-04-03T11:38:14Z</time>
      </trkpt>
      <trkpt lat="45.56076" lon="5.96058">
        <ele>297.67</ele>
        <time>2011-04-03T11:38:15Z</time>
      </trkpt>
      <trkpt lat="45.56082" lon="5.96062">
        <ele>297.18</ele>
        <time>2011-04-03T11:38:16Z</time>
      </trkpt>
      <trkpt lat="45.56172" lon="5.96127">
        <ele>298.15</ele>
        <time>2011-04-03T11:38:32Z</time>
      </trkpt>
      <trkpt lat="45.56238" lon="5.96217">
        <ele>299.11</ele>
        <time>2011-04-03T11:38:47Z</time>
      </trkpt>
      <trkpt lat="45.56293" lon="5.96351">
        <ele>300.07</ele>
        <time>2011-04-03T11:39:05Z</time>
      </trkpt>
      <trkpt lat="45.56334" lon="5.96439">
        <ele>300.55</ele>
        <time>2011-04-03T11:39:18Z</time>
      </trkpt>
      <trkpt lat="45.56335" lon="5.96447">
        <ele>300.55</ele>
        <time>2011-04-03T11:39:19Z</time>
      </trkpt>
      <trkpt lat="45.56337" lon="5.96455">
        <ele>300.55</ele>
        <time>2011-04-03T11:39:20Z</time>
      </trkpt>
      <trkpt lat="45.56339" lon="5.96462">
        <ele>300.55</ele>
        <time>2011-04-03T11:39:21Z</time>
      </trkpt>
      <trkpt lat="45.56342" lon="5.96468">
        <ele>300.55</ele>
        <time>2011-04-03T11:39:22Z</time>
      </trkpt>
      <trkpt lat="45.56347" lon="5.96473">
        <ele>301.03</ele>
        <time>2011-04-03T11:39:23Z</time>
      </trkpt>
      <trkpt lat="45.56352" lon="5.96476">
        <ele>301.03</ele>
        <time>2011-04-03T11:39:24Z</time>
      </trkpt>
      <trkpt lat="45.56358" lon="5.96476">
        <ele>300.55</ele>
        <time>2011-04-03T11:39:25Z</time>
      </trkpt>
      <trkpt lat="45.56363" lon="5.96476">
        <ele>300.55</ele>
        <time>2011-04-03T11:39:26Z</time>
      </trkpt>
      <trkpt lat="45.56369" lon="5.96477">
        <ele>301.03</ele>
        <time>2011-04-03T11:39:27Z</time>
      </trkpt>
      <trkpt lat="45.56374" lon="5.9648">
        <ele>301.03</ele>
        <time>2011-04-03T11:39:28Z</time>
      </trkpt>
      <trkpt lat="45.56379" lon="5.96484">
        <ele>301.03</ele>
        <time>2011-04-03T11:39:29Z</time>
      </trkpt>
      <trkpt lat="45.56446" lon="5.96578">
        <ele>301.51</ele>
        <time>2011-04-03T11:39:46Z</time>
      </trkpt>
      <trkpt lat="45.56489" lon="5.96678">
        <ele>302.47</ele>
        <time>2011-04-03T11:40:02Z</time>
      </trkpt>
      <trkpt lat="45.56496" lon="5.96692">
        <ele>302.47</ele>
        <time>2011-04-03T11:40:11Z</time>
      </trkpt>
      <trkpt lat="45.56506" lon="5.96712">
        <ele>302.95</ele>
        <time>2011-04-03T11:40:17Z</time>
      </trkpt>
      <trkpt lat="45.56509" lon="5.96717">
        <ele>303.43</ele>
        <time>2011-04-03T11:40:18Z</time>
      </trkpt>
      <trkpt lat="45.56511" lon="5.96723">
        <ele>302.95</ele>
        <time>2011-04-03T11:40:19Z</time>
      </trkpt>
      <trkpt lat="45.56514" lon="5.9673">
        <ele>302.95</ele>
        <time>2011-04-03T11:40:20Z</time>
      </trkpt>
      <trkpt lat="45.56517" lon="5.96737">
        <ele>302.95</ele>
        <time>2011-04-03T11:40:21Z</time>
      </trkpt>
      <trkpt lat="45.5652" lon="5.96743">
        <ele>303.43</ele>
        <time>2011-04-03T11:40:22Z</time>
      </trkpt>
      <trkpt lat="45.56524" lon="5.9675">
        <ele>303.43</ele>
        <time>2011-04-03T11:40:23Z</time>
      </trkpt>
      <trkpt lat="45.56544" lon="5.96792">
        <ele>304.39</ele>
        <time>2011-04-03T11:40:29Z</time>
      </trkpt>
      <trkpt lat="45.56601" lon="5.96906">
        <ele>305.36</ele>
        <time>2011-04-03T11:40:46Z</time>
      </trkpt>
      <trkpt lat="45.56656" lon="5.97019">
        <ele>305.84</ele>
        <time>2011-04-03T11:41:03Z</time>
      </trkpt>
      <trkpt lat="45.56711" lon="5.97133">
        <ele>307.28</ele>
        <time>2011-04-03T11:41:20Z</time>
      </trkpt>
      <trkpt lat="45.56757" lon="5.97229">
        <ele>307.76</ele>
        <time>2011-04-03T11:41:35Z</time>
      </trkpt>
      <trkpt lat="45.56812" lon="5.97344">
        <ele>308.72</ele>
        <time>2011-04-03T11:41:53Z</time>
      </trkpt>
      <trkpt lat="45.56854" lon="5.97428">
        <ele>309.2</ele>
        <time>2011-04-03T11:42:07Z</time>
      </trkpt>
      <trkpt lat="45.5687" lon="5.97465">
        <ele>309.68</ele>
        <time>2011-04-03T11:42:13Z</time>
      </trkpt>
      <trkpt lat="45.56877" lon="5.97476">
        <ele>310.16</ele>
        <time>2011-04-03T11:42:15Z</time>
      </trkpt>
      <trkpt lat="45.5692" lon="5.97565">
        <ele>310.16</ele>
        <time>2011-04-03T11:42:30Z</time>
      </trkpt>
      <trkpt lat="45.56928" lon="5.97584">
        <ele>310.64</ele>
        <time>2011-04-03T11:42:33Z</time>
      </trkpt>
      <trkpt lat="45.5693" lon="5.97591">
        <ele>310.16</ele>
        <time>2011-04-03T11:42:34Z</time>
      </trkpt>
      <trkpt lat="45.56932" lon="5.97605">
        <ele>310.16</ele>
        <time>2011-04-03T11:42:36Z</time>
      </trkpt>
      <trkpt lat="45.56936" lon="5.97611">
        <ele>310.16</ele>
        <time>2011-04-03T11:42:37Z</time>
      </trkpt>
      <trkpt lat="45.5694" lon="5.97614">
        <ele>310.64</ele>
        <time>2011-04-03T11:42:38Z</time>
      </trkpt>
      <trkpt lat="45.5695" lon="5.97619">
        <ele>310.16</ele>
        <time>2011-04-03T11:42:40Z</time>
      </trkpt>
      <trkpt lat="45.56954" lon="5.97625">
        <ele>310.16</ele>
        <time>2011-04-03T11:42:41Z</time>
      </trkpt>
      <trkpt lat="45.57016" lon="5.97755">
        <ele>311.12</ele>
        <time>2011-04-03T11:43:01Z</time>
      </trkpt>
      <trkpt lat="45.57028" lon="5.97782">
        <ele>311.12</ele>
        <time>2011-04-03T11:43:05Z</time>
      </trkpt>
      <trkpt lat="45.5703" lon="5.9779">
        <ele>310.64</ele>
        <time>2011-04-03T11:43:06Z</time>
      </trkpt>
      <trkpt lat="45.57029" lon="5.97798">
        <ele>311.12</ele>
        <time>2011-04-03T11:43:07Z</time>
      </trkpt>
      <trkpt lat="45.57027" lon="5.97806">
        <ele>311.12</ele>
        <time>2011-04-03T11:43:08Z</time>
      </trkpt>
      <trkpt lat="45.57025" lon="5.97813">
        <ele>310.64</ele>
        <time>2011-04-03T11:43:09Z</time>
      </trkpt>
      <trkpt lat="45.57022" lon="5.97819">
        <ele>311.12</ele>
        <time>2011-04-03T11:43:10Z</time>
      </trkpt>
      <trkpt lat="45.57018" lon="5.97826">
        <ele>310.64</ele>
        <time>2011-04-03T11:43:11Z</time>
      </trkpt>
      <trkpt lat="45.57014" lon="5.97833">
        <ele>310.64</ele>
        <time>2011-04-03T11:43:12Z</time>
      </trkpt>
      <trkpt lat="45.56953" lon="5.9793">
        <ele>309.68</ele>
        <time>2011-04-03T11:43:27Z</time>
      </trkpt>
      <trkpt lat="45.56944" lon="5.97943">
        <ele>309.68</ele>
        <time>2011-04-03T11:43:29Z</time>
      </trkpt>
      <trkpt lat="45.56941" lon="5.97951">
        <ele>309.68</ele>
        <time>2011-04-03T11:43:30Z</time>
      </trkpt>
      <trkpt lat="45.5694" lon="5.9796">
        <ele>309.68</ele>
        <time>2011-04-03T11:43:31Z</time>
      </trkpt>
      <trkpt lat="45.56941" lon="5.97968">
        <ele>309.68</ele>
        <time>2011-04-03T11:43:32Z</time>
      </trkpt>
      <trkpt lat="45.56942" lon="5.97977">
        <ele>309.2</ele>
        <time>2011-04-03T11:43:33Z</time>
      </trkpt>
      <trkpt lat="45.56975" lon="5.98084">
        <ele>309.68</ele>
        <time>2011-04-03T11:43:47Z</time>
      </trkpt>
      <trkpt lat="45.56999" lon="5.98162">
        <ele>310.64</ele>
        <time>2011-04-03T11:43:58Z</time>
      </trkpt>
      <trkpt lat="45.56999" lon="5.98168">
        <ele>311.6</ele>
        <time>2011-04-03T11:43:59Z</time>
      </trkpt>
      <trkpt lat="45.57" lon="5.98202">
        <ele>310.64</ele>
        <time>2011-04-03T11:44:09Z</time>
      </trkpt>
      <trkpt lat="45.57" lon="5.98202">
        <ele>311.12</ele>
        <time>2011-04-03T11:44:35Z</time>
      </trkpt>
      <trkpt lat="45.57001" lon="5.98202">
        <ele>311.12</ele>
        <time>2011-04-03T11:45:14Z</time>
      </trkpt>
      <trkpt lat="45.57003" lon="5.98204">
        <ele>311.12</ele>
        <time>2011-04-03T11:45:25Z</time>
      </trkpt>
      <trkpt lat="45.57004" lon="5.98206">
        <ele>311.12</ele>
        <time>2011-04-03T11:45:26Z</time>
      </trkpt>
      <trkpt lat="45.57005" lon="5.98209">
        <ele>311.12</ele>
        <time>2011-04-03T11:45:27Z</time>
      </trkpt>
      <trkpt lat="45.57006" lon="5.98213">
        <ele>311.6</ele>
        <time>2011-04-03T11:45:28Z</time>
      </trkpt>
      <trkpt lat="45.57006" lon="5.98216">
        <ele>311.6</ele>
        <time>2011-04-03T11:45:29Z</time>
      </trkpt>
      <trkpt lat="45.57001" lon="5.98263">
        <ele>313.53</ele>
        <time>2011-04-03T11:45:42Z</time>
      </trkpt>
      <trkpt lat="45.56984" lon="5.98309">
        <ele>316.41</ele>
        <time>2011-04-03T11:45:56Z</time>
      </trkpt>
      <trkpt lat="45.56971" lon="5.98342">
        <ele>318.81</ele>
        <time>2011-04-03T11:46:08Z</time>
      </trkpt>
      <trkpt lat="45.56973" lon="5.98347">
        <ele>319.3</ele>
        <time>2011-04-03T11:46:10Z</time>
      </trkpt>
      <trkpt lat="45.56976" lon="5.98349">
        <ele>319.3</ele>
        <time>2011-04-03T11:46:11Z</time>
      </trkpt>
      <trkpt lat="45.56978" lon="5.9835">
        <ele>319.78</ele>
        <time>2011-04-03T11:46:12Z</time>
      </trkpt>
      <trkpt lat="45.57005" lon="5.98356">
        <ele>322.66</ele>
        <time>2011-04-03T11:46:24Z</time>
      </trkpt>
      <trkpt lat="45.57039" lon="5.98347">
        <ele>326.02</ele>
        <time>2011-04-03T11:46:39Z</time>
      </trkpt>
      <trkpt lat="45.57066" lon="5.9834">
        <ele>328.91</ele>
        <time>2011-04-03T11:46:53Z</time>
      </trkpt>
      <trkpt lat="45.57096" lon="5.9834">
        <ele>332.75</ele>
        <time>2011-04-03T11:47:08Z</time>
      </trkpt>
      <trkpt lat="45.57118" lon="5.98349">
        <ele>336.12</ele>
        <time>2011-04-03T11:47:20Z</time>
      </trkpt>
      <trkpt lat="45.57141" lon="5.98363">
        <ele>338.04</ele>
        <time>2011-04-03T11:47:33Z</time>
      </trkpt>
      <trkpt lat="45.57164" lon="5.98368">
        <ele>341.41</ele>
        <time>2011-04-03T11:47:46Z</time>
      </trkpt>
      <trkpt lat="45.57186" lon="5.9838">
        <ele>344.29</ele>
        <time>2011-04-03T11:47:59Z</time>
      </trkpt>
      <trkpt lat="45.57191" lon="5.98383">
        <ele>345.25</ele>
        <time>2011-04-03T11:48:02Z</time>
      </trkpt>
      <trkpt lat="45.57192" lon="5.98383">
        <ele>345.73</ele>
        <time>2011-04-03T11:48:03Z</time>
      </trkpt>
      <trkpt lat="45.57202" lon="5.9838">
        <ele>346.21</ele>
        <time>2011-04-03T11:48:08Z</time>
      </trkpt>
      <trkpt lat="45.57204" lon="5.98378">
        <ele>346.69</ele>
        <time>2011-04-03T11:48:09Z</time>
      </trkpt>
      <trkpt lat="45.57206" lon="5.98375">
        <ele>346.69</ele>
        <time>2011-04-03T11:48:10Z</time>
      </trkpt>
      <trkpt lat="45.57206" lon="5.98372">
        <ele>346.69</ele>
        <time>2011-04-03T11:48:11Z</time>
      </trkpt>
      <trkpt lat="45.57206" lon="5.98368">
        <ele>347.17</ele>
        <time>2011-04-03T11:48:12Z</time>
      </trkpt>
      <trkpt lat="45.57206" lon="5.98365">
        <ele>347.17</ele>
        <time>2011-04-03T11:48:13Z</time>
      </trkpt>
      <trkpt lat="45.57216" lon="5.98346">
        <ele>349.58</ele>
        <time>2011-04-03T11:48:22Z</time>
      </trkpt>
      <trkpt lat="45.57217" lon="5.98346">
        <ele>350.06</ele>
        <time>2011-04-03T11:48:23Z</time>
      </trkpt>
      <trkpt lat="45.5722" lon="5.98347">
        <ele>350.54</ele>
        <time>2011-04-03T11:48:24Z</time>
      </trkpt>
      <trkpt lat="45.57222" lon="5.98348">
        <ele>350.54</ele>
        <time>2011-04-03T11:48:25Z</time>
      </trkpt>
      <trkpt lat="45.57224" lon="5.98348">
        <ele>350.54</ele>
        <time>2011-04-03T11:48:26Z</time>
      </trkpt>
      <trkpt lat="45.57245" lon="5.98345">
        <ele>353.9</ele>
        <time>2011-04-03T11:48:38Z</time>
      </trkpt>
      <trkpt lat="45.57271" lon="5.98325">
        <ele>356.79</ele>
        <time>2011-04-03T11:48:53Z</time>
      </trkpt>
      <trkpt lat="45.57275" lon="5.98325">
        <ele>357.27</ele>
        <time>2011-04-03T11:48:55Z</time>
      </trkpt>
      <trkpt lat="45.57293" lon="5.98349">
        <ele>360.15</ele>
        <time>2011-04-03T11:49:10Z</time>
      </trkpt>
      <trkpt lat="45.5728" lon="5.98377">
        <ele>363.04</ele>
        <time>2011-04-03T11:49:24Z</time>
      </trkpt>
      <trkpt lat="45.57248" lon="5.98389">
        <ele>365.44</ele>
        <time>2011-04-03T11:49:41Z</time>
      </trkpt>
      <trkpt lat="45.57237" lon="5.98399">
        <ele>366.88</ele>
        <time>2011-04-03T11:49:48Z</time>
      </trkpt>
      <trkpt lat="45.57237" lon="5.98403">
        <ele>366.88</ele>
        <time>2011-04-03T11:49:49Z</time>
      </trkpt>
      <trkpt lat="45.57237" lon="5.98407">
        <ele>367.36</ele>
        <time>2011-04-03T11:49:50Z</time>
      </trkpt>
      <trkpt lat="45.57237" lon="5.9841">
        <ele>367.36</ele>
        <time>2011-04-03T11:49:51Z</time>
      </trkpt>
      <trkpt lat="45.57239" lon="5.98412">
        <ele>367.84</ele>
        <time>2011-04-03T11:49:52Z</time>
      </trkpt>
      <trkpt lat="45.5724" lon="5.98414">
        <ele>367.84</ele>
        <time>2011-04-03T11:49:53Z</time>
      </trkpt>
      <trkpt lat="45.57243" lon="5.98415">
        <ele>368.32</ele>
        <time>2011-04-03T11:49:54Z</time>
      </trkpt>
      <trkpt lat="45.57245" lon="5.98416">
        <ele>368.32</ele>
        <time>2011-04-03T11:49:55Z</time>
      </trkpt>
      <trkpt lat="45.57247" lon="5.98416">
        <ele>368.8</ele>
        <time>2011-04-03T11:49:56Z</time>
      </trkpt>
      <trkpt lat="45.5725" lon="5.98417">
        <ele>368.8</ele>
        <time>2011-04-03T11:49:57Z</time>
      </trkpt>
      <trkpt lat="45.57252" lon="5.98417">
        <ele>369.28</ele>
        <time>2011-04-03T11:49:58Z</time>
      </trkpt>
      <trkpt lat="45.57254" lon="5.98418">
        <ele>369.28</ele>
        <time>2011-04-03T11:49:59Z</time>
      </trkpt>
      <trkpt lat="45.57257" lon="5.98418">
        <ele>369.76</ele>
        <time>2011-04-03T11:50:00Z</time>
      </trkpt>
      <trkpt lat="45.57289" lon="5.9842">
        <ele>372.65</ele>
        <time>2011-04-03T11:50:14Z</time>
      </trkpt>
      <trkpt lat="45.57317" lon="5.98425">
        <ele>376.01</ele>
        <time>2011-04-03T11:50:27Z</time>
      </trkpt>
      <trkpt lat="45.57343" lon="5.98415">
        <ele>378.9</ele>
        <time>2011-04-03T11:50:41Z</time>
      </trkpt>
      <trkpt lat="45.57356" lon="5.98411">
        <ele>380.82</ele>
        <time>2011-04-03T11:50:55Z</time>
      </trkpt>
      <trkpt lat="45.57352" lon="5.98414">
        <ele>381.78</ele>
        <time>2011-04-03T11:50:56Z</time>
      </trkpt>
      <trkpt lat="45.57335" lon="5.98433">
        <ele>381.78</ele>
        <time>2011-04-03T11:51:03Z</time>
      </trkpt>
      <trkpt lat="45.57304" lon="5.98459">
        <ele>383.22</ele>
        <time>2011-04-03T11:51:17Z</time>
      </trkpt>
      <trkpt lat="45.57275" lon="5.98471">
        <ele>385.15</ele>
        <time>2011-04-03T11:51:31Z</time>
      </trkpt>
      <trkpt lat="45.57248" lon="5.9848">
        <ele>387.07</ele>
        <time>2011-04-03T11:51:43Z</time>
      </trkpt>
      <trkpt lat="45.57211" lon="5.98496">
        <ele>388.99</ele>
        <time>2011-04-03T11:51:58Z</time>
      </trkpt>
      <trkpt lat="45.57174" lon="5.98513">
        <ele>390.43</ele>
        <time>2011-04-03T11:52:11Z</time>
      </trkpt>
      <trkpt lat="45.57136" lon="5.98514">
        <ele>392.36</ele>
        <time>2011-04-03T11:52:26Z</time>
      </trkpt>
      <trkpt lat="45.57097" lon="5.98493">
        <ele>393.8</ele>
        <time>2011-04-03T11:52:40Z</time>
      </trkpt>
      <trkpt lat="45.57039" lon="5.98501">
        <ele>393.32</ele>
        <time>2011-04-03T11:52:54Z</time>
      </trkpt>
      <trkpt lat="45.57033" lon="5.98501">
        <ele>392.84</ele>
        <time>2011-04-03T11:52:55Z</time>
      </trkpt>
      <trkpt lat="45.57017" lon="5.98503">
        <ele>392.36</ele>
        <time>2011-04-03T11:52:58Z</time>
      </trkpt>
      <trkpt lat="45.57011" lon="5.98505">
        <ele>392.36</ele>
        <time>2011-04-03T11:52:59Z</time>
      </trkpt>
      <trkpt lat="45.57005" lon="5.98509">
        <ele>391.87</ele>
        <time>2011-04-03T11:53:00Z</time>
      </trkpt>
      <trkpt lat="45.57" lon="5.98514">
        <ele>391.87</ele>
        <time>2011-04-03T11:53:01Z</time>
      </trkpt>
      <trkpt lat="45.56994" lon="5.9852">
        <ele>390.91</ele>
        <time>2011-04-03T11:53:02Z</time>
      </trkpt>
      <trkpt lat="45.5698" lon="5.98532">
        <ele>389.95</ele>
        <time>2011-04-03T11:53:04Z</time>
      </trkpt>
      <trkpt lat="45.56936" lon="5.98561">
        <ele>388.51</ele>
        <time>2011-04-03T11:53:10Z</time>
      </trkpt>
      <trkpt lat="45.56923" lon="5.9857">
        <ele>388.03</ele>
        <time>2011-04-03T11:53:12Z</time>
      </trkpt>
      <trkpt lat="45.56886" lon="5.9859">
        <ele>389.47</ele>
        <time>2011-04-03T11:53:18Z</time>
      </trkpt>
      <trkpt lat="45.56881" lon="5.98591">
        <ele>389.95</ele>
        <time>2011-04-03T11:53:19Z</time>
      </trkpt>
      <trkpt lat="45.56876" lon="5.98591">
        <ele>389.95</ele>
        <time>2011-04-03T11:53:20Z</time>
      </trkpt>
      <trkpt lat="45.56863" lon="5.98588">
        <ele>390.43</ele>
        <time>2011-04-03T11:53:23Z</time>
      </trkpt>
      <trkpt lat="45.56858" lon="5.98586">
        <ele>389.95</ele>
        <time>2011-04-03T11:53:24Z</time>
      </trkpt>
      <trkpt lat="45.56855" lon="5.98586">
        <ele>390.43</ele>
        <time>2011-04-03T11:53:25Z</time>
      </trkpt>
      <trkpt lat="45.56851" lon="5.98584">
        <ele>390.91</ele>
        <time>2011-04-03T11:53:26Z</time>
      </trkpt>
      <trkpt lat="45.56847" lon="5.98582">
        <ele>390.91</ele>
        <time>2011-04-03T11:53:27Z</time>
      </trkpt>
      <trkpt lat="45.56844" lon="5.98581">
        <ele>391.39</ele>
        <time>2011-04-03T11:53:28Z</time>
      </trkpt>
      <trkpt lat="45.5684" lon="5.9858">
        <ele>391.39</ele>
        <time>2011-04-03T11:53:29Z</time>
      </trkpt>
      <trkpt lat="45.56836" lon="5.98579">
        <ele>391.87</ele>
        <time>2011-04-03T11:53:30Z</time>
      </trkpt>
      <trkpt lat="45.56784" lon="5.98568">
        <ele>393.32</ele>
        <time>2011-04-03T11:53:46Z</time>
      </trkpt>
      <trkpt lat="45.56731" lon="5.98549">
        <ele>393.32</ele>
        <time>2011-04-03T11:54:00Z</time>
      </trkpt>
      <trkpt lat="45.56725" lon="5.98548">
        <ele>392.84</ele>
        <time>2011-04-03T11:54:01Z</time>
      </trkpt>
      <trkpt lat="45.5672" lon="5.98548">
        <ele>392.84</ele>
        <time>2011-04-03T11:54:02Z</time>
      </trkpt>
      <trkpt lat="45.56714" lon="5.98549">
        <ele>392.36</ele>
        <time>2011-04-03T11:54:03Z</time>
      </trkpt>
      <trkpt lat="45.56709" lon="5.9855">
        <ele>391.87</ele>
        <time>2011-04-03T11:54:04Z</time>
      </trkpt>
      <trkpt lat="45.56702" lon="5.98552">
        <ele>390.91</ele>
        <time>2011-04-03T11:54:05Z</time>
      </trkpt>
      <trkpt lat="45.56696" lon="5.98555">
        <ele>390.91</ele>
        <time>2011-04-03T11:54:06Z</time>
      </trkpt>
      <trkpt lat="45.56634" lon="5.98578">
        <ele>389.47</ele>
        <time>2011-04-03T11:54:16Z</time>
      </trkpt>
      <trkpt lat="45.56628" lon="5.98579">
        <ele>389.47</ele>
        <time>2011-04-03T11:54:17Z</time>
      </trkpt>
      <trkpt lat="45.56623" lon="5.9858">
        <ele>389.47</ele>
        <time>2011-04-03T11:54:18Z</time>
      </trkpt>
      <trkpt lat="45.56618" lon="5.9858">
        <ele>389.47</ele>
        <time>2011-04-03T11:54:19Z</time>
      </trkpt>
      <trkpt lat="45.56613" lon="5.98581">
        <ele>389.47</ele>
        <time>2011-04-03T11:54:20Z</time>
      </trkpt>
      <trkpt lat="45.56593" lon="5.98579">
        <ele>388.99</ele>
        <time>2011-04-03T11:54:24Z</time>
      </trkpt>
      <trkpt lat="45.56588" lon="5.98577">
        <ele>389.95</ele>
        <time>2011-04-03T11:54:25Z</time>
      </trkpt>
      <trkpt lat="45.56583" lon="5.98575">
        <ele>389.95</ele>
        <time>2011-04-03T11:54:26Z</time>
      </trkpt>
      <trkpt lat="45.5658" lon="5.98572">
        <ele>389.95</ele>
        <time>2011-04-03T11:54:27Z</time>
      </trkpt>
      <trkpt lat="45.56575" lon="5.98569">
        <ele>389.95</ele>
        <time>2011-04-03T11:54:28Z</time>
      </trkpt>
      <trkpt lat="45.56572" lon="5.98567">
        <ele>389.95</ele>
        <time>2011-04-03T11:54:29Z</time>
      </trkpt>
      <trkpt lat="45.56515" lon="5.98554">
        <ele>391.87</ele>
        <time>2011-04-03T11:54:44Z</time>
      </trkpt>
      <trkpt lat="45.56466" lon="5.98578">
        <ele>392.84</ele>
        <time>2011-04-03T11:54:58Z</time>
      </trkpt>
      <trkpt lat="45.56458" lon="5.98583">
        <ele>392.84</ele>
        <time>2011-04-03T11:55:00Z</time>
      </trkpt>
      <trkpt lat="45.56449" lon="5.98589">
        <ele>392.36</ele>
        <time>2011-04-03T11:55:02Z</time>
      </trkpt>
      <trkpt lat="45.56444" lon="5.98592">
        <ele>392.36</ele>
        <time>2011-04-03T11:55:03Z</time>
      </trkpt>
      <trkpt lat="45.56422" lon="5.98602">
        <ele>389.95</ele>
        <time>2011-04-03T11:55:07Z</time>
      </trkpt>
      <trkpt lat="45.56387" lon="5.98619">
        <ele>385.63</ele>
        <time>2011-04-03T11:55:12Z</time>
      </trkpt>
      <trkpt lat="45.56356" lon="5.98629">
        <ele>382.26</ele>
        <time>2011-04-03T11:55:16Z</time>
      </trkpt>
      <trkpt lat="45.56342" lon="5.98632">
        <ele>380.82</ele>
        <time>2011-04-03T11:55:18Z</time>
      </trkpt>
      <trkpt lat="45.56335" lon="5.98633">
        <ele>379.38</ele>
        <time>2011-04-03T11:55:19Z</time>
      </trkpt>
      <trkpt lat="45.56321" lon="5.98634">
        <ele>376.49</ele>
        <time>2011-04-03T11:55:21Z</time>
      </trkpt>
      <trkpt lat="45.56302" lon="5.98635">
        <ele>372.65</ele>
        <time>2011-04-03T11:55:24Z</time>
      </trkpt>
      <trkpt lat="45.56294" lon="5.98639">
        <ele>372.17</ele>
        <time>2011-04-03T11:55:25Z</time>
      </trkpt>
      <trkpt lat="45.5626" lon="5.98658">
        <ele>368.32</ele>
        <time>2011-04-03T11:55:29Z</time>
      </trkpt>
      <trkpt lat="45.56245" lon="5.98667">
        <ele>369.76</ele>
        <time>2011-04-03T11:55:31Z</time>
      </trkpt>
      <trkpt lat="45.56241" lon="5.98673">
        <ele>369.76</ele>
        <time>2011-04-03T11:55:32Z</time>
      </trkpt>
      <trkpt lat="45.56237" lon="5.98681">
        <ele>369.76</ele>
        <time>2011-04-03T11:55:33Z</time>
      </trkpt>
      <trkpt lat="45.56233" lon="5.98688">
        <ele>369.28</ele>
        <time>2011-04-03T11:55:34Z</time>
      </trkpt>
      <trkpt lat="45.5623" lon="5.98695">
        <ele>368.8</ele>
        <time>2011-04-03T11:55:35Z</time>
      </trkpt>
      <trkpt lat="45.56223" lon="5.98707">
        <ele>368.8</ele>
        <time>2011-04-03T11:55:37Z</time>
      </trkpt>
      <trkpt lat="45.56219" lon="5.98713">
        <ele>368.8</ele>
        <time>2011-04-03T11:55:38Z</time>
      </trkpt>
      <trkpt lat="45.56208" lon="5.98723">
        <ele>367.84</ele>
        <time>2011-04-03T11:55:40Z</time>
      </trkpt>
      <trkpt lat="45.56204" lon="5.98728">
        <ele>368.32</ele>
        <time>2011-04-03T11:55:41Z</time>
      </trkpt>
      <trkpt lat="45.56199" lon="5.98732">
        <ele>368.32</ele>
        <time>2011-04-03T11:55:42Z</time>
      </trkpt>
      <trkpt lat="45.56194" lon="5.98734">
        <ele>368.8</ele>
        <time>2011-04-03T11:55:43Z</time>
      </trkpt>
      <trkpt lat="45.56189" lon="5.98736">
        <ele>368.32</ele>
        <time>2011-04-03T11:55:44Z</time>
      </trkpt>
      <trkpt lat="45.56184" lon="5.98738">
        <ele>368.32</ele>
        <time>2011-04-03T11:55:45Z</time>
      </trkpt>
      <trkpt lat="45.5618" lon="5.9874">
        <ele>368.32</ele>
        <time>2011-04-03T11:55:46Z</time>
      </trkpt>
      <trkpt lat="45.56175" lon="5.98741">
        <ele>367.84</ele>
        <time>2011-04-03T11:55:47Z</time>
      </trkpt>
      <trkpt lat="45.56171" lon="5.98742">
        <ele>368.32</ele>
        <time>2011-04-03T11:55:48Z</time>
      </trkpt>
      <trkpt lat="45.56166" lon="5.98743">
        <ele>367.36</ele>
        <time>2011-04-03T11:55:49Z</time>
      </trkpt>
      <trkpt lat="45.5616" lon="5.98743">
        <ele>366.88</ele>
        <time>2011-04-03T11:55:50Z</time>
      </trkpt>
      <trkpt lat="45.56135" lon="5.98738">
        <ele>365.92</ele>
        <time>2011-04-03T11:55:55Z</time>
      </trkpt>
      <trkpt lat="45.5613" lon="5.98739">
        <ele>365.44</ele>
        <time>2011-04-03T11:55:56Z</time>
      </trkpt>
      <trkpt lat="45.56125" lon="5.9874">
        <ele>365.44</ele>
        <time>2011-04-03T11:55:57Z</time>
      </trkpt>
      <trkpt lat="45.56118" lon="5.98742">
        <ele>364.48</ele>
        <time>2011-04-03T11:55:58Z</time>
      </trkpt>
      <trkpt lat="45.56112" lon="5.98745">
        <ele>364.48</ele>
        <time>2011-04-03T11:55:59Z</time>
      </trkpt>
      <trkpt lat="45.56053" lon="5.98774">
        <ele>364.96</ele>
        <time>2011-04-03T11:56:13Z</time>
      </trkpt>
      <trkpt lat="45.56029" lon="5.98787">
        <ele>366.88</ele>
        <time>2011-04-03T11:56:26Z</time>
      </trkpt>
      <trkpt lat="45.56026" lon="5.98789">
        <ele>368.32</ele>
        <time>2011-04-03T11:56:28Z</time>
      </trkpt>
      <trkpt lat="45.56025" lon="5.98792">
        <ele>368.32</ele>
        <time>2011-04-03T11:56:29Z</time>
      </trkpt>
      <trkpt lat="45.56025" lon="5.98794">
        <ele>368.8</ele>
        <time>2011-04-03T11:56:30Z</time>
      </trkpt>
      <trkpt lat="45.56025" lon="5.98797">
        <ele>368.8</ele>
        <time>2011-04-03T11:56:31Z</time>
      </trkpt>
      <trkpt lat="45.56025" lon="5.98799">
        <ele>369.28</ele>
        <time>2011-04-03T11:56:32Z</time>
      </trkpt>
      <trkpt lat="45.56026" lon="5.98801">
        <ele>368.8</ele>
        <time>2011-04-03T11:56:33Z</time>
      </trkpt>
      <trkpt lat="45.56027" lon="5.98802">
        <ele>369.76</ele>
        <time>2011-04-03T11:56:34Z</time>
      </trkpt>
      <trkpt lat="45.56028" lon="5.98805">
        <ele>370.73</ele>
        <time>2011-04-03T11:56:36Z</time>
      </trkpt>
      <trkpt lat="45.56029" lon="5.98806">
        <ele>370.73</ele>
        <time>2011-04-03T11:56:37Z</time>
      </trkpt>
      <trkpt lat="45.56031" lon="5.9881">
        <ele>371.69</ele>
        <time>2011-04-03T11:56:40Z</time>
      </trkpt>
      <trkpt lat="45.56033" lon="5.98811">
        <ele>372.17</ele>
        <time>2011-04-03T11:56:50Z</time>
      </trkpt>
      <trkpt lat="45.56035" lon="5.98812">
        <ele>373.13</ele>
        <time>2011-04-03T11:56:58Z</time>
      </trkpt>
      <trkpt lat="45.56036" lon="5.98813">
        <ele>373.13</ele>
        <time>2011-04-03T11:56:59Z</time>
      </trkpt>
      <trkpt lat="45.56038" lon="5.98815">
        <ele>373.61</ele>
        <time>2011-04-03T11:57:10Z</time>
      </trkpt>
      <trkpt lat="45.56039" lon="5.98817">
        <ele>374.09</ele>
        <time>2011-04-03T11:57:29Z</time>
      </trkpt>
      <trkpt lat="45.56039" lon="5.98818">
        <ele>374.09</ele>
        <time>2011-04-03T11:57:30Z</time>
      </trkpt>
      <trkpt lat="45.56041" lon="5.9882">
        <ele>375.05</ele>
        <time>2011-04-03T11:57:32Z</time>
      </trkpt>
      <trkpt lat="45.56051" lon="5.98827">
        <ele>376.97</ele>
        <time>2011-04-03T11:57:44Z</time>
      </trkpt>
      <trkpt lat="45.56057" lon="5.9883">
        <ele>377.94</ele>
        <time>2011-04-03T11:57:58Z</time>
      </trkpt>
      <trkpt lat="45.56058" lon="5.98832">
        <ele>378.42</ele>
        <time>2011-04-03T11:57:59Z</time>
      </trkpt>
      <trkpt lat="45.5606" lon="5.98833">
        <ele>378.42</ele>
        <time>2011-04-03T11:58:00Z</time>
      </trkpt>
      <trkpt lat="45.56078" lon="5.98842">
        <ele>380.82</ele>
        <time>2011-04-03T11:58:14Z</time>
      </trkpt>
      <trkpt lat="45.56099" lon="5.98853">
        <ele>383.22</ele>
        <time>2011-04-03T11:58:30Z</time>
      </trkpt>
      <trkpt lat="45.56118" lon="5.98863">
        <ele>386.59</ele>
        <time>2011-04-03T11:58:45Z</time>
      </trkpt>
      <trkpt lat="45.56133" lon="5.98865">
        <ele>388.03</ele>
        <time>2011-04-03T11:58:56Z</time>
      </trkpt>
      <trkpt lat="45.56134" lon="5.98866">
        <ele>388.51</ele>
        <time>2011-04-03T11:58:57Z</time>
      </trkpt>
      <trkpt lat="45.56149" lon="5.98864">
        <ele>391.39</ele>
        <time>2011-04-03T11:59:10Z</time>
      </trkpt>
      <trkpt lat="45.56151" lon="5.98863">
        <ele>391.39</ele>
        <time>2011-04-03T11:59:12Z</time>
      </trkpt>
      <trkpt lat="45.56167" lon="5.9886">
        <ele>394.76</ele>
        <time>2011-04-03T11:59:26Z</time>
      </trkpt>
      <trkpt lat="45.56173" lon="5.9886">
        <ele>396.2</ele>
        <time>2011-04-03T11:59:33Z</time>
      </trkpt>
      <trkpt lat="45.56175" lon="5.9886">
        <ele>396.68</ele>
        <time>2011-04-03T11:59:34Z</time>
      </trkpt>
      <trkpt lat="45.56176" lon="5.98861">
        <ele>396.68</ele>
        <time>2011-04-03T11:59:35Z</time>
      </trkpt>
      <trkpt lat="45.56188" lon="5.98863">
        <ele>399.57</ele>
        <time>2011-04-03T11:59:47Z</time>
      </trkpt>
      <trkpt lat="45.56199" lon="5.98866">
        <ele>402.45</ele>
        <time>2011-04-03T11:59:59Z</time>
      </trkpt>
      <trkpt lat="45.562" lon="5.98867">
        <ele>402.45</ele>
        <time>2011-04-03T12:00:00Z</time>
      </trkpt>
      <trkpt lat="45.56204" lon="5.98865">
        <ele>403.41</ele>
        <time>2011-04-03T12:00:05Z</time>
      </trkpt>
      <trkpt lat="45.56208" lon="5.98866">
        <ele>403.89</ele>
        <time>2011-04-03T12:00:08Z</time>
      </trkpt>
      <trkpt lat="45.56219" lon="5.98868">
        <ele>407.26</ele>
        <time>2011-04-03T12:00:20Z</time>
      </trkpt>
      <trkpt lat="45.56232" lon="5.98863">
        <ele>409.66</ele>
        <time>2011-04-03T12:00:34Z</time>
      </trkpt>
      <trkpt lat="45.5624" lon="5.98856">
        <ele>410.62</ele>
        <time>2011-04-03T12:00:44Z</time>
      </trkpt>
      <trkpt lat="45.5625" lon="5.98845">
        <ele>413.02</ele>
        <time>2011-04-03T12:00:57Z</time>
      </trkpt>
      <trkpt lat="45.56252" lon="5.98844">
        <ele>413.5</ele>
        <time>2011-04-03T12:00:59Z</time>
      </trkpt>
      <trkpt lat="45.56257" lon="5.98839">
        <ele>414.47</ele>
        <time>2011-04-03T12:01:05Z</time>
      </trkpt>
      <trkpt lat="45.5626" lon="5.9884">
        <ele>415.43</ele>
        <time>2011-04-03T12:01:08Z</time>
      </trkpt>
      <trkpt lat="45.5626" lon="5.98842">
        <ele>415.43</ele>
        <time>2011-04-03T12:01:09Z</time>
      </trkpt>
      <trkpt lat="45.56255" lon="5.98857">
        <ele>417.35</ele>
        <time>2011-04-03T12:01:19Z</time>
      </trkpt>
      <trkpt lat="45.56254" lon="5.98859">
        <ele>417.35</ele>
        <time>2011-04-03T12:01:20Z</time>
      </trkpt>
      <trkpt lat="45.56253" lon="5.9886">
        <ele>417.35</ele>
        <time>2011-04-03T12:01:21Z</time>
      </trkpt>
      <trkpt lat="45.56251" lon="5.98868">
        <ele>417.83</ele>
        <time>2011-04-03T12:01:25Z</time>
      </trkpt>
      <trkpt lat="45.56242" lon="5.98887">
        <ele>420.23</ele>
        <time>2011-04-03T12:01:39Z</time>
      </trkpt>
      <trkpt lat="45.56241" lon="5.98889">
        <ele>420.71</ele>
        <time>2011-04-03T12:01:40Z</time>
      </trkpt>
      <trkpt lat="45.56235" lon="5.98898">
        <ele>422.16</ele>
        <time>2011-04-03T12:01:47Z</time>
      </trkpt>
      <trkpt lat="45.56222" lon="5.98914">
        <ele>424.56</ele>
        <time>2011-04-03T12:02:01Z</time>
      </trkpt>
      <trkpt lat="45.5621" lon="5.98928">
        <ele>426.48</ele>
        <time>2011-04-03T12:02:14Z</time>
      </trkpt>
      <trkpt lat="45.5619" lon="5.9894">
        <ele>427.44</ele>
        <time>2011-04-03T12:02:28Z</time>
      </trkpt>
      <trkpt lat="45.5617" lon="5.98958">
        <ele>429.37</ele>
        <time>2011-04-03T12:02:41Z</time>
      </trkpt>
      <trkpt lat="45.56147" lon="5.98972">
        <ele>432.73</ele>
        <time>2011-04-03T12:02:56Z</time>
      </trkpt>
      <trkpt lat="45.56141" lon="5.98976">
        <ele>433.21</ele>
        <time>2011-04-03T12:03:02Z</time>
      </trkpt>
      <trkpt lat="45.56128" lon="5.98982">
        <ele>435.13</ele>
        <time>2011-04-03T12:03:14Z</time>
      </trkpt>
      <trkpt lat="45.56126" lon="5.98982">
        <ele>435.13</ele>
        <time>2011-04-03T12:03:15Z</time>
      </trkpt>
      <trkpt lat="45.56125" lon="5.98984">
        <ele>435.61</ele>
        <time>2011-04-03T12:03:16Z</time>
      </trkpt>
      <trkpt lat="45.56124" lon="5.98985">
        <ele>435.61</ele>
        <time>2011-04-03T12:03:17Z</time>
      </trkpt>
      <trkpt lat="45.56123" lon="5.98986">
        <ele>436.1</ele>
        <time>2011-04-03T12:03:18Z</time>
      </trkpt>
      <trkpt lat="45.56121" lon="5.98987">
        <ele>436.1</ele>
        <time>2011-04-03T12:03:19Z</time>
      </trkpt>
      <trkpt lat="45.56106" lon="5.99002">
        <ele>438.98</ele>
        <time>2011-04-03T12:03:34Z</time>
      </trkpt>
      <trkpt lat="45.56104" lon="5.99008">
        <ele>439.94</ele>
        <time>2011-04-03T12:03:38Z</time>
      </trkpt>
      <trkpt lat="45.56103" lon="5.99009">
        <ele>440.42</ele>
        <time>2011-04-03T12:03:39Z</time>
      </trkpt>
      <trkpt lat="45.56094" lon="5.99026">
        <ele>443.31</ele>
        <time>2011-04-03T12:03:52Z</time>
      </trkpt>
      <trkpt lat="45.56088" lon="5.99037">
        <ele>446.67</ele>
        <time>2011-04-03T12:04:04Z</time>
      </trkpt>
      <trkpt lat="45.56085" lon="5.99042">
        <ele>447.15</ele>
        <time>2011-04-03T12:04:08Z</time>
      </trkpt>
      <trkpt lat="45.56077" lon="5.99052">
        <ele>449.07</ele>
        <time>2011-04-03T12:04:19Z</time>
      </trkpt>
      <trkpt lat="45.56075" lon="5.99054">
        <ele>449.55</ele>
        <time>2011-04-03T12:04:21Z</time>
      </trkpt>
      <trkpt lat="45.56074" lon="5.99056">
        <ele>450.03</ele>
        <time>2011-04-03T12:04:23Z</time>
      </trkpt>
      <trkpt lat="45.5606" lon="5.99068">
        <ele>451.48</ele>
        <time>2011-04-03T12:04:37Z</time>
      </trkpt>
      <trkpt lat="45.56059" lon="5.99069">
        <ele>451.48</ele>
        <time>2011-04-03T12:04:38Z</time>
      </trkpt>
      <trkpt lat="45.56057" lon="5.99069">
        <ele>451.48</ele>
        <time>2011-04-03T12:04:39Z</time>
      </trkpt>
      <trkpt lat="45.56056" lon="5.9907">
        <ele>451.96</ele>
        <time>2011-04-03T12:04:40Z</time>
      </trkpt>
      <trkpt lat="45.56055" lon="5.99072">
        <ele>451.48</ele>
        <time>2011-04-03T12:04:41Z</time>
      </trkpt>
      <trkpt lat="45.56042" lon="5.99087">
        <ele>452.92</ele>
        <time>2011-04-03T12:04:54Z</time>
      </trkpt>
      <trkpt lat="45.56034" lon="5.99103">
        <ele>456.28</ele>
        <time>2011-04-03T12:05:08Z</time>
      </trkpt>
      <trkpt lat="45.56033" lon="5.99106">
        <ele>456.28</ele>
        <time>2011-04-03T12:05:10Z</time>
      </trkpt>
      <trkpt lat="45.56033" lon="5.99107">
        <ele>456.28</ele>
        <time>2011-04-03T12:05:11Z</time>
      </trkpt>
      <trkpt lat="45.56031" lon="5.99112">
        <ele>458.21</ele>
        <time>2011-04-03T12:05:14Z</time>
      </trkpt>
      <trkpt lat="45.56031" lon="5.99113">
        <ele>458.21</ele>
        <time>2011-04-03T12:05:15Z</time>
      </trkpt>
      <trkpt lat="45.56031" lon="5.99115">
        <ele>458.21</ele>
        <time>2011-04-03T12:05:16Z</time>
      </trkpt>
      <trkpt lat="45.56023" lon="5.99133">
        <ele>461.09</ele>
        <time>2011-04-03T12:05:29Z</time>
      </trkpt>
      <trkpt lat="45.56015" lon="5.99154">
        <ele>463.97</ele>
        <time>2011-04-03T12:05:45Z</time>
      </trkpt>
      <trkpt lat="45.55992" lon="5.99173">
        <ele>462.53</ele>
        <time>2011-04-03T12:05:57Z</time>
      </trkpt>
      <trkpt lat="45.55988" lon="5.99177">
        <ele>463.01</ele>
        <time>2011-04-03T12:05:58Z</time>
      </trkpt>
      <trkpt lat="45.55972" lon="5.99204">
        <ele>464.45</ele>
        <time>2011-04-03T12:06:08Z</time>
      </trkpt>
      <trkpt lat="45.55963" lon="5.99234">
        <ele>466.86</ele>
        <time>2011-04-03T12:06:21Z</time>
      </trkpt>
      <trkpt lat="45.55954" lon="5.99267">
        <ele>467.34</ele>
        <time>2011-04-03T12:06:35Z</time>
      </trkpt>
      <trkpt lat="45.55948" lon="5.99293">
        <ele>466.86</ele>
        <time>2011-04-03T12:06:46Z</time>
      </trkpt>
      <trkpt lat="45.55948" lon="5.99291">
        <ele>466.86</ele>
        <time>2011-04-03T12:07:13Z</time>
      </trkpt>
      <trkpt lat="45.55949" lon="5.99291">
        <ele>420.23</ele>
        <time>2011-04-03T12:07:33Z</time>
      </trkpt>
      <trkpt lat="45.55949" lon="5.99291">
        <ele>420.23</ele>
        <time>2011-04-03T12:07:34Z</time>
      </trkpt>
      <trkpt lat="45.55949" lon="5.99291">
        <ele>418.79</ele>
        <time>2011-04-03T12:07:37Z</time>
      </trkpt>
      <trkpt lat="45.55949" lon="5.99293">
        <ele>419.27</ele>
        <time>2011-04-03T12:07:45Z</time>
      </trkpt>
      <trkpt lat="45.55951" lon="5.99295">
        <ele>419.27</ele>
        <time>2011-04-03T12:07:46Z</time>
      </trkpt>
      <trkpt lat="45.55952" lon="5.99296">
        <ele>419.27</ele>
        <time>2011-04-03T12:07:47Z</time>
      </trkpt>
      <trkpt lat="45.5596" lon="5.99309">
        <ele>421.68</ele>
        <time>2011-04-03T12:07:58Z</time>
      </trkpt>
      <trkpt lat="45.55964" lon="5.99319">
        <ele>423.6</ele>
        <time>2011-04-03T12:08:05Z</time>
      </trkpt>
      <trkpt lat="45.55964" lon="5.9932">
        <ele>423.6</ele>
        <time>2011-04-03T12:08:06Z</time>
      </trkpt>
      <trkpt lat="45.55967" lon="5.99328">
        <ele>424.56</ele>
        <time>2011-04-03T12:08:11Z</time>
      </trkpt>
      <trkpt lat="45.55967" lon="5.99329">
        <ele>425.04</ele>
        <time>2011-04-03T12:08:12Z</time>
      </trkpt>
      <trkpt lat="45.55968" lon="5.9933">
        <ele>425.04</ele>
        <time>2011-04-03T12:08:13Z</time>
      </trkpt>
      <trkpt lat="45.55969" lon="5.99331">
        <ele>425.52</ele>
        <time>2011-04-03T12:08:14Z</time>
      </trkpt>
      <trkpt lat="45.5597" lon="5.99332">
        <ele>426</ele>
        <time>2011-04-03T12:08:15Z</time>
      </trkpt>
      <trkpt lat="45.55972" lon="5.99332">
        <ele>425.52</ele>
        <time>2011-04-03T12:08:16Z</time>
      </trkpt>
      <trkpt lat="45.55974" lon="5.99336">
        <ele>426.48</ele>
        <time>2011-04-03T12:08:19Z</time>
      </trkpt>
      <trkpt lat="45.55974" lon="5.99337">
        <ele>426.48</ele>
        <time>2011-04-03T12:08:20Z</time>
      </trkpt>
      <trkpt lat="45.55975" lon="5.99339">
        <ele>426.96</ele>
        <time>2011-04-03T12:08:21Z</time>
      </trkpt>
      <trkpt lat="45.55976" lon="5.9934">
        <ele>427.44</ele>
        <time>2011-04-03T12:08:22Z</time>
      </trkpt>
      <trkpt lat="45.55977" lon="5.99341">
        <ele>427.44</ele>
        <time>2011-04-03T12:08:23Z</time>
      </trkpt>
      <trkpt lat="45.55977" lon="5.99342">
        <ele>427.44</ele>
        <time>2011-04-03T12:08:24Z</time>
      </trkpt>
      <trkpt lat="45.55984" lon="5.99352">
        <ele>429.85</ele>
        <time>2011-04-03T12:08:33Z</time>
      </trkpt>
      <trkpt lat="45.55985" lon="5.99353">
        <ele>429.85</ele>
        <time>2011-04-03T12:08:34Z</time>
      </trkpt>
      <trkpt lat="45.55985" lon="5.99354">
        <ele>429.85</ele>
        <time>2011-04-03T12:08:35Z</time>
      </trkpt>
      <trkpt lat="45.55987" lon="5.99358">
        <ele>430.81</ele>
        <time>2011-04-03T12:08:38Z</time>
      </trkpt>
      <trkpt lat="45.5599" lon="5.99362">
        <ele>431.29</ele>
        <time>2011-04-03T12:08:43Z</time>
      </trkpt>
      <trkpt lat="45.55991" lon="5.9937">
        <ele>432.25</ele>
        <time>2011-04-03T12:08:48Z</time>
      </trkpt>
      <trkpt lat="45.55991" lon="5.99371">
        <ele>432.25</ele>
        <time>2011-04-03T12:08:49Z</time>
      </trkpt>
      <trkpt lat="45.55989" lon="5.99379">
        <ele>433.69</ele>
        <time>2011-04-03T12:08:55Z</time>
      </trkpt>
      <trkpt lat="45.55988" lon="5.99381">
        <ele>433.69</ele>
        <time>2011-04-03T12:08:56Z</time>
      </trkpt>
      <trkpt lat="45.55988" lon="5.99383">
        <ele>433.69</ele>
        <time>2011-04-03T12:08:57Z</time>
      </trkpt>
      <trkpt lat="45.55988" lon="5.99384">
        <ele>433.69</ele>
        <time>2011-04-03T12:08:58Z</time>
      </trkpt>
      <trkpt lat="45.55981" lon="5.99401">
        <ele>435.13</ele>
        <time>2011-04-03T12:09:12Z</time>
      </trkpt>
      <trkpt lat="45.55977" lon="5.99411">
        <ele>436.58</ele>
        <time>2011-04-03T12:09:20Z</time>
      </trkpt>
      <trkpt lat="45.55974" lon="5.99419">
        <ele>437.54</ele>
        <time>2011-04-03T12:09:26Z</time>
      </trkpt>
      <trkpt lat="45.5597" lon="5.99427">
        <ele>438.5</ele>
        <time>2011-04-03T12:09:32Z</time>
      </trkpt>
      <trkpt lat="45.55968" lon="5.99429">
        <ele>438.98</ele>
        <time>2011-04-03T12:09:35Z</time>
      </trkpt>
      <trkpt lat="45.55956" lon="5.99437">
        <ele>441.38</ele>
        <time>2011-04-03T12:09:48Z</time>
      </trkpt>
      <trkpt lat="45.55966" lon="5.99445">
        <ele>443.79</ele>
        <time>2011-04-03T12:10:02Z</time>
      </trkpt>
      <trkpt lat="45.5598" lon="5.99442">
        <ele>445.71</ele>
        <time>2011-04-03T12:10:16Z</time>
      </trkpt>
      <trkpt lat="45.55994" lon="5.99445">
        <ele>448.11</ele>
        <time>2011-04-03T12:10:29Z</time>
      </trkpt>
      <trkpt lat="45.55996" lon="5.99443">
        <ele>448.59</ele>
        <time>2011-04-03T12:10:31Z</time>
      </trkpt>
      <trkpt lat="45.56001" lon="5.99437">
        <ele>449.07</ele>
        <time>2011-04-03T12:10:37Z</time>
      </trkpt>
      <trkpt lat="45.56001" lon="5.99436">
        <ele>449.55</ele>
        <time>2011-04-03T12:10:38Z</time>
      </trkpt>
      <trkpt lat="45.56003" lon="5.99433">
        <ele>450.03</ele>
        <time>2011-04-03T12:10:41Z</time>
      </trkpt>
      <trkpt lat="45.56006" lon="5.99428">
        <ele>450.52</ele>
        <time>2011-04-03T12:10:46Z</time>
      </trkpt>
      <trkpt lat="45.5601" lon="5.99428">
        <ele>451.96</ele>
        <time>2011-04-03T12:10:50Z</time>
      </trkpt>
      <trkpt lat="45.56011" lon="5.9943">
        <ele>451.48</ele>
        <time>2011-04-03T12:10:52Z</time>
      </trkpt>
      <trkpt lat="45.56012" lon="5.99431">
        <ele>451.96</ele>
        <time>2011-04-03T12:10:53Z</time>
      </trkpt>
      <trkpt lat="45.56011" lon="5.99438">
        <ele>452.92</ele>
        <time>2011-04-03T12:10:57Z</time>
      </trkpt>
      <trkpt lat="45.56002" lon="5.99457">
        <ele>454.84</ele>
        <time>2011-04-03T12:11:10Z</time>
      </trkpt>
      <trkpt lat="45.55996" lon="5.99463">
        <ele>455.32</ele>
        <time>2011-04-03T12:11:16Z</time>
      </trkpt>
      <trkpt lat="45.55996" lon="5.99465">
        <ele>455.8</ele>
        <time>2011-04-03T12:11:17Z</time>
      </trkpt>
      <trkpt lat="45.56001" lon="5.99467">
        <ele>456.28</ele>
        <time>2011-04-03T12:11:23Z</time>
      </trkpt>
      <trkpt lat="45.56002" lon="5.99467">
        <ele>456.76</ele>
        <time>2011-04-03T12:11:24Z</time>
      </trkpt>
      <trkpt lat="45.56004" lon="5.99467">
        <ele>456.76</ele>
        <time>2011-04-03T12:11:25Z</time>
      </trkpt>
      <trkpt lat="45.56006" lon="5.99465">
        <ele>456.76</ele>
        <time>2011-04-03T12:11:27Z</time>
      </trkpt>
      <trkpt lat="45.56007" lon="5.99465">
        <ele>457.72</ele>
        <time>2011-04-03T12:11:28Z</time>
      </trkpt>
      <trkpt lat="45.56009" lon="5.99464">
        <ele>457.72</ele>
        <time>2011-04-03T12:11:30Z</time>
      </trkpt>
      <trkpt lat="45.5601" lon="5.99463">
        <ele>457.72</ele>
        <time>2011-04-03T12:11:31Z</time>
      </trkpt>
      <trkpt lat="45.56011" lon="5.99462">
        <ele>457.72</ele>
        <time>2011-04-03T12:11:32Z</time>
      </trkpt>
      <trkpt lat="45.56012" lon="5.99461">
        <ele>458.21</ele>
        <time>2011-04-03T12:11:33Z</time>
      </trkpt>
      <trkpt lat="45.56013" lon="5.9946">
        <ele>458.21</ele>
        <time>2011-04-03T12:11:34Z</time>
      </trkpt>
      <trkpt lat="45.56023" lon="5.99451">
        <ele>460.13</ele>
        <time>2011-04-03T12:11:46Z</time>
      </trkpt>
      <trkpt lat="45.56026" lon="5.99429">
        <ele>462.05</ele>
        <time>2011-04-03T12:12:01Z</time>
      </trkpt>
      <trkpt lat="45.5603" lon="5.99404">
        <ele>464.93</ele>
        <time>2011-04-03T12:12:18Z</time>
      </trkpt>
      <trkpt lat="45.56036" lon="5.99399">
        <ele>465.9</ele>
        <time>2011-04-03T12:12:24Z</time>
      </trkpt>
      <trkpt lat="45.56041" lon="5.99378">
        <ele>469.26</ele>
        <time>2011-04-03T12:12:39Z</time>
      </trkpt>
      <trkpt lat="45.56037" lon="5.99361">
        <ele>471.18</ele>
        <time>2011-04-03T12:12:52Z</time>
      </trkpt>
      <trkpt lat="45.56037" lon="5.99359">
        <ele>471.18</ele>
        <time>2011-04-03T12:12:53Z</time>
      </trkpt>
      <trkpt lat="45.56037" lon="5.99358">
        <ele>471.66</ele>
        <time>2011-04-03T12:12:54Z</time>
      </trkpt>
      <trkpt lat="45.56036" lon="5.99351">
        <ele>472.63</ele>
        <time>2011-04-03T12:12:59Z</time>
      </trkpt>
      <trkpt lat="45.56036" lon="5.9935">
        <ele>472.63</ele>
        <time>2011-04-03T12:13:00Z</time>
      </trkpt>
      <trkpt lat="45.5604" lon="5.99336">
        <ele>474.55</ele>
        <time>2011-04-03T12:13:10Z</time>
      </trkpt>
      <trkpt lat="45.56041" lon="5.99335">
        <ele>474.55</ele>
        <time>2011-04-03T12:13:11Z</time>
      </trkpt>
      <trkpt lat="45.56041" lon="5.99334">
        <ele>474.55</ele>
        <time>2011-04-03T12:13:12Z</time>
      </trkpt>
      <trkpt lat="45.56042" lon="5.99334">
        <ele>475.03</ele>
        <time>2011-04-03T12:13:13Z</time>
      </trkpt>
      <trkpt lat="45.56043" lon="5.99333">
        <ele>475.03</ele>
        <time>2011-04-03T12:13:14Z</time>
      </trkpt>
      <trkpt lat="45.56043" lon="5.99331">
        <ele>475.51</ele>
        <time>2011-04-03T12:13:15Z</time>
      </trkpt>
      <trkpt lat="45.56049" lon="5.99312">
        <ele>477.91</ele>
        <time>2011-04-03T12:13:29Z</time>
      </trkpt>
      <trkpt lat="45.56049" lon="5.9931">
        <ele>477.91</ele>
        <time>2011-04-03T12:13:30Z</time>
      </trkpt>
      <trkpt lat="45.56051" lon="5.99301">
        <ele>478.87</ele>
        <time>2011-04-03T12:13:37Z</time>
      </trkpt>
      <trkpt lat="45.56056" lon="5.9929">
        <ele>479.84</ele>
        <time>2011-04-03T12:13:45Z</time>
      </trkpt>
      <trkpt lat="45.56057" lon="5.9929">
        <ele>479.84</ele>
        <time>2011-04-03T12:13:46Z</time>
      </trkpt>
      <trkpt lat="45.56064" lon="5.9928">
        <ele>482.24</ele>
        <time>2011-04-03T12:13:56Z</time>
      </trkpt>
      <trkpt lat="45.56067" lon="5.99282">
        <ele>482.72</ele>
        <time>2011-04-03T12:14:00Z</time>
      </trkpt>
      <trkpt lat="45.56068" lon="5.99285">
        <ele>483.2</ele>
        <time>2011-04-03T12:14:02Z</time>
      </trkpt>
      <trkpt lat="45.56069" lon="5.99287">
        <ele>483.2</ele>
        <time>2011-04-03T12:14:03Z</time>
      </trkpt>
      <trkpt lat="45.56069" lon="5.99288">
        <ele>483.68</ele>
        <time>2011-04-03T12:14:04Z</time>
      </trkpt>
      <trkpt lat="45.56066" lon="5.99297">
        <ele>484.64</ele>
        <time>2011-04-03T12:14:10Z</time>
      </trkpt>
      <trkpt lat="45.56062" lon="5.99311">
        <ele>486.56</ele>
        <time>2011-04-03T12:14:20Z</time>
      </trkpt>
      <trkpt lat="45.56062" lon="5.99313">
        <ele>486.56</ele>
        <time>2011-04-03T12:14:21Z</time>
      </trkpt>
      <trkpt lat="45.56062" lon="5.9933">
        <ele>488.49</ele>
        <time>2011-04-03T12:14:34Z</time>
      </trkpt>
      <trkpt lat="45.56063" lon="5.99351">
        <ele>490.89</ele>
        <time>2011-04-03T12:14:49Z</time>
      </trkpt>
      <trkpt lat="45.56063" lon="5.99354">
        <ele>491.37</ele>
        <time>2011-04-03T12:14:52Z</time>
      </trkpt>
      <trkpt lat="45.56068" lon="5.99371">
        <ele>493.77</ele>
        <time>2011-04-03T12:15:05Z</time>
      </trkpt>
      <trkpt lat="45.56068" lon="5.99372">
        <ele>493.77</ele>
        <time>2011-04-03T12:15:06Z</time>
      </trkpt>
      <trkpt lat="45.5607" lon="5.99376">
        <ele>494.26</ele>
        <time>2011-04-03T12:15:09Z</time>
      </trkpt>
      <trkpt lat="45.5607" lon="5.99377">
        <ele>494.26</ele>
        <time>2011-04-03T12:15:10Z</time>
      </trkpt>
      <trkpt lat="45.56071" lon="5.99379">
        <ele>494.74</ele>
        <time>2011-04-03T12:15:12Z</time>
      </trkpt>
      <trkpt lat="45.56072" lon="5.99381">
        <ele>494.74</ele>
        <time>2011-04-03T12:15:13Z</time>
      </trkpt>
      <trkpt lat="45.56072" lon="5.99382">
        <ele>495.22</ele>
        <time>2011-04-03T12:15:14Z</time>
      </trkpt>
      <trkpt lat="45.56073" lon="5.99383">
        <ele>494.74</ele>
        <time>2011-04-03T12:15:15Z</time>
      </trkpt>
      <trkpt lat="45.56073" lon="5.99385">
        <ele>495.22</ele>
        <time>2011-04-03T12:15:16Z</time>
      </trkpt>
      <trkpt lat="45.56074" lon="5.99386">
        <ele>495.22</ele>
        <time>2011-04-03T12:15:17Z</time>
      </trkpt>
      <trkpt lat="45.56081" lon="5.99403">
        <ele>497.14</ele>
        <time>2011-04-03T12:15:30Z</time>
      </trkpt>
      <trkpt lat="45.56081" lon="5.99418">
        <ele>499.06</ele>
        <time>2011-04-03T12:15:40Z</time>
      </trkpt>
      <trkpt lat="45.56082" lon="5.9942">
        <ele>499.06</ele>
        <time>2011-04-03T12:15:41Z</time>
      </trkpt>
      <trkpt lat="45.56082" lon="5.99421">
        <ele>499.06</ele>
        <time>2011-04-03T12:15:42Z</time>
      </trkpt>
      <trkpt lat="45.56082" lon="5.99423">
        <ele>499.06</ele>
        <time>2011-04-03T12:15:43Z</time>
      </trkpt>
      <trkpt lat="45.56082" lon="5.99424">
        <ele>499.54</ele>
        <time>2011-04-03T12:15:44Z</time>
      </trkpt>
      <trkpt lat="45.56084" lon="5.99426">
        <ele>500.02</ele>
        <time>2011-04-03T12:15:46Z</time>
      </trkpt>
      <trkpt lat="45.56085" lon="5.99427">
        <ele>500.02</ele>
        <time>2011-04-03T12:15:47Z</time>
      </trkpt>
      <trkpt lat="45.56085" lon="5.99429">
        <ele>500.5</ele>
        <time>2011-04-03T12:15:48Z</time>
      </trkpt>
      <trkpt lat="45.56091" lon="5.9945">
        <ele>501.95</ele>
        <time>2011-04-03T12:16:01Z</time>
      </trkpt>
      <trkpt lat="45.56091" lon="5.99466">
        <ele>503.39</ele>
        <time>2011-04-03T12:16:11Z</time>
      </trkpt>
      <trkpt lat="45.5609" lon="5.99468">
        <ele>503.39</ele>
        <time>2011-04-03T12:16:12Z</time>
      </trkpt>
      <trkpt lat="45.56087" lon="5.99474">
        <ele>504.35</ele>
        <time>2011-04-03T12:16:17Z</time>
      </trkpt>
      <trkpt lat="45.56086" lon="5.99475">
        <ele>504.83</ele>
        <time>2011-04-03T12:16:18Z</time>
      </trkpt>
      <trkpt lat="45.56078" lon="5.99495">
        <ele>507.71</ele>
        <time>2011-04-03T12:16:34Z</time>
      </trkpt>
      <trkpt lat="45.56078" lon="5.995">
        <ele>508.19</ele>
        <time>2011-04-03T12:16:38Z</time>
      </trkpt>
      <trkpt lat="45.56078" lon="5.99501">
        <ele>508.67</ele>
        <time>2011-04-03T12:16:39Z</time>
      </trkpt>
      <trkpt lat="45.56079" lon="5.99502">
        <ele>508.19</ele>
        <time>2011-04-03T12:16:40Z</time>
      </trkpt>
      <trkpt lat="45.56083" lon="5.9951">
        <ele>510.12</ele>
        <time>2011-04-03T12:16:46Z</time>
      </trkpt>
      <trkpt lat="45.56095" lon="5.99527">
        <ele>512.04</ele>
        <time>2011-04-03T12:17:02Z</time>
      </trkpt>
      <trkpt lat="45.56093" lon="5.99541">
        <ele>513.96</ele>
        <time>2011-04-03T12:17:13Z</time>
      </trkpt>
      <trkpt lat="45.56093" lon="5.99542">
        <ele>513.96</ele>
        <time>2011-04-03T12:17:14Z</time>
      </trkpt>
      <trkpt lat="45.56092" lon="5.99544">
        <ele>514.44</ele>
        <time>2011-04-03T12:17:15Z</time>
      </trkpt>
      <trkpt lat="45.56088" lon="5.9955">
        <ele>514.92</ele>
        <time>2011-04-03T12:17:21Z</time>
      </trkpt>
      <trkpt lat="45.56084" lon="5.99555">
        <ele>515.88</ele>
        <time>2011-04-03T12:17:26Z</time>
      </trkpt>
      <trkpt lat="45.56083" lon="5.99574">
        <ele>518.29</ele>
        <time>2011-04-03T12:17:39Z</time>
      </trkpt>
      <trkpt lat="45.56085" lon="5.99594">
        <ele>519.73</ele>
        <time>2011-04-03T12:17:52Z</time>
      </trkpt>
      <trkpt lat="45.56089" lon="5.99603">
        <ele>521.17</ele>
        <time>2011-04-03T12:18:01Z</time>
      </trkpt>
      <trkpt lat="45.56094" lon="5.996">
        <ele>521.65</ele>
        <time>2011-04-03T12:18:06Z</time>
      </trkpt>
      <trkpt lat="45.56094" lon="5.99598">
        <ele>521.65</ele>
        <time>2011-04-03T12:18:07Z</time>
      </trkpt>
      <trkpt lat="45.56095" lon="5.99596">
        <ele>521.65</ele>
        <time>2011-04-03T12:18:08Z</time>
      </trkpt>
      <trkpt lat="45.56094" lon="5.99588">
        <ele>522.61</ele>
        <time>2011-04-03T12:18:12Z</time>
      </trkpt>
      <trkpt lat="45.56092" lon="5.99563">
        <ele>524.06</ele>
        <time>2011-04-03T12:18:24Z</time>
      </trkpt>
      <trkpt lat="45.5611" lon="5.9954">
        <ele>525.02</ele>
        <time>2011-04-03T12:18:36Z</time>
      </trkpt>
      <trkpt lat="45.56113" lon="5.99526">
        <ele>525.5</ele>
        <time>2011-04-03T12:18:43Z</time>
      </trkpt>
      <trkpt lat="45.56118" lon="5.99523">
        <ele>525.98</ele>
        <time>2011-04-03T12:18:47Z</time>
      </trkpt>
      <trkpt lat="45.56118" lon="5.99523">
        <ele>526.46</ele>
        <time>2011-04-03T12:18:48Z</time>
      </trkpt>
      <trkpt lat="45.5612" lon="5.99524">
        <ele>526.46</ele>
        <time>2011-04-03T12:18:49Z</time>
      </trkpt>
      <trkpt lat="45.56121" lon="5.99526">
        <ele>526.94</ele>
        <time>2011-04-03T12:18:50Z</time>
      </trkpt>
      <trkpt lat="45.56122" lon="5.99527">
        <ele>526.94</ele>
        <time>2011-04-03T12:18:51Z</time>
      </trkpt>
      <trkpt lat="45.56122" lon="5.9953">
        <ele>527.42</ele>
        <time>2011-04-03T12:18:53Z</time>
      </trkpt>
      <trkpt lat="45.56121" lon="5.99532">
        <ele>527.42</ele>
        <time>2011-04-03T12:18:54Z</time>
      </trkpt>
      <trkpt lat="45.56121" lon="5.99533">
        <ele>527.42</ele>
        <time>2011-04-03T12:18:55Z</time>
      </trkpt>
      <trkpt lat="45.5612" lon="5.99535">
        <ele>527.9</ele>
        <time>2011-04-03T12:18:56Z</time>
      </trkpt>
      <trkpt lat="45.56119" lon="5.99539">
        <ele>528.38</ele>
        <time>2011-04-03T12:18:59Z</time>
      </trkpt>
      <trkpt lat="45.56118" lon="5.99541">
        <ele>528.38</ele>
        <time>2011-04-03T12:19:00Z</time>
      </trkpt>
      <trkpt lat="45.5611" lon="5.99562">
        <ele>531.27</ele>
        <time>2011-04-03T12:19:15Z</time>
      </trkpt>
      <trkpt lat="45.56105" lon="5.99572">
        <ele>532.23</ele>
        <time>2011-04-03T12:19:24Z</time>
      </trkpt>
      <trkpt lat="45.56111" lon="5.9959">
        <ele>535.59</ele>
        <time>2011-04-03T12:19:39Z</time>
      </trkpt>
      <trkpt lat="45.56115" lon="5.99593">
        <ele>536.55</ele>
        <time>2011-04-03T12:19:43Z</time>
      </trkpt>
      <trkpt lat="45.56118" lon="5.99598">
        <ele>536.55</ele>
        <time>2011-04-03T12:19:47Z</time>
      </trkpt>
      <trkpt lat="45.56118" lon="5.99612">
        <ele>537.51</ele>
        <time>2011-04-03T12:19:55Z</time>
      </trkpt>
      <trkpt lat="45.56115" lon="5.99625">
        <ele>538.96</ele>
        <time>2011-04-03T12:20:03Z</time>
      </trkpt>
      <trkpt lat="45.56115" lon="5.99627">
        <ele>538.96</ele>
        <time>2011-04-03T12:20:04Z</time>
      </trkpt>
      <trkpt lat="45.56114" lon="5.99628">
        <ele>539.44</ele>
        <time>2011-04-03T12:20:05Z</time>
      </trkpt>
      <trkpt lat="45.56111" lon="5.99633">
        <ele>538.96</ele>
        <time>2011-04-03T12:20:09Z</time>
      </trkpt>
      <trkpt lat="45.56107" lon="5.99637">
        <ele>539.92</ele>
        <time>2011-04-03T12:20:13Z</time>
      </trkpt>
      <trkpt lat="45.56106" lon="5.99638">
        <ele>540.4</ele>
        <time>2011-04-03T12:20:14Z</time>
      </trkpt>
      <trkpt lat="45.56105" lon="5.9964">
        <ele>540.4</ele>
        <time>2011-04-03T12:20:15Z</time>
      </trkpt>
      <trkpt lat="45.56104" lon="5.99641">
        <ele>540.88</ele>
        <time>2011-04-03T12:20:16Z</time>
      </trkpt>
      <trkpt lat="45.56103" lon="5.99643">
        <ele>540.88</ele>
        <time>2011-04-03T12:20:17Z</time>
      </trkpt>
      <trkpt lat="45.56089" lon="5.99659">
        <ele>542.8</ele>
        <time>2011-04-03T12:20:31Z</time>
      </trkpt>
      <trkpt lat="45.56067" lon="5.99658">
        <ele>543.28</ele>
        <time>2011-04-03T12:20:43Z</time>
      </trkpt>
      <trkpt lat="45.56045" lon="5.99654">
        <ele>544.24</ele>
        <time>2011-04-03T12:20:56Z</time>
      </trkpt>
      <trkpt lat="45.56028" lon="5.99653">
        <ele>547.61</ele>
        <time>2011-04-03T12:21:11Z</time>
      </trkpt>
      <trkpt lat="45.56022" lon="5.99656">
        <ele>547.61</ele>
        <time>2011-04-03T12:21:15Z</time>
      </trkpt>
      <trkpt lat="45.56021" lon="5.99656">
        <ele>548.09</ele>
        <time>2011-04-03T12:21:16Z</time>
      </trkpt>
      <trkpt lat="45.56015" lon="5.99656">
        <ele>548.57</ele>
        <time>2011-04-03T12:21:27Z</time>
      </trkpt>
      <trkpt lat="45.56014" lon="5.99657">
        <ele>549.53</ele>
        <time>2011-04-03T12:21:47Z</time>
      </trkpt>
      <trkpt lat="45.56012" lon="5.99656">
        <ele>549.05</ele>
        <time>2011-04-03T12:22:06Z</time>
      </trkpt>
      <trkpt lat="45.56005" lon="5.99658">
        <ele>550.01</ele>
        <time>2011-04-03T12:22:19Z</time>
      </trkpt>
      <trkpt lat="45.55993" lon="5.99663">
        <ele>550.97</ele>
        <time>2011-04-03T12:22:34Z</time>
      </trkpt>
      <trkpt lat="45.55991" lon="5.99664">
        <ele>550.97</ele>
        <time>2011-04-03T12:22:35Z</time>
      </trkpt>
      <trkpt lat="45.5599" lon="5.99664">
        <ele>550.97</ele>
        <time>2011-04-03T12:22:36Z</time>
      </trkpt>
      <trkpt lat="45.55989" lon="5.99666">
        <ele>550.97</ele>
        <time>2011-04-03T12:22:37Z</time>
      </trkpt>
      <trkpt lat="45.55988" lon="5.99667">
        <ele>551.45</ele>
        <time>2011-04-03T12:22:38Z</time>
      </trkpt>
      <trkpt lat="45.5597" lon="5.99685">
        <ele>552.41</ele>
        <time>2011-04-03T12:22:53Z</time>
      </trkpt>
      <trkpt lat="45.5596" lon="5.99691">
        <ele>553.86</ele>
        <time>2011-04-03T12:23:01Z</time>
      </trkpt>
      <trkpt lat="45.55959" lon="5.99691">
        <ele>554.82</ele>
        <time>2011-04-03T12:23:02Z</time>
      </trkpt>
      <trkpt lat="45.55943" lon="5.99697">
        <ele>556.26</ele>
        <time>2011-04-03T12:23:15Z</time>
      </trkpt>
      <trkpt lat="45.55927" lon="5.99703">
        <ele>558.66</ele>
        <time>2011-04-03T12:23:28Z</time>
      </trkpt>
      <trkpt lat="45.55906" lon="5.99704">
        <ele>561.55</ele>
        <time>2011-04-03T12:23:44Z</time>
      </trkpt>
      <trkpt lat="45.5589" lon="5.99711">
        <ele>563.47</ele>
        <time>2011-04-03T12:23:58Z</time>
      </trkpt>
      <trkpt lat="45.5588" lon="5.99719">
        <ele>564.43</ele>
        <time>2011-04-03T12:24:08Z</time>
      </trkpt>
      <trkpt lat="45.55879" lon="5.99721">
        <ele>564.43</ele>
        <time>2011-04-03T12:24:09Z</time>
      </trkpt>
      <trkpt lat="45.55878" lon="5.99722">
        <ele>564.43</ele>
        <time>2011-04-03T12:24:10Z</time>
      </trkpt>
      <trkpt lat="45.55877" lon="5.99726">
        <ele>565.39</ele>
        <time>2011-04-03T12:24:13Z</time>
      </trkpt>
      <trkpt lat="45.5588" lon="5.99728">
        <ele>565.39</ele>
        <time>2011-04-03T12:24:18Z</time>
      </trkpt>
      <trkpt lat="45.55896" lon="5.99728">
        <ele>566.83</ele>
        <time>2011-04-03T12:24:30Z</time>
      </trkpt>
      <trkpt lat="45.55898" lon="5.99728">
        <ele>566.35</ele>
        <time>2011-04-03T12:24:32Z</time>
      </trkpt>
      <trkpt lat="45.55916" lon="5.99736">
        <ele>568.28</ele>
        <time>2011-04-03T12:24:46Z</time>
      </trkpt>
      <trkpt lat="45.55932" lon="5.99744">
        <ele>569.24</ele>
        <time>2011-04-03T12:24:59Z</time>
      </trkpt>
      <trkpt lat="45.55944" lon="5.99746">
        <ele>571.16</ele>
        <time>2011-04-03T12:25:11Z</time>
      </trkpt>
      <trkpt lat="45.55964" lon="5.99748">
        <ele>571.64</ele>
        <time>2011-04-03T12:25:27Z</time>
      </trkpt>
      <trkpt lat="45.55979" lon="5.99751">
        <ele>572.6</ele>
        <time>2011-04-03T12:25:39Z</time>
      </trkpt>
      <trkpt lat="45.5599" lon="5.99751">
        <ele>573.08</ele>
        <time>2011-04-03T12:25:45Z</time>
      </trkpt>
      <trkpt lat="45.56001" lon="5.9975">
        <ele>573.56</ele>
        <time>2011-04-03T12:25:52Z</time>
      </trkpt>
      <trkpt lat="45.56003" lon="5.99752">
        <ele>574.04</ele>
        <time>2011-04-03T12:25:54Z</time>
      </trkpt>
      <trkpt lat="45.56021" lon="5.99752">
        <ele>575.97</ele>
        <time>2011-04-03T12:26:07Z</time>
      </trkpt>
      <trkpt lat="45.56031" lon="5.99746">
        <ele>576.93</ele>
        <time>2011-04-03T12:26:19Z</time>
      </trkpt>
      <trkpt lat="45.56047" lon="5.9972">
        <ele>576.93</ele>
        <time>2011-04-03T12:26:33Z</time>
      </trkpt>
      <trkpt lat="45.56062" lon="5.99699">
        <ele>576.93</ele>
        <time>2011-04-03T12:26:49Z</time>
      </trkpt>
      <trkpt lat="45.56072" lon="5.99708">
        <ele>573.56</ele>
        <time>2011-04-03T12:26:54Z</time>
      </trkpt>
      <trkpt lat="45.56123" lon="5.9971">
        <ele>573.56</ele>
        <time>2011-04-03T12:27:06Z</time>
      </trkpt>
      <trkpt lat="45.56124" lon="5.99706">
        <ele>573.56</ele>
        <time>2011-04-03T12:27:07Z</time>
      </trkpt>
      <trkpt lat="45.56125" lon="5.99704">
        <ele>574.04</ele>
        <time>2011-04-03T12:27:08Z</time>
      </trkpt>
      <trkpt lat="45.56133" lon="5.99681">
        <ele>576.45</ele>
        <time>2011-04-03T12:27:22Z</time>
      </trkpt>
      <trkpt lat="45.56134" lon="5.9968">
        <ele>576.45</ele>
        <time>2011-04-03T12:27:23Z</time>
      </trkpt>
      <trkpt lat="45.56145" lon="5.99681">
        <ele>579.33</ele>
        <time>2011-04-03T12:27:37Z</time>
      </trkpt>
      <trkpt lat="45.5615" lon="5.99682">
        <ele>580.29</ele>
        <time>2011-04-03T12:27:42Z</time>
      </trkpt>
      <trkpt lat="45.56162" lon="5.99681">
        <ele>583.18</ele>
        <time>2011-04-03T12:27:55Z</time>
      </trkpt>
      <trkpt lat="45.5617" lon="5.99671">
        <ele>585.58</ele>
        <time>2011-04-03T12:28:10Z</time>
      </trkpt>
      <trkpt lat="45.56177" lon="5.99662">
        <ele>587.5</ele>
        <time>2011-04-03T12:28:22Z</time>
      </trkpt>
      <trkpt lat="45.5618" lon="5.9965">
        <ele>590.87</ele>
        <time>2011-04-03T12:28:34Z</time>
      </trkpt>
      <trkpt lat="45.56181" lon="5.99647">
        <ele>591.35</ele>
        <time>2011-04-03T12:28:46Z</time>
      </trkpt>
      <trkpt lat="45.56181" lon="5.99642">
        <ele>591.35</ele>
        <time>2011-04-03T12:28:49Z</time>
      </trkpt>
      <trkpt lat="45.56183" lon="5.99625">
        <ele>593.27</ele>
        <time>2011-04-03T12:29:00Z</time>
      </trkpt>
      <trkpt lat="45.56184" lon="5.99605">
        <ele>596.15</ele>
        <time>2011-04-03T12:29:14Z</time>
      </trkpt>
      <trkpt lat="45.56195" lon="5.99583">
        <ele>598.08</ele>
        <time>2011-04-03T12:29:30Z</time>
      </trkpt>
      <trkpt lat="45.562" lon="5.99559">
        <ele>598.56</ele>
        <time>2011-04-03T12:29:43Z</time>
      </trkpt>
      <trkpt lat="45.56197" lon="5.99538">
        <ele>601.44</ele>
        <time>2011-04-03T12:29:58Z</time>
      </trkpt>
      <trkpt lat="45.56196" lon="5.99526">
        <ele>603.36</ele>
        <time>2011-04-03T12:30:06Z</time>
      </trkpt>
      <trkpt lat="45.56196" lon="5.99525">
        <ele>603.85</ele>
        <time>2011-04-03T12:30:07Z</time>
      </trkpt>
      <trkpt lat="45.56196" lon="5.99523">
        <ele>603.85</ele>
        <time>2011-04-03T12:30:08Z</time>
      </trkpt>
      <trkpt lat="45.56197" lon="5.99519">
        <ele>603.85</ele>
        <time>2011-04-03T12:30:20Z</time>
      </trkpt>
      <trkpt lat="45.562" lon="5.99516">
        <ele>604.81</ele>
        <time>2011-04-03T12:30:38Z</time>
      </trkpt>
      <trkpt lat="45.562" lon="5.99516">
        <ele>605.29</ele>
        <time>2011-04-03T12:31:09Z</time>
      </trkpt>
      <trkpt lat="45.56203" lon="5.99514">
        <ele>606.73</ele>
        <time>2011-04-03T12:31:17Z</time>
      </trkpt>
      <trkpt lat="45.56209" lon="5.99507">
        <ele>608.65</ele>
        <time>2011-04-03T12:31:30Z</time>
      </trkpt>
      <trkpt lat="45.5621" lon="5.99507">
        <ele>608.65</ele>
        <time>2011-04-03T12:31:45Z</time>
      </trkpt>
      <trkpt lat="45.56211" lon="5.99506">
        <ele>609.13</ele>
        <time>2011-04-03T12:31:46Z</time>
      </trkpt>
      <trkpt lat="45.56224" lon="5.99495">
        <ele>612.02</ele>
        <time>2011-04-03T12:32:00Z</time>
      </trkpt>
      <trkpt lat="45.56224" lon="5.99494">
        <ele>612.5</ele>
        <time>2011-04-03T12:32:01Z</time>
      </trkpt>
      <trkpt lat="45.56241" lon="5.99481">
        <ele>612.98</ele>
        <time>2011-04-03T12:32:14Z</time>
      </trkpt>
      <trkpt lat="45.56255" lon="5.99474">
        <ele>614.42</ele>
        <time>2011-04-03T12:32:26Z</time>
      </trkpt>
      <trkpt lat="45.56275" lon="5.99464">
        <ele>616.82</ele>
        <time>2011-04-03T12:32:42Z</time>
      </trkpt>
      <trkpt lat="45.5629" lon="5.99454">
        <ele>618.75</ele>
        <time>2011-04-03T12:32:55Z</time>
      </trkpt>
      <trkpt lat="45.56292" lon="5.99454">
        <ele>618.26</ele>
        <time>2011-04-03T12:32:56Z</time>
      </trkpt>
      <trkpt lat="45.56293" lon="5.99454">
        <ele>618.75</ele>
        <time>2011-04-03T12:32:57Z</time>
      </trkpt>
      <trkpt lat="45.56294" lon="5.99453">
        <ele>618.75</ele>
        <time>2011-04-03T12:32:58Z</time>
      </trkpt>
      <trkpt lat="45.56295" lon="5.99453">
        <ele>618.75</ele>
        <time>2011-04-03T12:32:59Z</time>
      </trkpt>
      <trkpt lat="45.56312" lon="5.99448">
        <ele>621.15</ele>
        <time>2011-04-03T12:33:13Z</time>
      </trkpt>
      <trkpt lat="45.56325" lon="5.9944">
        <ele>623.07</ele>
        <time>2011-04-03T12:33:26Z</time>
      </trkpt>
      <trkpt lat="45.56345" lon="5.99423">
        <ele>624.03</ele>
        <time>2011-04-03T12:33:40Z</time>
      </trkpt>
      <trkpt lat="45.56361" lon="5.99409">
        <ele>625.47</ele>
        <time>2011-04-03T12:33:52Z</time>
      </trkpt>
      <trkpt lat="45.56363" lon="5.99408">
        <ele>624.99</ele>
        <time>2011-04-03T12:33:53Z</time>
      </trkpt>
      <trkpt lat="45.56364" lon="5.99407">
        <ele>624.99</ele>
        <time>2011-04-03T12:33:54Z</time>
      </trkpt>
      <trkpt lat="45.56367" lon="5.99405">
        <ele>624.99</ele>
        <time>2011-04-03T12:33:55Z</time>
      </trkpt>
      <trkpt lat="45.56369" lon="5.99404">
        <ele>624.99</ele>
        <time>2011-04-03T12:33:56Z</time>
      </trkpt>
      <trkpt lat="45.5637" lon="5.99404">
        <ele>624.99</ele>
        <time>2011-04-03T12:33:57Z</time>
      </trkpt>
      <trkpt lat="45.56372" lon="5.99403">
        <ele>624.99</ele>
        <time>2011-04-03T12:33:58Z</time>
      </trkpt>
      <trkpt lat="45.56391" lon="5.99395">
        <ele>625.47</ele>
        <time>2011-04-03T12:34:08Z</time>
      </trkpt>
      <trkpt lat="45.56415" lon="5.99381">
        <ele>625.96</ele>
        <time>2011-04-03T12:34:22Z</time>
      </trkpt>
      <trkpt lat="45.56422" lon="5.99379">
        <ele>626.92</ele>
        <time>2011-04-03T12:34:27Z</time>
      </trkpt>
      <trkpt lat="45.56423" lon="5.99379">
        <ele>626.92</ele>
        <time>2011-04-03T12:34:28Z</time>
      </trkpt>
      <trkpt lat="45.56425" lon="5.99379">
        <ele>626.92</ele>
        <time>2011-04-03T12:34:29Z</time>
      </trkpt>
      <trkpt lat="45.56426" lon="5.9938">
        <ele>626.44</ele>
        <time>2011-04-03T12:34:30Z</time>
      </trkpt>
      <trkpt lat="45.56428" lon="5.99381">
        <ele>627.4</ele>
        <time>2011-04-03T12:34:31Z</time>
      </trkpt>
      <trkpt lat="45.5643" lon="5.99381">
        <ele>627.88</ele>
        <time>2011-04-03T12:34:33Z</time>
      </trkpt>
      <trkpt lat="45.56425" lon="5.99393">
        <ele>629.8</ele>
        <time>2011-04-03T12:34:43Z</time>
      </trkpt>
      <trkpt lat="45.56415" lon="5.99401">
        <ele>630.28</ele>
        <time>2011-04-03T12:34:51Z</time>
      </trkpt>
      <trkpt lat="45.56413" lon="5.99404">
        <ele>631.24</ele>
        <time>2011-04-03T12:34:54Z</time>
      </trkpt>
      <trkpt lat="45.564" lon="5.99424">
        <ele>633.17</ele>
        <time>2011-04-03T12:35:10Z</time>
      </trkpt>
      <trkpt lat="45.56391" lon="5.99437">
        <ele>635.09</ele>
        <time>2011-04-03T12:35:21Z</time>
      </trkpt>
      <trkpt lat="45.56389" lon="5.99438">
        <ele>635.09</ele>
        <time>2011-04-03T12:35:23Z</time>
      </trkpt>
      <trkpt lat="45.56374" lon="5.99448">
        <ele>637.49</ele>
        <time>2011-04-03T12:35:37Z</time>
      </trkpt>
      <trkpt lat="45.56373" lon="5.99448">
        <ele>637.01</ele>
        <time>2011-04-03T12:35:38Z</time>
      </trkpt>
      <trkpt lat="45.56368" lon="5.99455">
        <ele>637.49</ele>
        <time>2011-04-03T12:35:43Z</time>
      </trkpt>
      <trkpt lat="45.56364" lon="5.9947">
        <ele>638.93</ele>
        <time>2011-04-03T12:35:54Z</time>
      </trkpt>
      <trkpt lat="45.5636" lon="5.99483">
        <ele>639.41</ele>
        <time>2011-04-03T12:36:03Z</time>
      </trkpt>
      <trkpt lat="45.56361" lon="5.99489">
        <ele>640.86</ele>
        <time>2011-04-03T12:36:07Z</time>
      </trkpt>
      <trkpt lat="45.56369" lon="5.99501">
        <ele>642.78</ele>
        <time>2011-04-03T12:36:18Z</time>
      </trkpt>
      <trkpt lat="45.56372" lon="5.99507">
        <ele>643.74</ele>
        <time>2011-04-03T12:36:22Z</time>
      </trkpt>
      <trkpt lat="45.56364" lon="5.99521">
        <ele>646.14</ele>
        <time>2011-04-03T12:36:35Z</time>
      </trkpt>
      <trkpt lat="45.5636" lon="5.99538">
        <ele>649.03</ele>
        <time>2011-04-03T12:36:49Z</time>
      </trkpt>
      <trkpt lat="45.56355" lon="5.99553">
        <ele>651.91</ele>
        <time>2011-04-03T12:37:02Z</time>
      </trkpt>
      <trkpt lat="45.56353" lon="5.99565">
        <ele>654.8</ele>
        <time>2011-04-03T12:37:14Z</time>
      </trkpt>
      <trkpt lat="45.56347" lon="5.99581">
        <ele>657.2</ele>
        <time>2011-04-03T12:37:28Z</time>
      </trkpt>
      <trkpt lat="45.56341" lon="5.99592">
        <ele>659.12</ele>
        <time>2011-04-03T12:37:41Z</time>
      </trkpt>
      <trkpt lat="45.56337" lon="5.99602">
        <ele>661.04</ele>
        <time>2011-04-03T12:37:51Z</time>
      </trkpt>
      <trkpt lat="45.56335" lon="5.99605">
        <ele>662.49</ele>
        <time>2011-04-03T12:37:54Z</time>
      </trkpt>
      <trkpt lat="45.56332" lon="5.99618">
        <ele>664.41</ele>
        <time>2011-04-03T12:38:06Z</time>
      </trkpt>
      <trkpt lat="45.56329" lon="5.99631">
        <ele>666.81</ele>
        <time>2011-04-03T12:38:18Z</time>
      </trkpt>
      <trkpt lat="45.56325" lon="5.99643">
        <ele>668.73</ele>
        <time>2011-04-03T12:38:31Z</time>
      </trkpt>
      <trkpt lat="45.56324" lon="5.99648">
        <ele>670.18</ele>
        <time>2011-04-03T12:38:36Z</time>
      </trkpt>
      <trkpt lat="45.56323" lon="5.99657">
        <ele>671.62</ele>
        <time>2011-04-03T12:38:44Z</time>
      </trkpt>
      <trkpt lat="45.56322" lon="5.9966">
        <ele>672.1</ele>
        <time>2011-04-03T12:38:46Z</time>
      </trkpt>
      <trkpt lat="45.56319" lon="5.99677">
        <ele>675.94</ele>
        <time>2011-04-03T12:39:01Z</time>
      </trkpt>
      <trkpt lat="45.56319" lon="5.99682">
        <ele>676.91</ele>
        <time>2011-04-03T12:39:15Z</time>
      </trkpt>
      <trkpt lat="45.5632" lon="5.99682">
        <ele>676.42</ele>
        <time>2011-04-03T12:39:27Z</time>
      </trkpt>
      <trkpt lat="45.56318" lon="5.99689">
        <ele>678.35</ele>
        <time>2011-04-03T12:39:37Z</time>
      </trkpt>
      <trkpt lat="45.56313" lon="5.99704">
        <ele>679.79</ele>
        <time>2011-04-03T12:39:51Z</time>
      </trkpt>
      <trkpt lat="45.56311" lon="5.99708">
        <ele>680.75</ele>
        <time>2011-04-03T12:40:11Z</time>
      </trkpt>
      <trkpt lat="45.56308" lon="5.99721">
        <ele>682.19</ele>
        <time>2011-04-03T12:40:19Z</time>
      </trkpt>
      <trkpt lat="45.56303" lon="5.99733">
        <ele>683.15</ele>
        <time>2011-04-03T12:40:28Z</time>
      </trkpt>
      <trkpt lat="45.56293" lon="5.99749">
        <ele>686.52</ele>
        <time>2011-04-03T12:40:43Z</time>
      </trkpt>
      <trkpt lat="45.56284" lon="5.99762">
        <ele>688.44</ele>
        <time>2011-04-03T12:40:56Z</time>
      </trkpt>
      <trkpt lat="45.56276" lon="5.99775">
        <ele>691.33</ele>
        <time>2011-04-03T12:41:09Z</time>
      </trkpt>
      <trkpt lat="45.56268" lon="5.99787">
        <ele>694.69</ele>
        <time>2011-04-03T12:41:23Z</time>
      </trkpt>
      <trkpt lat="45.56264" lon="5.99795">
        <ele>696.13</ele>
        <time>2011-04-03T12:41:36Z</time>
      </trkpt>
      <trkpt lat="45.5627" lon="5.99792">
        <ele>697.57</ele>
        <time>2011-04-03T12:41:46Z</time>
      </trkpt>
      <trkpt lat="45.5627" lon="5.99792">
        <ele>696.13</ele>
        <time>2011-04-03T12:41:51Z</time>
      </trkpt>
      <trkpt lat="45.5627" lon="5.99792">
        <ele>748.04</ele>
        <time>2011-04-03T12:42:12Z</time>
      </trkpt>
      <trkpt lat="45.5627" lon="5.99792">
        <ele>748.04</ele>
        <time>2011-04-03T12:42:13Z</time>
      </trkpt>
      <trkpt lat="45.5627" lon="5.99792">
        <ele>745.64</ele>
        <time>2011-04-03T12:42:16Z</time>
      </trkpt>
      <trkpt lat="45.5627" lon="5.99792">
        <ele>747.08</ele>
        <time>2011-04-03T12:42:18Z</time>
      </trkpt>
      <trkpt lat="45.56269" lon="5.99795">
        <ele>747.08</ele>
        <time>2011-04-03T12:42:32Z</time>
      </trkpt>
      <trkpt lat="45.56259" lon="5.99795">
        <ele>746.12</ele>
        <time>2011-04-03T12:42:42Z</time>
      </trkpt>
      <trkpt lat="45.5626" lon="5.99795">
        <ele>746.6</ele>
        <time>2011-04-03T12:43:00Z</time>
      </trkpt>
      <trkpt lat="45.56265" lon="5.99794">
        <ele>746.6</ele>
        <time>2011-04-03T12:43:04Z</time>
      </trkpt>
      <trkpt lat="45.56273" lon="5.99793">
        <ele>748.04</ele>
        <time>2011-04-03T12:43:10Z</time>
      </trkpt>
      <trkpt lat="45.5628" lon="5.99794">
        <ele>748.04</ele>
        <time>2011-04-03T12:43:16Z</time>
      </trkpt>
      <trkpt lat="45.56289" lon="5.99796">
        <ele>748.04</ele>
        <time>2011-04-03T12:43:24Z</time>
      </trkpt>
      <trkpt lat="45.56304" lon="5.99808">
        <ele>749.49</ele>
        <time>2011-04-03T12:43:36Z</time>
      </trkpt>
      <trkpt lat="45.56324" lon="5.99834">
        <ele>750.45</ele>
        <time>2011-04-03T12:43:51Z</time>
      </trkpt>
      <trkpt lat="45.56353" lon="5.99851">
        <ele>751.41</ele>
        <time>2011-04-03T12:44:07Z</time>
      </trkpt>
      <trkpt lat="45.56376" lon="5.9985">
        <ele>753.81</ele>
        <time>2011-04-03T12:44:22Z</time>
      </trkpt>
      <trkpt lat="45.56377" lon="5.99856">
        <ele>754.29</ele>
        <time>2011-04-03T12:44:25Z</time>
      </trkpt>
      <trkpt lat="45.56371" lon="5.99866">
        <ele>754.77</ele>
        <time>2011-04-03T12:44:31Z</time>
      </trkpt>
      <trkpt lat="45.56361" lon="5.99869">
        <ele>755.25</ele>
        <time>2011-04-03T12:44:36Z</time>
      </trkpt>
      <trkpt lat="45.56358" lon="5.99869">
        <ele>755.25</ele>
        <time>2011-04-03T12:44:38Z</time>
      </trkpt>
      <trkpt lat="45.56342" lon="5.99867">
        <ele>757.18</ele>
        <time>2011-04-03T12:44:48Z</time>
      </trkpt>
      <trkpt lat="45.56316" lon="5.99872">
        <ele>759.58</ele>
        <time>2011-04-03T12:45:02Z</time>
      </trkpt>
      <trkpt lat="45.56286" lon="5.99871">
        <ele>761.5</ele>
        <time>2011-04-03T12:45:19Z</time>
      </trkpt>
      <trkpt lat="45.56266" lon="5.99872">
        <ele>763.9</ele>
        <time>2011-04-03T12:45:33Z</time>
      </trkpt>
      <trkpt lat="45.56252" lon="5.99887">
        <ele>765.83</ele>
        <time>2011-04-03T12:45:45Z</time>
      </trkpt>
      <trkpt lat="45.56228" lon="5.99934">
        <ele>764.87</ele>
        <time>2011-04-03T12:46:01Z</time>
      </trkpt>
      <trkpt lat="45.56214" lon="5.9998">
        <ele>765.35</ele>
        <time>2011-04-03T12:46:13Z</time>
      </trkpt>
      <trkpt lat="45.56206" lon="6.00042">
        <ele>766.79</ele>
        <time>2011-04-03T12:46:28Z</time>
      </trkpt>
      <trkpt lat="45.56195" lon="6.00096">
        <ele>764.39</ele>
        <time>2011-04-03T12:46:38Z</time>
      </trkpt>
      <trkpt lat="45.56188" lon="6.00124">
        <ele>763.42</ele>
        <time>2011-04-03T12:46:41Z</time>
      </trkpt>
      <trkpt lat="45.56187" lon="6.00134">
        <ele>762.94</ele>
        <time>2011-04-03T12:46:42Z</time>
      </trkpt>
      <trkpt lat="45.56186" lon="6.00143">
        <ele>763.42</ele>
        <time>2011-04-03T12:46:43Z</time>
      </trkpt>
      <trkpt lat="45.56186" lon="6.00152">
        <ele>761.98</ele>
        <time>2011-04-03T12:46:44Z</time>
      </trkpt>
      <trkpt lat="45.56185" lon="6.00161">
        <ele>762.94</ele>
        <time>2011-04-03T12:46:45Z</time>
      </trkpt>
      <trkpt lat="45.56184" lon="6.00169">
        <ele>762.94</ele>
        <time>2011-04-03T12:46:46Z</time>
      </trkpt>
      <trkpt lat="45.56182" lon="6.00193">
        <ele>761.98</ele>
        <time>2011-04-03T12:46:49Z</time>
      </trkpt>
      <trkpt lat="45.56183" lon="6.00201">
        <ele>761.98</ele>
        <time>2011-04-03T12:46:50Z</time>
      </trkpt>
      <trkpt lat="45.56185" lon="6.00216">
        <ele>761.5</ele>
        <time>2011-04-03T12:46:52Z</time>
      </trkpt>
      <trkpt lat="45.56187" lon="6.00223">
        <ele>761.5</ele>
        <time>2011-04-03T12:46:53Z</time>
      </trkpt>
      <trkpt lat="45.56188" lon="6.0023">
        <ele>761.5</ele>
        <time>2011-04-03T12:46:54Z</time>
      </trkpt>
      <trkpt lat="45.56196" lon="6.00259">
        <ele>759.58</ele>
        <time>2011-04-03T12:46:59Z</time>
      </trkpt>
      <trkpt lat="45.562" lon="6.0028">
        <ele>757.66</ele>
        <time>2011-04-03T12:47:02Z</time>
      </trkpt>
      <trkpt lat="45.56205" lon="6.00303">
        <ele>756.21</ele>
        <time>2011-04-03T12:47:05Z</time>
      </trkpt>
      <trkpt lat="45.56207" lon="6.00308">
        <ele>756.21</ele>
        <time>2011-04-03T12:47:06Z</time>
      </trkpt>
      <trkpt lat="45.56208" lon="6.00313">
        <ele>755.73</ele>
        <time>2011-04-03T12:47:07Z</time>
      </trkpt>
      <trkpt lat="45.56211" lon="6.00317">
        <ele>755.25</ele>
        <time>2011-04-03T12:47:08Z</time>
      </trkpt>
      <trkpt lat="45.56214" lon="6.00322">
        <ele>754.77</ele>
        <time>2011-04-03T12:47:09Z</time>
      </trkpt>
      <trkpt lat="45.56218" lon="6.00327">
        <ele>754.77</ele>
        <time>2011-04-03T12:47:10Z</time>
      </trkpt>
      <trkpt lat="45.56249" lon="6.00373">
        <ele>753.33</ele>
        <time>2011-04-03T12:47:18Z</time>
      </trkpt>
      <trkpt lat="45.56253" lon="6.00378">
        <ele>752.85</ele>
        <time>2011-04-03T12:47:19Z</time>
      </trkpt>
      <trkpt lat="45.56292" lon="6.00408">
        <ele>749.97</ele>
        <time>2011-04-03T12:47:27Z</time>
      </trkpt>
      <trkpt lat="45.56316" lon="6.00428">
        <ele>747.56</ele>
        <time>2011-04-03T12:47:31Z</time>
      </trkpt>
      <trkpt lat="45.56335" lon="6.00444">
        <ele>744.68</ele>
        <time>2011-04-03T12:47:34Z</time>
      </trkpt>
      <trkpt lat="45.56342" lon="6.00451">
        <ele>744.68</ele>
        <time>2011-04-03T12:47:35Z</time>
      </trkpt>
      <trkpt lat="45.56362" lon="6.00473">
        <ele>743.24</ele>
        <time>2011-04-03T12:47:38Z</time>
      </trkpt>
      <trkpt lat="45.56368" lon="6.0048">
        <ele>743.24</ele>
        <time>2011-04-03T12:47:39Z</time>
      </trkpt>
      <trkpt lat="45.56373" lon="6.00488">
        <ele>743.24</ele>
        <time>2011-04-03T12:47:40Z</time>
      </trkpt>
      <trkpt lat="45.56387" lon="6.00512">
        <ele>743.24</ele>
        <time>2011-04-03T12:47:43Z</time>
      </trkpt>
      <trkpt lat="45.56393" lon="6.0052">
        <ele>742.76</ele>
        <time>2011-04-03T12:47:44Z</time>
      </trkpt>
      <trkpt lat="45.56397" lon="6.00527">
        <ele>742.28</ele>
        <time>2011-04-03T12:47:45Z</time>
      </trkpt>
      <trkpt lat="45.56402" lon="6.00533">
        <ele>741.31</ele>
        <time>2011-04-03T12:47:46Z</time>
      </trkpt>
      <trkpt lat="45.56406" lon="6.0054">
        <ele>741.79</ele>
        <time>2011-04-03T12:47:47Z</time>
      </trkpt>
      <trkpt lat="45.56421" lon="6.00558">
        <ele>739.39</ele>
        <time>2011-04-03T12:47:50Z</time>
      </trkpt>
      <trkpt lat="45.56434" lon="6.00576">
        <ele>738.43</ele>
        <time>2011-04-03T12:47:53Z</time>
      </trkpt>
      <trkpt lat="45.56439" lon="6.00582">
        <ele>737.95</ele>
        <time>2011-04-03T12:47:54Z</time>
      </trkpt>
      <trkpt lat="45.56442" lon="6.00588">
        <ele>736.99</ele>
        <time>2011-04-03T12:47:55Z</time>
      </trkpt>
      <trkpt lat="45.56446" lon="6.00595">
        <ele>736.99</ele>
        <time>2011-04-03T12:47:56Z</time>
      </trkpt>
      <trkpt lat="45.5645" lon="6.00601">
        <ele>736.51</ele>
        <time>2011-04-03T12:47:57Z</time>
      </trkpt>
      <trkpt lat="45.56455" lon="6.00606">
        <ele>735.55</ele>
        <time>2011-04-03T12:47:58Z</time>
      </trkpt>
      <trkpt lat="45.56461" lon="6.00609">
        <ele>735.55</ele>
        <time>2011-04-03T12:47:59Z</time>
      </trkpt>
      <trkpt lat="45.56467" lon="6.00613">
        <ele>735.07</ele>
        <time>2011-04-03T12:48:00Z</time>
      </trkpt>
      <trkpt lat="45.56473" lon="6.00616">
        <ele>734.58</ele>
        <time>2011-04-03T12:48:01Z</time>
      </trkpt>
      <trkpt lat="45.56489" lon="6.00621">
        <ele>734.1</ele>
        <time>2011-04-03T12:48:04Z</time>
      </trkpt>
      <trkpt lat="45.56494" lon="6.00623">
        <ele>733.62</ele>
        <time>2011-04-03T12:48:05Z</time>
      </trkpt>
      <trkpt lat="45.56504" lon="6.00625">
        <ele>733.62</ele>
        <time>2011-04-03T12:48:07Z</time>
      </trkpt>
      <trkpt lat="45.56509" lon="6.00627">
        <ele>732.66</ele>
        <time>2011-04-03T12:48:08Z</time>
      </trkpt>
      <trkpt lat="45.56515" lon="6.0063">
        <ele>732.18</ele>
        <time>2011-04-03T12:48:09Z</time>
      </trkpt>
      <trkpt lat="45.5652" lon="6.00634">
        <ele>731.7</ele>
        <time>2011-04-03T12:48:10Z</time>
      </trkpt>
      <trkpt lat="45.56525" lon="6.00638">
        <ele>731.22</ele>
        <time>2011-04-03T12:48:11Z</time>
      </trkpt>
      <trkpt lat="45.56554" lon="6.00663">
        <ele>728.82</ele>
        <time>2011-04-03T12:48:17Z</time>
      </trkpt>
      <trkpt lat="45.5656" lon="6.00667">
        <ele>727.86</ele>
        <time>2011-04-03T12:48:18Z</time>
      </trkpt>
      <trkpt lat="45.56565" lon="6.00671">
        <ele>727.86</ele>
        <time>2011-04-03T12:48:19Z</time>
      </trkpt>
      <trkpt lat="45.5658" lon="6.00683">
        <ele>726.41</ele>
        <time>2011-04-03T12:48:22Z</time>
      </trkpt>
      <trkpt lat="45.56595" lon="6.00694">
        <ele>724.49</ele>
        <time>2011-04-03T12:48:25Z</time>
      </trkpt>
      <trkpt lat="45.566" lon="6.00696">
        <ele>724.01</ele>
        <time>2011-04-03T12:48:26Z</time>
      </trkpt>
      <trkpt lat="45.56605" lon="6.00698">
        <ele>723.53</ele>
        <time>2011-04-03T12:48:27Z</time>
      </trkpt>
      <trkpt lat="45.5661" lon="6.00699">
        <ele>723.05</ele>
        <time>2011-04-03T12:48:28Z</time>
      </trkpt>
      <trkpt lat="45.56615" lon="6.00699">
        <ele>722.57</ele>
        <time>2011-04-03T12:48:29Z</time>
      </trkpt>
      <trkpt lat="45.56619" lon="6.00698">
        <ele>722.57</ele>
        <time>2011-04-03T12:48:30Z</time>
      </trkpt>
      <trkpt lat="45.56624" lon="6.00698">
        <ele>722.09</ele>
        <time>2011-04-03T12:48:31Z</time>
      </trkpt>
      <trkpt lat="45.56627" lon="6.00701">
        <ele>721.13</ele>
        <time>2011-04-03T12:48:32Z</time>
      </trkpt>
      <trkpt lat="45.56629" lon="6.00705">
        <ele>721.13</ele>
        <time>2011-04-03T12:48:33Z</time>
      </trkpt>
      <trkpt lat="45.56631" lon="6.00711">
        <ele>721.13</ele>
        <time>2011-04-03T12:48:34Z</time>
      </trkpt>
      <trkpt lat="45.56633" lon="6.00718">
        <ele>720.16</ele>
        <time>2011-04-03T12:48:35Z</time>
      </trkpt>
      <trkpt lat="45.56634" lon="6.00725">
        <ele>719.68</ele>
        <time>2011-04-03T12:48:36Z</time>
      </trkpt>
      <trkpt lat="45.56639" lon="6.00741">
        <ele>717.76</ele>
        <time>2011-04-03T12:48:39Z</time>
      </trkpt>
      <trkpt lat="45.56642" lon="6.00743">
        <ele>717.76</ele>
        <time>2011-04-03T12:48:40Z</time>
      </trkpt>
      <trkpt lat="45.5666" lon="6.00771">
        <ele>714.4</ele>
        <time>2011-04-03T12:48:48Z</time>
      </trkpt>
      <trkpt lat="45.56662" lon="6.00777">
        <ele>713.92</ele>
        <time>2011-04-03T12:48:49Z</time>
      </trkpt>
      <trkpt lat="45.56664" lon="6.00783">
        <ele>712.95</ele>
        <time>2011-04-03T12:48:50Z</time>
      </trkpt>
      <trkpt lat="45.56665" lon="6.00797">
        <ele>711.99</ele>
        <time>2011-04-03T12:48:52Z</time>
      </trkpt>
      <trkpt lat="45.56664" lon="6.00803">
        <ele>711.51</ele>
        <time>2011-04-03T12:48:53Z</time>
      </trkpt>
      <trkpt lat="45.56663" lon="6.00807">
        <ele>710.55</ele>
        <time>2011-04-03T12:48:54Z</time>
      </trkpt>
      <trkpt lat="45.56661" lon="6.00812">
        <ele>710.07</ele>
        <time>2011-04-03T12:48:55Z</time>
      </trkpt>
      <trkpt lat="45.56658" lon="6.00817">
        <ele>710.07</ele>
        <time>2011-04-03T12:48:56Z</time>
      </trkpt>
      <trkpt lat="45.56652" lon="6.00828">
        <ele>709.11</ele>
        <time>2011-04-03T12:48:58Z</time>
      </trkpt>
      <trkpt lat="45.56648" lon="6.00834">
        <ele>708.63</ele>
        <time>2011-04-03T12:48:59Z</time>
      </trkpt>
      <trkpt lat="45.56624" lon="6.00889">
        <ele>707.19</ele>
        <time>2011-04-03T12:49:06Z</time>
      </trkpt>
      <trkpt lat="45.5662" lon="6.00897">
        <ele>706.71</ele>
        <time>2011-04-03T12:49:07Z</time>
      </trkpt>
      <trkpt lat="45.56612" lon="6.00909">
        <ele>706.23</ele>
        <time>2011-04-03T12:49:09Z</time>
      </trkpt>
      <trkpt lat="45.56609" lon="6.00913">
        <ele>705.75</ele>
        <time>2011-04-03T12:49:10Z</time>
      </trkpt>
      <trkpt lat="45.56607" lon="6.00917">
        <ele>705.75</ele>
        <time>2011-04-03T12:49:11Z</time>
      </trkpt>
      <trkpt lat="45.5659" lon="6.00946">
        <ele>704.78</ele>
        <time>2011-04-03T12:49:17Z</time>
      </trkpt>
      <trkpt lat="45.56584" lon="6.00956">
        <ele>704.78</ele>
        <time>2011-04-03T12:49:19Z</time>
      </trkpt>
      <trkpt lat="45.56581" lon="6.0096">
        <ele>704.78</ele>
        <time>2011-04-03T12:49:20Z</time>
      </trkpt>
      <trkpt lat="45.56579" lon="6.00964">
        <ele>704.3</ele>
        <time>2011-04-03T12:49:21Z</time>
      </trkpt>
      <trkpt lat="45.56577" lon="6.00969">
        <ele>704.78</ele>
        <time>2011-04-03T12:49:22Z</time>
      </trkpt>
      <trkpt lat="45.56575" lon="6.00974">
        <ele>704.3</ele>
        <time>2011-04-03T12:49:23Z</time>
      </trkpt>
      <trkpt lat="45.56574" lon="6.00979">
        <ele>704.3</ele>
        <time>2011-04-03T12:49:24Z</time>
      </trkpt>
      <trkpt lat="45.56558" lon="6.01029">
        <ele>704.3</ele>
        <time>2011-04-03T12:49:36Z</time>
      </trkpt>
      <trkpt lat="45.56529" lon="6.01077">
        <ele>704.78</ele>
        <time>2011-04-03T12:49:50Z</time>
      </trkpt>
      <trkpt lat="45.56511" lon="6.01131">
        <ele>705.75</ele>
        <time>2011-04-03T12:50:03Z</time>
      </trkpt>
      <trkpt lat="45.56508" lon="6.01142">
        <ele>705.75</ele>
        <time>2011-04-03T12:50:06Z</time>
      </trkpt>
      <trkpt lat="45.56506" lon="6.01143">
        <ele>705.75</ele>
        <time>2011-04-03T12:50:07Z</time>
      </trkpt>
      <trkpt lat="45.56503" lon="6.01143">
        <ele>706.23</ele>
        <time>2011-04-03T12:50:08Z</time>
      </trkpt>
      <trkpt lat="45.56502" lon="6.01143">
        <ele>706.23</ele>
        <time>2011-04-03T12:50:09Z</time>
      </trkpt>
      <trkpt lat="45.56497" lon="6.01142">
        <ele>706.71</ele>
        <time>2011-04-03T12:50:13Z</time>
      </trkpt>
      <trkpt lat="45.56496" lon="6.01142">
        <ele>706.71</ele>
        <time>2011-04-03T12:50:14Z</time>
      </trkpt>
      <trkpt lat="45.56495" lon="6.01142">
        <ele>706.71</ele>
        <time>2011-04-03T12:50:15Z</time>
      </trkpt>
      <trkpt lat="45.56494" lon="6.01141">
        <ele>707.19</ele>
        <time>2011-04-03T12:50:16Z</time>
      </trkpt>
      <trkpt lat="45.56493" lon="6.0114">
        <ele>707.19</ele>
        <time>2011-04-03T12:50:17Z</time>
      </trkpt>
      <trkpt lat="45.5647" lon="6.01132">
        <ele>709.59</ele>
        <time>2011-04-03T12:50:32Z</time>
      </trkpt>
      <trkpt lat="45.56454" lon="6.0111">
        <ele>712.47</ele>
        <time>2011-04-03T12:50:47Z</time>
      </trkpt>
      <trkpt lat="45.5644" lon="6.01088">
        <ele>714.4</ele>
        <time>2011-04-03T12:51:01Z</time>
      </trkpt>
      <trkpt lat="45.56435" lon="6.0108">
        <ele>715.36</ele>
        <time>2011-04-03T12:51:06Z</time>
      </trkpt>
      <trkpt lat="45.56434" lon="6.01079">
        <ele>715.84</ele>
        <time>2011-04-03T12:51:07Z</time>
      </trkpt>
      <trkpt lat="45.56433" lon="6.01078">
        <ele>715.84</ele>
        <time>2011-04-03T12:51:08Z</time>
      </trkpt>
      <trkpt lat="45.56432" lon="6.01076">
        <ele>715.84</ele>
        <time>2011-04-03T12:51:09Z</time>
      </trkpt>
      <trkpt lat="45.56431" lon="6.01074">
        <ele>715.84</ele>
        <time>2011-04-03T12:51:10Z</time>
      </trkpt>
      <trkpt lat="45.5643" lon="6.01073">
        <ele>716.32</ele>
        <time>2011-04-03T12:51:11Z</time>
      </trkpt>
      <trkpt lat="45.56429" lon="6.01071">
        <ele>716.32</ele>
        <time>2011-04-03T12:51:12Z</time>
      </trkpt>
      <trkpt lat="45.56428" lon="6.01069">
        <ele>716.32</ele>
        <time>2011-04-03T12:51:13Z</time>
      </trkpt>
      <trkpt lat="45.56427" lon="6.01067">
        <ele>716.8</ele>
        <time>2011-04-03T12:51:14Z</time>
      </trkpt>
      <trkpt lat="45.56412" lon="6.01045">
        <ele>719.2</ele>
        <time>2011-04-03T12:51:29Z</time>
      </trkpt>
      <trkpt lat="45.56407" lon="6.01035">
        <ele>719.68</ele>
        <time>2011-04-03T12:51:35Z</time>
      </trkpt>
      <trkpt lat="45.56406" lon="6.01035">
        <ele>719.68</ele>
        <time>2011-04-03T12:51:36Z</time>
      </trkpt>
      <trkpt lat="45.56405" lon="6.01034">
        <ele>720.16</ele>
        <time>2011-04-03T12:51:37Z</time>
      </trkpt>
      <trkpt lat="45.56405" lon="6.01033">
        <ele>720.16</ele>
        <time>2011-04-03T12:51:38Z</time>
      </trkpt>
      <trkpt lat="45.56404" lon="6.01032">
        <ele>720.16</ele>
        <time>2011-04-03T12:51:39Z</time>
      </trkpt>
      <trkpt lat="45.56401" lon="6.01028">
        <ele>721.13</ele>
        <time>2011-04-03T12:51:42Z</time>
      </trkpt>
      <trkpt lat="45.56396" lon="6.01026">
        <ele>722.09</ele>
        <time>2011-04-03T12:51:47Z</time>
      </trkpt>
      <trkpt lat="45.56385" lon="6.01033">
        <ele>724.01</ele>
        <time>2011-04-03T12:52:00Z</time>
      </trkpt>
      <trkpt lat="45.56384" lon="6.01033">
        <ele>724.49</ele>
        <time>2011-04-03T12:52:02Z</time>
      </trkpt>
      <trkpt lat="45.56376" lon="6.01039">
        <ele>726.41</ele>
        <time>2011-04-03T12:52:11Z</time>
      </trkpt>
      <trkpt lat="45.56369" lon="6.01042">
        <ele>727.37</ele>
        <time>2011-04-03T12:52:18Z</time>
      </trkpt>
      <trkpt lat="45.56358" lon="6.01046">
        <ele>729.78</ele>
        <time>2011-04-03T12:52:31Z</time>
      </trkpt>
      <trkpt lat="45.56348" lon="6.01051">
        <ele>731.7</ele>
        <time>2011-04-03T12:52:44Z</time>
      </trkpt>
      <trkpt lat="45.56336" lon="6.01057">
        <ele>733.62</ele>
        <time>2011-04-03T12:52:56Z</time>
      </trkpt>
      <trkpt lat="45.56324" lon="6.01059">
        <ele>735.55</ele>
        <time>2011-04-03T12:53:09Z</time>
      </trkpt>
      <trkpt lat="45.56308" lon="6.0106">
        <ele>736.99</ele>
        <time>2011-04-03T12:53:23Z</time>
      </trkpt>
      <trkpt lat="45.56307" lon="6.0106">
        <ele>736.99</ele>
        <time>2011-04-03T12:53:24Z</time>
      </trkpt>
      <trkpt lat="45.56306" lon="6.0106">
        <ele>737.47</ele>
        <time>2011-04-03T12:53:25Z</time>
      </trkpt>
      <trkpt lat="45.56302" lon="6.0106">
        <ele>737.47</ele>
        <time>2011-04-03T12:53:28Z</time>
      </trkpt>
      <trkpt lat="45.56301" lon="6.01061">
        <ele>737.95</ele>
        <time>2011-04-03T12:53:29Z</time>
      </trkpt>
      <trkpt lat="45.56292" lon="6.01065">
        <ele>738.91</ele>
        <time>2011-04-03T12:53:37Z</time>
      </trkpt>
      <trkpt lat="45.5629" lon="6.01066">
        <ele>738.43</ele>
        <time>2011-04-03T12:53:38Z</time>
      </trkpt>
      <trkpt lat="45.56263" lon="6.01066">
        <ele>738.43</ele>
        <time>2011-04-03T12:53:48Z</time>
      </trkpt>
      <trkpt lat="45.56245" lon="6.01045">
        <ele>740.83</ele>
        <time>2011-04-03T12:54:01Z</time>
      </trkpt>
      <trkpt lat="45.56234" lon="6.01016">
        <ele>743.24</ele>
        <time>2011-04-03T12:54:15Z</time>
      </trkpt>
      <trkpt lat="45.56233" lon="6.0101">
        <ele>743.72</ele>
        <time>2011-04-03T12:54:18Z</time>
      </trkpt>
      <trkpt lat="45.56233" lon="6.01008">
        <ele>743.72</ele>
        <time>2011-04-03T12:54:19Z</time>
      </trkpt>
      <trkpt lat="45.56233" lon="6.01006">
        <ele>743.72</ele>
        <time>2011-04-03T12:54:20Z</time>
      </trkpt>
      <trkpt lat="45.56232" lon="6.01004">
        <ele>744.2</ele>
        <time>2011-04-03T12:54:21Z</time>
      </trkpt>
      <trkpt lat="45.56232" lon="6.01002">
        <ele>744.2</ele>
        <time>2011-04-03T12:54:22Z</time>
      </trkpt>
      <trkpt lat="45.56231" lon="6.00997">
        <ele>744.2</ele>
        <time>2011-04-03T12:54:24Z</time>
      </trkpt>
      <trkpt lat="45.56231" lon="6.00995">
        <ele>744.68</ele>
        <time>2011-04-03T12:54:25Z</time>
      </trkpt>
      <trkpt lat="45.56221" lon="6.00964">
        <ele>747.08</ele>
        <time>2011-04-03T12:54:39Z</time>
      </trkpt>
      <trkpt lat="45.562" lon="6.00948">
        <ele>749</ele>
        <time>2011-04-03T12:54:53Z</time>
      </trkpt>
      <trkpt lat="45.56171" lon="6.00931">
        <ele>752.37</ele>
        <time>2011-04-03T12:55:10Z</time>
      </trkpt>
      <trkpt lat="45.56148" lon="6.00921">
        <ele>754.29</ele>
        <time>2011-04-03T12:55:24Z</time>
      </trkpt>
      <trkpt lat="45.56126" lon="6.00926">
        <ele>756.69</ele>
        <time>2011-04-03T12:55:36Z</time>
      </trkpt>
      <trkpt lat="45.56099" lon="6.0094">
        <ele>759.58</ele>
        <time>2011-04-03T12:55:53Z</time>
      </trkpt>
      <trkpt lat="45.56075" lon="6.00948">
        <ele>762.46</ele>
        <time>2011-04-03T12:56:07Z</time>
      </trkpt>
      <trkpt lat="45.56049" lon="6.00968">
        <ele>764.87</ele>
        <time>2011-04-03T12:56:23Z</time>
      </trkpt>
      <trkpt lat="45.56034" lon="6.00998">
        <ele>767.75</ele>
        <time>2011-04-03T12:56:37Z</time>
      </trkpt>
      <trkpt lat="45.56023" lon="6.01021">
        <ele>769.19</ele>
        <time>2011-04-03T12:56:49Z</time>
      </trkpt>
      <trkpt lat="45.56009" lon="6.01047">
        <ele>771.6</ele>
        <time>2011-04-03T12:57:03Z</time>
      </trkpt>
      <trkpt lat="45.55992" lon="6.01071">
        <ele>774.48</ele>
        <time>2011-04-03T12:57:17Z</time>
      </trkpt>
      <trkpt lat="45.55973" lon="6.01091">
        <ele>776.4</ele>
        <time>2011-04-03T12:57:30Z</time>
      </trkpt>
      <trkpt lat="45.55958" lon="6.01121">
        <ele>779.29</ele>
        <time>2011-04-03T12:57:44Z</time>
      </trkpt>
      <trkpt lat="45.55943" lon="6.01149">
        <ele>782.17</ele>
        <time>2011-04-03T12:57:58Z</time>
      </trkpt>
      <trkpt lat="45.5593" lon="6.01164">
        <ele>783.13</ele>
        <time>2011-04-03T12:58:06Z</time>
      </trkpt>
      <trkpt lat="45.55914" lon="6.01188">
        <ele>785.53</ele>
        <time>2011-04-03T12:58:19Z</time>
      </trkpt>
      <trkpt lat="45.55893" lon="6.01214">
        <ele>788.42</ele>
        <time>2011-04-03T12:58:35Z</time>
      </trkpt>
      <trkpt lat="45.55874" lon="6.01218">
        <ele>790.34</ele>
        <time>2011-04-03T12:58:46Z</time>
      </trkpt>
      <trkpt lat="45.55851" lon="6.01214">
        <ele>792.26</ele>
        <time>2011-04-03T12:59:00Z</time>
      </trkpt>
      <trkpt lat="45.55824" lon="6.01191">
        <ele>795.15</ele>
        <time>2011-04-03T12:59:17Z</time>
      </trkpt>
      <trkpt lat="45.558" lon="6.01164">
        <ele>796.59</ele>
        <time>2011-04-03T12:59:33Z</time>
      </trkpt>
      <trkpt lat="45.55784" lon="6.0114">
        <ele>798.99</ele>
        <time>2011-04-03T12:59:46Z</time>
      </trkpt>
      <trkpt lat="45.5578" lon="6.01144">
        <ele>799.47</ele>
        <time>2011-04-03T12:59:50Z</time>
      </trkpt>
      <trkpt lat="45.55779" lon="6.01146">
        <ele>799.47</ele>
        <time>2011-04-03T12:59:51Z</time>
      </trkpt>
      <trkpt lat="45.55774" lon="6.01156">
        <ele>799.95</ele>
        <time>2011-04-03T12:59:57Z</time>
      </trkpt>
      <trkpt lat="45.55771" lon="6.01159">
        <ele>800.92</ele>
        <time>2011-04-03T12:59:59Z</time>
      </trkpt>
      <trkpt lat="45.55759" lon="6.0115">
        <ele>804.76</ele>
        <time>2011-04-03T13:00:13Z</time>
      </trkpt>
      <trkpt lat="45.55758" lon="6.01148">
        <ele>804.76</ele>
        <time>2011-04-03T13:00:14Z</time>
      </trkpt>
      <trkpt lat="45.55755" lon="6.01139">
        <ele>806.2</ele>
        <time>2011-04-03T13:00:25Z</time>
      </trkpt>
      <trkpt lat="45.55749" lon="6.01131">
        <ele>809.09</ele>
        <time>2011-04-03T13:00:38Z</time>
      </trkpt>
      <trkpt lat="45.55743" lon="6.01125">
        <ele>810.53</ele>
        <time>2011-04-03T13:00:51Z</time>
      </trkpt>
      <trkpt lat="45.55743" lon="6.01125">
        <ele>810.53</ele>
        <time>2011-04-03T13:01:18Z</time>
      </trkpt>
      <trkpt lat="45.5574" lon="6.01119">
        <ele>811.01</ele>
        <time>2011-04-03T13:01:26Z</time>
      </trkpt>
      <trkpt lat="45.5573" lon="6.01108">
        <ele>813.41</ele>
        <time>2011-04-03T13:01:38Z</time>
      </trkpt>
      <trkpt lat="45.55729" lon="6.01106">
        <ele>813.89</ele>
        <time>2011-04-03T13:01:40Z</time>
      </trkpt>
      <trkpt lat="45.55724" lon="6.011">
        <ele>815.34</ele>
        <time>2011-04-03T13:01:46Z</time>
      </trkpt>
      <trkpt lat="45.55724" lon="6.01098">
        <ele>816.3</ele>
        <time>2011-04-03T13:01:48Z</time>
      </trkpt>
      <trkpt lat="45.55719" lon="6.01093">
        <ele>816.3</ele>
        <time>2011-04-03T13:01:52Z</time>
      </trkpt>
      <trkpt lat="45.55707" lon="6.0108">
        <ele>818.7</ele>
        <time>2011-04-03T13:02:07Z</time>
      </trkpt>
      <trkpt lat="45.55703" lon="6.01062">
        <ele>821.1</ele>
        <time>2011-04-03T13:02:20Z</time>
      </trkpt>
      <trkpt lat="45.55698" lon="6.01042">
        <ele>822.55</ele>
        <time>2011-04-03T13:02:30Z</time>
      </trkpt>
      <trkpt lat="45.55697" lon="6.01009">
        <ele>823.03</ele>
        <time>2011-04-03T13:02:44Z</time>
      </trkpt>
      <trkpt lat="45.55697" lon="6.0098">
        <ele>825.43</ele>
        <time>2011-04-03T13:02:56Z</time>
      </trkpt>
      <trkpt lat="45.55693" lon="6.00953">
        <ele>826.39</ele>
        <time>2011-04-03T13:03:07Z</time>
      </trkpt>
      <trkpt lat="45.55664" lon="6.00918">
        <ele>826.87</ele>
        <time>2011-04-03T13:03:20Z</time>
      </trkpt>
      <trkpt lat="45.55649" lon="6.00912">
        <ele>826.39</ele>
        <time>2011-04-03T13:03:24Z</time>
      </trkpt>
      <trkpt lat="45.55645" lon="6.00909">
        <ele>826.39</ele>
        <time>2011-04-03T13:03:25Z</time>
      </trkpt>
      <trkpt lat="45.55607" lon="6.00861">
        <ele>823.51</ele>
        <time>2011-04-03T13:03:35Z</time>
      </trkpt>
      <trkpt lat="45.55603" lon="6.00854">
        <ele>823.51</ele>
        <time>2011-04-03T13:03:36Z</time>
      </trkpt>
      <trkpt lat="45.55598" lon="6.00848">
        <ele>823.03</ele>
        <time>2011-04-03T13:03:37Z</time>
      </trkpt>
      <trkpt lat="45.55595" lon="6.00839">
        <ele>822.55</ele>
        <time>2011-04-03T13:03:38Z</time>
      </trkpt>
      <trkpt lat="45.55593" lon="6.0083">
        <ele>822.55</ele>
        <time>2011-04-03T13:03:39Z</time>
      </trkpt>
      <trkpt lat="45.55591" lon="6.00821">
        <ele>822.06</ele>
        <time>2011-04-03T13:03:40Z</time>
      </trkpt>
      <trkpt lat="45.55589" lon="6.00812">
        <ele>821.58</ele>
        <time>2011-04-03T13:03:41Z</time>
      </trkpt>
      <trkpt lat="45.55586" lon="6.00803">
        <ele>821.58</ele>
        <time>2011-04-03T13:03:42Z</time>
      </trkpt>
      <trkpt lat="45.55583" lon="6.00795">
        <ele>821.58</ele>
        <time>2011-04-03T13:03:43Z</time>
      </trkpt>
      <trkpt lat="45.55579" lon="6.00788">
        <ele>821.1</ele>
        <time>2011-04-03T13:03:44Z</time>
      </trkpt>
      <trkpt lat="45.55575" lon="6.00781">
        <ele>821.1</ele>
        <time>2011-04-03T13:03:45Z</time>
      </trkpt>
      <trkpt lat="45.55571" lon="6.00773">
        <ele>820.62</ele>
        <time>2011-04-03T13:03:46Z</time>
      </trkpt>
      <trkpt lat="45.55568" lon="6.00765">
        <ele>821.1</ele>
        <time>2011-04-03T13:03:47Z</time>
      </trkpt>
      <trkpt lat="45.55565" lon="6.00757">
        <ele>820.62</ele>
        <time>2011-04-03T13:03:48Z</time>
      </trkpt>
      <trkpt lat="45.5556" lon="6.00741">
        <ele>820.14</ele>
        <time>2011-04-03T13:03:50Z</time>
      </trkpt>
      <trkpt lat="45.55558" lon="6.00733">
        <ele>819.66</ele>
        <time>2011-04-03T13:03:51Z</time>
      </trkpt>
      <trkpt lat="45.5555" lon="6.00704">
        <ele>817.74</ele>
        <time>2011-04-03T13:03:55Z</time>
      </trkpt>
      <trkpt lat="45.55547" lon="6.00697">
        <ele>817.26</ele>
        <time>2011-04-03T13:03:56Z</time>
      </trkpt>
      <trkpt lat="45.55544" lon="6.00692">
        <ele>816.78</ele>
        <time>2011-04-03T13:03:57Z</time>
      </trkpt>
      <trkpt lat="45.55532" lon="6.00678">
        <ele>815.82</ele>
        <time>2011-04-03T13:04:00Z</time>
      </trkpt>
      <trkpt lat="45.55505" lon="6.00668">
        <ele>812.93</ele>
        <time>2011-04-03T13:04:11Z</time>
      </trkpt>
      <trkpt lat="45.5549" lon="6.00682">
        <ele>809.57</ele>
        <time>2011-04-03T13:04:17Z</time>
      </trkpt>
      <trkpt lat="45.55483" lon="6.00691">
        <ele>807.16</ele>
        <time>2011-04-03T13:04:20Z</time>
      </trkpt>
      <trkpt lat="45.55482" lon="6.00696">
        <ele>806.2</ele>
        <time>2011-04-03T13:04:21Z</time>
      </trkpt>
      <trkpt lat="45.55481" lon="6.00701">
        <ele>806.2</ele>
        <time>2011-04-03T13:04:22Z</time>
      </trkpt>
      <trkpt lat="45.55479" lon="6.00706">
        <ele>805.72</ele>
        <time>2011-04-03T13:04:23Z</time>
      </trkpt>
      <trkpt lat="45.55479" lon="6.00711">
        <ele>805.72</ele>
        <time>2011-04-03T13:04:24Z</time>
      </trkpt>
      <trkpt lat="45.55477" lon="6.00729">
        <ele>804.28</ele>
        <time>2011-04-03T13:04:28Z</time>
      </trkpt>
      <trkpt lat="45.55468" lon="6.00778">
        <ele>801.4</ele>
        <time>2011-04-03T13:04:40Z</time>
      </trkpt>
      <trkpt lat="45.55461" lon="6.00798">
        <ele>799.47</ele>
        <time>2011-04-03T13:04:48Z</time>
      </trkpt>
      <trkpt lat="45.55459" lon="6.00811">
        <ele>798.51</ele>
        <time>2011-04-03T13:05:00Z</time>
      </trkpt>
      <trkpt lat="45.55459" lon="6.00815">
        <ele>798.51</ele>
        <time>2011-04-03T13:05:04Z</time>
      </trkpt>
      <trkpt lat="45.55458" lon="6.00818">
        <ele>798.03</ele>
        <time>2011-04-03T13:05:05Z</time>
      </trkpt>
      <trkpt lat="45.55456" lon="6.00822">
        <ele>798.51</ele>
        <time>2011-04-03T13:05:06Z</time>
      </trkpt>
      <trkpt lat="45.55454" lon="6.00826">
        <ele>797.55</ele>
        <time>2011-04-03T13:05:07Z</time>
      </trkpt>
      <trkpt lat="45.55453" lon="6.00831">
        <ele>796.59</ele>
        <time>2011-04-03T13:05:08Z</time>
      </trkpt>
      <trkpt lat="45.55451" lon="6.00836">
        <ele>796.11</ele>
        <time>2011-04-03T13:05:09Z</time>
      </trkpt>
      <trkpt lat="45.55449" lon="6.00842">
        <ele>795.15</ele>
        <time>2011-04-03T13:05:10Z</time>
      </trkpt>
      <trkpt lat="45.55448" lon="6.00847">
        <ele>794.67</ele>
        <time>2011-04-03T13:05:11Z</time>
      </trkpt>
      <trkpt lat="45.55447" lon="6.00854">
        <ele>794.19</ele>
        <time>2011-04-03T13:05:12Z</time>
      </trkpt>
      <trkpt lat="45.55448" lon="6.0086">
        <ele>793.71</ele>
        <time>2011-04-03T13:05:13Z</time>
      </trkpt>
      <trkpt lat="45.55449" lon="6.00865">
        <ele>793.71</ele>
        <time>2011-04-03T13:05:14Z</time>
      </trkpt>
      <trkpt lat="45.55449" lon="6.00871">
        <ele>793.22</ele>
        <time>2011-04-03T13:05:15Z</time>
      </trkpt>
      <trkpt lat="45.55451" lon="6.00876">
        <ele>792.74</ele>
        <time>2011-04-03T13:05:16Z</time>
      </trkpt>
      <trkpt lat="45.55451" lon="6.00881">
        <ele>791.78</ele>
        <time>2011-04-03T13:05:17Z</time>
      </trkpt>
      <trkpt lat="45.55454" lon="6.00901">
        <ele>788.9</ele>
        <time>2011-04-03T13:05:21Z</time>
      </trkpt>
      <trkpt lat="45.55461" lon="6.00918">
        <ele>785.53</ele>
        <time>2011-04-03T13:05:25Z</time>
      </trkpt>
      <trkpt lat="45.55469" lon="6.0094">
        <ele>782.65</ele>
        <time>2011-04-03T13:05:29Z</time>
      </trkpt>
      <trkpt lat="45.55481" lon="6.0096">
        <ele>779.77</ele>
        <time>2011-04-03T13:05:35Z</time>
      </trkpt>
      <trkpt lat="45.55494" lon="6.00978">
        <ele>776.4</ele>
        <time>2011-04-03T13:05:44Z</time>
      </trkpt>
      <trkpt lat="45.55504" lon="6.00993">
        <ele>774.48</ele>
        <time>2011-04-03T13:05:49Z</time>
      </trkpt>
      <trkpt lat="45.55507" lon="6.01003">
        <ele>773.04</ele>
        <time>2011-04-03T13:05:52Z</time>
      </trkpt>
      <trkpt lat="45.55512" lon="6.01013">
        <ele>772.08</ele>
        <time>2011-04-03T13:05:58Z</time>
      </trkpt>
      <trkpt lat="45.55519" lon="6.01031">
        <ele>768.71</ele>
        <time>2011-04-03T13:06:05Z</time>
      </trkpt>
      <trkpt lat="45.55526" lon="6.0105">
        <ele>765.83</ele>
        <time>2011-04-03T13:06:12Z</time>
      </trkpt>
      <trkpt lat="45.55525" lon="6.01052">
        <ele>764.87</ele>
        <time>2011-04-03T13:06:15Z</time>
      </trkpt>
      <trkpt lat="45.55518" lon="6.0105">
        <ele>763.9</ele>
        <time>2011-04-03T13:06:18Z</time>
      </trkpt>
      <trkpt lat="45.55515" lon="6.01049">
        <ele>763.42</ele>
        <time>2011-04-03T13:06:19Z</time>
      </trkpt>
      <trkpt lat="45.55513" lon="6.01046">
        <ele>762.94</ele>
        <time>2011-04-03T13:06:20Z</time>
      </trkpt>
      <trkpt lat="45.5551" lon="6.01044">
        <ele>762.46</ele>
        <time>2011-04-03T13:06:21Z</time>
      </trkpt>
      <trkpt lat="45.55507" lon="6.01043">
        <ele>762.46</ele>
        <time>2011-04-03T13:06:22Z</time>
      </trkpt>
      <trkpt lat="45.55505" lon="6.01041">
        <ele>762.46</ele>
        <time>2011-04-03T13:06:23Z</time>
      </trkpt>
      <trkpt lat="45.55502" lon="6.01038">
        <ele>762.46</ele>
        <time>2011-04-03T13:06:24Z</time>
      </trkpt>
      <trkpt lat="45.55477" lon="6.01018">
        <ele>758.62</ele>
        <time>2011-04-03T13:06:34Z</time>
      </trkpt>
      <trkpt lat="45.5547" lon="6.01009">
        <ele>757.66</ele>
        <time>2011-04-03T13:06:36Z</time>
      </trkpt>
      <trkpt lat="45.55462" lon="6.00998">
        <ele>755.73</ele>
        <time>2011-04-03T13:06:38Z</time>
      </trkpt>
      <trkpt lat="45.55459" lon="6.00993">
        <ele>755.25</ele>
        <time>2011-04-03T13:06:39Z</time>
      </trkpt>
      <trkpt lat="45.55452" lon="6.00997">
        <ele>751.89</ele>
        <time>2011-04-03T13:06:46Z</time>
      </trkpt>
      <trkpt lat="45.55453" lon="6.01005">
        <ele>751.89</ele>
        <time>2011-04-03T13:06:47Z</time>
      </trkpt>
      <trkpt lat="45.55455" lon="6.01013">
        <ele>751.41</ele>
        <time>2011-04-03T13:06:48Z</time>
      </trkpt>
      <trkpt lat="45.55458" lon="6.01021">
        <ele>751.41</ele>
        <time>2011-04-03T13:06:49Z</time>
      </trkpt>
      <trkpt lat="45.5546" lon="6.01027">
        <ele>750.45</ele>
        <time>2011-04-03T13:06:50Z</time>
      </trkpt>
      <trkpt lat="45.55462" lon="6.01034">
        <ele>749.97</ele>
        <time>2011-04-03T13:06:51Z</time>
      </trkpt>
      <trkpt lat="45.55463" lon="6.01039">
        <ele>749.97</ele>
        <time>2011-04-03T13:06:52Z</time>
      </trkpt>
      <trkpt lat="45.55465" lon="6.01046">
        <ele>749.49</ele>
        <time>2011-04-03T13:06:53Z</time>
      </trkpt>
      <trkpt lat="45.55468" lon="6.0105">
        <ele>749</ele>
        <time>2011-04-03T13:06:54Z</time>
      </trkpt>
      <trkpt lat="45.5547" lon="6.01054">
        <ele>749</ele>
        <time>2011-04-03T13:06:55Z</time>
      </trkpt>
      <trkpt lat="45.55471" lon="6.01057">
        <ele>748.04</ele>
        <time>2011-04-03T13:06:56Z</time>
      </trkpt>
      <trkpt lat="45.55475" lon="6.0106">
        <ele>747.56</ele>
        <time>2011-04-03T13:07:05Z</time>
      </trkpt>
      <trkpt lat="45.55473" lon="6.0106">
        <ele>747.56</ele>
        <time>2011-04-03T13:07:07Z</time>
      </trkpt>
      <trkpt lat="45.55466" lon="6.01056">
        <ele>745.16</ele>
        <time>2011-04-03T13:07:17Z</time>
      </trkpt>
      <trkpt lat="45.55464" lon="6.01055">
        <ele>744.68</ele>
        <time>2011-04-03T13:07:18Z</time>
      </trkpt>
      <trkpt lat="45.55462" lon="6.01053">
        <ele>744.68</ele>
        <time>2011-04-03T13:07:19Z</time>
      </trkpt>
      <trkpt lat="45.55461" lon="6.01051">
        <ele>743.72</ele>
        <time>2011-04-03T13:07:20Z</time>
      </trkpt>
      <trkpt lat="45.5546" lon="6.0105">
        <ele>743.72</ele>
        <time>2011-04-03T13:07:21Z</time>
      </trkpt>
      <trkpt lat="45.55459" lon="6.01048">
        <ele>743.72</ele>
        <time>2011-04-03T13:07:22Z</time>
      </trkpt>
      <trkpt lat="45.55453" lon="6.01038">
        <ele>741.31</ele>
        <time>2011-04-03T13:07:33Z</time>
      </trkpt>
      <trkpt lat="45.55453" lon="6.01039">
        <ele>741.31</ele>
        <time>2011-04-03T13:07:43Z</time>
      </trkpt>
      <trkpt lat="45.55454" lon="6.01041">
        <ele>741.31</ele>
        <time>2011-04-03T13:07:47Z</time>
      </trkpt>
      <trkpt lat="45.55454" lon="6.01044">
        <ele>741.31</ele>
        <time>2011-04-03T13:07:48Z</time>
      </trkpt>
      <trkpt lat="45.55454" lon="6.01046">
        <ele>741.31</ele>
        <time>2011-04-03T13:07:49Z</time>
      </trkpt>
      <trkpt lat="45.55459" lon="6.01059">
        <ele>740.35</ele>
        <time>2011-04-03T13:08:00Z</time>
      </trkpt>
      <trkpt lat="45.55457" lon="6.01055">
        <ele>738.91</ele>
        <time>2011-04-03T13:08:14Z</time>
      </trkpt>
      <trkpt lat="45.55456" lon="6.01054">
        <ele>739.39</ele>
        <time>2011-04-03T13:08:15Z</time>
      </trkpt>
      <trkpt lat="45.55454" lon="6.01052">
        <ele>739.39</ele>
        <time>2011-04-03T13:08:16Z</time>
      </trkpt>
      <trkpt lat="45.55452" lon="6.0105">
        <ele>738.43</ele>
        <time>2011-04-03T13:08:17Z</time>
      </trkpt>
      <trkpt lat="45.55431" lon="6.01031">
        <ele>736.03</ele>
        <time>2011-04-03T13:08:24Z</time>
      </trkpt>
      <trkpt lat="45.55422" lon="6.01021">
        <ele>734.58</ele>
        <time>2011-04-03T13:08:27Z</time>
      </trkpt>
      <trkpt lat="45.55412" lon="6.01012">
        <ele>732.18</ele>
        <time>2011-04-03T13:08:36Z</time>
      </trkpt>
      <trkpt lat="45.55407" lon="6.01014">
        <ele>730.26</ele>
        <time>2011-04-03T13:08:49Z</time>
      </trkpt>
      <trkpt lat="45.55402" lon="6.01012">
        <ele>728.82</ele>
        <time>2011-04-03T13:08:54Z</time>
      </trkpt>
      <trkpt lat="45.55397" lon="6.01012">
        <ele>727.37</ele>
        <time>2011-04-03T13:08:59Z</time>
      </trkpt>
      <trkpt lat="45.55396" lon="6.01012">
        <ele>726.89</ele>
        <time>2011-04-03T13:09:00Z</time>
      </trkpt>
      <trkpt lat="45.55395" lon="6.0102">
        <ele>724.01</ele>
        <time>2011-04-03T13:09:10Z</time>
      </trkpt>
      <trkpt lat="45.55395" lon="6.01027">
        <ele>721.61</ele>
        <time>2011-04-03T13:09:13Z</time>
      </trkpt>
      <trkpt lat="45.55399" lon="6.01037">
        <ele>719.2</ele>
        <time>2011-04-03T13:09:16Z</time>
      </trkpt>
      <trkpt lat="45.55404" lon="6.01053">
        <ele>715.36</ele>
        <time>2011-04-03T13:09:20Z</time>
      </trkpt>
      <trkpt lat="45.55408" lon="6.01067">
        <ele>711.99</ele>
        <time>2011-04-03T13:09:23Z</time>
      </trkpt>
      <trkpt lat="45.55412" lon="6.01097">
        <ele>708.63</ele>
        <time>2011-04-03T13:09:29Z</time>
      </trkpt>
      <trkpt lat="45.55415" lon="6.01122">
        <ele>704.3</ele>
        <time>2011-04-03T13:09:34Z</time>
      </trkpt>
      <trkpt lat="45.55418" lon="6.01133">
        <ele>702.38</ele>
        <time>2011-04-03T13:09:36Z</time>
      </trkpt>
      <trkpt lat="45.55422" lon="6.01151">
        <ele>698.53</ele>
        <time>2011-04-03T13:09:41Z</time>
      </trkpt>
      <trkpt lat="45.55418" lon="6.01154">
        <ele>697.57</ele>
        <time>2011-04-03T13:09:43Z</time>
      </trkpt>
      <trkpt lat="45.55403" lon="6.0115">
        <ele>693.73</ele>
        <time>2011-04-03T13:09:50Z</time>
      </trkpt>
      <trkpt lat="45.55394" lon="6.01141">
        <ele>691.33</ele>
        <time>2011-04-03T13:09:54Z</time>
      </trkpt>
      <trkpt lat="45.55388" lon="6.01133">
        <ele>687.48</ele>
        <time>2011-04-03T13:09:57Z</time>
      </trkpt>
      <trkpt lat="45.55386" lon="6.01131">
        <ele>686.04</ele>
        <time>2011-04-03T13:09:58Z</time>
      </trkpt>
      <trkpt lat="45.55369" lon="6.01118">
        <ele>683.15</ele>
        <time>2011-04-03T13:10:02Z</time>
      </trkpt>
      <trkpt lat="45.55354" lon="6.01108">
        <ele>679.31</ele>
        <time>2011-04-03T13:10:07Z</time>
      </trkpt>
      <trkpt lat="45.55352" lon="6.01113">
        <ele>678.83</ele>
        <time>2011-04-03T13:10:17Z</time>
      </trkpt>
      <trkpt lat="45.55352" lon="6.01113">
        <ele>675.46</ele>
        <time>2011-04-03T13:10:28Z</time>
      </trkpt>
      <trkpt lat="45.55354" lon="6.01121">
        <ele>675.46</ele>
        <time>2011-04-03T13:10:30Z</time>
      </trkpt>
      <trkpt lat="45.55356" lon="6.01129">
        <ele>675.46</ele>
        <time>2011-04-03T13:10:55Z</time>
      </trkpt>
      <trkpt lat="45.55364" lon="6.01142">
        <ele>671.62</ele>
        <time>2011-04-03T13:11:00Z</time>
      </trkpt>
      <trkpt lat="45.55368" lon="6.01154">
        <ele>667.77</ele>
        <time>2011-04-03T13:11:04Z</time>
      </trkpt>
      <trkpt lat="45.5537" lon="6.01169">
        <ele>663.93</ele>
        <time>2011-04-03T13:11:09Z</time>
      </trkpt>
      <trkpt lat="45.55372" lon="6.01182">
        <ele>660.08</ele>
        <time>2011-04-03T13:11:12Z</time>
      </trkpt>
      <trkpt lat="45.55372" lon="6.01184">
        <ele>660.08</ele>
        <time>2011-04-03T13:11:13Z</time>
      </trkpt>
      <trkpt lat="45.55368" lon="6.012">
        <ele>656.72</ele>
        <time>2011-04-03T13:11:18Z</time>
      </trkpt>
      <trkpt lat="45.55365" lon="6.01202">
        <ele>655.76</ele>
        <time>2011-04-03T13:11:19Z</time>
      </trkpt>
      <trkpt lat="45.55354" lon="6.01203">
        <ele>651.43</ele>
        <time>2011-04-03T13:11:23Z</time>
      </trkpt>
      <trkpt lat="45.55347" lon="6.01202">
        <ele>649.51</ele>
        <time>2011-04-03T13:11:26Z</time>
      </trkpt>
      <trkpt lat="45.55344" lon="6.01211">
        <ele>646.14</ele>
        <time>2011-04-03T13:11:30Z</time>
      </trkpt>
      <trkpt lat="45.55344" lon="6.01218">
        <ele>642.78</ele>
        <time>2011-04-03T13:11:34Z</time>
      </trkpt>
      <trkpt lat="45.55344" lon="6.0122">
        <ele>641.82</ele>
        <time>2011-04-03T13:11:35Z</time>
      </trkpt>
      <trkpt lat="45.55352" lon="6.01228">
        <ele>639.89</ele>
        <time>2011-04-03T13:11:45Z</time>
      </trkpt>
      <trkpt lat="45.55362" lon="6.01237">
        <ele>637.97</ele>
        <time>2011-04-03T13:11:49Z</time>
      </trkpt>
      <trkpt lat="45.55411" lon="6.01278">
        <ele>634.61</ele>
        <time>2011-04-03T13:12:03Z</time>
      </trkpt>
      <trkpt lat="45.55442" lon="6.01302">
        <ele>634.13</ele>
        <time>2011-04-03T13:12:08Z</time>
      </trkpt>
      <trkpt lat="45.55449" lon="6.01315">
        <ele>632.68</ele>
        <time>2011-04-03T13:12:10Z</time>
      </trkpt>
      <trkpt lat="45.55464" lon="6.0134">
        <ele>631.72</ele>
        <time>2011-04-03T13:12:21Z</time>
      </trkpt>
      <trkpt lat="45.55477" lon="6.01364">
        <ele>628.36</ele>
        <time>2011-04-03T13:12:29Z</time>
      </trkpt>
      <trkpt lat="45.55452" lon="6.0141">
        <ele>624.99</ele>
        <time>2011-04-03T13:12:36Z</time>
      </trkpt>
      <trkpt lat="45.55417" lon="6.01416">
        <ele>622.59</ele>
        <time>2011-04-03T13:12:39Z</time>
      </trkpt>
      <trkpt lat="45.55413" lon="6.01418">
        <ele>621.15</ele>
        <time>2011-04-03T13:12:40Z</time>
      </trkpt>
      <trkpt lat="45.55403" lon="6.01413">
        <ele>620.19</ele>
        <time>2011-04-03T13:12:41Z</time>
      </trkpt>
      <trkpt lat="45.55396" lon="6.01412">
        <ele>618.75</ele>
        <time>2011-04-03T13:12:42Z</time>
      </trkpt>
      <trkpt lat="45.55374" lon="6.01393">
        <ele>615.38</ele>
        <time>2011-04-03T13:12:46Z</time>
      </trkpt>
      <trkpt lat="45.55361" lon="6.01376">
        <ele>612.98</ele>
        <time>2011-04-03T13:12:49Z</time>
      </trkpt>
      <trkpt lat="45.55356" lon="6.01372">
        <ele>612.02</ele>
        <time>2011-04-03T13:12:50Z</time>
      </trkpt>
      <trkpt lat="45.5535" lon="6.01372">
        <ele>611.06</ele>
        <time>2011-04-03T13:12:51Z</time>
      </trkpt>
      <trkpt lat="45.55344" lon="6.01371">
        <ele>609.13</ele>
        <time>2011-04-03T13:12:52Z</time>
      </trkpt>
      <trkpt lat="45.5534" lon="6.01372">
        <ele>608.17</ele>
        <time>2011-04-03T13:12:53Z</time>
      </trkpt>
      <trkpt lat="45.55336" lon="6.0138">
        <ele>607.21</ele>
        <time>2011-04-03T13:12:54Z</time>
      </trkpt>
      <trkpt lat="45.55332" lon="6.01388">
        <ele>606.73</ele>
        <time>2011-04-03T13:12:55Z</time>
      </trkpt>
      <trkpt lat="45.5533" lon="6.01395">
        <ele>606.25</ele>
        <time>2011-04-03T13:12:56Z</time>
      </trkpt>
      <trkpt lat="45.5533" lon="6.01401">
        <ele>604.81</ele>
        <time>2011-04-03T13:12:57Z</time>
      </trkpt>
      <trkpt lat="45.55331" lon="6.01407">
        <ele>603.85</ele>
        <time>2011-04-03T13:12:58Z</time>
      </trkpt>
      <trkpt lat="45.55332" lon="6.01413">
        <ele>603.36</ele>
        <time>2011-04-03T13:12:59Z</time>
      </trkpt>
      <trkpt lat="45.55331" lon="6.01421">
        <ele>601.92</ele>
        <time>2011-04-03T13:13:00Z</time>
      </trkpt>
      <trkpt lat="45.5533" lon="6.01429">
        <ele>601.92</ele>
        <time>2011-04-03T13:13:01Z</time>
      </trkpt>
      <trkpt lat="45.55328" lon="6.01438">
        <ele>602.4</ele>
        <time>2011-04-03T13:13:02Z</time>
      </trkpt>
      <trkpt lat="45.55322" lon="6.01469">
        <ele>599.04</ele>
        <time>2011-04-03T13:13:06Z</time>
      </trkpt>
      <trkpt lat="45.55301" lon="6.01521">
        <ele>595.67</ele>
        <time>2011-04-03T13:13:11Z</time>
      </trkpt>
      <trkpt lat="45.5529" lon="6.0154">
        <ele>595.67</ele>
        <time>2011-04-03T13:13:13Z</time>
      </trkpt>
      <trkpt lat="45.55285" lon="6.01548">
        <ele>595.67</ele>
        <time>2011-04-03T13:13:14Z</time>
      </trkpt>
      <trkpt lat="45.55272" lon="6.0157">
        <ele>596.15</ele>
        <time>2011-04-03T13:13:19Z</time>
      </trkpt>
      <trkpt lat="45.5527" lon="6.01569">
        <ele>596.64</ele>
        <time>2011-04-03T13:13:20Z</time>
      </trkpt>
      <trkpt lat="45.55269" lon="6.01567">
        <ele>596.64</ele>
        <time>2011-04-03T13:13:21Z</time>
      </trkpt>
      <trkpt lat="45.55267" lon="6.01566">
        <ele>596.64</ele>
        <time>2011-04-03T13:13:22Z</time>
      </trkpt>
      <trkpt lat="45.55264" lon="6.01566">
        <ele>596.64</ele>
        <time>2011-04-03T13:13:23Z</time>
      </trkpt>
      <trkpt lat="45.55257" lon="6.01571">
        <ele>596.15</ele>
        <time>2011-04-03T13:13:32Z</time>
      </trkpt>
      <trkpt lat="45.55251" lon="6.01574">
        <ele>596.15</ele>
        <time>2011-04-03T13:13:47Z</time>
      </trkpt>
      <trkpt lat="45.55251" lon="6.01574">
        <ele>594.23</ele>
        <time>2011-04-03T13:14:01Z</time>
      </trkpt>
      <trkpt lat="45.55251" lon="6.01574">
        <ele>595.19</ele>
        <time>2011-04-03T13:14:31Z</time>
      </trkpt>
      <trkpt lat="45.55251" lon="6.01574">
        <ele>595.67</ele>
        <time>2011-04-03T13:14:33Z</time>
      </trkpt>
      <trkpt lat="45.55242" lon="6.01574">
        <ele>597.12</ele>
        <time>2011-04-03T13:14:40Z</time>
      </trkpt>
      <trkpt lat="45.5524" lon="6.01575">
        <ele>596.64</ele>
        <time>2011-04-03T13:14:41Z</time>
      </trkpt>
      <trkpt lat="45.55238" lon="6.01575">
        <ele>596.64</ele>
        <time>2011-04-03T13:14:42Z</time>
      </trkpt>
      <trkpt lat="45.55236" lon="6.01575">
        <ele>596.64</ele>
        <time>2011-04-03T13:14:43Z</time>
      </trkpt>
      <trkpt lat="45.55234" lon="6.01575">
        <ele>597.12</ele>
        <time>2011-04-03T13:14:44Z</time>
      </trkpt>
      <trkpt lat="45.55232" lon="6.01575">
        <ele>597.12</ele>
        <time>2011-04-03T13:14:45Z</time>
      </trkpt>
      <trkpt lat="45.5523" lon="6.01575">
        <ele>597.12</ele>
        <time>2011-04-03T13:14:46Z</time>
      </trkpt>
      <trkpt lat="45.55227" lon="6.01575">
        <ele>596.64</ele>
        <time>2011-04-03T13:14:47Z</time>
      </trkpt>
      <trkpt lat="45.55194" lon="6.01569">
        <ele>597.6</ele>
        <time>2011-04-03T13:15:00Z</time>
      </trkpt>
      <trkpt lat="45.55193" lon="6.01568">
        <ele>598.08</ele>
        <time>2011-04-03T13:15:01Z</time>
      </trkpt>
      <trkpt lat="45.55191" lon="6.01567">
        <ele>598.08</ele>
        <time>2011-04-03T13:15:02Z</time>
      </trkpt>
      <trkpt lat="45.55189" lon="6.01567">
        <ele>597.12</ele>
        <time>2011-04-03T13:15:03Z</time>
      </trkpt>
      <trkpt lat="45.55187" lon="6.01567">
        <ele>597.12</ele>
        <time>2011-04-03T13:15:04Z</time>
      </trkpt>
      <trkpt lat="45.55185" lon="6.01567">
        <ele>597.12</ele>
        <time>2011-04-03T13:15:05Z</time>
      </trkpt>
      <trkpt lat="45.55183" lon="6.01567">
        <ele>597.12</ele>
        <time>2011-04-03T13:15:06Z</time>
      </trkpt>
      <trkpt lat="45.55149" lon="6.01559">
        <ele>597.12</ele>
        <time>2011-04-03T13:15:18Z</time>
      </trkpt>
      <trkpt lat="45.55114" lon="6.01543">
        <ele>597.12</ele>
        <time>2011-04-03T13:15:33Z</time>
      </trkpt>
      <trkpt lat="45.55087" lon="6.01513">
        <ele>595.19</ele>
        <time>2011-04-03T13:15:44Z</time>
      </trkpt>
      <trkpt lat="45.55081" lon="6.01514">
        <ele>595.67</ele>
        <time>2011-04-03T13:15:49Z</time>
      </trkpt>
      <trkpt lat="45.55081" lon="6.01519">
        <ele>595.19</ele>
        <time>2011-04-03T13:15:52Z</time>
      </trkpt>
      <trkpt lat="45.55088" lon="6.01519">
        <ele>596.15</ele>
        <time>2011-04-03T13:15:56Z</time>
      </trkpt>
      <trkpt lat="45.55091" lon="6.01522">
        <ele>596.15</ele>
        <time>2011-04-03T13:15:57Z</time>
      </trkpt>
      <trkpt lat="45.55097" lon="6.01533">
        <ele>597.12</ele>
        <time>2011-04-03T13:16:01Z</time>
      </trkpt>
      <trkpt lat="45.55097" lon="6.01536">
        <ele>596.64</ele>
        <time>2011-04-03T13:16:02Z</time>
      </trkpt>
      <trkpt lat="45.55096" lon="6.0154">
        <ele>596.64</ele>
        <time>2011-04-03T13:16:03Z</time>
      </trkpt>
      <trkpt lat="45.55095" lon="6.01542">
        <ele>597.12</ele>
        <time>2011-04-03T13:16:04Z</time>
      </trkpt>
      <trkpt lat="45.55093" lon="6.01545">
        <ele>597.12</ele>
        <time>2011-04-03T13:16:05Z</time>
      </trkpt>
      <trkpt lat="45.55092" lon="6.01547">
        <ele>597.12</ele>
        <time>2011-04-03T13:16:06Z</time>
      </trkpt>
      <trkpt lat="45.5509" lon="6.01548">
        <ele>597.6</ele>
        <time>2011-04-03T13:16:07Z</time>
      </trkpt>
      <trkpt lat="45.5508" lon="6.01561">
        <ele>598.08</ele>
        <time>2011-04-03T13:16:18Z</time>
      </trkpt>
      <trkpt lat="45.55072" lon="6.01566">
        <ele>599.04</ele>
        <time>2011-04-03T13:16:25Z</time>
      </trkpt>
      <trkpt lat="45.55083" lon="6.01556">
        <ele>598.08</ele>
        <time>2011-04-03T13:16:35Z</time>
      </trkpt>
      <trkpt lat="45.55087" lon="6.01552">
        <ele>597.6</ele>
        <time>2011-04-03T13:16:36Z</time>
      </trkpt>
      <trkpt lat="45.5509" lon="6.01548">
        <ele>597.6</ele>
        <time>2011-04-03T13:16:37Z</time>
      </trkpt>
      <trkpt lat="45.55093" lon="6.01544">
        <ele>597.12</ele>
        <time>2011-04-03T13:16:38Z</time>
      </trkpt>
      <trkpt lat="45.55095" lon="6.01541">
        <ele>597.12</ele>
        <time>2011-04-03T13:16:39Z</time>
      </trkpt>
      <trkpt lat="45.551" lon="6.01538">
        <ele>596.64</ele>
        <time>2011-04-03T13:16:40Z</time>
      </trkpt>
      <trkpt lat="45.55104" lon="6.01536">
        <ele>596.64</ele>
        <time>2011-04-03T13:16:41Z</time>
      </trkpt>
      <trkpt lat="45.55108" lon="6.01535">
        <ele>596.64</ele>
        <time>2011-04-03T13:16:42Z</time>
      </trkpt>
      <trkpt lat="45.55111" lon="6.01537">
        <ele>596.64</ele>
        <time>2011-04-03T13:16:43Z</time>
      </trkpt>
      <trkpt lat="45.55123" lon="6.01544">
        <ele>597.12</ele>
        <time>2011-04-03T13:16:52Z</time>
      </trkpt>
      <trkpt lat="45.55125" lon="6.01545">
        <ele>596.64</ele>
        <time>2011-04-03T13:16:54Z</time>
      </trkpt>
      <trkpt lat="45.55122" lon="6.01545">
        <ele>597.12</ele>
        <time>2011-04-03T13:16:59Z</time>
      </trkpt>
      <trkpt lat="45.55117" lon="6.0154">
        <ele>596.64</ele>
        <time>2011-04-03T13:17:03Z</time>
      </trkpt>
      <trkpt lat="45.55116" lon="6.01539">
        <ele>596.64</ele>
        <time>2011-04-03T13:17:04Z</time>
      </trkpt>
      <trkpt lat="45.55115" lon="6.01543">
        <ele>596.64</ele>
        <time>2011-04-03T13:17:13Z</time>
      </trkpt>
      <trkpt lat="45.55117" lon="6.01543">
        <ele>596.64</ele>
        <time>2011-04-03T13:17:14Z</time>
      </trkpt>
      <trkpt lat="45.55119" lon="6.01544">
        <ele>597.12</ele>
        <time>2011-04-03T13:17:15Z</time>
      </trkpt>
      <trkpt lat="45.55157" lon="6.01562">
        <ele>596.64</ele>
        <time>2011-04-03T13:17:29Z</time>
      </trkpt>
      <trkpt lat="45.55199" lon="6.01572">
        <ele>597.12</ele>
        <time>2011-04-03T13:17:41Z</time>
      </trkpt>
      <trkpt lat="45.55204" lon="6.01573">
        <ele>597.12</ele>
        <time>2011-04-03T13:17:42Z</time>
      </trkpt>
      <trkpt lat="45.55217" lon="6.01575">
        <ele>596.64</ele>
        <time>2011-04-03T13:17:45Z</time>
      </trkpt>
      <trkpt lat="45.55236" lon="6.01576">
        <ele>597.12</ele>
        <time>2011-04-03T13:17:49Z</time>
      </trkpt>
      <trkpt lat="45.55241" lon="6.01575">
        <ele>598.08</ele>
        <time>2011-04-03T13:17:50Z</time>
      </trkpt>
      <trkpt lat="45.55251" lon="6.01572">
        <ele>595.67</ele>
        <time>2011-04-03T13:17:52Z</time>
      </trkpt>
      <trkpt lat="45.55256" lon="6.01569">
        <ele>595.67</ele>
        <time>2011-04-03T13:17:53Z</time>
      </trkpt>
      <trkpt lat="45.55261" lon="6.01565">
        <ele>595.67</ele>
        <time>2011-04-03T13:17:54Z</time>
      </trkpt>
      <trkpt lat="45.55265" lon="6.01564">
        <ele>595.67</ele>
        <time>2011-04-03T13:17:55Z</time>
      </trkpt>
      <trkpt lat="45.5527" lon="6.01565">
        <ele>594.71</ele>
        <time>2011-04-03T13:17:56Z</time>
      </trkpt>
      <trkpt lat="45.55274" lon="6.01567">
        <ele>595.19</ele>
        <time>2011-04-03T13:17:57Z</time>
      </trkpt>
      <trkpt lat="45.55283" lon="6.01571">
        <ele>595.19</ele>
        <time>2011-04-03T13:17:59Z</time>
      </trkpt>
      <trkpt lat="45.5529" lon="6.01578">
        <ele>594.71</ele>
        <time>2011-04-03T13:18:01Z</time>
      </trkpt>
      <trkpt lat="45.55293" lon="6.01583">
        <ele>594.71</ele>
        <time>2011-04-03T13:18:02Z</time>
      </trkpt>
      <trkpt lat="45.55307" lon="6.01603">
        <ele>596.15</ele>
        <time>2011-04-03T13:18:07Z</time>
      </trkpt>
      <trkpt lat="45.5535" lon="6.01661">
        <ele>598.08</ele>
        <time>2011-04-03T13:18:23Z</time>
      </trkpt>
      <trkpt lat="45.55388" lon="6.017">
        <ele>599.52</ele>
        <time>2011-04-03T13:18:37Z</time>
      </trkpt>
      <trkpt lat="45.55434" lon="6.0172">
        <ele>601.92</ele>
        <time>2011-04-03T13:18:52Z</time>
      </trkpt>
      <trkpt lat="45.55463" lon="6.01744">
        <ele>604.33</ele>
        <time>2011-04-03T13:19:04Z</time>
      </trkpt>
      <trkpt lat="45.55492" lon="6.01758">
        <ele>606.73</ele>
        <time>2011-04-03T13:19:17Z</time>
      </trkpt>
      <trkpt lat="45.55526" lon="6.01764">
        <ele>609.13</ele>
        <time>2011-04-03T13:19:33Z</time>
      </trkpt>
      <trkpt lat="45.55563" lon="6.01765">
        <ele>612.02</ele>
        <time>2011-04-03T13:19:49Z</time>
      </trkpt>
      <trkpt lat="45.55597" lon="6.01772">
        <ele>613.94</ele>
        <time>2011-04-03T13:20:04Z</time>
      </trkpt>
      <trkpt lat="45.55631" lon="6.01798">
        <ele>616.82</ele>
        <time>2011-04-03T13:20:20Z</time>
      </trkpt>
      <trkpt lat="45.55674" lon="6.01816">
        <ele>618.75</ele>
        <time>2011-04-03T13:20:38Z</time>
      </trkpt>
      <trkpt lat="45.55716" lon="6.01834">
        <ele>621.63</ele>
        <time>2011-04-03T13:20:56Z</time>
      </trkpt>
      <trkpt lat="45.55753" lon="6.01846">
        <ele>624.99</ele>
        <time>2011-04-03T13:21:14Z</time>
      </trkpt>
      <trkpt lat="45.5578" lon="6.01854">
        <ele>626.92</ele>
        <time>2011-04-03T13:21:28Z</time>
      </trkpt>
      <trkpt lat="45.55806" lon="6.01866">
        <ele>629.8</ele>
        <time>2011-04-03T13:21:44Z</time>
      </trkpt>
      <trkpt lat="45.5583" lon="6.01882">
        <ele>632.68</ele>
        <time>2011-04-03T13:21:59Z</time>
      </trkpt>
      <trkpt lat="45.55854" lon="6.01898">
        <ele>635.09</ele>
        <time>2011-04-03T13:22:13Z</time>
      </trkpt>
      <trkpt lat="45.55878" lon="6.01917">
        <ele>637.97</ele>
        <time>2011-04-03T13:22:29Z</time>
      </trkpt>
      <trkpt lat="45.55882" lon="6.0192">
        <ele>638.93</ele>
        <time>2011-04-03T13:22:32Z</time>
      </trkpt>
      <trkpt lat="45.55882" lon="6.01922">
        <ele>637.97</ele>
        <time>2011-04-03T13:22:33Z</time>
      </trkpt>
      <trkpt lat="45.55883" lon="6.01924">
        <ele>638.45</ele>
        <time>2011-04-03T13:22:34Z</time>
      </trkpt>
      <trkpt lat="45.55882" lon="6.01926">
        <ele>638.93</ele>
        <time>2011-04-03T13:22:35Z</time>
      </trkpt>
      <trkpt lat="45.55882" lon="6.01928">
        <ele>639.41</ele>
        <time>2011-04-03T13:22:36Z</time>
      </trkpt>
      <trkpt lat="45.5588" lon="6.01943">
        <ele>641.34</ele>
        <time>2011-04-03T13:22:44Z</time>
      </trkpt>
      <trkpt lat="45.55877" lon="6.01951">
        <ele>642.78</ele>
        <time>2011-04-03T13:22:49Z</time>
      </trkpt>
      <trkpt lat="45.55877" lon="6.01952">
        <ele>642.78</ele>
        <time>2011-04-03T13:22:50Z</time>
      </trkpt>
      <trkpt lat="45.55876" lon="6.01954">
        <ele>643.26</ele>
        <time>2011-04-03T13:22:51Z</time>
      </trkpt>
      <trkpt lat="45.55875" lon="6.01955">
        <ele>643.74</ele>
        <time>2011-04-03T13:22:52Z</time>
      </trkpt>
      <trkpt lat="45.55875" lon="6.01957">
        <ele>643.26</ele>
        <time>2011-04-03T13:22:53Z</time>
      </trkpt>
      <trkpt lat="45.55874" lon="6.01959">
        <ele>644.22</ele>
        <time>2011-04-03T13:22:54Z</time>
      </trkpt>
      <trkpt lat="45.55874" lon="6.01961">
        <ele>644.22</ele>
        <time>2011-04-03T13:22:55Z</time>
      </trkpt>
      <trkpt lat="45.55872" lon="6.01974">
        <ele>645.18</ele>
        <time>2011-04-03T13:23:01Z</time>
      </trkpt>
      <trkpt lat="45.55866" lon="6.02001">
        <ele>645.18</ele>
        <time>2011-04-03T13:23:14Z</time>
      </trkpt>
      <trkpt lat="45.55859" lon="6.02019">
        <ele>648.07</ele>
        <time>2011-04-03T13:23:23Z</time>
      </trkpt>
      <trkpt lat="45.55835" lon="6.0203">
        <ele>649.51</ele>
        <time>2011-04-03T13:23:36Z</time>
      </trkpt>
      <trkpt lat="45.5583" lon="6.02033">
        <ele>649.51</ele>
        <time>2011-04-03T13:23:39Z</time>
      </trkpt>
      <trkpt lat="45.55808" lon="6.02053">
        <ele>651.43</ele>
        <time>2011-04-03T13:23:53Z</time>
      </trkpt>
      <trkpt lat="45.55801" lon="6.02067">
        <ele>651.91</ele>
        <time>2011-04-03T13:24:06Z</time>
      </trkpt>
      <trkpt lat="45.558" lon="6.02065">
        <ele>652.39</ele>
        <time>2011-04-03T13:24:07Z</time>
      </trkpt>
      <trkpt lat="45.55799" lon="6.02063">
        <ele>652.39</ele>
        <time>2011-04-03T13:24:08Z</time>
      </trkpt>
      <trkpt lat="45.55798" lon="6.0206">
        <ele>651.91</ele>
        <time>2011-04-03T13:24:09Z</time>
      </trkpt>
      <trkpt lat="45.55796" lon="6.02057">
        <ele>652.39</ele>
        <time>2011-04-03T13:24:10Z</time>
      </trkpt>
      <trkpt lat="45.55794" lon="6.02055">
        <ele>651.43</ele>
        <time>2011-04-03T13:24:11Z</time>
      </trkpt>
      <trkpt lat="45.55787" lon="6.02048">
        <ele>650.95</ele>
        <time>2011-04-03T13:24:22Z</time>
      </trkpt>
      <trkpt lat="45.5579" lon="6.0205">
        <ele>651.43</ele>
        <time>2011-04-03T13:24:26Z</time>
      </trkpt>
      <trkpt lat="45.55792" lon="6.02051">
        <ele>651.43</ele>
        <time>2011-04-03T13:24:27Z</time>
      </trkpt>
      <trkpt lat="45.55793" lon="6.02053">
        <ele>651.91</ele>
        <time>2011-04-03T13:24:28Z</time>
      </trkpt>
      <trkpt lat="45.55795" lon="6.02054">
        <ele>651.91</ele>
        <time>2011-04-03T13:24:29Z</time>
      </trkpt>
      <trkpt lat="45.55797" lon="6.02056">
        <ele>651.91</ele>
        <time>2011-04-03T13:24:30Z</time>
      </trkpt>
      <trkpt lat="45.55798" lon="6.02058">
        <ele>652.39</ele>
        <time>2011-04-03T13:24:31Z</time>
      </trkpt>
      <trkpt lat="45.558" lon="6.02059">
        <ele>652.39</ele>
        <time>2011-04-03T13:24:32Z</time>
      </trkpt>
      <trkpt lat="45.55801" lon="6.02061">
        <ele>652.39</ele>
        <time>2011-04-03T13:24:33Z</time>
      </trkpt>
      <trkpt lat="45.55802" lon="6.02063">
        <ele>652.39</ele>
        <time>2011-04-03T13:24:34Z</time>
      </trkpt>
      <trkpt lat="45.55802" lon="6.02066">
        <ele>652.39</ele>
        <time>2011-04-03T13:24:35Z</time>
      </trkpt>
      <trkpt lat="45.55801" lon="6.02068">
        <ele>651.91</ele>
        <time>2011-04-03T13:24:36Z</time>
      </trkpt>
      <trkpt lat="45.558" lon="6.02071">
        <ele>652.39</ele>
        <time>2011-04-03T13:24:37Z</time>
      </trkpt>
      <trkpt lat="45.55787" lon="6.02106">
        <ele>654.31</ele>
        <time>2011-04-03T13:24:52Z</time>
      </trkpt>
      <trkpt lat="45.55784" lon="6.02111">
        <ele>654.8</ele>
        <time>2011-04-03T13:24:55Z</time>
      </trkpt>
      <trkpt lat="45.55781" lon="6.02111">
        <ele>654.8</ele>
        <time>2011-04-03T13:24:56Z</time>
      </trkpt>
      <trkpt lat="45.55748" lon="6.02116">
        <ele>657.2</ele>
        <time>2011-04-03T13:25:12Z</time>
      </trkpt>
      <trkpt lat="45.55727" lon="6.02114">
        <ele>659.12</ele>
        <time>2011-04-03T13:25:25Z</time>
      </trkpt>
      <trkpt lat="45.55711" lon="6.02111">
        <ele>661.04</ele>
        <time>2011-04-03T13:25:38Z</time>
      </trkpt>
      <trkpt lat="45.55695" lon="6.02106">
        <ele>663.45</ele>
        <time>2011-04-03T13:25:53Z</time>
      </trkpt>
      <trkpt lat="45.5568" lon="6.02103">
        <ele>665.85</ele>
        <time>2011-04-03T13:26:07Z</time>
      </trkpt>
      <trkpt lat="45.55665" lon="6.02105">
        <ele>668.25</ele>
        <time>2011-04-03T13:26:21Z</time>
      </trkpt>
      <trkpt lat="45.55648" lon="6.0211">
        <ele>670.18</ele>
        <time>2011-04-03T13:26:35Z</time>
      </trkpt>
      <trkpt lat="45.55636" lon="6.02111">
        <ele>673.06</ele>
        <time>2011-04-03T13:26:48Z</time>
      </trkpt>
      <trkpt lat="45.55624" lon="6.02115">
        <ele>675.46</ele>
        <time>2011-04-03T13:27:00Z</time>
      </trkpt>
      <trkpt lat="45.55608" lon="6.02119">
        <ele>677.39</ele>
        <time>2011-04-03T13:27:15Z</time>
      </trkpt>
      <trkpt lat="45.55607" lon="6.0212">
        <ele>677.39</ele>
        <time>2011-04-03T13:27:17Z</time>
      </trkpt>
      <trkpt lat="45.55605" lon="6.0212">
        <ele>677.39</ele>
        <time>2011-04-03T13:27:18Z</time>
      </trkpt>
      <trkpt lat="45.55603" lon="6.0212">
        <ele>677.87</ele>
        <time>2011-04-03T13:27:19Z</time>
      </trkpt>
      <trkpt lat="45.55602" lon="6.0212">
        <ele>677.87</ele>
        <time>2011-04-03T13:27:20Z</time>
      </trkpt>
      <trkpt lat="45.55601" lon="6.02121">
        <ele>677.87</ele>
        <time>2011-04-03T13:27:21Z</time>
      </trkpt>
      <trkpt lat="45.556" lon="6.02122">
        <ele>678.83</ele>
        <time>2011-04-03T13:27:22Z</time>
      </trkpt>
      <trkpt lat="45.55596" lon="6.02123">
        <ele>678.83</ele>
        <time>2011-04-03T13:27:25Z</time>
      </trkpt>
      <trkpt lat="45.55595" lon="6.02123">
        <ele>678.83</ele>
        <time>2011-04-03T13:27:26Z</time>
      </trkpt>
      <trkpt lat="45.55594" lon="6.02123">
        <ele>678.83</ele>
        <time>2011-04-03T13:27:27Z</time>
      </trkpt>
      <trkpt lat="45.55592" lon="6.02124">
        <ele>678.83</ele>
        <time>2011-04-03T13:27:28Z</time>
      </trkpt>
      <trkpt lat="45.55591" lon="6.02125">
        <ele>679.31</ele>
        <time>2011-04-03T13:27:29Z</time>
      </trkpt>
      <trkpt lat="45.5559" lon="6.02125">
        <ele>679.31</ele>
        <time>2011-04-03T13:27:30Z</time>
      </trkpt>
      <trkpt lat="45.55589" lon="6.02126">
        <ele>679.31</ele>
        <time>2011-04-03T13:27:31Z</time>
      </trkpt>
      <trkpt lat="45.55588" lon="6.02126">
        <ele>679.79</ele>
        <time>2011-04-03T13:27:32Z</time>
      </trkpt>
      <trkpt lat="45.55587" lon="6.02126">
        <ele>679.79</ele>
        <time>2011-04-03T13:27:33Z</time>
      </trkpt>
      <trkpt lat="45.55586" lon="6.02127">
        <ele>679.79</ele>
        <time>2011-04-03T13:27:34Z</time>
      </trkpt>
      <trkpt lat="45.5557" lon="6.02129">
        <ele>681.71</ele>
        <time>2011-04-03T13:27:47Z</time>
      </trkpt>
      <trkpt lat="45.55568" lon="6.02129">
        <ele>682.19</ele>
        <time>2011-04-03T13:27:48Z</time>
      </trkpt>
      <trkpt lat="45.55567" lon="6.02129">
        <ele>682.19</ele>
        <time>2011-04-03T13:27:49Z</time>
      </trkpt>
      <trkpt lat="45.55566" lon="6.0213">
        <ele>682.67</ele>
        <time>2011-04-03T13:27:50Z</time>
      </trkpt>
      <trkpt lat="45.55565" lon="6.0213">
        <ele>683.15</ele>
        <time>2011-04-03T13:27:51Z</time>
      </trkpt>
      <trkpt lat="45.55564" lon="6.0213">
        <ele>682.67</ele>
        <time>2011-04-03T13:27:52Z</time>
      </trkpt>
      <trkpt lat="45.55549" lon="6.02132">
        <ele>684.6</ele>
        <time>2011-04-03T13:28:05Z</time>
      </trkpt>
      <trkpt lat="45.55531" lon="6.02136">
        <ele>687.48</ele>
        <time>2011-04-03T13:28:21Z</time>
      </trkpt>
      <trkpt lat="45.55522" lon="6.02145">
        <ele>688.92</ele>
        <time>2011-04-03T13:28:30Z</time>
      </trkpt>
      <trkpt lat="45.55521" lon="6.02145">
        <ele>689.4</ele>
        <time>2011-04-03T13:28:31Z</time>
      </trkpt>
      <trkpt lat="45.5552" lon="6.02147">
        <ele>689.4</ele>
        <time>2011-04-03T13:28:32Z</time>
      </trkpt>
      <trkpt lat="45.55507" lon="6.02161">
        <ele>689.88</ele>
        <time>2011-04-03T13:28:44Z</time>
      </trkpt>
      <trkpt lat="45.55484" lon="6.02179">
        <ele>690.84</ele>
        <time>2011-04-03T13:28:57Z</time>
      </trkpt>
      <trkpt lat="45.55459" lon="6.02217">
        <ele>690.36</ele>
        <time>2011-04-03T13:29:11Z</time>
      </trkpt>
      <trkpt lat="45.55442" lon="6.0225">
        <ele>689.88</ele>
        <time>2011-04-03T13:29:22Z</time>
      </trkpt>
      <trkpt lat="45.5543" lon="6.02279">
        <ele>687.96</ele>
        <time>2011-04-03T13:29:28Z</time>
      </trkpt>
      <trkpt lat="45.55424" lon="6.023">
        <ele>686.52</ele>
        <time>2011-04-03T13:29:31Z</time>
      </trkpt>
      <trkpt lat="45.55421" lon="6.02308">
        <ele>686.04</ele>
        <time>2011-04-03T13:29:32Z</time>
      </trkpt>
      <trkpt lat="45.55411" lon="6.02329">
        <ele>685.08</ele>
        <time>2011-04-03T13:29:35Z</time>
      </trkpt>
      <trkpt lat="45.55395" lon="6.02338">
        <ele>684.12</ele>
        <time>2011-04-03T13:29:40Z</time>
      </trkpt>
      <trkpt lat="45.55392" lon="6.02337">
        <ele>683.15</ele>
        <time>2011-04-03T13:29:41Z</time>
      </trkpt>
      <trkpt lat="45.55389" lon="6.02336">
        <ele>683.15</ele>
        <time>2011-04-03T13:29:42Z</time>
      </trkpt>
      <trkpt lat="45.55386" lon="6.02334">
        <ele>682.67</ele>
        <time>2011-04-03T13:29:43Z</time>
      </trkpt>
      <trkpt lat="45.55384" lon="6.02333">
        <ele>682.67</ele>
        <time>2011-04-03T13:29:44Z</time>
      </trkpt>
      <trkpt lat="45.55367" lon="6.02327">
        <ele>682.67</ele>
        <time>2011-04-03T13:29:53Z</time>
      </trkpt>
      <trkpt lat="45.55349" lon="6.0232">
        <ele>683.63</ele>
        <time>2011-04-03T13:30:04Z</time>
      </trkpt>
      <trkpt lat="45.55346" lon="6.02318">
        <ele>684.12</ele>
        <time>2011-04-03T13:30:07Z</time>
      </trkpt>
      <trkpt lat="45.55345" lon="6.02317">
        <ele>683.15</ele>
        <time>2011-04-03T13:30:24Z</time>
      </trkpt>
      <trkpt lat="45.55344" lon="6.02317">
        <ele>684.12</ele>
        <time>2011-04-03T13:30:44Z</time>
      </trkpt>
      <trkpt lat="45.55343" lon="6.02315">
        <ele>684.6</ele>
        <time>2011-04-03T13:30:58Z</time>
      </trkpt>
      <trkpt lat="45.55343" lon="6.02315">
        <ele>684.6</ele>
        <time>2011-04-03T13:31:28Z</time>
      </trkpt>
      <trkpt lat="45.55342" lon="6.02316">
        <ele>684.12</ele>
        <time>2011-04-03T13:32:05Z</time>
      </trkpt>
      <trkpt lat="45.55342" lon="6.02316">
        <ele>684.12</ele>
        <time>2011-04-03T13:32:37Z</time>
      </trkpt>
      <trkpt lat="45.55342" lon="6.02316">
        <ele>684.12</ele>
        <time>2011-04-03T13:33:10Z</time>
      </trkpt>
      <trkpt lat="45.55342" lon="6.02316">
        <ele>684.12</ele>
        <time>2011-04-03T13:33:35Z</time>
      </trkpt>
      <trkpt lat="45.55342" lon="6.02316">
        <ele>684.12</ele>
        <time>2011-04-03T13:34:07Z</time>
      </trkpt>
      <trkpt lat="45.55341" lon="6.02315">
        <ele>683.63</ele>
        <time>2011-04-03T13:34:36Z</time>
      </trkpt>
      <trkpt lat="45.55341" lon="6.02315">
        <ele>683.63</ele>
        <time>2011-04-03T13:35:08Z</time>
      </trkpt>
      <trkpt lat="45.55341" lon="6.02315">
        <ele>683.15</ele>
        <time>2011-04-03T13:35:37Z</time>
      </trkpt>
      <trkpt lat="45.55341" lon="6.02315">
        <ele>683.15</ele>
        <time>2011-04-03T13:36:09Z</time>
      </trkpt>
      <trkpt lat="45.55341" lon="6.02316">
        <ele>682.67</ele>
        <time>2011-04-03T13:36:42Z</time>
      </trkpt>
      <trkpt lat="45.55341" lon="6.02315">
        <ele>682.67</ele>
        <time>2011-04-03T13:37:16Z</time>
      </trkpt>
      <trkpt lat="45.55341" lon="6.02315">
        <ele>682.67</ele>
        <time>2011-04-03T13:37:51Z</time>
      </trkpt>
      <trkpt lat="45.55341" lon="6.02315">
        <ele>682.67</ele>
        <time>2011-04-03T13:38:24Z</time>
      </trkpt>
      <trkpt lat="45.55341" lon="6.02315">
        <ele>682.19</ele>
        <time>2011-04-03T13:38:59Z</time>
      </trkpt>
      <trkpt lat="45.5534" lon="6.02315">
        <ele>682.19</ele>
        <time>2011-04-03T13:39:33Z</time>
      </trkpt>
      <trkpt lat="45.5534" lon="6.02315">
        <ele>682.67</ele>
        <time>2011-04-03T13:40:06Z</time>
      </trkpt>
      <trkpt lat="45.5534" lon="6.02314">
        <ele>682.67</ele>
        <time>2011-04-03T13:40:31Z</time>
      </trkpt>
      <trkpt lat="45.5534" lon="6.02314">
        <ele>683.15</ele>
        <time>2011-04-03T13:41:00Z</time>
      </trkpt>
      <trkpt lat="45.55338" lon="6.02313">
        <ele>683.63</ele>
        <time>2011-04-03T13:41:22Z</time>
      </trkpt>
      <trkpt lat="45.55333" lon="6.02311">
        <ele>684.6</ele>
        <time>2011-04-03T13:41:39Z</time>
      </trkpt>
      <trkpt lat="45.5533" lon="6.02309">
        <ele>684.6</ele>
        <time>2011-04-03T13:41:46Z</time>
      </trkpt>
      <trkpt lat="45.55329" lon="6.02308">
        <ele>685.08</ele>
        <time>2011-04-03T13:41:47Z</time>
      </trkpt>
      <trkpt lat="45.55327" lon="6.02308">
        <ele>685.08</ele>
        <time>2011-04-03T13:41:48Z</time>
      </trkpt>
      <trkpt lat="45.55326" lon="6.02308">
        <ele>685.56</ele>
        <time>2011-04-03T13:41:49Z</time>
      </trkpt>
      <trkpt lat="45.55314" lon="6.02308">
        <ele>687.96</ele>
        <time>2011-04-03T13:41:59Z</time>
      </trkpt>
      <trkpt lat="45.55307" lon="6.02309">
        <ele>688.92</ele>
        <time>2011-04-03T13:42:04Z</time>
      </trkpt>
      <trkpt lat="45.5529" lon="6.02308">
        <ele>691.33</ele>
        <time>2011-04-03T13:42:18Z</time>
      </trkpt>
      <trkpt lat="45.55278" lon="6.0231">
        <ele>691.81</ele>
        <time>2011-04-03T13:42:29Z</time>
      </trkpt>
      <trkpt lat="45.55276" lon="6.0231">
        <ele>692.29</ele>
        <time>2011-04-03T13:42:30Z</time>
      </trkpt>
      <trkpt lat="45.55275" lon="6.0231">
        <ele>692.29</ele>
        <time>2011-04-03T13:42:31Z</time>
      </trkpt>
      <trkpt lat="45.55273" lon="6.0231">
        <ele>692.29</ele>
        <time>2011-04-03T13:42:32Z</time>
      </trkpt>
      <trkpt lat="45.55271" lon="6.0231">
        <ele>691.81</ele>
        <time>2011-04-03T13:42:33Z</time>
      </trkpt>
      <trkpt lat="45.55248" lon="6.02301">
        <ele>691.81</ele>
        <time>2011-04-03T13:42:45Z</time>
      </trkpt>
      <trkpt lat="45.55225" lon="6.0229">
        <ele>692.77</ele>
        <time>2011-04-03T13:43:01Z</time>
      </trkpt>
      <trkpt lat="45.55224" lon="6.0229">
        <ele>693.73</ele>
        <time>2011-04-03T13:43:02Z</time>
      </trkpt>
      <trkpt lat="45.55203" lon="6.02282">
        <ele>695.65</ele>
        <time>2011-04-03T13:43:17Z</time>
      </trkpt>
      <trkpt lat="45.55187" lon="6.02275">
        <ele>697.57</ele>
        <time>2011-04-03T13:43:30Z</time>
      </trkpt>
      <trkpt lat="45.55171" lon="6.02266">
        <ele>699.02</ele>
        <time>2011-04-03T13:43:44Z</time>
      </trkpt>
      <trkpt lat="45.55158" lon="6.02255">
        <ele>700.94</ele>
        <time>2011-04-03T13:43:56Z</time>
      </trkpt>
      <trkpt lat="45.55143" lon="6.02237">
        <ele>702.86</ele>
        <time>2011-04-03T13:44:11Z</time>
      </trkpt>
      <trkpt lat="45.55134" lon="6.02229">
        <ele>703.34</ele>
        <time>2011-04-03T13:44:19Z</time>
      </trkpt>
      <trkpt lat="45.55133" lon="6.02227">
        <ele>704.3</ele>
        <time>2011-04-03T13:44:20Z</time>
      </trkpt>
      <trkpt lat="45.55132" lon="6.02227">
        <ele>704.3</ele>
        <time>2011-04-03T13:44:21Z</time>
      </trkpt>
      <trkpt lat="45.55131" lon="6.02226">
        <ele>704.3</ele>
        <time>2011-04-03T13:44:22Z</time>
      </trkpt>
      <trkpt lat="45.5513" lon="6.02224">
        <ele>704.3</ele>
        <time>2011-04-03T13:44:23Z</time>
      </trkpt>
      <trkpt lat="45.55116" lon="6.02212">
        <ele>706.23</ele>
        <time>2011-04-03T13:44:35Z</time>
      </trkpt>
      <trkpt lat="45.551" lon="6.02198">
        <ele>709.59</ele>
        <time>2011-04-03T13:44:49Z</time>
      </trkpt>
      <trkpt lat="45.55086" lon="6.02185">
        <ele>712.47</ele>
        <time>2011-04-03T13:45:02Z</time>
      </trkpt>
      <trkpt lat="45.55072" lon="6.02177">
        <ele>715.36</ele>
        <time>2011-04-03T13:45:14Z</time>
      </trkpt>
      <trkpt lat="45.55061" lon="6.02173">
        <ele>717.76</ele>
        <time>2011-04-03T13:45:27Z</time>
      </trkpt>
      <trkpt lat="45.55047" lon="6.02169">
        <ele>720.65</ele>
        <time>2011-04-03T13:45:41Z</time>
      </trkpt>
      <trkpt lat="45.55045" lon="6.02169">
        <ele>720.65</ele>
        <time>2011-04-03T13:45:42Z</time>
      </trkpt>
      <trkpt lat="45.55044" lon="6.02169">
        <ele>720.65</ele>
        <time>2011-04-03T13:45:43Z</time>
      </trkpt>
      <trkpt lat="45.55034" lon="6.0217">
        <ele>724.01</ele>
        <time>2011-04-03T13:45:53Z</time>
      </trkpt>
      <trkpt lat="45.55032" lon="6.02171">
        <ele>724.01</ele>
        <time>2011-04-03T13:45:56Z</time>
      </trkpt>
      <trkpt lat="45.55025" lon="6.02176">
        <ele>725.93</ele>
        <time>2011-04-03T13:46:07Z</time>
      </trkpt>
      <trkpt lat="45.55019" lon="6.02172">
        <ele>726.89</ele>
        <time>2011-04-03T13:46:15Z</time>
      </trkpt>
      <trkpt lat="45.55015" lon="6.02169">
        <ele>726.89</ele>
        <time>2011-04-03T13:46:20Z</time>
      </trkpt>
      <trkpt lat="45.55" lon="6.02164">
        <ele>728.82</ele>
        <time>2011-04-03T13:46:36Z</time>
      </trkpt>
      <trkpt lat="45.54993" lon="6.0216">
        <ele>730.74</ele>
        <time>2011-04-03T13:46:45Z</time>
      </trkpt>
      <trkpt lat="45.54981" lon="6.02154">
        <ele>733.14</ele>
        <time>2011-04-03T13:47:00Z</time>
      </trkpt>
      <trkpt lat="45.54973" lon="6.0215">
        <ele>734.1</ele>
        <time>2011-04-03T13:47:09Z</time>
      </trkpt>
      <trkpt lat="45.5496" lon="6.02145">
        <ele>736.51</ele>
        <time>2011-04-03T13:47:22Z</time>
      </trkpt>
      <trkpt lat="45.54959" lon="6.02145">
        <ele>736.51</ele>
        <time>2011-04-03T13:47:23Z</time>
      </trkpt>
      <trkpt lat="45.54958" lon="6.02145">
        <ele>736.51</ele>
        <time>2011-04-03T13:47:24Z</time>
      </trkpt>
      <trkpt lat="45.54951" lon="6.02143">
        <ele>738.43</ele>
        <time>2011-04-03T13:47:33Z</time>
      </trkpt>
      <trkpt lat="45.5494" lon="6.0214">
        <ele>740.35</ele>
        <time>2011-04-03T13:47:46Z</time>
      </trkpt>
      <trkpt lat="45.54934" lon="6.02143">
        <ele>741.79</ele>
        <time>2011-04-03T13:47:54Z</time>
      </trkpt>
      <trkpt lat="45.54929" lon="6.02145">
        <ele>743.24</ele>
        <time>2011-04-03T13:48:06Z</time>
      </trkpt>
      <trkpt lat="45.54916" lon="6.02145">
        <ele>746.12</ele>
        <time>2011-04-03T13:48:21Z</time>
      </trkpt>
      <trkpt lat="45.54904" lon="6.02141">
        <ele>748.52</ele>
        <time>2011-04-03T13:48:34Z</time>
      </trkpt>
      <trkpt lat="45.54891" lon="6.02138">
        <ele>750.93</ele>
        <time>2011-04-03T13:48:48Z</time>
      </trkpt>
      <trkpt lat="45.54878" lon="6.02137">
        <ele>752.85</ele>
        <time>2011-04-03T13:49:02Z</time>
      </trkpt>
      <trkpt lat="45.54866" lon="6.02138">
        <ele>755.73</ele>
        <time>2011-04-03T13:49:16Z</time>
      </trkpt>
      <trkpt lat="45.54865" lon="6.02139">
        <ele>756.69</ele>
        <time>2011-04-03T13:49:19Z</time>
      </trkpt>
      <trkpt lat="45.54856" lon="6.02147">
        <ele>757.18</ele>
        <time>2011-04-03T13:49:32Z</time>
      </trkpt>
      <trkpt lat="45.54843" lon="6.02155">
        <ele>759.58</ele>
        <time>2011-04-03T13:49:46Z</time>
      </trkpt>
      <trkpt lat="45.54834" lon="6.02162">
        <ele>761.5</ele>
        <time>2011-04-03T13:49:59Z</time>
      </trkpt>
      <trkpt lat="45.54821" lon="6.02171">
        <ele>763.42</ele>
        <time>2011-04-03T13:50:14Z</time>
      </trkpt>
      <trkpt lat="45.5482" lon="6.02172">
        <ele>763.9</ele>
        <time>2011-04-03T13:50:16Z</time>
      </trkpt>
      <trkpt lat="45.54809" lon="6.02181">
        <ele>765.83</ele>
        <time>2011-04-03T13:50:30Z</time>
      </trkpt>
      <trkpt lat="45.54806" lon="6.02183">
        <ele>766.79</ele>
        <time>2011-04-03T13:50:34Z</time>
      </trkpt>
      <trkpt lat="45.54791" lon="6.02191">
        <ele>769.67</ele>
        <time>2011-04-03T13:50:49Z</time>
      </trkpt>
      <trkpt lat="45.54785" lon="6.02193">
        <ele>770.63</ele>
        <time>2011-04-03T13:50:56Z</time>
      </trkpt>
      <trkpt lat="45.54783" lon="6.02194">
        <ele>771.11</ele>
        <time>2011-04-03T13:50:59Z</time>
      </trkpt>
      <trkpt lat="45.54774" lon="6.02199">
        <ele>773.04</ele>
        <time>2011-04-03T13:51:12Z</time>
      </trkpt>
      <trkpt lat="45.5477" lon="6.02198">
        <ele>774</ele>
        <time>2011-04-03T13:51:30Z</time>
      </trkpt>
      <trkpt lat="45.54763" lon="6.02195">
        <ele>776.88</ele>
        <time>2011-04-03T13:51:44Z</time>
      </trkpt>
      <trkpt lat="45.54754" lon="6.02198">
        <ele>779.29</ele>
        <time>2011-04-03T13:51:58Z</time>
      </trkpt>
      <trkpt lat="45.54746" lon="6.02199">
        <ele>781.69</ele>
        <time>2011-04-03T13:52:10Z</time>
      </trkpt>
      <trkpt lat="45.54737" lon="6.02198">
        <ele>783.61</ele>
        <time>2011-04-03T13:52:27Z</time>
      </trkpt>
      <trkpt lat="45.54728" lon="6.02204">
        <ele>786.02</ele>
        <time>2011-04-03T13:52:42Z</time>
      </trkpt>
      <trkpt lat="45.54719" lon="6.02203">
        <ele>788.42</ele>
        <time>2011-04-03T13:52:56Z</time>
      </trkpt>
      <trkpt lat="45.54708" lon="6.022">
        <ele>791.78</ele>
        <time>2011-04-03T13:53:11Z</time>
      </trkpt>
      <trkpt lat="45.54702" lon="6.02198">
        <ele>793.22</ele>
        <time>2011-04-03T13:53:24Z</time>
      </trkpt>
      <trkpt lat="45.54697" lon="6.02198">
        <ele>795.15</ele>
        <time>2011-04-03T13:53:32Z</time>
      </trkpt>
      <trkpt lat="45.54685" lon="6.02191">
        <ele>797.07</ele>
        <time>2011-04-03T13:53:48Z</time>
      </trkpt>
      <trkpt lat="45.54673" lon="6.0218">
        <ele>798.99</ele>
        <time>2011-04-03T13:54:03Z</time>
      </trkpt>
      <trkpt lat="45.54665" lon="6.02174">
        <ele>801.88</ele>
        <time>2011-04-03T13:54:17Z</time>
      </trkpt>
      <trkpt lat="45.54656" lon="6.02175">
        <ele>804.28</ele>
        <time>2011-04-03T13:54:31Z</time>
      </trkpt>
      <trkpt lat="45.54646" lon="6.02172">
        <ele>806.2</ele>
        <time>2011-04-03T13:54:43Z</time>
      </trkpt>
      <trkpt lat="45.54643" lon="6.02168">
        <ele>807.16</ele>
        <time>2011-04-03T13:54:53Z</time>
      </trkpt>
      <trkpt lat="45.54636" lon="6.02159">
        <ele>808.61</ele>
        <time>2011-04-03T13:55:09Z</time>
      </trkpt>
      <trkpt lat="45.54635" lon="6.02157">
        <ele>809.09</ele>
        <time>2011-04-03T13:55:25Z</time>
      </trkpt>
      <trkpt lat="45.5463" lon="6.02152">
        <ele>810.05</ele>
        <time>2011-04-03T13:55:32Z</time>
      </trkpt>
      <trkpt lat="45.54623" lon="6.02136">
        <ele>810.53</ele>
        <time>2011-04-03T13:55:46Z</time>
      </trkpt>
      <trkpt lat="45.54622" lon="6.02134">
        <ele>811.01</ele>
        <time>2011-04-03T13:55:48Z</time>
      </trkpt>
      <trkpt lat="45.54622" lon="6.02131">
        <ele>811.49</ele>
        <time>2011-04-03T13:55:50Z</time>
      </trkpt>
      <trkpt lat="45.54616" lon="6.02121">
        <ele>811.97</ele>
        <time>2011-04-03T13:55:57Z</time>
      </trkpt>
      <trkpt lat="45.54611" lon="6.02117">
        <ele>812.93</ele>
        <time>2011-04-03T13:56:03Z</time>
      </trkpt>
      <trkpt lat="45.54607" lon="6.02115">
        <ele>812.93</ele>
        <time>2011-04-03T13:56:07Z</time>
      </trkpt>
      <trkpt lat="45.54599" lon="6.02068">
        <ele>810.53</ele>
        <time>2011-04-03T13:56:19Z</time>
      </trkpt>
      <trkpt lat="45.54597" lon="6.02044">
        <ele>811.01</ele>
        <time>2011-04-03T13:56:25Z</time>
      </trkpt>
      <trkpt lat="45.54588" lon="6.02013">
        <ele>812.45</ele>
        <time>2011-04-03T13:56:41Z</time>
      </trkpt>
      <trkpt lat="45.54581" lon="6.01983">
        <ele>814.85</ele>
        <time>2011-04-03T13:56:58Z</time>
      </trkpt>
      <trkpt lat="45.5458" lon="6.0197">
        <ele>815.82</ele>
        <time>2011-04-03T13:57:07Z</time>
      </trkpt>
      <trkpt lat="45.54586" lon="6.01952">
        <ele>818.22</ele>
        <time>2011-04-03T13:57:21Z</time>
      </trkpt>
      <trkpt lat="45.54587" lon="6.01932">
        <ele>821.1</ele>
        <time>2011-04-03T13:57:36Z</time>
      </trkpt>
      <trkpt lat="45.5458" lon="6.01919">
        <ele>822.55</ele>
        <time>2011-04-03T13:57:49Z</time>
      </trkpt>
      <trkpt lat="45.5457" lon="6.01911">
        <ele>825.91</ele>
        <time>2011-04-03T13:58:01Z</time>
      </trkpt>
      <trkpt lat="45.54569" lon="6.0191">
        <ele>825.43</ele>
        <time>2011-04-03T13:58:03Z</time>
      </trkpt>
      <trkpt lat="45.54567" lon="6.01909">
        <ele>826.39</ele>
        <time>2011-04-03T13:58:05Z</time>
      </trkpt>
      <trkpt lat="45.54557" lon="6.0191">
        <ele>828.31</ele>
        <time>2011-04-03T13:58:17Z</time>
      </trkpt>
      <trkpt lat="45.54546" lon="6.01917">
        <ele>830.72</ele>
        <time>2011-04-03T13:58:31Z</time>
      </trkpt>
      <trkpt lat="45.54542" lon="6.01917">
        <ele>831.2</ele>
        <time>2011-04-03T13:58:35Z</time>
      </trkpt>
      <trkpt lat="45.54525" lon="6.01912">
        <ele>833.12</ele>
        <time>2011-04-03T13:58:52Z</time>
      </trkpt>
      <trkpt lat="45.54516" lon="6.01909">
        <ele>835.52</ele>
        <time>2011-04-03T13:59:03Z</time>
      </trkpt>
      <trkpt lat="45.54512" lon="6.01908">
        <ele>835.52</ele>
        <time>2011-04-03T13:59:07Z</time>
      </trkpt>
      <trkpt lat="45.54496" lon="6.01906">
        <ele>837.93</ele>
        <time>2011-04-03T13:59:23Z</time>
      </trkpt>
      <trkpt lat="45.54483" lon="6.01901">
        <ele>840.81</ele>
        <time>2011-04-03T13:59:36Z</time>
      </trkpt>
      <trkpt lat="45.5447" lon="6.01895">
        <ele>843.21</ele>
        <time>2011-04-03T13:59:51Z</time>
      </trkpt>
      <trkpt lat="45.54464" lon="6.01889">
        <ele>844.66</ele>
        <time>2011-04-03T14:00:03Z</time>
      </trkpt>
      <trkpt lat="45.54463" lon="6.01889">
        <ele>844.66</ele>
        <time>2011-04-03T14:00:05Z</time>
      </trkpt>
      <trkpt lat="45.54452" lon="6.01882">
        <ele>847.54</ele>
        <time>2011-04-03T14:00:20Z</time>
      </trkpt>
      <trkpt lat="45.54443" lon="6.01875">
        <ele>849.94</ele>
        <time>2011-04-03T14:00:34Z</time>
      </trkpt>
      <trkpt lat="45.54434" lon="6.01868">
        <ele>852.83</ele>
        <time>2011-04-03T14:00:49Z</time>
      </trkpt>
      <trkpt lat="45.54428" lon="6.01869">
        <ele>854.27</ele>
        <time>2011-04-03T14:01:04Z</time>
      </trkpt>
      <trkpt lat="45.54422" lon="6.01876">
        <ele>856.19</ele>
        <time>2011-04-03T14:01:17Z</time>
      </trkpt>
      <trkpt lat="45.54417" lon="6.01876">
        <ele>858.59</ele>
        <time>2011-04-03T14:01:30Z</time>
      </trkpt>
      <trkpt lat="45.54412" lon="6.01874">
        <ele>860.04</ele>
        <time>2011-04-03T14:01:45Z</time>
      </trkpt>
      <trkpt lat="45.54412" lon="6.01874">
        <ele>860.52</ele>
        <time>2011-04-03T14:02:23Z</time>
      </trkpt>
      <trkpt lat="45.54406" lon="6.01876">
        <ele>861.96</ele>
        <time>2011-04-03T14:02:48Z</time>
      </trkpt>
      <trkpt lat="45.544" lon="6.01878">
        <ele>865.32</ele>
        <time>2011-04-03T14:03:00Z</time>
      </trkpt>
      <trkpt lat="45.54391" lon="6.0188">
        <ele>867.73</ele>
        <time>2011-04-03T14:03:15Z</time>
      </trkpt>
      <trkpt lat="45.54387" lon="6.01879">
        <ele>869.65</ele>
        <time>2011-04-03T14:03:29Z</time>
      </trkpt>
      <trkpt lat="45.54383" lon="6.01881">
        <ele>871.09</ele>
        <time>2011-04-03T14:03:46Z</time>
      </trkpt>
      <trkpt lat="45.54375" lon="6.01877">
        <ele>873.01</ele>
        <time>2011-04-03T14:03:59Z</time>
      </trkpt>
      <trkpt lat="45.54367" lon="6.01883">
        <ele>875.9</ele>
        <time>2011-04-03T14:04:12Z</time>
      </trkpt>
      <trkpt lat="45.54364" lon="6.01883">
        <ele>876.38</ele>
        <time>2011-04-03T14:04:16Z</time>
      </trkpt>
      <trkpt lat="45.54356" lon="6.01882">
        <ele>878.78</ele>
        <time>2011-04-03T14:04:30Z</time>
      </trkpt>
      <trkpt lat="45.5435" lon="6.01879">
        <ele>881.19</ele>
        <time>2011-04-03T14:04:44Z</time>
      </trkpt>
      <trkpt lat="45.54344" lon="6.01881">
        <ele>882.63</ele>
        <time>2011-04-03T14:05:04Z</time>
      </trkpt>
      <trkpt lat="45.54335" lon="6.01894">
        <ele>885.51</ele>
        <time>2011-04-03T14:05:21Z</time>
      </trkpt>
      <trkpt lat="45.54329" lon="6.01891">
        <ele>886.95</ele>
        <time>2011-04-03T14:05:35Z</time>
      </trkpt>
      <trkpt lat="45.54321" lon="6.01896">
        <ele>889.36</ele>
        <time>2011-04-03T14:05:50Z</time>
      </trkpt>
      <trkpt lat="45.54314" lon="6.01899">
        <ele>891.76</ele>
        <time>2011-04-03T14:06:04Z</time>
      </trkpt>
      <trkpt lat="45.54302" lon="6.01896">
        <ele>894.64</ele>
        <time>2011-04-03T14:06:20Z</time>
      </trkpt>
      <trkpt lat="45.54293" lon="6.01894">
        <ele>897.05</ele>
        <time>2011-04-03T14:06:33Z</time>
      </trkpt>
      <trkpt lat="45.54289" lon="6.01895">
        <ele>897.53</ele>
        <time>2011-04-03T14:06:45Z</time>
      </trkpt>
      <trkpt lat="45.54281" lon="6.01896">
        <ele>899.93</ele>
        <time>2011-04-03T14:07:03Z</time>
      </trkpt>
      <trkpt lat="45.54273" lon="6.01894">
        <ele>902.82</ele>
        <time>2011-04-03T14:07:18Z</time>
      </trkpt>
      <trkpt lat="45.54263" lon="6.01889">
        <ele>905.22</ele>
        <time>2011-04-03T14:07:32Z</time>
      </trkpt>
      <trkpt lat="45.54251" lon="6.01884">
        <ele>907.62</ele>
        <time>2011-04-03T14:07:48Z</time>
      </trkpt>
      <trkpt lat="45.54247" lon="6.01883">
        <ele>908.1</ele>
        <time>2011-04-03T14:08:04Z</time>
      </trkpt>
      <trkpt lat="45.54243" lon="6.01883">
        <ele>909.06</ele>
        <time>2011-04-03T14:08:36Z</time>
      </trkpt>
      <trkpt lat="45.54233" lon="6.0188">
        <ele>910.99</ele>
        <time>2011-04-03T14:08:49Z</time>
      </trkpt>
      <trkpt lat="45.54229" lon="6.01879">
        <ele>912.43</ele>
        <time>2011-04-03T14:09:04Z</time>
      </trkpt>
      <trkpt lat="45.54229" lon="6.01879">
        <ele>912.43</ele>
        <time>2011-04-03T14:09:35Z</time>
      </trkpt>
      <trkpt lat="45.54228" lon="6.01879">
        <ele>912.43</ele>
        <time>2011-04-03T14:10:05Z</time>
      </trkpt>
      <trkpt lat="45.54228" lon="6.01879">
        <ele>912.43</ele>
        <time>2011-04-03T14:10:32Z</time>
      </trkpt>
      <trkpt lat="45.54228" lon="6.0188">
        <ele>912.43</ele>
        <time>2011-04-03T14:10:59Z</time>
      </trkpt>
      <trkpt lat="45.54217" lon="6.01878">
        <ele>915.31</ele>
        <time>2011-04-03T14:11:12Z</time>
      </trkpt>
      <trkpt lat="45.54207" lon="6.01877">
        <ele>917.72</ele>
        <time>2011-04-03T14:11:26Z</time>
      </trkpt>
      <trkpt lat="45.54194" lon="6.01876">
        <ele>920.12</ele>
        <time>2011-04-03T14:11:40Z</time>
      </trkpt>
      <trkpt lat="45.54189" lon="6.01877">
        <ele>921.08</ele>
        <time>2011-04-03T14:11:56Z</time>
      </trkpt>
      <trkpt lat="45.54179" lon="6.01877">
        <ele>923.96</ele>
        <time>2011-04-03T14:12:12Z</time>
      </trkpt>
      <trkpt lat="45.54171" lon="6.01875">
        <ele>925.41</ele>
        <time>2011-04-03T14:12:21Z</time>
      </trkpt>
      <trkpt lat="45.54163" lon="6.01873">
        <ele>927.33</ele>
        <time>2011-04-03T14:12:35Z</time>
      </trkpt>
      <trkpt lat="45.54162" lon="6.01873">
        <ele>928.29</ele>
        <time>2011-04-03T14:12:57Z</time>
      </trkpt>
      <trkpt lat="45.54153" lon="6.01871">
        <ele>930.69</ele>
        <time>2011-04-03T14:13:11Z</time>
      </trkpt>
      <trkpt lat="45.54147" lon="6.01866">
        <ele>933.58</ele>
        <time>2011-04-03T14:13:25Z</time>
      </trkpt>
      <trkpt lat="45.54145" lon="6.01865">
        <ele>934.06</ele>
        <time>2011-04-03T14:13:28Z</time>
      </trkpt>
      <trkpt lat="45.54141" lon="6.01861">
        <ele>935.5</ele>
        <time>2011-04-03T14:13:44Z</time>
      </trkpt>
      <trkpt lat="45.54129" lon="6.01851">
        <ele>938.38</ele>
        <time>2011-04-03T14:14:01Z</time>
      </trkpt>
      <trkpt lat="45.54124" lon="6.01844">
        <ele>939.83</ele>
        <time>2011-04-03T14:14:14Z</time>
      </trkpt>
      <trkpt lat="45.54116" lon="6.01842">
        <ele>942.23</ele>
        <time>2011-04-03T14:14:33Z</time>
      </trkpt>
      <trkpt lat="45.54108" lon="6.0184">
        <ele>945.11</ele>
        <time>2011-04-03T14:14:46Z</time>
      </trkpt>
      <trkpt lat="45.54105" lon="6.01839">
        <ele>946.07</ele>
        <time>2011-04-03T14:14:52Z</time>
      </trkpt>
      <trkpt lat="45.54092" lon="6.01836">
        <ele>948.48</ele>
        <time>2011-04-03T14:15:07Z</time>
      </trkpt>
      <trkpt lat="45.54081" lon="6.01831">
        <ele>951.36</ele>
        <time>2011-04-03T14:15:23Z</time>
      </trkpt>
      <trkpt lat="45.54071" lon="6.01826">
        <ele>953.77</ele>
        <time>2011-04-03T14:15:36Z</time>
      </trkpt>
      <trkpt lat="45.5406" lon="6.01823">
        <ele>956.17</ele>
        <time>2011-04-03T14:15:50Z</time>
      </trkpt>
      <trkpt lat="45.54057" lon="6.01824">
        <ele>957.61</ele>
        <time>2011-04-03T14:16:05Z</time>
      </trkpt>
      <trkpt lat="45.54057" lon="6.01824">
        <ele>957.61</ele>
        <time>2011-04-03T14:16:39Z</time>
      </trkpt>
      <trkpt lat="45.54057" lon="6.01824">
        <ele>958.09</ele>
        <time>2011-04-03T14:17:13Z</time>
      </trkpt>
      <trkpt lat="45.54057" lon="6.01824">
        <ele>958.09</ele>
        <time>2011-04-03T14:17:41Z</time>
      </trkpt>
      <trkpt lat="45.54054" lon="6.01824">
        <ele>958.57</ele>
        <time>2011-04-03T14:17:57Z</time>
      </trkpt>
      <trkpt lat="45.54054" lon="6.01824">
        <ele>959.05</ele>
        <time>2011-04-03T14:18:35Z</time>
      </trkpt>
      <trkpt lat="45.54054" lon="6.01824">
        <ele>959.05</ele>
        <time>2011-04-03T14:19:15Z</time>
      </trkpt>
      <trkpt lat="45.54054" lon="6.01823">
        <ele>959.53</ele>
        <time>2011-04-03T14:19:59Z</time>
      </trkpt>
      <trkpt lat="45.54054" lon="6.01823">
        <ele>959.53</ele>
        <time>2011-04-03T14:20:42Z</time>
      </trkpt>
      <trkpt lat="45.54054" lon="6.01823">
        <ele>960.01</ele>
        <time>2011-04-03T14:21:21Z</time>
      </trkpt>
      <trkpt lat="45.54053" lon="6.01823">
        <ele>959.53</ele>
        <time>2011-04-03T14:22:01Z</time>
      </trkpt>
      <trkpt lat="45.54054" lon="6.01824">
        <ele>959.53</ele>
        <time>2011-04-03T14:22:24Z</time>
      </trkpt>
      <trkpt lat="45.54056" lon="6.01823">
        <ele>959.05</ele>
        <time>2011-04-03T14:22:27Z</time>
      </trkpt>
      <trkpt lat="45.54064" lon="6.01827">
        <ele>956.17</ele>
        <time>2011-04-03T14:22:32Z</time>
      </trkpt>
      <trkpt lat="45.54076" lon="6.01832">
        <ele>953.28</ele>
        <time>2011-04-03T14:22:37Z</time>
      </trkpt>
      <trkpt lat="45.54091" lon="6.01836">
        <ele>949.92</ele>
        <time>2011-04-03T14:22:43Z</time>
      </trkpt>
      <trkpt lat="45.54107" lon="6.01842">
        <ele>946.07</ele>
        <time>2011-04-03T14:22:50Z</time>
      </trkpt>
      <trkpt lat="45.54117" lon="6.01847">
        <ele>943.19</ele>
        <time>2011-04-03T14:22:56Z</time>
      </trkpt>
      <trkpt lat="45.54127" lon="6.01853">
        <ele>939.83</ele>
        <time>2011-04-03T14:23:01Z</time>
      </trkpt>
      <trkpt lat="45.54133" lon="6.01863">
        <ele>936.46</ele>
        <time>2011-04-03T14:23:06Z</time>
      </trkpt>
      <trkpt lat="45.54144" lon="6.01871">
        <ele>932.62</ele>
        <time>2011-04-03T14:23:11Z</time>
      </trkpt>
      <trkpt lat="45.54156" lon="6.01878">
        <ele>929.25</ele>
        <time>2011-04-03T14:23:15Z</time>
      </trkpt>
      <trkpt lat="45.54171" lon="6.01881">
        <ele>925.41</ele>
        <time>2011-04-03T14:23:19Z</time>
      </trkpt>
      <trkpt lat="45.5419" lon="6.01881">
        <ele>922.04</ele>
        <time>2011-04-03T14:23:24Z</time>
      </trkpt>
      <trkpt lat="45.54203" lon="6.01884">
        <ele>918.68</ele>
        <time>2011-04-03T14:23:28Z</time>
      </trkpt>
      <trkpt lat="45.54212" lon="6.01886">
        <ele>915.31</ele>
        <time>2011-04-03T14:23:31Z</time>
      </trkpt>
      <trkpt lat="45.54229" lon="6.01891">
        <ele>911.47</ele>
        <time>2011-04-03T14:23:36Z</time>
      </trkpt>
      <trkpt lat="45.54234" lon="6.01892">
        <ele>910.99</ele>
        <time>2011-04-03T14:23:37Z</time>
      </trkpt>
      <trkpt lat="45.54248" lon="6.01895">
        <ele>909.54</ele>
        <time>2011-04-03T14:23:40Z</time>
      </trkpt>
      <trkpt lat="45.54253" lon="6.01895">
        <ele>908.58</ele>
        <time>2011-04-03T14:23:41Z</time>
      </trkpt>
      <trkpt lat="45.54261" lon="6.01898">
        <ele>906.66</ele>
        <time>2011-04-03T14:23:43Z</time>
      </trkpt>
      <trkpt lat="45.54283" lon="6.01896">
        <ele>902.82</ele>
        <time>2011-04-03T14:23:47Z</time>
      </trkpt>
      <trkpt lat="45.54293" lon="6.01897">
        <ele>899.93</ele>
        <time>2011-04-03T14:23:50Z</time>
      </trkpt>
      <trkpt lat="45.54308" lon="6.01899">
        <ele>896.09</ele>
        <time>2011-04-03T14:23:54Z</time>
      </trkpt>
      <trkpt lat="45.54321" lon="6.01899">
        <ele>893.2</ele>
        <time>2011-04-03T14:23:57Z</time>
      </trkpt>
      <trkpt lat="45.54334" lon="6.01894">
        <ele>889.84</ele>
        <time>2011-04-03T14:24:00Z</time>
      </trkpt>
      <trkpt lat="45.54349" lon="6.01885">
        <ele>885.99</ele>
        <time>2011-04-03T14:24:04Z</time>
      </trkpt>
      <trkpt lat="45.54361" lon="6.01882">
        <ele>882.15</ele>
        <time>2011-04-03T14:24:07Z</time>
      </trkpt>
      <trkpt lat="45.54372" lon="6.01882">
        <ele>878.78</ele>
        <time>2011-04-03T14:24:10Z</time>
      </trkpt>
      <trkpt lat="45.54385" lon="6.01883">
        <ele>874.46</ele>
        <time>2011-04-03T14:24:13Z</time>
      </trkpt>
      <trkpt lat="45.54401" lon="6.0188">
        <ele>870.13</ele>
        <time>2011-04-03T14:24:16Z</time>
      </trkpt>
      <trkpt lat="45.54406" lon="6.01878">
        <ele>867.73</ele>
        <time>2011-04-03T14:24:17Z</time>
      </trkpt>
      <trkpt lat="45.54411" lon="6.01877">
        <ele>865.8</ele>
        <time>2011-04-03T14:24:18Z</time>
      </trkpt>
      <trkpt lat="45.54415" lon="6.01877">
        <ele>864.36</ele>
        <time>2011-04-03T14:24:19Z</time>
      </trkpt>
      <trkpt lat="45.5442" lon="6.01877">
        <ele>862.92</ele>
        <time>2011-04-03T14:24:20Z</time>
      </trkpt>
      <trkpt lat="45.54425" lon="6.01878">
        <ele>861.48</ele>
        <time>2011-04-03T14:24:21Z</time>
      </trkpt>
      <trkpt lat="45.54429" lon="6.01879">
        <ele>860.04</ele>
        <time>2011-04-03T14:24:22Z</time>
      </trkpt>
      <trkpt lat="45.54434" lon="6.01882">
        <ele>859.08</ele>
        <time>2011-04-03T14:24:23Z</time>
      </trkpt>
      <trkpt lat="45.54446" lon="6.01892">
        <ele>855.23</ele>
        <time>2011-04-03T14:24:26Z</time>
      </trkpt>
      <trkpt lat="45.54451" lon="6.01893">
        <ele>853.79</ele>
        <time>2011-04-03T14:24:27Z</time>
      </trkpt>
      <trkpt lat="45.54455" lon="6.01893">
        <ele>852.83</ele>
        <time>2011-04-03T14:24:28Z</time>
      </trkpt>
      <trkpt lat="45.54459" lon="6.01894">
        <ele>852.35</ele>
        <time>2011-04-03T14:24:29Z</time>
      </trkpt>
      <trkpt lat="45.54464" lon="6.01895">
        <ele>850.9</ele>
        <time>2011-04-03T14:24:30Z</time>
      </trkpt>
      <trkpt lat="45.54468" lon="6.01896">
        <ele>850.9</ele>
        <time>2011-04-03T14:24:31Z</time>
      </trkpt>
      <trkpt lat="45.54472" lon="6.01898">
        <ele>849.94</ele>
        <time>2011-04-03T14:24:32Z</time>
      </trkpt>
      <trkpt lat="45.54477" lon="6.019">
        <ele>848.98</ele>
        <time>2011-04-03T14:24:33Z</time>
      </trkpt>
      <trkpt lat="45.54492" lon="6.01907">
        <ele>845.62</ele>
        <time>2011-04-03T14:24:36Z</time>
      </trkpt>
      <trkpt lat="45.54511" lon="6.01912">
        <ele>842.25</ele>
        <time>2011-04-03T14:24:39Z</time>
      </trkpt>
      <trkpt lat="45.54535" lon="6.01921">
        <ele>838.41</ele>
        <time>2011-04-03T14:24:44Z</time>
      </trkpt>
      <trkpt lat="45.54541" lon="6.01921">
        <ele>836.96</ele>
        <time>2011-04-03T14:24:45Z</time>
      </trkpt>
      <trkpt lat="45.54548" lon="6.0192">
        <ele>836</ele>
        <time>2011-04-03T14:24:46Z</time>
      </trkpt>
      <trkpt lat="45.54554" lon="6.01918">
        <ele>834.08</ele>
        <time>2011-04-03T14:24:47Z</time>
      </trkpt>
      <trkpt lat="45.54559" lon="6.01917">
        <ele>833.12</ele>
        <time>2011-04-03T14:24:48Z</time>
      </trkpt>
      <trkpt lat="45.54564" lon="6.01916">
        <ele>832.16</ele>
        <time>2011-04-03T14:24:49Z</time>
      </trkpt>
      <trkpt lat="45.54569" lon="6.01918">
        <ele>831.68</ele>
        <time>2011-04-03T14:24:50Z</time>
      </trkpt>
      <trkpt lat="45.54574" lon="6.0192">
        <ele>830.24</ele>
        <time>2011-04-03T14:24:51Z</time>
      </trkpt>
      <trkpt lat="45.54578" lon="6.01922">
        <ele>829.27</ele>
        <time>2011-04-03T14:24:52Z</time>
      </trkpt>
      <trkpt lat="45.54583" lon="6.01925">
        <ele>828.31</ele>
        <time>2011-04-03T14:24:53Z</time>
      </trkpt>
      <trkpt lat="45.54586" lon="6.0193">
        <ele>827.35</ele>
        <time>2011-04-03T14:24:54Z</time>
      </trkpt>
      <trkpt lat="45.54588" lon="6.01937">
        <ele>826.39</ele>
        <time>2011-04-03T14:24:55Z</time>
      </trkpt>
      <trkpt lat="45.5459" lon="6.01943">
        <ele>825.43</ele>
        <time>2011-04-03T14:24:56Z</time>
      </trkpt>
      <trkpt lat="45.54591" lon="6.01949">
        <ele>824.47</ele>
        <time>2011-04-03T14:24:57Z</time>
      </trkpt>
      <trkpt lat="45.54591" lon="6.01955">
        <ele>823.51</ele>
        <time>2011-04-03T14:24:58Z</time>
      </trkpt>
      <trkpt lat="45.5459" lon="6.01964">
        <ele>822.55</ele>
        <time>2011-04-03T14:24:59Z</time>
      </trkpt>
      <trkpt lat="45.54588" lon="6.01974">
        <ele>821.1</ele>
        <time>2011-04-03T14:25:00Z</time>
      </trkpt>
      <trkpt lat="45.54589" lon="6.01985">
        <ele>820.62</ele>
        <time>2011-04-03T14:25:01Z</time>
      </trkpt>
      <trkpt lat="45.54591" lon="6.01996">
        <ele>819.66</ele>
        <time>2011-04-03T14:25:02Z</time>
      </trkpt>
      <trkpt lat="45.54593" lon="6.02006">
        <ele>819.18</ele>
        <time>2011-04-03T14:25:03Z</time>
      </trkpt>
      <trkpt lat="45.54599" lon="6.0203">
        <ele>817.74</ele>
        <time>2011-04-03T14:25:06Z</time>
      </trkpt>
      <trkpt lat="45.546" lon="6.02036">
        <ele>817.26</ele>
        <time>2011-04-03T14:25:07Z</time>
      </trkpt>
      <trkpt lat="45.54601" lon="6.02043">
        <ele>816.78</ele>
        <time>2011-04-03T14:25:08Z</time>
      </trkpt>
      <trkpt lat="45.54604" lon="6.02078">
        <ele>816.3</ele>
        <time>2011-04-03T14:25:18Z</time>
      </trkpt>
      <trkpt lat="45.54602" lon="6.02081">
        <ele>816.3</ele>
        <time>2011-04-03T14:25:19Z</time>
      </trkpt>
      <trkpt lat="45.54601" lon="6.02095">
        <ele>817.26</ele>
        <time>2011-04-03T14:25:26Z</time>
      </trkpt>
      <trkpt lat="45.54601" lon="6.02098">
        <ele>817.26</ele>
        <time>2011-04-03T14:25:43Z</time>
      </trkpt>
      <trkpt lat="45.54602" lon="6.02103">
        <ele>817.74</ele>
        <time>2011-04-03T14:25:46Z</time>
      </trkpt>
      <trkpt lat="45.54602" lon="6.02105">
        <ele>817.74</ele>
        <time>2011-04-03T14:25:47Z</time>
      </trkpt>
      <trkpt lat="45.54603" lon="6.02106">
        <ele>817.74</ele>
        <time>2011-04-03T14:25:48Z</time>
      </trkpt>
      <trkpt lat="45.54604" lon="6.02108">
        <ele>817.74</ele>
        <time>2011-04-03T14:25:49Z</time>
      </trkpt>
      <trkpt lat="45.54605" lon="6.0211">
        <ele>817.74</ele>
        <time>2011-04-03T14:25:50Z</time>
      </trkpt>
      <trkpt lat="45.54606" lon="6.02112">
        <ele>817.74</ele>
        <time>2011-04-03T14:25:51Z</time>
      </trkpt>
      <trkpt lat="45.54606" lon="6.02114">
        <ele>818.7</ele>
        <time>2011-04-03T14:25:52Z</time>
      </trkpt>
      <trkpt lat="45.54607" lon="6.02115">
        <ele>818.7</ele>
        <time>2011-04-03T14:25:53Z</time>
      </trkpt>
      <trkpt lat="45.54617" lon="6.0213">
        <ele>817.74</ele>
        <time>2011-04-03T14:25:59Z</time>
      </trkpt>
      <trkpt lat="45.54638" lon="6.02163">
        <ele>814.37</ele>
        <time>2011-04-03T14:26:04Z</time>
      </trkpt>
      <trkpt lat="45.54651" lon="6.02178">
        <ele>813.89</ele>
        <time>2011-04-03T14:26:06Z</time>
      </trkpt>
      <trkpt lat="45.54672" lon="6.02199">
        <ele>810.53</ele>
        <time>2011-04-03T14:26:09Z</time>
      </trkpt>
      <trkpt lat="45.54702" lon="6.02225">
        <ele>806.68</ele>
        <time>2011-04-03T14:26:13Z</time>
      </trkpt>
      <trkpt lat="45.54738" lon="6.02257">
        <ele>802.84</ele>
        <time>2011-04-03T14:26:17Z</time>
      </trkpt>
      <trkpt lat="45.54776" lon="6.02284">
        <ele>798.99</ele>
        <time>2011-04-03T14:26:21Z</time>
      </trkpt>
      <trkpt lat="45.54807" lon="6.02299">
        <ele>795.63</ele>
        <time>2011-04-03T14:26:24Z</time>
      </trkpt>
      <trkpt lat="45.54818" lon="6.02302">
        <ele>793.71</ele>
        <time>2011-04-03T14:26:25Z</time>
      </trkpt>
      <trkpt lat="45.54856" lon="6.02307">
        <ele>790.82</ele>
        <time>2011-04-03T14:26:28Z</time>
      </trkpt>
      <trkpt lat="45.54892" lon="6.02318">
        <ele>787.46</ele>
        <time>2011-04-03T14:26:31Z</time>
      </trkpt>
      <trkpt lat="45.54927" lon="6.02332">
        <ele>783.61</ele>
        <time>2011-04-03T14:26:34Z</time>
      </trkpt>
      <trkpt lat="45.54965" lon="6.02349">
        <ele>780.73</ele>
        <time>2011-04-03T14:26:37Z</time>
      </trkpt>
      <trkpt lat="45.54977" lon="6.02357">
        <ele>779.29</ele>
        <time>2011-04-03T14:26:38Z</time>
      </trkpt>
      <trkpt lat="45.54989" lon="6.02366">
        <ele>777.84</ele>
        <time>2011-04-03T14:26:39Z</time>
      </trkpt>
      <trkpt lat="45.55029" lon="6.02409">
        <ele>773.52</ele>
        <time>2011-04-03T14:26:43Z</time>
      </trkpt>
      <trkpt lat="45.55052" lon="6.02429">
        <ele>771.6</ele>
        <time>2011-04-03T14:26:45Z</time>
      </trkpt>
      <trkpt lat="45.55084" lon="6.02451">
        <ele>768.23</ele>
        <time>2011-04-03T14:26:48Z</time>
      </trkpt>
      <trkpt lat="45.55114" lon="6.02474">
        <ele>764.87</ele>
        <time>2011-04-03T14:26:50Z</time>
      </trkpt>
      <trkpt lat="45.55154" lon="6.02498">
        <ele>761.5</ele>
        <time>2011-04-03T14:26:53Z</time>
      </trkpt>
      <trkpt lat="45.55191" lon="6.02526">
        <ele>757.66</ele>
        <time>2011-04-03T14:26:56Z</time>
      </trkpt>
      <trkpt lat="45.55227" lon="6.02549">
        <ele>753.81</ele>
        <time>2011-04-03T14:26:59Z</time>
      </trkpt>
      <trkpt lat="45.55239" lon="6.02554">
        <ele>752.85</ele>
        <time>2011-04-03T14:27:00Z</time>
      </trkpt>
      <trkpt lat="45.55274" lon="6.02564">
        <ele>749.49</ele>
        <time>2011-04-03T14:27:03Z</time>
      </trkpt>
      <trkpt lat="45.55284" lon="6.02569">
        <ele>749</ele>
        <time>2011-04-03T14:27:04Z</time>
      </trkpt>
      <trkpt lat="45.55291" lon="6.02577">
        <ele>749.49</ele>
        <time>2011-04-03T14:27:05Z</time>
      </trkpt>
      <trkpt lat="45.55298" lon="6.02584">
        <ele>749.97</ele>
        <time>2011-04-03T14:27:06Z</time>
      </trkpt>
      <trkpt lat="45.55303" lon="6.02589">
        <ele>750.45</ele>
        <time>2011-04-03T14:27:07Z</time>
      </trkpt>
      <trkpt lat="45.55309" lon="6.02593">
        <ele>750.93</ele>
        <time>2011-04-03T14:27:08Z</time>
      </trkpt>
      <trkpt lat="45.55319" lon="6.02599">
        <ele>751.89</ele>
        <time>2011-04-03T14:27:10Z</time>
      </trkpt>
      <trkpt lat="45.55343" lon="6.02623">
        <ele>755.25</ele>
        <time>2011-04-03T14:27:20Z</time>
      </trkpt>
      <trkpt lat="45.5536" lon="6.02644">
        <ele>758.14</ele>
        <time>2011-04-03T14:27:31Z</time>
      </trkpt>
      <trkpt lat="45.55381" lon="6.02673">
        <ele>760.54</ele>
        <time>2011-04-03T14:27:45Z</time>
      </trkpt>
      <trkpt lat="45.55408" lon="6.02696">
        <ele>762.94</ele>
        <time>2011-04-03T14:27:59Z</time>
      </trkpt>
      <trkpt lat="45.55435" lon="6.02716">
        <ele>765.83</ele>
        <time>2011-04-03T14:28:13Z</time>
      </trkpt>
      <trkpt lat="45.55463" lon="6.02737">
        <ele>768.23</ele>
        <time>2011-04-03T14:28:28Z</time>
      </trkpt>
      <trkpt lat="45.55464" lon="6.02739">
        <ele>768.23</ele>
        <time>2011-04-03T14:28:29Z</time>
      </trkpt>
      <trkpt lat="45.55465" lon="6.0274">
        <ele>768.71</ele>
        <time>2011-04-03T14:28:30Z</time>
      </trkpt>
      <trkpt lat="45.55466" lon="6.02742">
        <ele>768.71</ele>
        <time>2011-04-03T14:28:46Z</time>
      </trkpt>
      <trkpt lat="45.55466" lon="6.02742">
        <ele>768.71</ele>
        <time>2011-04-03T14:29:14Z</time>
      </trkpt>
      <trkpt lat="45.55466" lon="6.02742">
        <ele>768.71</ele>
        <time>2011-04-03T14:29:44Z</time>
      </trkpt>
      <trkpt lat="45.55466" lon="6.02741">
        <ele>768.71</ele>
        <time>2011-04-03T14:30:25Z</time>
      </trkpt>
      <trkpt lat="45.55466" lon="6.02741">
        <ele>768.23</ele>
        <time>2011-04-03T14:30:57Z</time>
      </trkpt>
      <trkpt lat="45.55466" lon="6.02741">
        <ele>768.71</ele>
        <time>2011-04-03T14:31:19Z</time>
      </trkpt>
      <trkpt lat="45.55466" lon="6.02741">
        <ele>768.71</ele>
        <time>2011-04-03T14:31:44Z</time>
      </trkpt>
      <trkpt lat="45.55466" lon="6.0274">
        <ele>768.71</ele>
        <time>2011-04-03T14:32:12Z</time>
      </trkpt>
      <trkpt lat="45.55468" lon="6.02741">
        <ele>769.19</ele>
        <time>2011-04-03T14:32:29Z</time>
      </trkpt>
      <trkpt lat="45.5547" lon="6.02741">
        <ele>769.19</ele>
        <time>2011-04-03T14:32:30Z</time>
      </trkpt>
      <trkpt lat="45.55471" lon="6.02742">
        <ele>769.67</ele>
        <time>2011-04-03T14:32:31Z</time>
      </trkpt>
      <trkpt lat="45.55473" lon="6.02743">
        <ele>769.19</ele>
        <time>2011-04-03T14:32:32Z</time>
      </trkpt>
      <trkpt lat="45.55474" lon="6.02744">
        <ele>769.67</ele>
        <time>2011-04-03T14:32:33Z</time>
      </trkpt>
      <trkpt lat="45.55476" lon="6.02746">
        <ele>769.67</ele>
        <time>2011-04-03T14:32:34Z</time>
      </trkpt>
      <trkpt lat="45.55478" lon="6.02747">
        <ele>770.15</ele>
        <time>2011-04-03T14:32:35Z</time>
      </trkpt>
      <trkpt lat="45.55479" lon="6.02748">
        <ele>770.63</ele>
        <time>2011-04-03T14:32:36Z</time>
      </trkpt>
      <trkpt lat="45.55481" lon="6.02749">
        <ele>770.63</ele>
        <time>2011-04-03T14:32:37Z</time>
      </trkpt>
      <trkpt lat="45.55508" lon="6.02766">
        <ele>773.04</ele>
        <time>2011-04-03T14:32:52Z</time>
      </trkpt>
      <trkpt lat="45.5551" lon="6.02769">
        <ele>773.52</ele>
        <time>2011-04-03T14:32:54Z</time>
      </trkpt>
      <trkpt lat="45.55512" lon="6.0277">
        <ele>773.52</ele>
        <time>2011-04-03T14:32:55Z</time>
      </trkpt>
      <trkpt lat="45.55513" lon="6.02771">
        <ele>773.52</ele>
        <time>2011-04-03T14:32:56Z</time>
      </trkpt>
      <trkpt lat="45.55515" lon="6.02772">
        <ele>773.52</ele>
        <time>2011-04-03T14:32:57Z</time>
      </trkpt>
      <trkpt lat="45.55516" lon="6.02774">
        <ele>774</ele>
        <time>2011-04-03T14:32:58Z</time>
      </trkpt>
      <trkpt lat="45.55518" lon="6.02775">
        <ele>774</ele>
        <time>2011-04-03T14:32:59Z</time>
      </trkpt>
      <trkpt lat="45.5552" lon="6.02776">
        <ele>774.48</ele>
        <time>2011-04-03T14:33:00Z</time>
      </trkpt>
      <trkpt lat="45.55522" lon="6.02777">
        <ele>774</ele>
        <time>2011-04-03T14:33:01Z</time>
      </trkpt>
      <trkpt lat="45.55547" lon="6.02796">
        <ele>776.88</ele>
        <time>2011-04-03T14:33:17Z</time>
      </trkpt>
      <trkpt lat="45.55568" lon="6.02814">
        <ele>779.29</ele>
        <time>2011-04-03T14:33:31Z</time>
      </trkpt>
      <trkpt lat="45.55598" lon="6.0284">
        <ele>782.17</ele>
        <time>2011-04-03T14:33:49Z</time>
      </trkpt>
      <trkpt lat="45.55622" lon="6.02882">
        <ele>785.05</ele>
        <time>2011-04-03T14:34:08Z</time>
      </trkpt>
      <trkpt lat="45.55646" lon="6.02913">
        <ele>787.94</ele>
        <time>2011-04-03T14:34:24Z</time>
      </trkpt>
      <trkpt lat="45.5566" lon="6.0294">
        <ele>791.3</ele>
        <time>2011-04-03T14:34:36Z</time>
      </trkpt>
      <trkpt lat="45.55653" lon="6.02971">
        <ele>794.19</ele>
        <time>2011-04-03T14:34:50Z</time>
      </trkpt>
      <trkpt lat="45.5563" lon="6.02989">
        <ele>796.59</ele>
        <time>2011-04-03T14:35:05Z</time>
      </trkpt>
      <trkpt lat="45.55598" lon="6.02995">
        <ele>798.99</ele>
        <time>2011-04-03T14:35:19Z</time>
      </trkpt>
      <trkpt lat="45.55558" lon="6.02996">
        <ele>800.92</ele>
        <time>2011-04-03T14:35:35Z</time>
      </trkpt>
      <trkpt lat="45.55518" lon="6.02999">
        <ele>803.8</ele>
        <time>2011-04-03T14:35:51Z</time>
      </trkpt>
      <trkpt lat="45.55483" lon="6.03002">
        <ele>807.64</ele>
        <time>2011-04-03T14:36:06Z</time>
      </trkpt>
      <trkpt lat="45.55438" lon="6.03019">
        <ele>809.57</ele>
        <time>2011-04-03T14:36:25Z</time>
      </trkpt>
      <trkpt lat="45.55381" lon="6.03017">
        <ele>807.64</ele>
        <time>2011-04-03T14:36:38Z</time>
      </trkpt>
      <trkpt lat="45.55375" lon="6.03018">
        <ele>807.64</ele>
        <time>2011-04-03T14:36:39Z</time>
      </trkpt>
      <trkpt lat="45.55368" lon="6.0302">
        <ele>806.68</ele>
        <time>2011-04-03T14:36:40Z</time>
      </trkpt>
      <trkpt lat="45.55345" lon="6.0303">
        <ele>804.28</ele>
        <time>2011-04-03T14:36:43Z</time>
      </trkpt>
      <trkpt lat="45.55336" lon="6.03031">
        <ele>803.32</ele>
        <time>2011-04-03T14:36:44Z</time>
      </trkpt>
      <trkpt lat="45.55327" lon="6.0303">
        <ele>803.32</ele>
        <time>2011-04-03T14:36:45Z</time>
      </trkpt>
      <trkpt lat="45.55317" lon="6.03028">
        <ele>802.84</ele>
        <time>2011-04-03T14:36:46Z</time>
      </trkpt>
      <trkpt lat="45.55308" lon="6.03028">
        <ele>802.84</ele>
        <time>2011-04-03T14:36:47Z</time>
      </trkpt>
      <trkpt lat="45.55299" lon="6.0303">
        <ele>803.32</ele>
        <time>2011-04-03T14:36:48Z</time>
      </trkpt>
      <trkpt lat="45.55292" lon="6.03033">
        <ele>802.84</ele>
        <time>2011-04-03T14:36:49Z</time>
      </trkpt>
      <trkpt lat="45.55285" lon="6.03038">
        <ele>802.84</ele>
        <time>2011-04-03T14:36:50Z</time>
      </trkpt>
      <trkpt lat="45.55279" lon="6.03044">
        <ele>803.32</ele>
        <time>2011-04-03T14:36:51Z</time>
      </trkpt>
      <trkpt lat="45.55275" lon="6.03052">
        <ele>803.32</ele>
        <time>2011-04-03T14:36:52Z</time>
      </trkpt>
      <trkpt lat="45.55237" lon="6.031">
        <ele>804.76</ele>
        <time>2011-04-03T14:37:01Z</time>
      </trkpt>
      <trkpt lat="45.55232" lon="6.03102">
        <ele>804.28</ele>
        <time>2011-04-03T14:37:02Z</time>
      </trkpt>
      <trkpt lat="45.55227" lon="6.03104">
        <ele>804.28</ele>
        <time>2011-04-03T14:37:03Z</time>
      </trkpt>
      <trkpt lat="45.55221" lon="6.03105">
        <ele>804.28</ele>
        <time>2011-04-03T14:37:04Z</time>
      </trkpt>
      <trkpt lat="45.55216" lon="6.03106">
        <ele>803.8</ele>
        <time>2011-04-03T14:37:05Z</time>
      </trkpt>
      <trkpt lat="45.5521" lon="6.03107">
        <ele>803.8</ele>
        <time>2011-04-03T14:37:06Z</time>
      </trkpt>
      <trkpt lat="45.55204" lon="6.03107">
        <ele>803.8</ele>
        <time>2011-04-03T14:37:07Z</time>
      </trkpt>
      <trkpt lat="45.55198" lon="6.03107">
        <ele>803.8</ele>
        <time>2011-04-03T14:37:08Z</time>
      </trkpt>
      <trkpt lat="45.55187" lon="6.03108">
        <ele>803.8</ele>
        <time>2011-04-03T14:37:10Z</time>
      </trkpt>
      <trkpt lat="45.55169" lon="6.03112">
        <ele>803.8</ele>
        <time>2011-04-03T14:37:13Z</time>
      </trkpt>
      <trkpt lat="45.55164" lon="6.03116">
        <ele>803.8</ele>
        <time>2011-04-03T14:37:14Z</time>
      </trkpt>
      <trkpt lat="45.55152" lon="6.03124">
        <ele>802.36</ele>
        <time>2011-04-03T14:37:16Z</time>
      </trkpt>
      <trkpt lat="45.55069" lon="6.03199">
        <ele>800.92</ele>
        <time>2011-04-03T14:37:32Z</time>
      </trkpt>
      <trkpt lat="45.55064" lon="6.032">
        <ele>800.92</ele>
        <time>2011-04-03T14:37:33Z</time>
      </trkpt>
      <trkpt lat="45.55058" lon="6.03199">
        <ele>800.92</ele>
        <time>2011-04-03T14:37:34Z</time>
      </trkpt>
      <trkpt lat="45.55053" lon="6.03195">
        <ele>800.92</ele>
        <time>2011-04-03T14:37:35Z</time>
      </trkpt>
      <trkpt lat="45.55049" lon="6.0319">
        <ele>801.88</ele>
        <time>2011-04-03T14:37:36Z</time>
      </trkpt>
      <trkpt lat="45.55045" lon="6.03185">
        <ele>801.88</ele>
        <time>2011-04-03T14:37:37Z</time>
      </trkpt>
      <trkpt lat="45.5504" lon="6.03179">
        <ele>801.4</ele>
        <time>2011-04-03T14:37:38Z</time>
      </trkpt>
      <trkpt lat="45.5501" lon="6.03147">
        <ele>800.92</ele>
        <time>2011-04-03T14:37:44Z</time>
      </trkpt>
      <trkpt lat="45.55004" lon="6.03143">
        <ele>801.4</ele>
        <time>2011-04-03T14:37:45Z</time>
      </trkpt>
      <trkpt lat="45.54998" lon="6.03142">
        <ele>800.92</ele>
        <time>2011-04-03T14:37:46Z</time>
      </trkpt>
      <trkpt lat="45.54991" lon="6.03141">
        <ele>800.92</ele>
        <time>2011-04-03T14:37:47Z</time>
      </trkpt>
      <trkpt lat="45.54985" lon="6.03143">
        <ele>801.4</ele>
        <time>2011-04-03T14:37:48Z</time>
      </trkpt>
      <trkpt lat="45.54979" lon="6.03145">
        <ele>801.4</ele>
        <time>2011-04-03T14:37:49Z</time>
      </trkpt>
      <trkpt lat="45.54973" lon="6.03148">
        <ele>801.4</ele>
        <time>2011-04-03T14:37:50Z</time>
      </trkpt>
      <trkpt lat="45.54967" lon="6.03152">
        <ele>800.92</ele>
        <time>2011-04-03T14:37:51Z</time>
      </trkpt>
      <trkpt lat="45.54962" lon="6.03157">
        <ele>801.4</ele>
        <time>2011-04-03T14:37:52Z</time>
      </trkpt>
      <trkpt lat="45.54957" lon="6.03163">
        <ele>801.4</ele>
        <time>2011-04-03T14:37:53Z</time>
      </trkpt>
      <trkpt lat="45.54953" lon="6.03169">
        <ele>801.4</ele>
        <time>2011-04-03T14:37:54Z</time>
      </trkpt>
      <trkpt lat="45.5495" lon="6.03176">
        <ele>801.88</ele>
        <time>2011-04-03T14:37:55Z</time>
      </trkpt>
      <trkpt lat="45.54948" lon="6.03183">
        <ele>801.4</ele>
        <time>2011-04-03T14:37:56Z</time>
      </trkpt>
      <trkpt lat="45.54946" lon="6.0319">
        <ele>800.44</ele>
        <time>2011-04-03T14:37:57Z</time>
      </trkpt>
      <trkpt lat="45.54944" lon="6.03196">
        <ele>800.44</ele>
        <time>2011-04-03T14:37:58Z</time>
      </trkpt>
      <trkpt lat="45.5494" lon="6.032">
        <ele>800.44</ele>
        <time>2011-04-03T14:37:59Z</time>
      </trkpt>
      <trkpt lat="45.54937" lon="6.03201">
        <ele>800.44</ele>
        <time>2011-04-03T14:38:00Z</time>
      </trkpt>
      <trkpt lat="45.54934" lon="6.03201">
        <ele>802.84</ele>
        <time>2011-04-03T14:38:01Z</time>
      </trkpt>
      <trkpt lat="45.5493" lon="6.032">
        <ele>803.32</ele>
        <time>2011-04-03T14:38:02Z</time>
      </trkpt>
      <trkpt lat="45.54927" lon="6.03199">
        <ele>803.8</ele>
        <time>2011-04-03T14:38:03Z</time>
      </trkpt>
      <trkpt lat="45.54923" lon="6.03197">
        <ele>803.8</ele>
        <time>2011-04-03T14:38:04Z</time>
      </trkpt>
      <trkpt lat="45.54919" lon="6.03195">
        <ele>803.8</ele>
        <time>2011-04-03T14:38:05Z</time>
      </trkpt>
      <trkpt lat="45.54915" lon="6.03196">
        <ele>803.8</ele>
        <time>2011-04-03T14:38:06Z</time>
      </trkpt>
      <trkpt lat="45.54911" lon="6.03197">
        <ele>803.32</ele>
        <time>2011-04-03T14:38:07Z</time>
      </trkpt>
      <trkpt lat="45.54908" lon="6.03201">
        <ele>804.28</ele>
        <time>2011-04-03T14:38:08Z</time>
      </trkpt>
      <trkpt lat="45.54905" lon="6.03206">
        <ele>804.28</ele>
        <time>2011-04-03T14:38:09Z</time>
      </trkpt>
      <trkpt lat="45.54903" lon="6.03212">
        <ele>804.28</ele>
        <time>2011-04-03T14:38:10Z</time>
      </trkpt>
      <trkpt lat="45.54903" lon="6.03218">
        <ele>804.76</ele>
        <time>2011-04-03T14:38:11Z</time>
      </trkpt>
      <trkpt lat="45.54902" lon="6.03225">
        <ele>805.72</ele>
        <time>2011-04-03T14:38:12Z</time>
      </trkpt>
      <trkpt lat="45.54902" lon="6.03233">
        <ele>805.72</ele>
        <time>2011-04-03T14:38:13Z</time>
      </trkpt>
      <trkpt lat="45.54903" lon="6.03239">
        <ele>806.2</ele>
        <time>2011-04-03T14:38:14Z</time>
      </trkpt>
      <trkpt lat="45.54903" lon="6.03246">
        <ele>805.72</ele>
        <time>2011-04-03T14:38:15Z</time>
      </trkpt>
      <trkpt lat="45.54903" lon="6.03252">
        <ele>806.2</ele>
        <time>2011-04-03T14:38:16Z</time>
      </trkpt>
      <trkpt lat="45.54903" lon="6.03258">
        <ele>806.2</ele>
        <time>2011-04-03T14:38:17Z</time>
      </trkpt>
      <trkpt lat="45.54902" lon="6.03264">
        <ele>806.2</ele>
        <time>2011-04-03T14:38:18Z</time>
      </trkpt>
      <trkpt lat="45.54887" lon="6.0332">
        <ele>808.13</ele>
        <time>2011-04-03T14:38:30Z</time>
      </trkpt>
      <trkpt lat="45.54852" lon="6.03333">
        <ele>810.53</ele>
        <time>2011-04-03T14:38:42Z</time>
      </trkpt>
      <trkpt lat="45.54824" lon="6.03363">
        <ele>812.45</ele>
        <time>2011-04-03T14:38:53Z</time>
      </trkpt>
      <trkpt lat="45.54821" lon="6.03363">
        <ele>812.45</ele>
        <time>2011-04-03T14:38:54Z</time>
      </trkpt>
      <trkpt lat="45.54818" lon="6.03363">
        <ele>812.93</ele>
        <time>2011-04-03T14:38:55Z</time>
      </trkpt>
      <trkpt lat="45.54815" lon="6.03362">
        <ele>812.93</ele>
        <time>2011-04-03T14:38:56Z</time>
      </trkpt>
      <trkpt lat="45.54812" lon="6.0336">
        <ele>813.41</ele>
        <time>2011-04-03T14:38:57Z</time>
      </trkpt>
      <trkpt lat="45.54809" lon="6.03357">
        <ele>813.41</ele>
        <time>2011-04-03T14:38:58Z</time>
      </trkpt>
      <trkpt lat="45.54807" lon="6.03355">
        <ele>813.89</ele>
        <time>2011-04-03T14:38:59Z</time>
      </trkpt>
      <trkpt lat="45.54771" lon="6.03311">
        <ele>816.3</ele>
        <time>2011-04-03T14:39:14Z</time>
      </trkpt>
      <trkpt lat="45.54741" lon="6.0329">
        <ele>818.22</ele>
        <time>2011-04-03T14:39:27Z</time>
      </trkpt>
      <trkpt lat="45.54733" lon="6.0329">
        <ele>818.22</ele>
        <time>2011-04-03T14:39:31Z</time>
      </trkpt>
      <trkpt lat="45.54732" lon="6.03291">
        <ele>818.7</ele>
        <time>2011-04-03T14:39:32Z</time>
      </trkpt>
      <trkpt lat="45.5473" lon="6.03292">
        <ele>818.22</ele>
        <time>2011-04-03T14:39:33Z</time>
      </trkpt>
      <trkpt lat="45.54726" lon="6.03294">
        <ele>818.7</ele>
        <time>2011-04-03T14:39:35Z</time>
      </trkpt>
      <trkpt lat="45.54725" lon="6.03296">
        <ele>818.7</ele>
        <time>2011-04-03T14:39:36Z</time>
      </trkpt>
      <trkpt lat="45.54723" lon="6.03298">
        <ele>819.18</ele>
        <time>2011-04-03T14:39:37Z</time>
      </trkpt>
      <trkpt lat="45.54722" lon="6.033">
        <ele>818.7</ele>
        <time>2011-04-03T14:39:38Z</time>
      </trkpt>
      <trkpt lat="45.5472" lon="6.03302">
        <ele>819.18</ele>
        <time>2011-04-03T14:39:39Z</time>
      </trkpt>
      <trkpt lat="45.54719" lon="6.03304">
        <ele>819.18</ele>
        <time>2011-04-03T14:39:40Z</time>
      </trkpt>
      <trkpt lat="45.54718" lon="6.03306">
        <ele>820.14</ele>
        <time>2011-04-03T14:39:41Z</time>
      </trkpt>
      <trkpt lat="45.54717" lon="6.03308">
        <ele>819.66</ele>
        <time>2011-04-03T14:39:42Z</time>
      </trkpt>
      <trkpt lat="45.54717" lon="6.03311">
        <ele>819.66</ele>
        <time>2011-04-03T14:39:43Z</time>
      </trkpt>
      <trkpt lat="45.54709" lon="6.03358">
        <ele>820.14</ele>
        <time>2011-04-03T14:39:56Z</time>
      </trkpt>
      <trkpt lat="45.54705" lon="6.03376">
        <ele>818.7</ele>
        <time>2011-04-03T14:39:59Z</time>
      </trkpt>
      <trkpt lat="45.54702" lon="6.03388">
        <ele>818.7</ele>
        <time>2011-04-03T14:40:01Z</time>
      </trkpt>
      <trkpt lat="45.54699" lon="6.03395">
        <ele>818.7</ele>
        <time>2011-04-03T14:40:02Z</time>
      </trkpt>
      <trkpt lat="45.54695" lon="6.034">
        <ele>818.7</ele>
        <time>2011-04-03T14:40:03Z</time>
      </trkpt>
      <trkpt lat="45.54689" lon="6.03404">
        <ele>817.74</ele>
        <time>2011-04-03T14:40:04Z</time>
      </trkpt>
      <trkpt lat="45.54683" lon="6.03406">
        <ele>817.74</ele>
        <time>2011-04-03T14:40:05Z</time>
      </trkpt>
      <trkpt lat="45.54676" lon="6.03406">
        <ele>817.26</ele>
        <time>2011-04-03T14:40:06Z</time>
      </trkpt>
      <trkpt lat="45.54669" lon="6.03407">
        <ele>816.78</ele>
        <time>2011-04-03T14:40:07Z</time>
      </trkpt>
      <trkpt lat="45.54654" lon="6.03409">
        <ele>816.3</ele>
        <time>2011-04-03T14:40:09Z</time>
      </trkpt>
      <trkpt lat="45.54646" lon="6.03413">
        <ele>815.34</ele>
        <time>2011-04-03T14:40:10Z</time>
      </trkpt>
      <trkpt lat="45.54639" lon="6.03421">
        <ele>814.85</ele>
        <time>2011-04-03T14:40:11Z</time>
      </trkpt>
      <trkpt lat="45.54633" lon="6.0343">
        <ele>813.89</ele>
        <time>2011-04-03T14:40:12Z</time>
      </trkpt>
      <trkpt lat="45.54627" lon="6.0344">
        <ele>812.93</ele>
        <time>2011-04-03T14:40:13Z</time>
      </trkpt>
      <trkpt lat="45.54621" lon="6.03451">
        <ele>812.45</ele>
        <time>2011-04-03T14:40:14Z</time>
      </trkpt>
      <trkpt lat="45.54613" lon="6.0346">
        <ele>811.97</ele>
        <time>2011-04-03T14:40:15Z</time>
      </trkpt>
      <trkpt lat="45.54604" lon="6.03468">
        <ele>811.01</ele>
        <time>2011-04-03T14:40:16Z</time>
      </trkpt>
      <trkpt lat="45.54594" lon="6.03475">
        <ele>810.05</ele>
        <time>2011-04-03T14:40:17Z</time>
      </trkpt>
      <trkpt lat="45.54584" lon="6.0348">
        <ele>809.09</ele>
        <time>2011-04-03T14:40:18Z</time>
      </trkpt>
      <trkpt lat="45.54549" lon="6.03493">
        <ele>806.2</ele>
        <time>2011-04-03T14:40:21Z</time>
      </trkpt>
      <trkpt lat="45.54536" lon="6.03494">
        <ele>804.76</ele>
        <time>2011-04-03T14:40:22Z</time>
      </trkpt>
      <trkpt lat="45.54524" lon="6.03492">
        <ele>804.28</ele>
        <time>2011-04-03T14:40:23Z</time>
      </trkpt>
      <trkpt lat="45.54512" lon="6.03486">
        <ele>801.88</ele>
        <time>2011-04-03T14:40:24Z</time>
      </trkpt>
      <trkpt lat="45.54499" lon="6.03479">
        <ele>800.92</ele>
        <time>2011-04-03T14:40:25Z</time>
      </trkpt>
      <trkpt lat="45.54486" lon="6.03474">
        <ele>798.51</ele>
        <time>2011-04-03T14:40:26Z</time>
      </trkpt>
      <trkpt lat="45.54473" lon="6.03475">
        <ele>797.55</ele>
        <time>2011-04-03T14:40:27Z</time>
      </trkpt>
      <trkpt lat="45.5446" lon="6.03481">
        <ele>797.07</ele>
        <time>2011-04-03T14:40:28Z</time>
      </trkpt>
      <trkpt lat="45.54448" lon="6.0349">
        <ele>796.11</ele>
        <time>2011-04-03T14:40:29Z</time>
      </trkpt>
      <trkpt lat="45.54436" lon="6.03501">
        <ele>795.15</ele>
        <time>2011-04-03T14:40:30Z</time>
      </trkpt>
      <trkpt lat="45.54403" lon="6.03533">
        <ele>792.74</ele>
        <time>2011-04-03T14:40:33Z</time>
      </trkpt>
      <trkpt lat="45.54392" lon="6.0354">
        <ele>792.26</ele>
        <time>2011-04-03T14:40:34Z</time>
      </trkpt>
      <trkpt lat="45.5438" lon="6.03545">
        <ele>791.78</ele>
        <time>2011-04-03T14:40:35Z</time>
      </trkpt>
      <trkpt lat="45.54367" lon="6.03547">
        <ele>791.3</ele>
        <time>2011-04-03T14:40:36Z</time>
      </trkpt>
      <trkpt lat="45.54356" lon="6.03546">
        <ele>792.26</ele>
        <time>2011-04-03T14:40:37Z</time>
      </trkpt>
      <trkpt lat="45.54315" lon="6.03541">
        <ele>791.78</ele>
        <time>2011-04-03T14:40:41Z</time>
      </trkpt>
      <trkpt lat="45.54304" lon="6.03543">
        <ele>791.3</ele>
        <time>2011-04-03T14:40:42Z</time>
      </trkpt>
      <trkpt lat="45.54261" lon="6.03557">
        <ele>788.42</ele>
        <time>2011-04-03T14:40:46Z</time>
      </trkpt>
      <trkpt lat="45.54226" lon="6.03571">
        <ele>785.05</ele>
        <time>2011-04-03T14:40:49Z</time>
      </trkpt>
      <trkpt lat="45.54214" lon="6.03577">
        <ele>784.09</ele>
        <time>2011-04-03T14:40:50Z</time>
      </trkpt>
      <trkpt lat="45.54202" lon="6.03585">
        <ele>783.13</ele>
        <time>2011-04-03T14:40:51Z</time>
      </trkpt>
      <trkpt lat="45.54191" lon="6.03594">
        <ele>781.69</ele>
        <time>2011-04-03T14:40:52Z</time>
      </trkpt>
      <trkpt lat="45.54179" lon="6.03602">
        <ele>781.21</ele>
        <time>2011-04-03T14:40:53Z</time>
      </trkpt>
      <trkpt lat="45.54168" lon="6.03606">
        <ele>780.73</ele>
        <time>2011-04-03T14:40:54Z</time>
      </trkpt>
      <trkpt lat="45.54156" lon="6.0361">
        <ele>780.25</ele>
        <time>2011-04-03T14:40:55Z</time>
      </trkpt>
      <trkpt lat="45.54135" lon="6.03617">
        <ele>780.73</ele>
        <time>2011-04-03T14:40:57Z</time>
      </trkpt>
      <trkpt lat="45.54126" lon="6.03622">
        <ele>780.25</ele>
        <time>2011-04-03T14:40:58Z</time>
      </trkpt>
      <trkpt lat="45.54102" lon="6.03631">
        <ele>780.73</ele>
        <time>2011-04-03T14:41:01Z</time>
      </trkpt>
      <trkpt lat="45.54095" lon="6.03634">
        <ele>780.25</ele>
        <time>2011-04-03T14:41:02Z</time>
      </trkpt>
      <trkpt lat="45.54089" lon="6.03635">
        <ele>781.21</ele>
        <time>2011-04-03T14:41:03Z</time>
      </trkpt>
      <trkpt lat="45.54081" lon="6.03636">
        <ele>780.73</ele>
        <time>2011-04-03T14:41:05Z</time>
      </trkpt>
      <trkpt lat="45.54079" lon="6.03638">
        <ele>780.25</ele>
        <time>2011-04-03T14:41:06Z</time>
      </trkpt>
      <trkpt lat="45.54057" lon="6.03644">
        <ele>780.73</ele>
        <time>2011-04-03T14:41:17Z</time>
      </trkpt>
      <trkpt lat="45.54044" lon="6.03648">
        <ele>781.21</ele>
        <time>2011-04-03T14:41:25Z</time>
      </trkpt>
      <trkpt lat="45.5405" lon="6.03649">
        <ele>780.73</ele>
        <time>2011-04-03T14:41:29Z</time>
      </trkpt>
      <trkpt lat="45.54108" lon="6.03634">
        <ele>780.73</ele>
        <time>2011-04-03T14:41:46Z</time>
      </trkpt>
      <trkpt lat="45.54116" lon="6.03631">
        <ele>781.21</ele>
        <time>2011-04-03T14:41:48Z</time>
      </trkpt>
      <trkpt lat="45.54121" lon="6.0363">
        <ele>781.21</ele>
        <time>2011-04-03T14:41:49Z</time>
      </trkpt>
      <trkpt lat="45.54162" lon="6.03616">
        <ele>780.25</ele>
        <time>2011-04-03T14:41:59Z</time>
      </trkpt>
      <trkpt lat="45.54165" lon="6.03619">
        <ele>780.25</ele>
        <time>2011-04-03T14:42:00Z</time>
      </trkpt>
      <trkpt lat="45.54162" lon="6.03634">
        <ele>778.81</ele>
        <time>2011-04-03T14:42:03Z</time>
      </trkpt>
      <trkpt lat="45.54156" lon="6.03639">
        <ele>777.84</ele>
        <time>2011-04-03T14:42:04Z</time>
      </trkpt>
      <trkpt lat="45.54149" lon="6.03644">
        <ele>777.84</ele>
        <time>2011-04-03T14:42:05Z</time>
      </trkpt>
      <trkpt lat="45.54143" lon="6.0365">
        <ele>776.88</ele>
        <time>2011-04-03T14:42:06Z</time>
      </trkpt>
      <trkpt lat="45.54123" lon="6.03673">
        <ele>774.96</ele>
        <time>2011-04-03T14:42:09Z</time>
      </trkpt>
      <trkpt lat="45.54118" lon="6.03683">
        <ele>774.48</ele>
        <time>2011-04-03T14:42:10Z</time>
      </trkpt>
      <trkpt lat="45.54115" lon="6.03695">
        <ele>774</ele>
        <time>2011-04-03T14:42:11Z</time>
      </trkpt>
      <trkpt lat="45.54113" lon="6.03706">
        <ele>774.48</ele>
        <time>2011-04-03T14:42:12Z</time>
      </trkpt>
      <trkpt lat="45.54111" lon="6.03717">
        <ele>774.96</ele>
        <time>2011-04-03T14:42:13Z</time>
      </trkpt>
      <trkpt lat="45.54104" lon="6.0375">
        <ele>775.92</ele>
        <time>2011-04-03T14:42:17Z</time>
      </trkpt>
      <trkpt lat="45.54085" lon="6.03797">
        <ele>779.29</ele>
        <time>2011-04-03T14:42:28Z</time>
      </trkpt>
      <trkpt lat="45.54073" lon="6.0383">
        <ele>779.77</ele>
        <time>2011-04-03T14:42:35Z</time>
      </trkpt>
      <trkpt lat="45.54052" lon="6.03881">
        <ele>779.77</ele>
        <time>2011-04-03T14:42:44Z</time>
      </trkpt>
      <trkpt lat="45.54042" lon="6.03897">
        <ele>779.29</ele>
        <time>2011-04-03T14:42:47Z</time>
      </trkpt>
      <trkpt lat="45.54005" lon="6.03943">
        <ele>780.25</ele>
        <time>2011-04-03T14:42:57Z</time>
      </trkpt>
      <trkpt lat="45.54002" lon="6.03949">
        <ele>780.25</ele>
        <time>2011-04-03T14:42:58Z</time>
      </trkpt>
      <trkpt lat="45.53998" lon="6.03961">
        <ele>780.73</ele>
        <time>2011-04-03T14:43:00Z</time>
      </trkpt>
      <trkpt lat="45.53982" lon="6.0402">
        <ele>781.21</ele>
        <time>2011-04-03T14:43:10Z</time>
      </trkpt>
      <trkpt lat="45.53971" lon="6.04047">
        <ele>780.73</ele>
        <time>2011-04-03T14:43:15Z</time>
      </trkpt>
      <trkpt lat="45.53967" lon="6.04052">
        <ele>780.73</ele>
        <time>2011-04-03T14:43:16Z</time>
      </trkpt>
      <trkpt lat="45.53963" lon="6.04057">
        <ele>781.21</ele>
        <time>2011-04-03T14:43:17Z</time>
      </trkpt>
      <trkpt lat="45.53948" lon="6.04067">
        <ele>781.21</ele>
        <time>2011-04-03T14:43:20Z</time>
      </trkpt>
      <trkpt lat="45.53944" lon="6.04072">
        <ele>781.21</ele>
        <time>2011-04-03T14:43:21Z</time>
      </trkpt>
      <trkpt lat="45.53941" lon="6.04078">
        <ele>780.73</ele>
        <time>2011-04-03T14:43:22Z</time>
      </trkpt>
      <trkpt lat="45.53939" lon="6.04086">
        <ele>780.73</ele>
        <time>2011-04-03T14:43:23Z</time>
      </trkpt>
      <trkpt lat="45.53939" lon="6.04095">
        <ele>780.73</ele>
        <time>2011-04-03T14:43:24Z</time>
      </trkpt>
      <trkpt lat="45.5394" lon="6.04104">
        <ele>780.73</ele>
        <time>2011-04-03T14:43:25Z</time>
      </trkpt>
      <trkpt lat="45.53941" lon="6.04113">
        <ele>780.73</ele>
        <time>2011-04-03T14:43:26Z</time>
      </trkpt>
      <trkpt lat="45.53942" lon="6.04122">
        <ele>780.73</ele>
        <time>2011-04-03T14:43:27Z</time>
      </trkpt>
      <trkpt lat="45.53941" lon="6.04131">
        <ele>780.25</ele>
        <time>2011-04-03T14:43:28Z</time>
      </trkpt>
      <trkpt lat="45.53938" lon="6.0414">
        <ele>780.25</ele>
        <time>2011-04-03T14:43:29Z</time>
      </trkpt>
      <trkpt lat="45.53935" lon="6.04147">
        <ele>781.21</ele>
        <time>2011-04-03T14:43:30Z</time>
      </trkpt>
      <trkpt lat="45.53932" lon="6.04154">
        <ele>780.73</ele>
        <time>2011-04-03T14:43:31Z</time>
      </trkpt>
      <trkpt lat="45.53919" lon="6.04183">
        <ele>781.69</ele>
        <time>2011-04-03T14:43:36Z</time>
      </trkpt>
      <trkpt lat="45.53912" lon="6.04243">
        <ele>784.57</ele>
        <time>2011-04-03T14:43:49Z</time>
      </trkpt>
      <trkpt lat="45.53916" lon="6.04297">
        <ele>787.46</ele>
        <time>2011-04-03T14:44:05Z</time>
      </trkpt>
      <trkpt lat="45.53919" lon="6.04335">
        <ele>789.38</ele>
        <time>2011-04-03T14:44:18Z</time>
      </trkpt>
      <trkpt lat="45.53919" lon="6.04381">
        <ele>792.26</ele>
        <time>2011-04-03T14:44:33Z</time>
      </trkpt>
      <trkpt lat="45.53915" lon="6.04438">
        <ele>794.67</ele>
        <time>2011-04-03T14:44:50Z</time>
      </trkpt>
      <trkpt lat="45.53925" lon="6.04496">
        <ele>797.07</ele>
        <time>2011-04-03T14:45:07Z</time>
      </trkpt>
      <trkpt lat="45.53922" lon="6.04538">
        <ele>799.95</ele>
        <time>2011-04-03T14:45:19Z</time>
      </trkpt>
      <trkpt lat="45.53909" lon="6.04586">
        <ele>802.84</ele>
        <time>2011-04-03T14:45:33Z</time>
      </trkpt>
      <trkpt lat="45.53936" lon="6.0461">
        <ele>804.76</ele>
        <time>2011-04-03T14:45:45Z</time>
      </trkpt>
      <trkpt lat="45.53965" lon="6.04638">
        <ele>808.13</ele>
        <time>2011-04-03T14:45:57Z</time>
      </trkpt>
      <trkpt lat="45.53994" lon="6.04676">
        <ele>811.49</ele>
        <time>2011-04-03T14:46:11Z</time>
      </trkpt>
      <trkpt lat="45.53994" lon="6.0468">
        <ele>811.49</ele>
        <time>2011-04-03T14:46:12Z</time>
      </trkpt>
      <trkpt lat="45.53989" lon="6.04726">
        <ele>813.41</ele>
        <time>2011-04-03T14:46:25Z</time>
      </trkpt>
      <trkpt lat="45.53984" lon="6.04799">
        <ele>815.82</ele>
        <time>2011-04-03T14:46:42Z</time>
      </trkpt>
      <trkpt lat="45.53972" lon="6.04856">
        <ele>817.74</ele>
        <time>2011-04-03T14:46:57Z</time>
      </trkpt>
      <trkpt lat="45.53956" lon="6.04913">
        <ele>819.66</ele>
        <time>2011-04-03T14:47:12Z</time>
      </trkpt>
      <trkpt lat="45.53933" lon="6.04974">
        <ele>822.06</ele>
        <time>2011-04-03T14:47:29Z</time>
      </trkpt>
      <trkpt lat="45.53906" lon="6.05022">
        <ele>824.95</ele>
        <time>2011-04-03T14:47:44Z</time>
      </trkpt>
      <trkpt lat="45.53881" lon="6.05074">
        <ele>827.83</ele>
        <time>2011-04-03T14:47:59Z</time>
      </trkpt>
      <trkpt lat="45.53863" lon="6.05153">
        <ele>828.79</ele>
        <time>2011-04-03T14:48:15Z</time>
      </trkpt>
      <trkpt lat="45.53824" lon="6.05237">
        <ele>831.2</ele>
        <time>2011-04-03T14:48:33Z</time>
      </trkpt>
      <trkpt lat="45.5378" lon="6.05331">
        <ele>830.24</ele>
        <time>2011-04-03T14:48:47Z</time>
      </trkpt>
      <trkpt lat="45.53759" lon="6.05397">
        <ele>829.27</ele>
        <time>2011-04-03T14:48:56Z</time>
      </trkpt>
      <trkpt lat="45.53751" lon="6.05447">
        <ele>829.27</ele>
        <time>2011-04-03T14:49:03Z</time>
      </trkpt>
      <trkpt lat="45.53751" lon="6.05455">
        <ele>829.27</ele>
        <time>2011-04-03T14:49:04Z</time>
      </trkpt>
      <trkpt lat="45.53754" lon="6.05487">
        <ele>829.76</ele>
        <time>2011-04-03T14:49:08Z</time>
      </trkpt>
      <trkpt lat="45.53755" lon="6.05494">
        <ele>829.76</ele>
        <time>2011-04-03T14:49:09Z</time>
      </trkpt>
      <trkpt lat="45.53756" lon="6.05502">
        <ele>829.27</ele>
        <time>2011-04-03T14:49:10Z</time>
      </trkpt>
      <trkpt lat="45.53772" lon="6.056">
        <ele>830.24</ele>
        <time>2011-04-03T14:49:24Z</time>
      </trkpt>
      <trkpt lat="45.53775" lon="6.05612">
        <ele>829.76</ele>
        <time>2011-04-03T14:49:26Z</time>
      </trkpt>
      <trkpt lat="45.53804" lon="6.0571">
        <ele>832.16</ele>
        <time>2011-04-03T14:49:44Z</time>
      </trkpt>
      <trkpt lat="45.53805" lon="6.05716">
        <ele>832.16</ele>
        <time>2011-04-03T14:49:45Z</time>
      </trkpt>
      <trkpt lat="45.53804" lon="6.05721">
        <ele>833.12</ele>
        <time>2011-04-03T14:49:46Z</time>
      </trkpt>
      <trkpt lat="45.53803" lon="6.05726">
        <ele>833.12</ele>
        <time>2011-04-03T14:49:47Z</time>
      </trkpt>
      <trkpt lat="45.53801" lon="6.0573">
        <ele>833.12</ele>
        <time>2011-04-03T14:49:48Z</time>
      </trkpt>
      <trkpt lat="45.53798" lon="6.05731">
        <ele>834.08</ele>
        <time>2011-04-03T14:49:49Z</time>
      </trkpt>
      <trkpt lat="45.53795" lon="6.05732">
        <ele>834.08</ele>
        <time>2011-04-03T14:49:50Z</time>
      </trkpt>
      <trkpt lat="45.53792" lon="6.05732">
        <ele>834.56</ele>
        <time>2011-04-03T14:49:51Z</time>
      </trkpt>
      <trkpt lat="45.53762" lon="6.05735">
        <ele>837.45</ele>
        <time>2011-04-03T14:50:05Z</time>
      </trkpt>
      <trkpt lat="45.53734" lon="6.05731">
        <ele>840.33</ele>
        <time>2011-04-03T14:50:19Z</time>
      </trkpt>
      <trkpt lat="45.53705" lon="6.05712">
        <ele>842.73</ele>
        <time>2011-04-03T14:50:34Z</time>
      </trkpt>
      <trkpt lat="45.53681" lon="6.05688">
        <ele>845.62</ele>
        <time>2011-04-03T14:50:47Z</time>
      </trkpt>
      <trkpt lat="45.53658" lon="6.05662">
        <ele>848.98</ele>
        <time>2011-04-03T14:51:01Z</time>
      </trkpt>
      <trkpt lat="45.53635" lon="6.05633">
        <ele>852.35</ele>
        <time>2011-04-03T14:51:16Z</time>
      </trkpt>
      <trkpt lat="45.53617" lon="6.05604">
        <ele>854.75</ele>
        <time>2011-04-03T14:51:31Z</time>
      </trkpt>
      <trkpt lat="45.53593" lon="6.05563">
        <ele>858.11</ele>
        <time>2011-04-03T14:51:51Z</time>
      </trkpt>
      <trkpt lat="45.53573" lon="6.05533">
        <ele>861.48</ele>
        <time>2011-04-03T14:52:05Z</time>
      </trkpt>
      <trkpt lat="45.53553" lon="6.05498">
        <ele>864.36</ele>
        <time>2011-04-03T14:52:20Z</time>
      </trkpt>
      <trkpt lat="45.53522" lon="6.05484">
        <ele>867.25</ele>
        <time>2011-04-03T14:52:34Z</time>
      </trkpt>
      <trkpt lat="45.5349" lon="6.05474">
        <ele>870.61</ele>
        <time>2011-04-03T14:52:48Z</time>
      </trkpt>
      <trkpt lat="45.53451" lon="6.05475">
        <ele>873.5</ele>
        <time>2011-04-03T14:53:05Z</time>
      </trkpt>
      <trkpt lat="45.53416" lon="6.05477">
        <ele>876.38</ele>
        <time>2011-04-03T14:53:21Z</time>
      </trkpt>
      <trkpt lat="45.53387" lon="6.05473">
        <ele>879.74</ele>
        <time>2011-04-03T14:53:35Z</time>
      </trkpt>
      <trkpt lat="45.53359" lon="6.05463">
        <ele>882.63</ele>
        <time>2011-04-03T14:53:50Z</time>
      </trkpt>
      <trkpt lat="45.53333" lon="6.05456">
        <ele>884.07</ele>
        <time>2011-04-03T14:54:04Z</time>
      </trkpt>
      <trkpt lat="45.53309" lon="6.05482">
        <ele>884.55</ele>
        <time>2011-04-03T14:54:18Z</time>
      </trkpt>
      <trkpt lat="45.53277" lon="6.0548">
        <ele>885.03</ele>
        <time>2011-04-03T14:54:32Z</time>
      </trkpt>
      <trkpt lat="45.53262" lon="6.05444">
        <ele>886.47</ele>
        <time>2011-04-03T14:54:45Z</time>
      </trkpt>
      <trkpt lat="45.53236" lon="6.05412">
        <ele>888.88</ele>
        <time>2011-04-03T14:55:01Z</time>
      </trkpt>
      <trkpt lat="45.53202" lon="6.05385">
        <ele>889.36</ele>
        <time>2011-04-03T14:55:16Z</time>
      </trkpt>
      <trkpt lat="45.53158" lon="6.05354">
        <ele>890.32</ele>
        <time>2011-04-03T14:55:31Z</time>
      </trkpt>
      <trkpt lat="45.53107" lon="6.05313">
        <ele>892.24</ele>
        <time>2011-04-03T14:55:47Z</time>
      </trkpt>
      <trkpt lat="45.5305" lon="6.05292">
        <ele>892.72</ele>
        <time>2011-04-03T14:56:03Z</time>
      </trkpt>
      <trkpt lat="45.53009" lon="6.05293">
        <ele>895.61</ele>
        <time>2011-04-03T14:56:16Z</time>
      </trkpt>
      <trkpt lat="45.52999" lon="6.05284">
        <ele>896.09</ele>
        <time>2011-04-03T14:56:22Z</time>
      </trkpt>
      <trkpt lat="45.52998" lon="6.05283">
        <ele>896.09</ele>
        <time>2011-04-03T14:56:23Z</time>
      </trkpt>
      <trkpt lat="45.52998" lon="6.05282">
        <ele>895.61</ele>
        <time>2011-04-03T14:56:34Z</time>
      </trkpt>
      <trkpt lat="45.52998" lon="6.05282">
        <ele>895.61</ele>
        <time>2011-04-03T14:57:06Z</time>
      </trkpt>
      <trkpt lat="45.52998" lon="6.05282">
        <ele>896.09</ele>
        <time>2011-04-03T14:57:22Z</time>
      </trkpt>
      <trkpt lat="45.53" lon="6.0528">
        <ele>896.09</ele>
        <time>2011-04-03T14:57:24Z</time>
      </trkpt>
      <trkpt lat="45.53" lon="6.05277">
        <ele>896.57</ele>
        <time>2011-04-03T14:57:25Z</time>
      </trkpt>
      <trkpt lat="45.53001" lon="6.05275">
        <ele>896.09</ele>
        <time>2011-04-03T14:57:26Z</time>
      </trkpt>
      <trkpt lat="45.53" lon="6.05272">
        <ele>896.09</ele>
        <time>2011-04-03T14:57:27Z</time>
      </trkpt>
      <trkpt lat="45.53" lon="6.05269">
        <ele>896.57</ele>
        <time>2011-04-03T14:57:28Z</time>
      </trkpt>
      <trkpt lat="45.53" lon="6.05265">
        <ele>896.57</ele>
        <time>2011-04-03T14:57:29Z</time>
      </trkpt>
      <trkpt lat="45.52999" lon="6.05262">
        <ele>896.57</ele>
        <time>2011-04-03T14:57:30Z</time>
      </trkpt>
      <trkpt lat="45.52995" lon="6.05207">
        <ele>898.49</ele>
        <time>2011-04-03T14:57:45Z</time>
      </trkpt>
      <trkpt lat="45.52987" lon="6.05146">
        <ele>899.93</ele>
        <time>2011-04-03T14:58:01Z</time>
      </trkpt>
      <trkpt lat="45.52979" lon="6.05097">
        <ele>900.89</ele>
        <time>2011-04-03T14:58:16Z</time>
      </trkpt>
      <trkpt lat="45.52966" lon="6.05094">
        <ele>901.37</ele>
        <time>2011-04-03T14:58:21Z</time>
      </trkpt>
      <trkpt lat="45.52964" lon="6.05096">
        <ele>902.33</ele>
        <time>2011-04-03T14:58:22Z</time>
      </trkpt>
      <trkpt lat="45.52961" lon="6.05098">
        <ele>901.85</ele>
        <time>2011-04-03T14:58:23Z</time>
      </trkpt>
      <trkpt lat="45.52959" lon="6.05101">
        <ele>902.33</ele>
        <time>2011-04-03T14:58:24Z</time>
      </trkpt>
      <trkpt lat="45.52958" lon="6.05104">
        <ele>902.33</ele>
        <time>2011-04-03T14:58:25Z</time>
      </trkpt>
      <trkpt lat="45.52956" lon="6.05109">
        <ele>902.82</ele>
        <time>2011-04-03T14:58:26Z</time>
      </trkpt>
      <trkpt lat="45.52955" lon="6.05114">
        <ele>902.82</ele>
        <time>2011-04-03T14:58:27Z</time>
      </trkpt>
      <trkpt lat="45.52929" lon="6.05144">
        <ele>904.74</ele>
        <time>2011-04-03T14:58:40Z</time>
      </trkpt>
      <trkpt lat="45.52911" lon="6.05175">
        <ele>906.66</ele>
        <time>2011-04-03T14:58:54Z</time>
      </trkpt>
      <trkpt lat="45.52895" lon="6.05213">
        <ele>909.54</ele>
        <time>2011-04-03T14:59:11Z</time>
      </trkpt>
      <trkpt lat="45.52877" lon="6.05244">
        <ele>912.43</ele>
        <time>2011-04-03T14:59:27Z</time>
      </trkpt>
      <trkpt lat="45.52862" lon="6.05265">
        <ele>915.79</ele>
        <time>2011-04-03T14:59:41Z</time>
      </trkpt>
      <trkpt lat="45.52842" lon="6.05285">
        <ele>917.24</ele>
        <time>2011-04-03T14:59:56Z</time>
      </trkpt>
      <trkpt lat="45.52816" lon="6.05312">
        <ele>916.27</ele>
        <time>2011-04-03T15:00:08Z</time>
      </trkpt>
      <trkpt lat="45.52796" lon="6.05353">
        <ele>916.27</ele>
        <time>2011-04-03T15:00:20Z</time>
      </trkpt>
      <trkpt lat="45.52767" lon="6.0539">
        <ele>915.79</ele>
        <time>2011-04-03T15:00:35Z</time>
      </trkpt>
      <trkpt lat="45.52734" lon="6.0542">
        <ele>916.75</ele>
        <time>2011-04-03T15:00:48Z</time>
      </trkpt>
      <trkpt lat="45.52736" lon="6.0543">
        <ele>917.72</ele>
        <time>2011-04-03T15:00:51Z</time>
      </trkpt>
      <trkpt lat="45.52736" lon="6.05432">
        <ele>917.72</ele>
        <time>2011-04-03T15:00:52Z</time>
      </trkpt>
      <trkpt lat="45.52737" lon="6.05435">
        <ele>918.2</ele>
        <time>2011-04-03T15:00:53Z</time>
      </trkpt>
      <trkpt lat="45.5274" lon="6.05484">
        <ele>921.56</ele>
        <time>2011-04-03T15:01:09Z</time>
      </trkpt>
      <trkpt lat="45.52744" lon="6.05515">
        <ele>923.96</ele>
        <time>2011-04-03T15:01:21Z</time>
      </trkpt>
      <trkpt lat="45.52739" lon="6.05552">
        <ele>927.33</ele>
        <time>2011-04-03T15:01:37Z</time>
      </trkpt>
      <trkpt lat="45.52726" lon="6.05566">
        <ele>928.77</ele>
        <time>2011-04-03T15:01:47Z</time>
      </trkpt>
      <trkpt lat="45.52725" lon="6.05567">
        <ele>928.77</ele>
        <time>2011-04-03T15:01:48Z</time>
      </trkpt>
      <trkpt lat="45.52723" lon="6.05568">
        <ele>928.77</ele>
        <time>2011-04-03T15:01:49Z</time>
      </trkpt>
      <trkpt lat="45.52722" lon="6.05568">
        <ele>929.25</ele>
        <time>2011-04-03T15:01:50Z</time>
      </trkpt>
      <trkpt lat="45.52721" lon="6.05569">
        <ele>929.73</ele>
        <time>2011-04-03T15:01:51Z</time>
      </trkpt>
      <trkpt lat="45.5272" lon="6.0557">
        <ele>929.73</ele>
        <time>2011-04-03T15:01:52Z</time>
      </trkpt>
      <trkpt lat="45.52718" lon="6.05571">
        <ele>929.73</ele>
        <time>2011-04-03T15:01:53Z</time>
      </trkpt>
      <trkpt lat="45.52717" lon="6.05572">
        <ele>930.21</ele>
        <time>2011-04-03T15:01:54Z</time>
      </trkpt>
      <trkpt lat="45.52716" lon="6.05573">
        <ele>929.73</ele>
        <time>2011-04-03T15:01:55Z</time>
      </trkpt>
      <trkpt lat="45.52715" lon="6.05575">
        <ele>930.21</ele>
        <time>2011-04-03T15:01:56Z</time>
      </trkpt>
      <trkpt lat="45.52713" lon="6.05576">
        <ele>929.73</ele>
        <time>2011-04-03T15:01:57Z</time>
      </trkpt>
      <trkpt lat="45.52712" lon="6.05577">
        <ele>930.21</ele>
        <time>2011-04-03T15:01:58Z</time>
      </trkpt>
      <trkpt lat="45.52691" lon="6.05595">
        <ele>931.65</ele>
        <time>2011-04-03T15:02:11Z</time>
      </trkpt>
      <trkpt lat="45.52677" lon="6.05612">
        <ele>933.58</ele>
        <time>2011-04-03T15:02:23Z</time>
      </trkpt>
      <trkpt lat="45.52676" lon="6.05613">
        <ele>934.06</ele>
        <time>2011-04-03T15:02:24Z</time>
      </trkpt>
      <trkpt lat="45.52672" lon="6.05621">
        <ele>934.54</ele>
        <time>2011-04-03T15:02:29Z</time>
      </trkpt>
      <trkpt lat="45.52671" lon="6.05623">
        <ele>935.02</ele>
        <time>2011-04-03T15:02:30Z</time>
      </trkpt>
      <trkpt lat="45.5267" lon="6.05624">
        <ele>934.54</ele>
        <time>2011-04-03T15:02:31Z</time>
      </trkpt>
      <trkpt lat="45.5267" lon="6.05626">
        <ele>935.02</ele>
        <time>2011-04-03T15:02:32Z</time>
      </trkpt>
      <trkpt lat="45.52669" lon="6.05627">
        <ele>935.5</ele>
        <time>2011-04-03T15:02:33Z</time>
      </trkpt>
      <trkpt lat="45.52668" lon="6.05629">
        <ele>935.5</ele>
        <time>2011-04-03T15:02:34Z</time>
      </trkpt>
      <trkpt lat="45.52667" lon="6.05631">
        <ele>935.98</ele>
        <time>2011-04-03T15:02:35Z</time>
      </trkpt>
      <trkpt lat="45.52666" lon="6.05632">
        <ele>935.5</ele>
        <time>2011-04-03T15:02:36Z</time>
      </trkpt>
      <trkpt lat="45.52664" lon="6.05634">
        <ele>935.98</ele>
        <time>2011-04-03T15:02:37Z</time>
      </trkpt>
      <trkpt lat="45.52663" lon="6.05635">
        <ele>935.98</ele>
        <time>2011-04-03T15:02:38Z</time>
      </trkpt>
      <trkpt lat="45.52647" lon="6.05654">
        <ele>938.38</ele>
        <time>2011-04-03T15:02:52Z</time>
      </trkpt>
      <trkpt lat="45.5263" lon="6.05665">
        <ele>940.79</ele>
        <time>2011-04-03T15:03:05Z</time>
      </trkpt>
      <trkpt lat="45.5261" lon="6.05675">
        <ele>942.71</ele>
        <time>2011-04-03T15:03:19Z</time>
      </trkpt>
      <trkpt lat="45.52585" lon="6.05686">
        <ele>944.63</ele>
        <time>2011-04-03T15:03:36Z</time>
      </trkpt>
      <trkpt lat="45.52562" lon="6.05693">
        <ele>945.59</ele>
        <time>2011-04-03T15:03:49Z</time>
      </trkpt>
      <trkpt lat="45.52535" lon="6.05705">
        <ele>946.07</ele>
        <time>2011-04-03T15:04:03Z</time>
      </trkpt>
      <trkpt lat="45.52505" lon="6.05721">
        <ele>945.59</ele>
        <time>2011-04-03T15:04:17Z</time>
      </trkpt>
      <trkpt lat="45.52471" lon="6.05734">
        <ele>945.11</ele>
        <time>2011-04-03T15:04:31Z</time>
      </trkpt>
      <trkpt lat="45.52443" lon="6.05741">
        <ele>947.52</ele>
        <time>2011-04-03T15:04:44Z</time>
      </trkpt>
      <trkpt lat="45.52433" lon="6.05785">
        <ele>950.4</ele>
        <time>2011-04-03T15:04:59Z</time>
      </trkpt>
      <trkpt lat="45.52429" lon="6.05838">
        <ele>952.8</ele>
        <time>2011-04-03T15:05:17Z</time>
      </trkpt>
      <trkpt lat="45.52418" lon="6.0586">
        <ele>953.77</ele>
        <time>2011-04-03T15:05:28Z</time>
      </trkpt>
      <trkpt lat="45.52388" lon="6.05864">
        <ele>955.69</ele>
        <time>2011-04-03T15:05:46Z</time>
      </trkpt>
      <trkpt lat="45.52365" lon="6.05863">
        <ele>957.13</ele>
        <time>2011-04-03T15:05:59Z</time>
      </trkpt>
      <trkpt lat="45.52337" lon="6.05875">
        <ele>957.13</ele>
        <time>2011-04-03T15:06:11Z</time>
      </trkpt>
      <trkpt lat="45.52312" lon="6.05877">
        <ele>958.57</ele>
        <time>2011-04-03T15:06:25Z</time>
      </trkpt>
      <trkpt lat="45.52308" lon="6.05877">
        <ele>959.05</ele>
        <time>2011-04-03T15:06:28Z</time>
      </trkpt>
      <trkpt lat="45.52307" lon="6.05877">
        <ele>959.05</ele>
        <time>2011-04-03T15:06:29Z</time>
      </trkpt>
      <trkpt lat="45.5229" lon="6.05877">
        <ele>961.46</ele>
        <time>2011-04-03T15:06:42Z</time>
      </trkpt>
      <trkpt lat="45.52285" lon="6.05877">
        <ele>962.42</ele>
        <time>2011-04-03T15:06:46Z</time>
      </trkpt>
      <trkpt lat="45.52268" lon="6.05875">
        <ele>965.78</ele>
        <time>2011-04-03T15:07:00Z</time>
      </trkpt>
      <trkpt lat="45.52257" lon="6.05881">
        <ele>968.18</ele>
        <time>2011-04-03T15:07:14Z</time>
      </trkpt>
      <trkpt lat="45.52257" lon="6.05883">
        <ele>968.18</ele>
        <time>2011-04-03T15:07:15Z</time>
      </trkpt>
      <trkpt lat="45.52255" lon="6.059">
        <ele>970.59</ele>
        <time>2011-04-03T15:07:28Z</time>
      </trkpt>
      <trkpt lat="45.52252" lon="6.05912">
        <ele>972.99</ele>
        <time>2011-04-03T15:07:42Z</time>
      </trkpt>
      <trkpt lat="45.52252" lon="6.05915">
        <ele>973.47</ele>
        <time>2011-04-03T15:07:44Z</time>
      </trkpt>
      <trkpt lat="45.52253" lon="6.05929">
        <ele>975.88</ele>
        <time>2011-04-03T15:07:58Z</time>
      </trkpt>
      <trkpt lat="45.52253" lon="6.05933">
        <ele>976.84</ele>
        <time>2011-04-03T15:08:15Z</time>
      </trkpt>
      <trkpt lat="45.5225" lon="6.05944">
        <ele>979.24</ele>
        <time>2011-04-03T15:08:27Z</time>
      </trkpt>
      <trkpt lat="45.52249" lon="6.05946">
        <ele>979.24</ele>
        <time>2011-04-03T15:08:28Z</time>
      </trkpt>
      <trkpt lat="45.52247" lon="6.0595">
        <ele>980.2</ele>
        <time>2011-04-03T15:08:31Z</time>
      </trkpt>
      <trkpt lat="45.52244" lon="6.05957">
        <ele>981.16</ele>
        <time>2011-04-03T15:08:47Z</time>
      </trkpt>
      <trkpt lat="45.52244" lon="6.05958">
        <ele>980.68</ele>
        <time>2011-04-03T15:09:19Z</time>
      </trkpt>
      <trkpt lat="45.52244" lon="6.05958">
        <ele>981.16</ele>
        <time>2011-04-03T15:09:46Z</time>
      </trkpt>
      <trkpt lat="45.52244" lon="6.05958">
        <ele>981.16</ele>
        <time>2011-04-03T15:10:12Z</time>
      </trkpt>
      <trkpt lat="45.52244" lon="6.05958">
        <ele>980.68</ele>
        <time>2011-04-03T15:10:42Z</time>
      </trkpt>
      <trkpt lat="45.52244" lon="6.05958">
        <ele>980.68</ele>
        <time>2011-04-03T15:11:12Z</time>
      </trkpt>
      <trkpt lat="45.52239" lon="6.05965">
        <ele>982.12</ele>
        <time>2011-04-03T15:11:20Z</time>
      </trkpt>
      <trkpt lat="45.52238" lon="6.05967">
        <ele>982.12</ele>
        <time>2011-04-03T15:11:21Z</time>
      </trkpt>
      <trkpt lat="45.52233" lon="6.05985">
        <ele>985.01</ele>
        <time>2011-04-03T15:11:33Z</time>
      </trkpt>
      <trkpt lat="45.52227" lon="6.06002">
        <ele>986.93</ele>
        <time>2011-04-03T15:11:48Z</time>
      </trkpt>
      <trkpt lat="45.52223" lon="6.06002">
        <ele>987.41</ele>
        <time>2011-04-03T15:12:03Z</time>
      </trkpt>
      <trkpt lat="45.52222" lon="6.06002">
        <ele>987.89</ele>
        <time>2011-04-03T15:12:36Z</time>
      </trkpt>
      <trkpt lat="45.52216" lon="6.06001">
        <ele>988.85</ele>
        <time>2011-04-03T15:12:58Z</time>
      </trkpt>
      <trkpt lat="45.52197" lon="6.05998">
        <ele>991.74</ele>
        <time>2011-04-03T15:13:13Z</time>
      </trkpt>
      <trkpt lat="45.52191" lon="6.05999">
        <ele>992.7</ele>
        <time>2011-04-03T15:13:21Z</time>
      </trkpt>
      <trkpt lat="45.52181" lon="6.06002">
        <ele>996.06</ele>
        <time>2011-04-03T15:13:34Z</time>
      </trkpt>
      <trkpt lat="45.52173" lon="6.05997">
        <ele>998.47</ele>
        <time>2011-04-03T15:13:47Z</time>
      </trkpt>
      <trkpt lat="45.52169" lon="6.05997">
        <ele>998.95</ele>
        <time>2011-04-03T15:13:52Z</time>
      </trkpt>
      <trkpt lat="45.52168" lon="6.05996">
        <ele>999.43</ele>
        <time>2011-04-03T15:13:53Z</time>
      </trkpt>
      <trkpt lat="45.52163" lon="6.05993">
        <ele>1000.39</ele>
        <time>2011-04-03T15:13:58Z</time>
      </trkpt>
      <trkpt lat="45.52158" lon="6.05996">
        <ele>1001.83</ele>
        <time>2011-04-03T15:14:11Z</time>
      </trkpt>
      <trkpt lat="45.5216" lon="6.06">
        <ele>1001.83</ele>
        <time>2011-04-03T15:14:23Z</time>
      </trkpt>
      <trkpt lat="45.52161" lon="6.06001">
        <ele>1001.83</ele>
        <time>2011-04-03T15:14:24Z</time>
      </trkpt>
      <trkpt lat="45.52163" lon="6.06002">
        <ele>1001.35</ele>
        <time>2011-04-03T15:14:25Z</time>
      </trkpt>
      <trkpt lat="45.52175" lon="6.0602">
        <ele>1004.23</ele>
        <time>2011-04-03T15:14:39Z</time>
      </trkpt>
      <trkpt lat="45.52178" lon="6.06027">
        <ele>1005.2</ele>
        <time>2011-04-03T15:14:43Z</time>
      </trkpt>
      <trkpt lat="45.52177" lon="6.0604">
        <ele>1008.56</ele>
        <time>2011-04-03T15:14:52Z</time>
      </trkpt>
      <trkpt lat="45.52178" lon="6.06042">
        <ele>1008.56</ele>
        <time>2011-04-03T15:14:53Z</time>
      </trkpt>
      <trkpt lat="45.52173" lon="6.06055">
        <ele>1011.93</ele>
        <time>2011-04-03T15:15:05Z</time>
      </trkpt>
      <trkpt lat="45.52163" lon="6.06058">
        <ele>1014.33</ele>
        <time>2011-04-03T15:15:18Z</time>
      </trkpt>
      <trkpt lat="45.52159" lon="6.06057">
        <ele>1014.81</ele>
        <time>2011-04-03T15:15:34Z</time>
      </trkpt>
      <trkpt lat="45.52158" lon="6.06057">
        <ele>1014.81</ele>
        <time>2011-04-03T15:15:35Z</time>
      </trkpt>
      <trkpt lat="45.52151" lon="6.06056">
        <ele>1016.25</ele>
        <time>2011-04-03T15:15:50Z</time>
      </trkpt>
      <trkpt lat="45.5215" lon="6.06056">
        <ele>1014.81</ele>
        <time>2011-04-03T15:16:04Z</time>
      </trkpt>
      <trkpt lat="45.5215" lon="6.06056">
        <ele>1015.77</ele>
        <time>2011-04-03T15:16:31Z</time>
      </trkpt>
      <trkpt lat="45.52144" lon="6.06057">
        <ele>1016.25</ele>
        <time>2011-04-03T15:16:38Z</time>
      </trkpt>
      <trkpt lat="45.52143" lon="6.06058">
        <ele>1015.77</ele>
        <time>2011-04-03T15:16:39Z</time>
      </trkpt>
      <trkpt lat="45.52136" lon="6.06072">
        <ele>1016.25</ele>
        <time>2011-04-03T15:16:52Z</time>
      </trkpt>
      <trkpt lat="45.5213" lon="6.06082">
        <ele>1016.73</ele>
        <time>2011-04-03T15:16:58Z</time>
      </trkpt>
      <trkpt lat="45.52128" lon="6.06083">
        <ele>1016.73</ele>
        <time>2011-04-03T15:16:59Z</time>
      </trkpt>
      <trkpt lat="45.52127" lon="6.06085">
        <ele>1017.21</ele>
        <time>2011-04-03T15:17:00Z</time>
      </trkpt>
      <trkpt lat="45.52126" lon="6.06086">
        <ele>1017.21</ele>
        <time>2011-04-03T15:17:01Z</time>
      </trkpt>
      <trkpt lat="45.52124" lon="6.06087">
        <ele>1017.21</ele>
        <time>2011-04-03T15:17:02Z</time>
      </trkpt>
      <trkpt lat="45.52121" lon="6.06088">
        <ele>1017.21</ele>
        <time>2011-04-03T15:17:03Z</time>
      </trkpt>
      <trkpt lat="45.52119" lon="6.06089">
        <ele>1016.73</ele>
        <time>2011-04-03T15:17:04Z</time>
      </trkpt>
      <trkpt lat="45.52118" lon="6.0609">
        <ele>1016.25</ele>
        <time>2011-04-03T15:17:05Z</time>
      </trkpt>
      <trkpt lat="45.5209" lon="6.06129">
        <ele>1014.81</ele>
        <time>2011-04-03T15:17:19Z</time>
      </trkpt>
      <trkpt lat="45.52082" lon="6.06144">
        <ele>1011.44</ele>
        <time>2011-04-03T15:17:23Z</time>
      </trkpt>
      <trkpt lat="45.52084" lon="6.06172">
        <ele>1008.56</ele>
        <time>2011-04-03T15:17:28Z</time>
      </trkpt>
      <trkpt lat="45.52103" lon="6.0626">
        <ele>1008.08</ele>
        <time>2011-04-03T15:17:41Z</time>
      </trkpt>
      <trkpt lat="45.52117" lon="6.06314">
        <ele>1006.16</ele>
        <time>2011-04-03T15:17:52Z</time>
      </trkpt>
      <trkpt lat="45.52125" lon="6.06348">
        <ele>1002.79</ele>
        <time>2011-04-03T15:17:58Z</time>
      </trkpt>
      <trkpt lat="45.52133" lon="6.06389">
        <ele>999.43</ele>
        <time>2011-04-03T15:18:04Z</time>
      </trkpt>
      <trkpt lat="45.52141" lon="6.06401">
        <ele>996.06</ele>
        <time>2011-04-03T15:18:08Z</time>
      </trkpt>
      <trkpt lat="45.52145" lon="6.06409">
        <ele>992.7</ele>
        <time>2011-04-03T15:18:11Z</time>
      </trkpt>
      <trkpt lat="45.52149" lon="6.06416">
        <ele>989.33</ele>
        <time>2011-04-03T15:18:13Z</time>
      </trkpt>
      <trkpt lat="45.52155" lon="6.0643">
        <ele>985.49</ele>
        <time>2011-04-03T15:18:16Z</time>
      </trkpt>
      <trkpt lat="45.52157" lon="6.0644">
        <ele>982.6</ele>
        <time>2011-04-03T15:18:18Z</time>
      </trkpt>
      <trkpt lat="45.5216" lon="6.06449">
        <ele>979.72</ele>
        <time>2011-04-03T15:18:20Z</time>
      </trkpt>
      <trkpt lat="45.52167" lon="6.06467">
        <ele>976.84</ele>
        <time>2011-04-03T15:18:23Z</time>
      </trkpt>
      <trkpt lat="45.52176" lon="6.06493">
        <ele>973.47</ele>
        <time>2011-04-03T15:18:26Z</time>
      </trkpt>
      <trkpt lat="45.52182" lon="6.06509">
        <ele>970.59</ele>
        <time>2011-04-03T15:18:29Z</time>
      </trkpt>
      <trkpt lat="45.52192" lon="6.06531">
        <ele>967.22</ele>
        <time>2011-04-03T15:18:33Z</time>
      </trkpt>
      <trkpt lat="45.52195" lon="6.06543">
        <ele>964.82</ele>
        <time>2011-04-03T15:18:36Z</time>
      </trkpt>
      <trkpt lat="45.52195" lon="6.06556">
        <ele>960.98</ele>
        <time>2011-04-03T15:18:39Z</time>
      </trkpt>
      <trkpt lat="45.52195" lon="6.06573">
        <ele>957.61</ele>
        <time>2011-04-03T15:18:44Z</time>
      </trkpt>
      <trkpt lat="45.52197" lon="6.06585">
        <ele>954.25</ele>
        <time>2011-04-03T15:18:48Z</time>
      </trkpt>
      <trkpt lat="45.52197" lon="6.06591">
        <ele>952.32</ele>
        <time>2011-04-03T15:18:51Z</time>
      </trkpt>
      <trkpt lat="45.52198" lon="6.06599">
        <ele>950.88</ele>
        <time>2011-04-03T15:19:04Z</time>
      </trkpt>
      <trkpt lat="45.522" lon="6.06604">
        <ele>948.96</ele>
        <time>2011-04-03T15:19:20Z</time>
      </trkpt>
      <trkpt lat="45.52202" lon="6.06613">
        <ele>946.07</ele>
        <time>2011-04-03T15:19:23Z</time>
      </trkpt>
      <trkpt lat="45.52204" lon="6.0662">
        <ele>942.23</ele>
        <time>2011-04-03T15:19:26Z</time>
      </trkpt>
      <trkpt lat="45.52202" lon="6.06634">
        <ele>938.38</ele>
        <time>2011-04-03T15:19:29Z</time>
      </trkpt>
      <trkpt lat="45.522" lon="6.06638">
        <ele>937.42</ele>
        <time>2011-04-03T15:19:30Z</time>
      </trkpt>
      <trkpt lat="45.52198" lon="6.06641">
        <ele>936.46</ele>
        <time>2011-04-03T15:19:31Z</time>
      </trkpt>
      <trkpt lat="45.52197" lon="6.06643">
        <ele>935.02</ele>
        <time>2011-04-03T15:19:32Z</time>
      </trkpt>
      <trkpt lat="45.52195" lon="6.06646">
        <ele>934.06</ele>
        <time>2011-04-03T15:19:33Z</time>
      </trkpt>
      <trkpt lat="45.52181" lon="6.06642">
        <ele>930.21</ele>
        <time>2011-04-03T15:19:37Z</time>
      </trkpt>
      <trkpt lat="45.5218" lon="6.06646">
        <ele>926.37</ele>
        <time>2011-04-03T15:19:39Z</time>
      </trkpt>
      <trkpt lat="45.52182" lon="6.06659">
        <ele>922.04</ele>
        <time>2011-04-03T15:19:42Z</time>
      </trkpt>
      <trkpt lat="45.52185" lon="6.06666">
        <ele>919.16</ele>
        <time>2011-04-03T15:19:44Z</time>
      </trkpt>
      <trkpt lat="45.52185" lon="6.0667">
        <ele>917.72</ele>
        <time>2011-04-03T15:19:45Z</time>
      </trkpt>
      <trkpt lat="45.52186" lon="6.06673">
        <ele>915.79</ele>
        <time>2011-04-03T15:19:46Z</time>
      </trkpt>
      <trkpt lat="45.52188" lon="6.06681">
        <ele>911.95</ele>
        <time>2011-04-03T15:19:48Z</time>
      </trkpt>
      <trkpt lat="45.52189" lon="6.06685">
        <ele>911.47</ele>
        <time>2011-04-03T15:19:49Z</time>
      </trkpt>
      <trkpt lat="45.5219" lon="6.06693">
        <ele>908.1</ele>
        <time>2011-04-03T15:19:51Z</time>
      </trkpt>
      <trkpt lat="45.52194" lon="6.06704">
        <ele>905.22</ele>
        <time>2011-04-03T15:19:53Z</time>
      </trkpt>
      <trkpt lat="45.52195" lon="6.06707">
        <ele>903.78</ele>
        <time>2011-04-03T15:19:54Z</time>
      </trkpt>
      <trkpt lat="45.52198" lon="6.06735">
        <ele>899.93</ele>
        <time>2011-04-03T15:19:57Z</time>
      </trkpt>
      <trkpt lat="45.52197" lon="6.06739">
        <ele>898.49</ele>
        <time>2011-04-03T15:19:58Z</time>
      </trkpt>
      <trkpt lat="45.52197" lon="6.06741">
        <ele>897.05</ele>
        <time>2011-04-03T15:19:59Z</time>
      </trkpt>
      <trkpt lat="45.52195" lon="6.06745">
        <ele>894.64</ele>
        <time>2011-04-03T15:20:01Z</time>
      </trkpt>
      <trkpt lat="45.52195" lon="6.06749">
        <ele>893.2</ele>
        <time>2011-04-03T15:20:02Z</time>
      </trkpt>
      <trkpt lat="45.52195" lon="6.06763">
        <ele>889.84</ele>
        <time>2011-04-03T15:20:04Z</time>
      </trkpt>
      <trkpt lat="45.52193" lon="6.06779">
        <ele>886.47</ele>
        <time>2011-04-03T15:20:06Z</time>
      </trkpt>
      <trkpt lat="45.5219" lon="6.06824">
        <ele>883.11</ele>
        <time>2011-04-03T15:20:09Z</time>
      </trkpt>
      <trkpt lat="45.52188" lon="6.06844">
        <ele>879.74</ele>
        <time>2011-04-03T15:20:11Z</time>
      </trkpt>
      <trkpt lat="45.52188" lon="6.06862">
        <ele>876.38</ele>
        <time>2011-04-03T15:20:14Z</time>
      </trkpt>
      <trkpt lat="45.52187" lon="6.0688">
        <ele>873.5</ele>
        <time>2011-04-03T15:20:18Z</time>
      </trkpt>
      <trkpt lat="45.52186" lon="6.06904">
        <ele>869.65</ele>
        <time>2011-04-03T15:20:22Z</time>
      </trkpt>
      <trkpt lat="45.52189" lon="6.06916">
        <ele>867.25</ele>
        <time>2011-04-03T15:20:25Z</time>
      </trkpt>
      <trkpt lat="45.52193" lon="6.06924">
        <ele>864.36</ele>
        <time>2011-04-03T15:20:28Z</time>
      </trkpt>
      <trkpt lat="45.52196" lon="6.06938">
        <ele>860.52</ele>
        <time>2011-04-03T15:20:31Z</time>
      </trkpt>
      <trkpt lat="45.52197" lon="6.06941">
        <ele>860.04</ele>
        <time>2011-04-03T15:20:32Z</time>
      </trkpt>
      <trkpt lat="45.52203" lon="6.06955">
        <ele>856.19</ele>
        <time>2011-04-03T15:20:36Z</time>
      </trkpt>
      <trkpt lat="45.52206" lon="6.06962">
        <ele>853.79</ele>
        <time>2011-04-03T15:20:38Z</time>
      </trkpt>
      <trkpt lat="45.52208" lon="6.06964">
        <ele>852.83</ele>
        <time>2011-04-03T15:20:39Z</time>
      </trkpt>
      <trkpt lat="45.52213" lon="6.06971">
        <ele>848.98</ele>
        <time>2011-04-03T15:20:42Z</time>
      </trkpt>
      <trkpt lat="45.52216" lon="6.0698">
        <ele>846.1</ele>
        <time>2011-04-03T15:20:44Z</time>
      </trkpt>
      <trkpt lat="45.52223" lon="6.06993">
        <ele>842.73</ele>
        <time>2011-04-03T15:20:47Z</time>
      </trkpt>
      <trkpt lat="45.52224" lon="6.07011">
        <ele>838.89</ele>
        <time>2011-04-03T15:20:50Z</time>
      </trkpt>
      <trkpt lat="45.52222" lon="6.07004">
        <ele>834.56</ele>
        <time>2011-04-03T15:20:53Z</time>
      </trkpt>
      <trkpt lat="45.52223" lon="6.07004">
        <ele>834.56</ele>
        <time>2011-04-03T15:20:54Z</time>
      </trkpt>
      <trkpt lat="45.52223" lon="6.07002">
        <ele>831.2</ele>
        <time>2011-04-03T15:20:56Z</time>
      </trkpt>
      <trkpt lat="45.52219" lon="6.07001">
        <ele>829.76</ele>
        <time>2011-04-03T15:20:57Z</time>
      </trkpt>
      <trkpt lat="45.52221" lon="6.07007">
        <ele>826.87</ele>
        <time>2011-04-03T15:20:59Z</time>
      </trkpt>
      <trkpt lat="45.52218" lon="6.07014">
        <ele>824.47</ele>
        <time>2011-04-03T15:21:01Z</time>
      </trkpt>
      <trkpt lat="45.52217" lon="6.0702">
        <ele>821.58</ele>
        <time>2011-04-03T15:21:03Z</time>
      </trkpt>
      <trkpt lat="45.52217" lon="6.07027">
        <ele>819.66</ele>
        <time>2011-04-03T15:21:05Z</time>
      </trkpt>
      <trkpt lat="45.52218" lon="6.07029">
        <ele>818.22</ele>
        <time>2011-04-03T15:21:06Z</time>
      </trkpt>
      <trkpt lat="45.52217" lon="6.07072">
        <ele>816.78</ele>
        <time>2011-04-03T15:21:19Z</time>
      </trkpt>
      <trkpt lat="45.52217" lon="6.07072">
        <ele>817.26</ele>
        <time>2011-04-03T15:21:27Z</time>
      </trkpt>
      <trkpt lat="45.52218" lon="6.07077">
        <ele>817.26</ele>
        <time>2011-04-03T15:21:46Z</time>
      </trkpt>
      <trkpt lat="45.52217" lon="6.07086">
        <ele>817.26</ele>
        <time>2011-04-03T15:21:54Z</time>
      </trkpt>
      <trkpt lat="45.5222" lon="6.07091">
        <ele>815.34</ele>
        <time>2011-04-03T15:21:57Z</time>
      </trkpt>
      <trkpt lat="45.52225" lon="6.07107">
        <ele>811.49</ele>
        <time>2011-04-03T15:22:02Z</time>
      </trkpt>
      <trkpt lat="45.52231" lon="6.07127">
        <ele>807.16</ele>
        <time>2011-04-03T15:22:06Z</time>
      </trkpt>
      <trkpt lat="45.52233" lon="6.07135">
        <ele>803.8</ele>
        <time>2011-04-03T15:22:08Z</time>
      </trkpt>
      <trkpt lat="45.5224" lon="6.07143">
        <ele>800.44</ele>
        <time>2011-04-03T15:22:11Z</time>
      </trkpt>
      <trkpt lat="45.52247" lon="6.07158">
        <ele>798.03</ele>
        <time>2011-04-03T15:22:13Z</time>
      </trkpt>
      <trkpt lat="45.52257" lon="6.07178">
        <ele>794.67</ele>
        <time>2011-04-03T15:22:17Z</time>
      </trkpt>
      <trkpt lat="45.52264" lon="6.07205">
        <ele>791.3</ele>
        <time>2011-04-03T15:22:21Z</time>
      </trkpt>
      <trkpt lat="45.52268" lon="6.07222">
        <ele>787.94</ele>
        <time>2011-04-03T15:22:25Z</time>
      </trkpt>
      <trkpt lat="45.52271" lon="6.07234">
        <ele>784.57</ele>
        <time>2011-04-03T15:22:28Z</time>
      </trkpt>
      <trkpt lat="45.52275" lon="6.07243">
        <ele>782.17</ele>
        <time>2011-04-03T15:22:30Z</time>
      </trkpt>
      <trkpt lat="45.52276" lon="6.07245">
        <ele>780.25</ele>
        <time>2011-04-03T15:22:31Z</time>
      </trkpt>
      <trkpt lat="45.52275" lon="6.07252">
        <ele>777.36</ele>
        <time>2011-04-03T15:22:33Z</time>
      </trkpt>
      <trkpt lat="45.52282" lon="6.07274">
        <ele>774</ele>
        <time>2011-04-03T15:22:38Z</time>
      </trkpt>
      <trkpt lat="45.52284" lon="6.07277">
        <ele>773.52</ele>
        <time>2011-04-03T15:22:39Z</time>
      </trkpt>
      <trkpt lat="45.52292" lon="6.07296">
        <ele>770.63</ele>
        <time>2011-04-03T15:22:42Z</time>
      </trkpt>
      <trkpt lat="45.52297" lon="6.07313">
        <ele>767.27</ele>
        <time>2011-04-03T15:22:44Z</time>
      </trkpt>
      <trkpt lat="45.523" lon="6.07318">
        <ele>767.27</ele>
        <time>2011-04-03T15:22:45Z</time>
      </trkpt>
      <trkpt lat="45.52302" lon="6.07338">
        <ele>763.9</ele>
        <time>2011-04-03T15:22:47Z</time>
      </trkpt>
      <trkpt lat="45.52309" lon="6.07355">
        <ele>761.02</ele>
        <time>2011-04-03T15:22:50Z</time>
      </trkpt>
      <trkpt lat="45.52316" lon="6.0737">
        <ele>759.58</ele>
        <time>2011-04-03T15:22:52Z</time>
      </trkpt>
      <trkpt lat="45.52323" lon="6.07391">
        <ele>755.73</ele>
        <time>2011-04-03T15:22:55Z</time>
      </trkpt>
      <trkpt lat="45.52332" lon="6.07412">
        <ele>752.37</ele>
        <time>2011-04-03T15:22:57Z</time>
      </trkpt>
      <trkpt lat="45.52339" lon="6.07425">
        <ele>748.52</ele>
        <time>2011-04-03T15:23:00Z</time>
      </trkpt>
      <trkpt lat="45.52342" lon="6.0743">
        <ele>747.56</ele>
        <time>2011-04-03T15:23:01Z</time>
      </trkpt>
      <trkpt lat="45.52345" lon="6.07436">
        <ele>745.64</ele>
        <time>2011-04-03T15:23:02Z</time>
      </trkpt>
      <trkpt lat="45.52348" lon="6.07442">
        <ele>744.68</ele>
        <time>2011-04-03T15:23:03Z</time>
      </trkpt>
      <trkpt lat="45.52354" lon="6.07453">
        <ele>742.28</ele>
        <time>2011-04-03T15:23:05Z</time>
      </trkpt>
      <trkpt lat="45.52358" lon="6.07459">
        <ele>740.35</ele>
        <time>2011-04-03T15:23:06Z</time>
      </trkpt>
      <trkpt lat="45.52361" lon="6.07467">
        <ele>738.91</ele>
        <time>2011-04-03T15:23:07Z</time>
      </trkpt>
      <trkpt lat="45.52363" lon="6.07471">
        <ele>737.47</ele>
        <time>2011-04-03T15:23:08Z</time>
      </trkpt>
      <trkpt lat="45.52368" lon="6.07482">
        <ele>734.58</ele>
        <time>2011-04-03T15:23:10Z</time>
      </trkpt>
      <trkpt lat="45.52371" lon="6.07493">
        <ele>733.62</ele>
        <time>2011-04-03T15:23:11Z</time>
      </trkpt>
      <trkpt lat="45.52376" lon="6.07507">
        <ele>731.22</ele>
        <time>2011-04-03T15:23:13Z</time>
      </trkpt>
      <trkpt lat="45.52381" lon="6.07519">
        <ele>729.3</ele>
        <time>2011-04-03T15:23:15Z</time>
      </trkpt>
      <trkpt lat="45.52396" lon="6.07544">
        <ele>724.97</ele>
        <time>2011-04-03T15:23:19Z</time>
      </trkpt>
      <trkpt lat="45.52399" lon="6.0755">
        <ele>724.49</ele>
        <time>2011-04-03T15:23:20Z</time>
      </trkpt>
      <trkpt lat="45.52406" lon="6.07561">
        <ele>721.13</ele>
        <time>2011-04-03T15:23:22Z</time>
      </trkpt>
      <trkpt lat="45.52417" lon="6.07571">
        <ele>717.76</ele>
        <time>2011-04-03T15:23:26Z</time>
      </trkpt>
      <trkpt lat="45.52419" lon="6.07569">
        <ele>716.32</ele>
        <time>2011-04-03T15:23:27Z</time>
      </trkpt>
      <trkpt lat="45.52425" lon="6.07578">
        <ele>713.92</ele>
        <time>2011-04-03T15:23:30Z</time>
      </trkpt>
      <trkpt lat="45.52423" lon="6.0759">
        <ele>710.55</ele>
        <time>2011-04-03T15:23:33Z</time>
      </trkpt>
      <trkpt lat="45.52414" lon="6.07602">
        <ele>707.67</ele>
        <time>2011-04-03T15:23:37Z</time>
      </trkpt>
      <trkpt lat="45.52403" lon="6.07606">
        <ele>703.82</ele>
        <time>2011-04-03T15:23:41Z</time>
      </trkpt>
      <trkpt lat="45.52397" lon="6.0761">
        <ele>700.94</ele>
        <time>2011-04-03T15:23:44Z</time>
      </trkpt>
      <trkpt lat="45.52389" lon="6.07617">
        <ele>697.57</ele>
        <time>2011-04-03T15:23:47Z</time>
      </trkpt>
      <trkpt lat="45.52381" lon="6.07623">
        <ele>694.69</ele>
        <time>2011-04-03T15:23:50Z</time>
      </trkpt>
      <trkpt lat="45.52358" lon="6.07596">
        <ele>691.33</ele>
        <time>2011-04-03T15:23:54Z</time>
      </trkpt>
      <trkpt lat="45.52327" lon="6.07595">
        <ele>686.52</ele>
        <time>2011-04-03T15:23:58Z</time>
      </trkpt>
      <trkpt lat="45.52315" lon="6.07595">
        <ele>682.19</ele>
        <time>2011-04-03T15:24:02Z</time>
      </trkpt>
      <trkpt lat="45.52296" lon="6.07595">
        <ele>678.35</ele>
        <time>2011-04-03T15:24:06Z</time>
      </trkpt>
      <trkpt lat="45.52254" lon="6.07554">
        <ele>674.02</ele>
        <time>2011-04-03T15:24:11Z</time>
      </trkpt>
      <trkpt lat="45.52239" lon="6.07548">
        <ele>670.18</ele>
        <time>2011-04-03T15:24:15Z</time>
      </trkpt>
      <trkpt lat="45.52231" lon="6.0754">
        <ele>669.22</ele>
        <time>2011-04-03T15:24:26Z</time>
      </trkpt>
      <trkpt lat="45.5223" lon="6.07533">
        <ele>666.81</ele>
        <time>2011-04-03T15:24:39Z</time>
      </trkpt>
      <trkpt lat="45.52229" lon="6.07532">
        <ele>666.81</ele>
        <time>2011-04-03T15:24:55Z</time>
      </trkpt>
      <trkpt lat="45.52227" lon="6.07532">
        <ele>664.89</ele>
        <time>2011-04-03T15:25:10Z</time>
      </trkpt>
      <trkpt lat="45.52223" lon="6.07526">
        <ele>662.49</ele>
        <time>2011-04-03T15:25:13Z</time>
      </trkpt>
      <trkpt lat="45.52216" lon="6.0752">
        <ele>659.12</ele>
        <time>2011-04-03T15:25:16Z</time>
      </trkpt>
      <trkpt lat="45.52206" lon="6.07512">
        <ele>654.8</ele>
        <time>2011-04-03T15:25:21Z</time>
      </trkpt>
      <trkpt lat="45.52206" lon="6.07509">
        <ele>652.39</ele>
        <time>2011-04-03T15:25:24Z</time>
      </trkpt>
      <trkpt lat="45.52207" lon="6.0752">
        <ele>649.99</ele>
        <time>2011-04-03T15:25:27Z</time>
      </trkpt>
      <trkpt lat="45.52206" lon="6.0752">
        <ele>649.51</ele>
        <time>2011-04-03T15:25:28Z</time>
      </trkpt>
      <trkpt lat="45.5221" lon="6.07524">
        <ele>646.14</ele>
        <time>2011-04-03T15:25:31Z</time>
      </trkpt>
      <trkpt lat="45.52213" lon="6.07548">
        <ele>644.22</ele>
        <time>2011-04-03T15:25:35Z</time>
      </trkpt>
      <trkpt lat="45.52217" lon="6.07566">
        <ele>640.86</ele>
        <time>2011-04-03T15:25:39Z</time>
      </trkpt>
      <trkpt lat="45.52227" lon="6.07595">
        <ele>636.05</ele>
        <time>2011-04-03T15:25:44Z</time>
      </trkpt>
      <trkpt lat="45.52242" lon="6.07618">
        <ele>632.68</ele>
        <time>2011-04-03T15:25:49Z</time>
      </trkpt>
      <trkpt lat="45.52248" lon="6.07627">
        <ele>630.28</ele>
        <time>2011-04-03T15:25:51Z</time>
      </trkpt>
      <trkpt lat="45.52257" lon="6.07636">
        <ele>626.92</ele>
        <time>2011-04-03T15:25:55Z</time>
      </trkpt>
      <trkpt lat="45.52267" lon="6.07647">
        <ele>623.55</ele>
        <time>2011-04-03T15:25:58Z</time>
      </trkpt>
      <trkpt lat="45.52277" lon="6.0766">
        <ele>620.67</ele>
        <time>2011-04-03T15:26:02Z</time>
      </trkpt>
      <trkpt lat="45.52279" lon="6.07663">
        <ele>619.23</ele>
        <time>2011-04-03T15:26:03Z</time>
      </trkpt>
      <trkpt lat="45.52286" lon="6.07673">
        <ele>616.34</ele>
        <time>2011-04-03T15:26:06Z</time>
      </trkpt>
      <trkpt lat="45.52296" lon="6.07688">
        <ele>612.98</ele>
        <time>2011-04-03T15:26:13Z</time>
      </trkpt>
      <trkpt lat="45.52293" lon="6.0769">
        <ele>610.57</ele>
        <time>2011-04-03T15:26:24Z</time>
      </trkpt>
      <trkpt lat="45.52293" lon="6.0769">
        <ele>610.09</ele>
        <time>2011-04-03T15:26:33Z</time>
      </trkpt>
      <trkpt lat="45.52291" lon="6.07688">
        <ele>606.73</ele>
        <time>2011-04-03T15:26:38Z</time>
      </trkpt>
      <trkpt lat="45.52289" lon="6.07686">
        <ele>605.29</ele>
        <time>2011-04-03T15:26:40Z</time>
      </trkpt>
      <trkpt lat="45.52277" lon="6.07684">
        <ele>600.48</ele>
        <time>2011-04-03T15:26:44Z</time>
      </trkpt>
      <trkpt lat="45.52267" lon="6.07686">
        <ele>597.12</ele>
        <time>2011-04-03T15:26:48Z</time>
      </trkpt>
      <trkpt lat="45.52257" lon="6.07684">
        <ele>595.67</ele>
        <time>2011-04-03T15:26:50Z</time>
      </trkpt>
      <trkpt lat="45.52252" lon="6.07682">
        <ele>593.75</ele>
        <time>2011-04-03T15:26:51Z</time>
      </trkpt>
      <trkpt lat="45.52245" lon="6.07681">
        <ele>589.91</ele>
        <time>2011-04-03T15:26:53Z</time>
      </trkpt>
      <trkpt lat="45.52241" lon="6.0768">
        <ele>589.91</ele>
        <time>2011-04-03T15:26:54Z</time>
      </trkpt>
      <trkpt lat="45.52232" lon="6.07677">
        <ele>587.5</ele>
        <time>2011-04-03T15:26:56Z</time>
      </trkpt>
      <trkpt lat="45.52214" lon="6.07675">
        <ele>584.62</ele>
        <time>2011-04-03T15:27:00Z</time>
      </trkpt>
      <trkpt lat="45.52202" lon="6.07669">
        <ele>581.25</ele>
        <time>2011-04-03T15:27:03Z</time>
      </trkpt>
      <trkpt lat="45.52187" lon="6.07654">
        <ele>577.89</ele>
        <time>2011-04-03T15:27:07Z</time>
      </trkpt>
      <trkpt lat="45.52173" lon="6.07645">
        <ele>575.01</ele>
        <time>2011-04-03T15:27:10Z</time>
      </trkpt>
      <trkpt lat="45.52163" lon="6.07639">
        <ele>574.04</ele>
        <time>2011-04-03T15:27:11Z</time>
      </trkpt>
      <trkpt lat="45.5216" lon="6.07633">
        <ele>573.08</ele>
        <time>2011-04-03T15:27:12Z</time>
      </trkpt>
      <trkpt lat="45.52153" lon="6.07625">
        <ele>571.16</ele>
        <time>2011-04-03T15:27:14Z</time>
      </trkpt>
      <trkpt lat="45.52133" lon="6.07622">
        <ele>567.8</ele>
        <time>2011-04-03T15:27:17Z</time>
      </trkpt>
      <trkpt lat="45.52125" lon="6.07617">
        <ele>563.47</ele>
        <time>2011-04-03T15:27:19Z</time>
      </trkpt>
      <trkpt lat="45.5212" lon="6.07614">
        <ele>561.55</ele>
        <time>2011-04-03T15:27:20Z</time>
      </trkpt>
      <trkpt lat="45.52104" lon="6.07602">
        <ele>558.66</ele>
        <time>2011-04-03T15:27:23Z</time>
      </trkpt>
      <trkpt lat="45.52084" lon="6.0758">
        <ele>556.26</ele>
        <time>2011-04-03T15:27:28Z</time>
      </trkpt>
      <trkpt lat="45.52049" lon="6.07528">
        <ele>554.34</ele>
        <time>2011-04-03T15:27:41Z</time>
      </trkpt>
      <trkpt lat="45.52037" lon="6.07511">
        <ele>551.93</ele>
        <time>2011-04-03T15:27:45Z</time>
      </trkpt>
      <trkpt lat="45.5203" lon="6.07493">
        <ele>548.57</ele>
        <time>2011-04-03T15:27:50Z</time>
      </trkpt>
      <trkpt lat="45.52029" lon="6.07491">
        <ele>548.57</ele>
        <time>2011-04-03T15:27:51Z</time>
      </trkpt>
      <trkpt lat="45.52027" lon="6.07485">
        <ele>546.65</ele>
        <time>2011-04-03T15:27:53Z</time>
      </trkpt>
      <trkpt lat="45.52016" lon="6.07474">
        <ele>543.28</ele>
        <time>2011-04-03T15:27:57Z</time>
      </trkpt>
      <trkpt lat="45.52005" lon="6.07459">
        <ele>539.92</ele>
        <time>2011-04-03T15:28:02Z</time>
      </trkpt>
      <trkpt lat="45.51991" lon="6.07449">
        <ele>536.07</ele>
        <time>2011-04-03T15:28:08Z</time>
      </trkpt>
      <trkpt lat="45.51978" lon="6.0744">
        <ele>532.71</ele>
        <time>2011-04-03T15:28:12Z</time>
      </trkpt>
      <trkpt lat="45.51975" lon="6.07436">
        <ele>531.75</ele>
        <time>2011-04-03T15:28:13Z</time>
      </trkpt>
      <trkpt lat="45.51972" lon="6.07435">
        <ele>530.79</ele>
        <time>2011-04-03T15:28:14Z</time>
      </trkpt>
      <trkpt lat="45.51962" lon="6.07427">
        <ele>527.9</ele>
        <time>2011-04-03T15:28:19Z</time>
      </trkpt>
      <trkpt lat="45.51955" lon="6.07421">
        <ele>525.02</ele>
        <time>2011-04-03T15:28:22Z</time>
      </trkpt>
      <trkpt lat="45.5195" lon="6.07414">
        <ele>521.65</ele>
        <time>2011-04-03T15:28:25Z</time>
      </trkpt>
      <trkpt lat="45.51944" lon="6.07408">
        <ele>518.77</ele>
        <time>2011-04-03T15:28:28Z</time>
      </trkpt>
      <trkpt lat="45.51933" lon="6.07401">
        <ele>515.4</ele>
        <time>2011-04-03T15:28:31Z</time>
      </trkpt>
      <trkpt lat="45.51922" lon="6.07396">
        <ele>513.96</ele>
        <time>2011-04-03T15:28:35Z</time>
      </trkpt>
      <trkpt lat="45.51917" lon="6.07393">
        <ele>512.04</ele>
        <time>2011-04-03T15:28:37Z</time>
      </trkpt>
      <trkpt lat="45.51897" lon="6.07375">
        <ele>508.67</ele>
        <time>2011-04-03T15:28:42Z</time>
      </trkpt>
      <trkpt lat="45.51852" lon="6.07302">
        <ele>505.31</ele>
        <time>2011-04-03T15:28:56Z</time>
      </trkpt>
      <trkpt lat="45.51794" lon="6.07268">
        <ele>505.79</ele>
        <time>2011-04-03T15:29:11Z</time>
      </trkpt>
      <trkpt lat="45.51766" lon="6.07222">
        <ele>504.35</ele>
        <time>2011-04-03T15:29:24Z</time>
      </trkpt>
      <trkpt lat="45.51751" lon="6.07202">
        <ele>501.95</ele>
        <time>2011-04-03T15:29:28Z</time>
      </trkpt>
      <trkpt lat="45.51742" lon="6.07179">
        <ele>499.54</ele>
        <time>2011-04-03T15:29:31Z</time>
      </trkpt>
      <trkpt lat="45.51741" lon="6.07171">
        <ele>499.06</ele>
        <time>2011-04-03T15:29:32Z</time>
      </trkpt>
      <trkpt lat="45.5174" lon="6.07163">
        <ele>498.1</ele>
        <time>2011-04-03T15:29:33Z</time>
      </trkpt>
      <trkpt lat="45.51738" lon="6.07148">
        <ele>495.7</ele>
        <time>2011-04-03T15:29:35Z</time>
      </trkpt>
      <trkpt lat="45.51737" lon="6.0714">
        <ele>495.22</ele>
        <time>2011-04-03T15:29:36Z</time>
      </trkpt>
      <trkpt lat="45.51732" lon="6.07126">
        <ele>493.29</ele>
        <time>2011-04-03T15:29:38Z</time>
      </trkpt>
      <trkpt lat="45.5173" lon="6.07119">
        <ele>493.29</ele>
        <time>2011-04-03T15:29:39Z</time>
      </trkpt>
      <trkpt lat="45.51728" lon="6.07113">
        <ele>492.33</ele>
        <time>2011-04-03T15:29:40Z</time>
      </trkpt>
      <trkpt lat="45.51724" lon="6.07108">
        <ele>490.89</ele>
        <time>2011-04-03T15:29:41Z</time>
      </trkpt>
      <trkpt lat="45.51708" lon="6.07092">
        <ele>488.49</ele>
        <time>2011-04-03T15:29:44Z</time>
      </trkpt>
      <trkpt lat="45.51701" lon="6.07089">
        <ele>487.53</ele>
        <time>2011-04-03T15:29:45Z</time>
      </trkpt>
      <trkpt lat="45.51669" lon="6.07079">
        <ele>483.2</ele>
        <time>2011-04-03T15:29:51Z</time>
      </trkpt>
      <trkpt lat="45.51664" lon="6.07077">
        <ele>482.24</ele>
        <time>2011-04-03T15:29:52Z</time>
      </trkpt>
      <trkpt lat="45.51658" lon="6.07076">
        <ele>481.28</ele>
        <time>2011-04-03T15:29:53Z</time>
      </trkpt>
      <trkpt lat="45.51646" lon="6.07073">
        <ele>477.91</ele>
        <time>2011-04-03T15:29:55Z</time>
      </trkpt>
      <trkpt lat="45.51639" lon="6.07072">
        <ele>476.95</ele>
        <time>2011-04-03T15:29:56Z</time>
      </trkpt>
      <trkpt lat="45.51626" lon="6.0707">
        <ele>473.59</ele>
        <time>2011-04-03T15:29:58Z</time>
      </trkpt>
      <trkpt lat="45.51614" lon="6.07068">
        <ele>470.22</ele>
        <time>2011-04-03T15:30:00Z</time>
      </trkpt>
      <trkpt lat="45.5161" lon="6.07068">
        <ele>469.74</ele>
        <time>2011-04-03T15:30:01Z</time>
      </trkpt>
      <trkpt lat="45.51605" lon="6.07065">
        <ele>468.78</ele>
        <time>2011-04-03T15:30:02Z</time>
      </trkpt>
      <trkpt lat="45.51601" lon="6.07063">
        <ele>466.86</ele>
        <time>2011-04-03T15:30:03Z</time>
      </trkpt>
      <trkpt lat="45.51596" lon="6.07061">
        <ele>464.93</ele>
        <time>2011-04-03T15:30:04Z</time>
      </trkpt>
      <trkpt lat="45.51587" lon="6.07063">
        <ele>463.97</ele>
        <time>2011-04-03T15:30:05Z</time>
      </trkpt>
      <trkpt lat="45.51579" lon="6.07063">
        <ele>462.05</ele>
        <time>2011-04-03T15:30:06Z</time>
      </trkpt>
      <trkpt lat="45.51573" lon="6.07061">
        <ele>460.61</ele>
        <time>2011-04-03T15:30:07Z</time>
      </trkpt>
      <trkpt lat="45.51568" lon="6.07058">
        <ele>459.65</ele>
        <time>2011-04-03T15:30:08Z</time>
      </trkpt>
      <trkpt lat="45.51562" lon="6.07053">
        <ele>457.72</ele>
        <time>2011-04-03T15:30:09Z</time>
      </trkpt>
      <trkpt lat="45.51556" lon="6.07048">
        <ele>456.28</ele>
        <time>2011-04-03T15:30:10Z</time>
      </trkpt>
      <trkpt lat="45.5155" lon="6.07042">
        <ele>455.32</ele>
        <time>2011-04-03T15:30:11Z</time>
      </trkpt>
      <trkpt lat="45.51544" lon="6.07034">
        <ele>453.88</ele>
        <time>2011-04-03T15:30:12Z</time>
      </trkpt>
      <trkpt lat="45.51538" lon="6.07027">
        <ele>452.44</ele>
        <time>2011-04-03T15:30:13Z</time>
      </trkpt>
      <trkpt lat="45.51528" lon="6.07011">
        <ele>449.55</ele>
        <time>2011-04-03T15:30:15Z</time>
      </trkpt>
      <trkpt lat="45.51519" lon="6.07">
        <ele>447.15</ele>
        <time>2011-04-03T15:30:17Z</time>
      </trkpt>
      <trkpt lat="45.51515" lon="6.06998">
        <ele>445.71</ele>
        <time>2011-04-03T15:30:18Z</time>
      </trkpt>
      <trkpt lat="45.5151" lon="6.06997">
        <ele>444.75</ele>
        <time>2011-04-03T15:30:19Z</time>
      </trkpt>
      <trkpt lat="45.51504" lon="6.06996">
        <ele>442.82</ele>
        <time>2011-04-03T15:30:20Z</time>
      </trkpt>
      <trkpt lat="45.51498" lon="6.06995">
        <ele>440.42</ele>
        <time>2011-04-03T15:30:21Z</time>
      </trkpt>
      <trkpt lat="45.51492" lon="6.06992">
        <ele>438.98</ele>
        <time>2011-04-03T15:30:22Z</time>
      </trkpt>
      <trkpt lat="45.51487" lon="6.06989">
        <ele>438.02</ele>
        <time>2011-04-03T15:30:23Z</time>
      </trkpt>
      <trkpt lat="45.51475" lon="6.06978">
        <ele>434.65</ele>
        <time>2011-04-03T15:30:26Z</time>
      </trkpt>
      <trkpt lat="45.51466" lon="6.0697">
        <ele>432.73</ele>
        <time>2011-04-03T15:30:28Z</time>
      </trkpt>
      <trkpt lat="45.51451" lon="6.06955">
        <ele>428.4</ele>
        <time>2011-04-03T15:30:31Z</time>
      </trkpt>
      <trkpt lat="45.51446" lon="6.06949">
        <ele>428.4</ele>
        <time>2011-04-03T15:30:32Z</time>
      </trkpt>
      <trkpt lat="45.51432" lon="6.06926">
        <ele>423.12</ele>
        <time>2011-04-03T15:30:35Z</time>
      </trkpt>
      <trkpt lat="45.51415" lon="6.06899">
        <ele>419.75</ele>
        <time>2011-04-03T15:30:38Z</time>
      </trkpt>
      <trkpt lat="45.51403" lon="6.06883">
        <ele>415.91</ele>
        <time>2011-04-03T15:30:40Z</time>
      </trkpt>
      <trkpt lat="45.51384" lon="6.06863">
        <ele>412.54</ele>
        <time>2011-04-03T15:30:43Z</time>
      </trkpt>
      <trkpt lat="45.51378" lon="6.06858">
        <ele>412.54</ele>
        <time>2011-04-03T15:30:44Z</time>
      </trkpt>
      <trkpt lat="45.51369" lon="6.06849">
        <ele>410.14</ele>
        <time>2011-04-03T15:30:46Z</time>
      </trkpt>
      <trkpt lat="45.51355" lon="6.0684">
        <ele>408.7</ele>
        <time>2011-04-03T15:30:49Z</time>
      </trkpt>
      <trkpt lat="45.51351" lon="6.06836">
        <ele>407.74</ele>
        <time>2011-04-03T15:30:50Z</time>
      </trkpt>
      <trkpt lat="45.51349" lon="6.06832">
        <ele>407.26</ele>
        <time>2011-04-03T15:30:51Z</time>
      </trkpt>
      <trkpt lat="45.51345" lon="6.06827">
        <ele>405.81</ele>
        <time>2011-04-03T15:30:59Z</time>
      </trkpt>
      <trkpt lat="45.51345" lon="6.06827">
        <ele>405.33</ele>
        <time>2011-04-03T15:31:30Z</time>
      </trkpt>
      <trkpt lat="45.51346" lon="6.06827">
        <ele>405.81</ele>
        <time>2011-04-03T15:32:04Z</time>
      </trkpt>
      <trkpt lat="45.51345" lon="6.06827">
        <ele>405.33</ele>
        <time>2011-04-03T15:32:42Z</time>
      </trkpt>
      <trkpt lat="45.51345" lon="6.06827">
        <ele>403.89</ele>
        <time>2011-04-03T15:33:17Z</time>
      </trkpt>
      <trkpt lat="45.51345" lon="6.06826">
        <ele>404.85</ele>
        <time>2011-04-03T15:33:33Z</time>
      </trkpt>
      <trkpt lat="45.51344" lon="6.06824">
        <ele>404.37</ele>
        <time>2011-04-03T15:33:34Z</time>
      </trkpt>
      <trkpt lat="45.51341" lon="6.06824">
        <ele>403.89</ele>
        <time>2011-04-03T15:33:35Z</time>
      </trkpt>
      <trkpt lat="45.51338" lon="6.06827">
        <ele>402.45</ele>
        <time>2011-04-03T15:33:36Z</time>
      </trkpt>
      <trkpt lat="45.51336" lon="6.06833">
        <ele>401.97</ele>
        <time>2011-04-03T15:33:37Z</time>
      </trkpt>
      <trkpt lat="45.51335" lon="6.06842">
        <ele>401.49</ele>
        <time>2011-04-03T15:33:38Z</time>
      </trkpt>
      <trkpt lat="45.51334" lon="6.06852">
        <ele>401.01</ele>
        <time>2011-04-03T15:33:39Z</time>
      </trkpt>
      <trkpt lat="45.51335" lon="6.06862">
        <ele>399.57</ele>
        <time>2011-04-03T15:33:40Z</time>
      </trkpt>
      <trkpt lat="45.51334" lon="6.0687">
        <ele>399.57</ele>
        <time>2011-04-03T15:33:41Z</time>
      </trkpt>
      <trkpt lat="45.51331" lon="6.06876">
        <ele>399.57</ele>
        <time>2011-04-03T15:33:42Z</time>
      </trkpt>
      <trkpt lat="45.51326" lon="6.06878">
        <ele>398.12</ele>
        <time>2011-04-03T15:33:43Z</time>
      </trkpt>
      <trkpt lat="45.51322" lon="6.06874">
        <ele>396.68</ele>
        <time>2011-04-03T15:33:44Z</time>
      </trkpt>
      <trkpt lat="45.51317" lon="6.06868">
        <ele>396.2</ele>
        <time>2011-04-03T15:33:45Z</time>
      </trkpt>
      <trkpt lat="45.51313" lon="6.06861">
        <ele>395.24</ele>
        <time>2011-04-03T15:33:46Z</time>
      </trkpt>
      <trkpt lat="45.51298" lon="6.0684">
        <ele>391.87</ele>
        <time>2011-04-03T15:33:49Z</time>
      </trkpt>
      <trkpt lat="45.51284" lon="6.06822">
        <ele>387.55</ele>
        <time>2011-04-03T15:33:52Z</time>
      </trkpt>
      <trkpt lat="45.51272" lon="6.06806">
        <ele>385.15</ele>
        <time>2011-04-03T15:33:55Z</time>
      </trkpt>
      <trkpt lat="45.51268" lon="6.068">
        <ele>385.15</ele>
        <time>2011-04-03T15:33:56Z</time>
      </trkpt>
      <trkpt lat="45.5126" lon="6.06783">
        <ele>381.3</ele>
        <time>2011-04-03T15:33:58Z</time>
      </trkpt>
      <trkpt lat="45.51251" lon="6.06763">
        <ele>378.42</ele>
        <time>2011-04-03T15:34:00Z</time>
      </trkpt>
      <trkpt lat="45.51247" lon="6.06751">
        <ele>377.45</ele>
        <time>2011-04-03T15:34:01Z</time>
      </trkpt>
      <trkpt lat="45.51236" lon="6.0671">
        <ele>373.61</ele>
        <time>2011-04-03T15:34:04Z</time>
      </trkpt>
      <trkpt lat="45.51233" lon="6.06698">
        <ele>372.65</ele>
        <time>2011-04-03T15:34:05Z</time>
      </trkpt>
      <trkpt lat="45.5123" lon="6.06687">
        <ele>371.21</ele>
        <time>2011-04-03T15:34:06Z</time>
      </trkpt>
      <trkpt lat="45.51226" lon="6.06679">
        <ele>370.24</ele>
        <time>2011-04-03T15:34:07Z</time>
      </trkpt>
      <trkpt lat="45.5122" lon="6.06674">
        <ele>369.28</ele>
        <time>2011-04-03T15:34:08Z</time>
      </trkpt>
      <trkpt lat="45.51214" lon="6.06671">
        <ele>369.76</ele>
        <time>2011-04-03T15:34:09Z</time>
      </trkpt>
      <trkpt lat="45.51207" lon="6.06669">
        <ele>368.8</ele>
        <time>2011-04-03T15:34:10Z</time>
      </trkpt>
      <trkpt lat="45.51199" lon="6.06668">
        <ele>368.32</ele>
        <time>2011-04-03T15:34:11Z</time>
      </trkpt>
      <trkpt lat="45.51191" lon="6.06669">
        <ele>367.84</ele>
        <time>2011-04-03T15:34:12Z</time>
      </trkpt>
      <trkpt lat="45.51183" lon="6.06671">
        <ele>366.88</ele>
        <time>2011-04-03T15:34:13Z</time>
      </trkpt>
      <trkpt lat="45.51175" lon="6.06671">
        <ele>366.4</ele>
        <time>2011-04-03T15:34:14Z</time>
      </trkpt>
      <trkpt lat="45.51167" lon="6.06669">
        <ele>366.4</ele>
        <time>2011-04-03T15:34:15Z</time>
      </trkpt>
      <trkpt lat="45.51159" lon="6.06666">
        <ele>365.92</ele>
        <time>2011-04-03T15:34:16Z</time>
      </trkpt>
      <trkpt lat="45.51152" lon="6.0666">
        <ele>365.92</ele>
        <time>2011-04-03T15:34:17Z</time>
      </trkpt>
      <trkpt lat="45.51146" lon="6.06654">
        <ele>365.92</ele>
        <time>2011-04-03T15:34:18Z</time>
      </trkpt>
      <trkpt lat="45.51142" lon="6.06649">
        <ele>365.44</ele>
        <time>2011-04-03T15:34:19Z</time>
      </trkpt>
      <trkpt lat="45.51135" lon="6.0664">
        <ele>364.96</ele>
        <time>2011-04-03T15:34:21Z</time>
      </trkpt>
      <trkpt lat="45.5113" lon="6.06637">
        <ele>364</ele>
        <time>2011-04-03T15:34:22Z</time>
      </trkpt>
      <trkpt lat="45.51105" lon="6.06624">
        <ele>360.63</ele>
        <time>2011-04-03T15:34:26Z</time>
      </trkpt>
      <trkpt lat="45.51097" lon="6.06621">
        <ele>359.67</ele>
        <time>2011-04-03T15:34:27Z</time>
      </trkpt>
      <trkpt lat="45.51088" lon="6.06618">
        <ele>358.23</ele>
        <time>2011-04-03T15:34:28Z</time>
      </trkpt>
      <trkpt lat="45.51079" lon="6.06615">
        <ele>356.79</ele>
        <time>2011-04-03T15:34:29Z</time>
      </trkpt>
      <trkpt lat="45.51069" lon="6.06612">
        <ele>354.86</ele>
        <time>2011-04-03T15:34:30Z</time>
      </trkpt>
      <trkpt lat="45.51059" lon="6.06609">
        <ele>354.86</ele>
        <time>2011-04-03T15:34:31Z</time>
      </trkpt>
      <trkpt lat="45.51041" lon="6.06607">
        <ele>351.98</ele>
        <time>2011-04-03T15:34:33Z</time>
      </trkpt>
      <trkpt lat="45.51025" lon="6.06608">
        <ele>348.13</ele>
        <time>2011-04-03T15:34:35Z</time>
      </trkpt>
      <trkpt lat="45.51011" lon="6.06611">
        <ele>346.69</ele>
        <time>2011-04-03T15:34:37Z</time>
      </trkpt>
      <trkpt lat="45.51005" lon="6.06613">
        <ele>345.25</ele>
        <time>2011-04-03T15:34:38Z</time>
      </trkpt>
      <trkpt lat="45.51001" lon="6.06613">
        <ele>345.25</ele>
        <time>2011-04-03T15:34:39Z</time>
      </trkpt>
      <trkpt lat="45.50997" lon="6.06613">
        <ele>345.25</ele>
        <time>2011-04-03T15:34:40Z</time>
      </trkpt>
      <trkpt lat="45.50995" lon="6.06613">
        <ele>344.29</ele>
        <time>2011-04-03T15:34:41Z</time>
      </trkpt>
      <trkpt lat="45.50986" lon="6.06616">
        <ele>343.33</ele>
        <time>2011-04-03T15:34:46Z</time>
      </trkpt>
      <trkpt lat="45.50986" lon="6.06615">
        <ele>342.85</ele>
        <time>2011-04-03T15:34:47Z</time>
      </trkpt>
      <trkpt lat="45.50987" lon="6.06614">
        <ele>342.85</ele>
        <time>2011-04-03T15:34:48Z</time>
      </trkpt>
      <trkpt lat="45.50988" lon="6.06614">
        <ele>342.85</ele>
        <time>2011-04-03T15:34:49Z</time>
      </trkpt>
      <trkpt lat="45.50992" lon="6.06618">
        <ele>343.81</ele>
        <time>2011-04-03T15:34:54Z</time>
      </trkpt>
      <trkpt lat="45.51004" lon="6.06617">
        <ele>344.77</ele>
        <time>2011-04-03T15:35:01Z</time>
      </trkpt>
      <trkpt lat="45.51006" lon="6.06595">
        <ele>345.25</ele>
        <time>2011-04-03T15:35:10Z</time>
      </trkpt>
      <trkpt lat="45.51002" lon="6.06581">
        <ele>346.69</ele>
        <time>2011-04-03T15:35:14Z</time>
      </trkpt>
      <trkpt lat="45.5099" lon="6.06532">
        <ele>347.65</ele>
        <time>2011-04-03T15:35:27Z</time>
      </trkpt>
      <trkpt lat="45.5098" lon="6.06491">
        <ele>349.58</ele>
        <time>2011-04-03T15:35:38Z</time>
      </trkpt>
      <trkpt lat="45.50963" lon="6.0643">
        <ele>347.65</ele>
        <time>2011-04-03T15:35:52Z</time>
      </trkpt>
      <trkpt lat="45.50962" lon="6.06425">
        <ele>348.13</ele>
        <time>2011-04-03T15:35:53Z</time>
      </trkpt>
      <trkpt lat="45.50962" lon="6.06419">
        <ele>347.65</ele>
        <time>2011-04-03T15:35:54Z</time>
      </trkpt>
      <trkpt lat="45.50962" lon="6.06413">
        <ele>347.17</ele>
        <time>2011-04-03T15:35:55Z</time>
      </trkpt>
      <trkpt lat="45.50962" lon="6.06408">
        <ele>347.65</ele>
        <time>2011-04-03T15:35:56Z</time>
      </trkpt>
      <trkpt lat="45.50958" lon="6.06346">
        <ele>347.65</ele>
        <time>2011-04-03T15:36:08Z</time>
      </trkpt>
      <trkpt lat="45.50945" lon="6.06273">
        <ele>348.13</ele>
        <time>2011-04-03T15:36:23Z</time>
      </trkpt>
      <trkpt lat="45.50931" lon="6.0621">
        <ele>349.58</ele>
        <time>2011-04-03T15:36:37Z</time>
      </trkpt>
      <trkpt lat="45.50905" lon="6.06157">
        <ele>349.1</ele>
        <time>2011-04-03T15:36:49Z</time>
      </trkpt>
      <trkpt lat="45.50888" lon="6.06115">
        <ele>350.54</ele>
        <time>2011-04-03T15:37:01Z</time>
      </trkpt>
      <trkpt lat="45.50885" lon="6.06081">
        <ele>352.94</ele>
        <time>2011-04-03T15:37:15Z</time>
      </trkpt>
      <trkpt lat="45.50881" lon="6.06049">
        <ele>353.42</ele>
        <time>2011-04-03T15:37:28Z</time>
      </trkpt>
      <trkpt lat="45.50877" lon="6.0599">
        <ele>352.94</ele>
        <time>2011-04-03T15:37:41Z</time>
      </trkpt>
      <trkpt lat="45.50871" lon="6.05948">
        <ele>354.38</ele>
        <time>2011-04-03T15:37:54Z</time>
      </trkpt>
      <trkpt lat="45.50863" lon="6.05922">
        <ele>355.34</ele>
        <time>2011-04-03T15:38:02Z</time>
      </trkpt>
      <trkpt lat="45.50847" lon="6.05888">
        <ele>356.31</ele>
        <time>2011-04-03T15:38:14Z</time>
      </trkpt>
      <trkpt lat="45.50846" lon="6.05887">
        <ele>355.83</ele>
        <time>2011-04-03T15:38:28Z</time>
      </trkpt>
      <trkpt lat="45.50845" lon="6.05888">
        <ele>355.83</ele>
        <time>2011-04-03T15:38:49Z</time>
      </trkpt>
      <trkpt lat="45.50845" lon="6.05887">
        <ele>355.83</ele>
        <time>2011-04-03T15:38:50Z</time>
      </trkpt>
      <trkpt lat="45.50843" lon="6.05886">
        <ele>355.83</ele>
        <time>2011-04-03T15:38:51Z</time>
      </trkpt>
      <trkpt lat="45.50842" lon="6.05884">
        <ele>356.31</ele>
        <time>2011-04-03T15:38:52Z</time>
      </trkpt>
      <trkpt lat="45.50841" lon="6.05883">
        <ele>356.79</ele>
        <time>2011-04-03T15:38:53Z</time>
      </trkpt>
      <trkpt lat="45.5084" lon="6.05881">
        <ele>356.79</ele>
        <time>2011-04-03T15:38:54Z</time>
      </trkpt>
      <trkpt lat="45.5084" lon="6.0588">
        <ele>356.79</ele>
        <time>2011-04-03T15:38:55Z</time>
      </trkpt>
      <trkpt lat="45.50839" lon="6.05878">
        <ele>356.79</ele>
        <time>2011-04-03T15:38:56Z</time>
      </trkpt>
      <trkpt lat="45.50838" lon="6.05877">
        <ele>357.27</ele>
        <time>2011-04-03T15:38:57Z</time>
      </trkpt>
      <trkpt lat="45.50837" lon="6.05875">
        <ele>357.27</ele>
        <time>2011-04-03T15:38:58Z</time>
      </trkpt>
      <trkpt lat="45.50837" lon="6.05874">
        <ele>357.27</ele>
        <time>2011-04-03T15:38:59Z</time>
      </trkpt>
      <trkpt lat="45.50836" lon="6.05873">
        <ele>357.27</ele>
        <time>2011-04-03T15:39:00Z</time>
      </trkpt>
      <trkpt lat="45.50829" lon="6.05858">
        <ele>360.63</ele>
        <time>2011-04-03T15:39:11Z</time>
      </trkpt>
      <trkpt lat="45.50829" lon="6.05856">
        <ele>360.63</ele>
        <time>2011-04-03T15:39:12Z</time>
      </trkpt>
      <trkpt lat="45.50828" lon="6.05854">
        <ele>360.63</ele>
        <time>2011-04-03T15:39:13Z</time>
      </trkpt>
      <trkpt lat="45.50819" lon="6.05838">
        <ele>364</ele>
        <time>2011-04-03T15:39:25Z</time>
      </trkpt>
      <trkpt lat="45.50814" lon="6.05828">
        <ele>365.92</ele>
        <time>2011-04-03T15:39:33Z</time>
      </trkpt>
      <trkpt lat="45.5081" lon="6.05824">
        <ele>367.36</ele>
        <time>2011-04-03T15:39:38Z</time>
      </trkpt>
      <trkpt lat="45.50809" lon="6.05823">
        <ele>367.36</ele>
        <time>2011-04-03T15:39:39Z</time>
      </trkpt>
      <trkpt lat="45.50807" lon="6.05819">
        <ele>368.8</ele>
        <time>2011-04-03T15:39:42Z</time>
      </trkpt>
      <trkpt lat="45.50806" lon="6.05818">
        <ele>368.8</ele>
        <time>2011-04-03T15:39:43Z</time>
      </trkpt>
      <trkpt lat="45.50806" lon="6.05816">
        <ele>368.8</ele>
        <time>2011-04-03T15:39:44Z</time>
      </trkpt>
      <trkpt lat="45.50805" lon="6.05815">
        <ele>369.28</ele>
        <time>2011-04-03T15:39:45Z</time>
      </trkpt>
      <trkpt lat="45.50804" lon="6.05814">
        <ele>369.28</ele>
        <time>2011-04-03T15:39:46Z</time>
      </trkpt>
      <trkpt lat="45.50803" lon="6.05812">
        <ele>369.76</ele>
        <time>2011-04-03T15:39:47Z</time>
      </trkpt>
      <trkpt lat="45.50803" lon="6.05811">
        <ele>369.76</ele>
        <time>2011-04-03T15:39:48Z</time>
      </trkpt>
      <trkpt lat="45.50802" lon="6.05809">
        <ele>370.24</ele>
        <time>2011-04-03T15:39:49Z</time>
      </trkpt>
      <trkpt lat="45.50802" lon="6.05808">
        <ele>370.24</ele>
        <time>2011-04-03T15:39:50Z</time>
      </trkpt>
      <trkpt lat="45.508" lon="6.05804">
        <ele>370.24</ele>
        <time>2011-04-03T15:39:53Z</time>
      </trkpt>
      <trkpt lat="45.50794" lon="6.05791">
        <ele>371.69</ele>
        <time>2011-04-03T15:40:03Z</time>
      </trkpt>
      <trkpt lat="45.50794" lon="6.05789">
        <ele>372.17</ele>
        <time>2011-04-03T15:40:04Z</time>
      </trkpt>
      <trkpt lat="45.50794" lon="6.05787">
        <ele>372.65</ele>
        <time>2011-04-03T15:40:05Z</time>
      </trkpt>
      <trkpt lat="45.50788" lon="6.05775">
        <ele>374.09</ele>
        <time>2011-04-03T15:40:14Z</time>
      </trkpt>
      <trkpt lat="45.50787" lon="6.05774">
        <ele>374.09</ele>
        <time>2011-04-03T15:40:15Z</time>
      </trkpt>
      <trkpt lat="45.50787" lon="6.05773">
        <ele>374.09</ele>
        <time>2011-04-03T15:40:16Z</time>
      </trkpt>
      <trkpt lat="45.50786" lon="6.05771">
        <ele>373.61</ele>
        <time>2011-04-03T15:40:17Z</time>
      </trkpt>
      <trkpt lat="45.50786" lon="6.0577">
        <ele>373.61</ele>
        <time>2011-04-03T15:40:18Z</time>
      </trkpt>
      <trkpt lat="45.50785" lon="6.05768">
        <ele>373.61</ele>
        <time>2011-04-03T15:40:19Z</time>
      </trkpt>
      <trkpt lat="45.50785" lon="6.05767">
        <ele>373.61</ele>
        <time>2011-04-03T15:40:20Z</time>
      </trkpt>
      <trkpt lat="45.50784" lon="6.05765">
        <ele>374.57</ele>
        <time>2011-04-03T15:40:21Z</time>
      </trkpt>
      <trkpt lat="45.50784" lon="6.05765">
        <ele>374.09</ele>
        <time>2011-04-03T15:40:22Z</time>
      </trkpt>
      <trkpt lat="45.50782" lon="6.05764">
        <ele>374.09</ele>
        <time>2011-04-03T15:40:23Z</time>
      </trkpt>
      <trkpt lat="45.50782" lon="6.05763">
        <ele>374.09</ele>
        <time>2011-04-03T15:40:24Z</time>
      </trkpt>
      <trkpt lat="45.50781" lon="6.05762">
        <ele>373.61</ele>
        <time>2011-04-03T15:40:25Z</time>
      </trkpt>
      <trkpt lat="45.50779" lon="6.05754">
        <ele>375.53</ele>
        <time>2011-04-03T15:40:30Z</time>
      </trkpt>
      <trkpt lat="45.50761" lon="6.05722">
        <ele>375.05</ele>
        <time>2011-04-03T15:40:43Z</time>
      </trkpt>
      <trkpt lat="45.50753" lon="6.05706">
        <ele>373.61</ele>
        <time>2011-04-03T15:40:46Z</time>
      </trkpt>
      <trkpt lat="45.5075" lon="6.057">
        <ele>373.61</ele>
        <time>2011-04-03T15:40:47Z</time>
      </trkpt>
      <trkpt lat="45.50748" lon="6.05693">
        <ele>372.65</ele>
        <time>2011-04-03T15:40:48Z</time>
      </trkpt>
      <trkpt lat="45.50746" lon="6.05686">
        <ele>372.65</ele>
        <time>2011-04-03T15:40:49Z</time>
      </trkpt>
      <trkpt lat="45.50743" lon="6.05679">
        <ele>372.65</ele>
        <time>2011-04-03T15:40:50Z</time>
      </trkpt>
      <trkpt lat="45.50729" lon="6.05618">
        <ele>369.28</ele>
        <time>2011-04-03T15:40:57Z</time>
      </trkpt>
      <trkpt lat="45.50723" lon="6.05565">
        <ele>369.28</ele>
        <time>2011-04-03T15:41:02Z</time>
      </trkpt>
      <trkpt lat="45.50721" lon="6.05555">
        <ele>369.28</ele>
        <time>2011-04-03T15:41:03Z</time>
      </trkpt>
      <trkpt lat="45.50716" lon="6.05547">
        <ele>368.8</ele>
        <time>2011-04-03T15:41:04Z</time>
      </trkpt>
      <trkpt lat="45.50711" lon="6.05542">
        <ele>364</ele>
        <time>2011-04-03T15:41:05Z</time>
      </trkpt>
      <trkpt lat="45.50705" lon="6.05539">
        <ele>363.52</ele>
        <time>2011-04-03T15:41:06Z</time>
      </trkpt>
      <trkpt lat="45.50701" lon="6.05534">
        <ele>363.04</ele>
        <time>2011-04-03T15:41:07Z</time>
      </trkpt>
      <trkpt lat="45.50698" lon="6.05527">
        <ele>363.52</ele>
        <time>2011-04-03T15:41:08Z</time>
      </trkpt>
      <trkpt lat="45.50696" lon="6.0552">
        <ele>363.04</ele>
        <time>2011-04-03T15:41:09Z</time>
      </trkpt>
      <trkpt lat="45.50695" lon="6.05512">
        <ele>363.04</ele>
        <time>2011-04-03T15:41:10Z</time>
      </trkpt>
      <trkpt lat="45.50694" lon="6.05505">
        <ele>363.04</ele>
        <time>2011-04-03T15:41:11Z</time>
      </trkpt>
      <trkpt lat="45.50693" lon="6.05491">
        <ele>363.04</ele>
        <time>2011-04-03T15:41:13Z</time>
      </trkpt>
      <trkpt lat="45.50688" lon="6.05457">
        <ele>363.04</ele>
        <time>2011-04-03T15:41:18Z</time>
      </trkpt>
      <trkpt lat="45.50688" lon="6.0545">
        <ele>363.04</ele>
        <time>2011-04-03T15:41:19Z</time>
      </trkpt>
      <trkpt lat="45.50695" lon="6.05385">
        <ele>364.96</ele>
        <time>2011-04-03T15:41:32Z</time>
      </trkpt>
      <trkpt lat="45.50694" lon="6.05335">
        <ele>364.96</ele>
        <time>2011-04-03T15:41:43Z</time>
      </trkpt>
      <trkpt lat="45.50693" lon="6.0533">
        <ele>365.44</ele>
        <time>2011-04-03T15:41:44Z</time>
      </trkpt>
      <trkpt lat="45.50686" lon="6.05304">
        <ele>365.92</ele>
        <time>2011-04-03T15:41:49Z</time>
      </trkpt>
      <trkpt lat="45.50684" lon="6.05298">
        <ele>365.92</ele>
        <time>2011-04-03T15:41:50Z</time>
      </trkpt>
      <trkpt lat="45.50681" lon="6.05292">
        <ele>365.44</ele>
        <time>2011-04-03T15:41:51Z</time>
      </trkpt>
      <trkpt lat="45.50666" lon="6.05261">
        <ele>362.55</ele>
        <time>2011-04-03T15:41:55Z</time>
      </trkpt>
      <trkpt lat="45.50662" lon="6.0525">
        <ele>361.59</ele>
        <time>2011-04-03T15:41:56Z</time>
      </trkpt>
      <trkpt lat="45.50652" lon="6.05212">
        <ele>358.23</ele>
        <time>2011-04-03T15:41:59Z</time>
      </trkpt>
      <trkpt lat="45.50644" lon="6.05184">
        <ele>355.34</ele>
        <time>2011-04-03T15:42:01Z</time>
      </trkpt>
      <trkpt lat="45.50637" lon="6.0517">
        <ele>355.34</ele>
        <time>2011-04-03T15:42:02Z</time>
      </trkpt>
      <trkpt lat="45.50625" lon="6.05143">
        <ele>351.5</ele>
        <time>2011-04-03T15:42:04Z</time>
      </trkpt>
      <trkpt lat="45.50619" lon="6.05129">
        <ele>349.1</ele>
        <time>2011-04-03T15:42:05Z</time>
      </trkpt>
      <trkpt lat="45.50615" lon="6.05113">
        <ele>349.1</ele>
        <time>2011-04-03T15:42:06Z</time>
      </trkpt>
      <trkpt lat="45.50613" lon="6.05096">
        <ele>347.65</ele>
        <time>2011-04-03T15:42:07Z</time>
      </trkpt>
      <trkpt lat="45.50611" lon="6.0508">
        <ele>346.69</ele>
        <time>2011-04-03T15:42:08Z</time>
      </trkpt>
      <trkpt lat="45.5061" lon="6.05065">
        <ele>345.25</ele>
        <time>2011-04-03T15:42:09Z</time>
      </trkpt>
      <trkpt lat="45.50608" lon="6.05052">
        <ele>343.81</ele>
        <time>2011-04-03T15:42:10Z</time>
      </trkpt>
      <trkpt lat="45.50605" lon="6.05042">
        <ele>341.89</ele>
        <time>2011-04-03T15:42:11Z</time>
      </trkpt>
      <trkpt lat="45.506" lon="6.05036">
        <ele>341.89</ele>
        <time>2011-04-03T15:42:12Z</time>
      </trkpt>
      <trkpt lat="45.50594" lon="6.05035">
        <ele>341.89</ele>
        <time>2011-04-03T15:42:13Z</time>
      </trkpt>
      <trkpt lat="45.50588" lon="6.05033">
        <ele>341.41</ele>
        <time>2011-04-03T15:42:14Z</time>
      </trkpt>
      <trkpt lat="45.50584" lon="6.0503">
        <ele>341.41</ele>
        <time>2011-04-03T15:42:15Z</time>
      </trkpt>
      <trkpt lat="45.50583" lon="6.05027">
        <ele>342.37</ele>
        <time>2011-04-03T15:42:16Z</time>
      </trkpt>
      <trkpt lat="45.50581" lon="6.05025">
        <ele>342.37</ele>
        <time>2011-04-03T15:42:17Z</time>
      </trkpt>
      <trkpt lat="45.5058" lon="6.05023">
        <ele>342.85</ele>
        <time>2011-04-03T15:42:18Z</time>
      </trkpt>
      <trkpt lat="45.50578" lon="6.05022">
        <ele>343.33</ele>
        <time>2011-04-03T15:42:19Z</time>
      </trkpt>
      <trkpt lat="45.5057" lon="6.05003">
        <ele>344.29</ele>
        <time>2011-04-03T15:42:29Z</time>
      </trkpt>
      <trkpt lat="45.50569" lon="6.05002">
        <ele>344.29</ele>
        <time>2011-04-03T15:42:30Z</time>
      </trkpt>
      <trkpt lat="45.50568" lon="6.05">
        <ele>344.29</ele>
        <time>2011-04-03T15:42:31Z</time>
      </trkpt>
      <trkpt lat="45.50568" lon="6.04999">
        <ele>345.25</ele>
        <time>2011-04-03T15:42:32Z</time>
      </trkpt>
      <trkpt lat="45.50568" lon="6.04997">
        <ele>345.73</ele>
        <time>2011-04-03T15:42:33Z</time>
      </trkpt>
      <trkpt lat="45.50567" lon="6.04995">
        <ele>345.73</ele>
        <time>2011-04-03T15:42:34Z</time>
      </trkpt>
      <trkpt lat="45.50567" lon="6.04994">
        <ele>345.73</ele>
        <time>2011-04-03T15:42:35Z</time>
      </trkpt>
      <trkpt lat="45.50552" lon="6.04959">
        <ele>347.17</ele>
        <time>2011-04-03T15:42:51Z</time>
      </trkpt>
      <trkpt lat="45.5055" lon="6.04955">
        <ele>348.13</ele>
        <time>2011-04-03T15:42:53Z</time>
      </trkpt>
      <trkpt lat="45.50533" lon="6.04925">
        <ele>347.65</ele>
        <time>2011-04-03T15:43:06Z</time>
      </trkpt>
      <trkpt lat="45.5053" lon="6.04921">
        <ele>347.65</ele>
        <time>2011-04-03T15:43:07Z</time>
      </trkpt>
      <trkpt lat="45.50521" lon="6.0491">
        <ele>346.21</ele>
        <time>2011-04-03T15:43:09Z</time>
      </trkpt>
      <trkpt lat="45.50499" lon="6.04889">
        <ele>342.85</ele>
        <time>2011-04-03T15:43:13Z</time>
      </trkpt>
      <trkpt lat="45.50492" lon="6.04883">
        <ele>342.85</ele>
        <time>2011-04-03T15:43:14Z</time>
      </trkpt>
      <trkpt lat="45.50471" lon="6.04868">
        <ele>339.48</ele>
        <time>2011-04-03T15:43:17Z</time>
      </trkpt>
      <trkpt lat="45.50464" lon="6.04864">
        <ele>339.48</ele>
        <time>2011-04-03T15:43:18Z</time>
      </trkpt>
      <trkpt lat="45.50457" lon="6.0486">
        <ele>338.52</ele>
        <time>2011-04-03T15:43:19Z</time>
      </trkpt>
      <trkpt lat="45.50451" lon="6.04857">
        <ele>338.04</ele>
        <time>2011-04-03T15:43:20Z</time>
      </trkpt>
      <trkpt lat="45.50445" lon="6.04851">
        <ele>338.52</ele>
        <time>2011-04-03T15:43:21Z</time>
      </trkpt>
      <trkpt lat="45.50441" lon="6.04844">
        <ele>338.04</ele>
        <time>2011-04-03T15:43:22Z</time>
      </trkpt>
      <trkpt lat="45.50439" lon="6.04836">
        <ele>338.52</ele>
        <time>2011-04-03T15:43:23Z</time>
      </trkpt>
      <trkpt lat="45.50437" lon="6.04828">
        <ele>337.08</ele>
        <time>2011-04-03T15:43:24Z</time>
      </trkpt>
      <trkpt lat="45.50435" lon="6.04822">
        <ele>338.04</ele>
        <time>2011-04-03T15:43:25Z</time>
      </trkpt>
      <trkpt lat="45.50433" lon="6.04816">
        <ele>337.08</ele>
        <time>2011-04-03T15:43:26Z</time>
      </trkpt>
      <trkpt lat="45.50431" lon="6.04811">
        <ele>337.56</ele>
        <time>2011-04-03T15:43:27Z</time>
      </trkpt>
      <trkpt lat="45.50415" lon="6.04774">
        <ele>337.08</ele>
        <time>2011-04-03T15:43:37Z</time>
      </trkpt>
      <trkpt lat="45.5041" lon="6.04772">
        <ele>336.12</ele>
        <time>2011-04-03T15:43:38Z</time>
      </trkpt>
      <trkpt lat="45.50404" lon="6.04772">
        <ele>335.64</ele>
        <time>2011-04-03T15:43:39Z</time>
      </trkpt>
      <trkpt lat="45.50392" lon="6.04771">
        <ele>333.71</ele>
        <time>2011-04-03T15:43:41Z</time>
      </trkpt>
      <trkpt lat="45.50389" lon="6.04767">
        <ele>333.23</ele>
        <time>2011-04-03T15:43:42Z</time>
      </trkpt>
      <trkpt lat="45.50388" lon="6.04761">
        <ele>332.75</ele>
        <time>2011-04-03T15:43:43Z</time>
      </trkpt>
      <trkpt lat="45.50387" lon="6.04755">
        <ele>332.75</ele>
        <time>2011-04-03T15:43:44Z</time>
      </trkpt>
      <trkpt lat="45.50386" lon="6.04749">
        <ele>332.75</ele>
        <time>2011-04-03T15:43:45Z</time>
      </trkpt>
      <trkpt lat="45.50377" lon="6.0464">
        <ele>331.31</ele>
        <time>2011-04-03T15:44:02Z</time>
      </trkpt>
      <trkpt lat="45.50377" lon="6.04627">
        <ele>331.79</ele>
        <time>2011-04-03T15:44:04Z</time>
      </trkpt>
      <trkpt lat="45.50377" lon="6.04529">
        <ele>331.31</ele>
        <time>2011-04-03T15:44:19Z</time>
      </trkpt>
      <trkpt lat="45.5038" lon="6.04489">
        <ele>330.83</ele>
        <time>2011-04-03T15:44:25Z</time>
      </trkpt>
      <trkpt lat="45.50386" lon="6.04425">
        <ele>330.83</ele>
        <time>2011-04-03T15:44:36Z</time>
      </trkpt>
      <trkpt lat="45.50386" lon="6.04417">
        <ele>328.43</ele>
        <time>2011-04-03T15:44:37Z</time>
      </trkpt>
      <trkpt lat="45.50387" lon="6.04403">
        <ele>327.47</ele>
        <time>2011-04-03T15:44:39Z</time>
      </trkpt>
      <trkpt lat="45.5039" lon="6.0439">
        <ele>324.1</ele>
        <time>2011-04-03T15:44:41Z</time>
      </trkpt>
      <trkpt lat="45.50391" lon="6.04376">
        <ele>324.1</ele>
        <time>2011-04-03T15:44:43Z</time>
      </trkpt>
      <trkpt lat="45.50392" lon="6.04368">
        <ele>323.14</ele>
        <time>2011-04-03T15:44:44Z</time>
      </trkpt>
      <trkpt lat="45.50405" lon="6.04303">
        <ele>319.78</ele>
        <time>2011-04-03T15:44:52Z</time>
      </trkpt>
      <trkpt lat="45.50415" lon="6.04258">
        <ele>317.37</ele>
        <time>2011-04-03T15:44:57Z</time>
      </trkpt>
      <trkpt lat="45.50427" lon="6.04223">
        <ele>316.89</ele>
        <time>2011-04-03T15:45:01Z</time>
      </trkpt>
      <trkpt lat="45.5043" lon="6.04215">
        <ele>315.93</ele>
        <time>2011-04-03T15:45:02Z</time>
      </trkpt>
      <trkpt lat="45.50432" lon="6.04207">
        <ele>315.45</ele>
        <time>2011-04-03T15:45:03Z</time>
      </trkpt>
      <trkpt lat="45.50431" lon="6.04199">
        <ele>315.45</ele>
        <time>2011-04-03T15:45:04Z</time>
      </trkpt>
      <trkpt lat="45.50429" lon="6.04192">
        <ele>314.49</ele>
        <time>2011-04-03T15:45:05Z</time>
      </trkpt>
      <trkpt lat="45.50425" lon="6.04186">
        <ele>313.53</ele>
        <time>2011-04-03T15:45:06Z</time>
      </trkpt>
      <trkpt lat="45.5042" lon="6.04182">
        <ele>313.05</ele>
        <time>2011-04-03T15:45:07Z</time>
      </trkpt>
      <trkpt lat="45.50415" lon="6.04177">
        <ele>313.53</ele>
        <time>2011-04-03T15:45:08Z</time>
      </trkpt>
      <trkpt lat="45.50399" lon="6.04156">
        <ele>313.53</ele>
        <time>2011-04-03T15:45:13Z</time>
      </trkpt>
      <trkpt lat="45.504" lon="6.04152">
        <ele>312.57</ele>
        <time>2011-04-03T15:45:14Z</time>
      </trkpt>
      <trkpt lat="45.50401" lon="6.04147">
        <ele>312.09</ele>
        <time>2011-04-03T15:45:15Z</time>
      </trkpt>
      <trkpt lat="45.50409" lon="6.04121">
        <ele>310.64</ele>
        <time>2011-04-03T15:45:21Z</time>
      </trkpt>
      <trkpt lat="45.50439" lon="6.0404">
        <ele>307.76</ele>
        <time>2011-04-03T15:45:34Z</time>
      </trkpt>
      <trkpt lat="45.50444" lon="6.04027">
        <ele>306.8</ele>
        <time>2011-04-03T15:45:36Z</time>
      </trkpt>
      <trkpt lat="45.50447" lon="6.0402">
        <ele>306.8</ele>
        <time>2011-04-03T15:45:37Z</time>
      </trkpt>
      <trkpt lat="45.50449" lon="6.04014">
        <ele>306.8</ele>
        <time>2011-04-03T15:45:38Z</time>
      </trkpt>
      <trkpt lat="45.50452" lon="6.04007">
        <ele>306.32</ele>
        <time>2011-04-03T15:45:39Z</time>
      </trkpt>
      <trkpt lat="45.50454" lon="6.04">
        <ele>306.8</ele>
        <time>2011-04-03T15:45:40Z</time>
      </trkpt>
      <trkpt lat="45.50454" lon="6.03993">
        <ele>306.8</ele>
        <time>2011-04-03T15:45:41Z</time>
      </trkpt>
      <trkpt lat="45.50451" lon="6.03987">
        <ele>306.32</ele>
        <time>2011-04-03T15:45:42Z</time>
      </trkpt>
      <trkpt lat="45.50447" lon="6.03981">
        <ele>305.84</ele>
        <time>2011-04-03T15:45:43Z</time>
      </trkpt>
      <trkpt lat="45.50441" lon="6.03977">
        <ele>305.36</ele>
        <time>2011-04-03T15:45:44Z</time>
      </trkpt>
      <trkpt lat="45.50436" lon="6.03973">
        <ele>304.39</ele>
        <time>2011-04-03T15:45:45Z</time>
      </trkpt>
      <trkpt lat="45.5043" lon="6.0397">
        <ele>304.39</ele>
        <time>2011-04-03T15:45:46Z</time>
      </trkpt>
      <trkpt lat="45.50418" lon="6.03963">
        <ele>304.39</ele>
        <time>2011-04-03T15:45:48Z</time>
      </trkpt>
      <trkpt lat="45.50414" lon="6.03958">
        <ele>303.91</ele>
        <time>2011-04-03T15:45:49Z</time>
      </trkpt>
      <trkpt lat="45.50412" lon="6.03953">
        <ele>304.39</ele>
        <time>2011-04-03T15:45:50Z</time>
      </trkpt>
      <trkpt lat="45.50413" lon="6.03948">
        <ele>304.39</ele>
        <time>2011-04-03T15:45:51Z</time>
      </trkpt>
      <trkpt lat="45.50414" lon="6.03943">
        <ele>304.39</ele>
        <time>2011-04-03T15:45:52Z</time>
      </trkpt>
      <trkpt lat="45.50415" lon="6.03938">
        <ele>304.88</ele>
        <time>2011-04-03T15:45:53Z</time>
      </trkpt>
      <trkpt lat="45.50416" lon="6.03922">
        <ele>304.39</ele>
        <time>2011-04-03T15:45:57Z</time>
      </trkpt>
      <trkpt lat="45.50417" lon="6.03918">
        <ele>304.39</ele>
        <time>2011-04-03T15:45:58Z</time>
      </trkpt>
      <trkpt lat="45.50419" lon="6.03915">
        <ele>304.39</ele>
        <time>2011-04-03T15:45:59Z</time>
      </trkpt>
      <trkpt lat="45.50419" lon="6.03911">
        <ele>303.91</ele>
        <time>2011-04-03T15:46:00Z</time>
      </trkpt>
      <trkpt lat="45.5042" lon="6.03907">
        <ele>304.39</ele>
        <time>2011-04-03T15:46:01Z</time>
      </trkpt>
      <trkpt lat="45.5042" lon="6.03902">
        <ele>303.91</ele>
        <time>2011-04-03T15:46:02Z</time>
      </trkpt>
      <trkpt lat="45.5042" lon="6.03897">
        <ele>303.91</ele>
        <time>2011-04-03T15:46:03Z</time>
      </trkpt>
      <trkpt lat="45.50419" lon="6.03892">
        <ele>303.91</ele>
        <time>2011-04-03T15:46:04Z</time>
      </trkpt>
      <trkpt lat="45.50413" lon="6.03878">
        <ele>303.91</ele>
        <time>2011-04-03T15:46:07Z</time>
      </trkpt>
      <trkpt lat="45.50409" lon="6.03874">
        <ele>303.91</ele>
        <time>2011-04-03T15:46:08Z</time>
      </trkpt>
      <trkpt lat="45.50406" lon="6.03872">
        <ele>304.39</ele>
        <time>2011-04-03T15:46:09Z</time>
      </trkpt>
      <trkpt lat="45.50401" lon="6.0387">
        <ele>303.91</ele>
        <time>2011-04-03T15:46:10Z</time>
      </trkpt>
      <trkpt lat="45.50396" lon="6.03869">
        <ele>303.43</ele>
        <time>2011-04-03T15:46:11Z</time>
      </trkpt>
      <trkpt lat="45.50392" lon="6.0387">
        <ele>303.91</ele>
        <time>2011-04-03T15:46:12Z</time>
      </trkpt>
      <trkpt lat="45.50387" lon="6.03872">
        <ele>303.43</ele>
        <time>2011-04-03T15:46:13Z</time>
      </trkpt>
      <trkpt lat="45.50383" lon="6.03874">
        <ele>303.43</ele>
        <time>2011-04-03T15:46:14Z</time>
      </trkpt>
      <trkpt lat="45.5038" lon="6.03879">
        <ele>303.91</ele>
        <time>2011-04-03T15:46:15Z</time>
      </trkpt>
      <trkpt lat="45.50377" lon="6.03884">
        <ele>304.39</ele>
        <time>2011-04-03T15:46:16Z</time>
      </trkpt>
      <trkpt lat="45.50375" lon="6.03889">
        <ele>303.91</ele>
        <time>2011-04-03T15:46:17Z</time>
      </trkpt>
      <trkpt lat="45.50372" lon="6.03895">
        <ele>304.39</ele>
        <time>2011-04-03T15:46:18Z</time>
      </trkpt>
      <trkpt lat="45.5037" lon="6.03901">
        <ele>303.91</ele>
        <time>2011-04-03T15:46:19Z</time>
      </trkpt>
      <trkpt lat="45.50366" lon="6.03906">
        <ele>304.39</ele>
        <time>2011-04-03T15:46:20Z</time>
      </trkpt>
      <trkpt lat="45.50362" lon="6.0391">
        <ele>303.91</ele>
        <time>2011-04-03T15:46:21Z</time>
      </trkpt>
      <trkpt lat="45.50358" lon="6.03914">
        <ele>305.36</ele>
        <time>2011-04-03T15:46:22Z</time>
      </trkpt>
      <trkpt lat="45.50353" lon="6.03916">
        <ele>304.88</ele>
        <time>2011-04-03T15:46:23Z</time>
      </trkpt>
      <trkpt lat="45.50349" lon="6.03916">
        <ele>305.84</ele>
        <time>2011-04-03T15:46:24Z</time>
      </trkpt>
      <trkpt lat="45.50345" lon="6.03914">
        <ele>305.84</ele>
        <time>2011-04-03T15:46:25Z</time>
      </trkpt>
      <trkpt lat="45.5034" lon="6.03913">
        <ele>305.84</ele>
        <time>2011-04-03T15:46:26Z</time>
      </trkpt>
      <trkpt lat="45.50335" lon="6.03912">
        <ele>304.88</ele>
        <time>2011-04-03T15:46:27Z</time>
      </trkpt>
      <trkpt lat="45.5033" lon="6.03909">
        <ele>305.36</ele>
        <time>2011-04-03T15:46:28Z</time>
      </trkpt>
      <trkpt lat="45.50325" lon="6.03906">
        <ele>306.32</ele>
        <time>2011-04-03T15:46:29Z</time>
      </trkpt>
      <trkpt lat="45.50322" lon="6.03902">
        <ele>306.8</ele>
        <time>2011-04-03T15:46:30Z</time>
      </trkpt>
      <trkpt lat="45.50318" lon="6.03897">
        <ele>305.84</ele>
        <time>2011-04-03T15:46:31Z</time>
      </trkpt>
      <trkpt lat="45.50314" lon="6.03894">
        <ele>306.32</ele>
        <time>2011-04-03T15:46:32Z</time>
      </trkpt>
      <trkpt lat="45.50311" lon="6.03891">
        <ele>306.8</ele>
        <time>2011-04-03T15:46:33Z</time>
      </trkpt>
      <trkpt lat="45.50308" lon="6.03887">
        <ele>306.8</ele>
        <time>2011-04-03T15:46:34Z</time>
      </trkpt>
      <trkpt lat="45.50306" lon="6.03883">
        <ele>306.8</ele>
        <time>2011-04-03T15:46:35Z</time>
      </trkpt>
      <trkpt lat="45.50274" lon="6.03828">
        <ele>307.76</ele>
        <time>2011-04-03T15:46:48Z</time>
      </trkpt>
      <trkpt lat="45.50272" lon="6.03823">
        <ele>307.28</ele>
        <time>2011-04-03T15:46:49Z</time>
      </trkpt>
      <trkpt lat="45.50269" lon="6.03819">
        <ele>307.76</ele>
        <time>2011-04-03T15:46:50Z</time>
      </trkpt>
      <trkpt lat="45.50266" lon="6.03815">
        <ele>308.72</ele>
        <time>2011-04-03T15:46:51Z</time>
      </trkpt>
      <trkpt lat="45.50263" lon="6.03812">
        <ele>308.24</ele>
        <time>2011-04-03T15:46:52Z</time>
      </trkpt>
      <trkpt lat="45.50259" lon="6.03811">
        <ele>309.68</ele>
        <time>2011-04-03T15:46:53Z</time>
      </trkpt>
      <trkpt lat="45.50255" lon="6.0381">
        <ele>308.72</ele>
        <time>2011-04-03T15:46:54Z</time>
      </trkpt>
      <trkpt lat="45.50251" lon="6.03811">
        <ele>308.72</ele>
        <time>2011-04-03T15:46:55Z</time>
      </trkpt>
      <trkpt lat="45.50247" lon="6.03814">
        <ele>307.76</ele>
        <time>2011-04-03T15:46:56Z</time>
      </trkpt>
      <trkpt lat="45.50243" lon="6.03816">
        <ele>307.76</ele>
        <time>2011-04-03T15:46:57Z</time>
      </trkpt>
      <trkpt lat="45.50238" lon="6.03819">
        <ele>307.28</ele>
        <time>2011-04-03T15:46:58Z</time>
      </trkpt>
      <trkpt lat="45.50234" lon="6.03821">
        <ele>307.76</ele>
        <time>2011-04-03T15:46:59Z</time>
      </trkpt>
      <trkpt lat="45.50226" lon="6.03828">
        <ele>308.24</ele>
        <time>2011-04-03T15:47:01Z</time>
      </trkpt>
      <trkpt lat="45.50222" lon="6.03832">
        <ele>308.24</ele>
        <time>2011-04-03T15:47:02Z</time>
      </trkpt>
      <trkpt lat="45.50217" lon="6.03835">
        <ele>308.24</ele>
        <time>2011-04-03T15:47:03Z</time>
      </trkpt>
      <trkpt lat="45.50213" lon="6.03837">
        <ele>307.76</ele>
        <time>2011-04-03T15:47:04Z</time>
      </trkpt>
      <trkpt lat="45.50209" lon="6.03839">
        <ele>308.24</ele>
        <time>2011-04-03T15:47:05Z</time>
      </trkpt>
      <trkpt lat="45.50205" lon="6.03841">
        <ele>308.72</ele>
        <time>2011-04-03T15:47:06Z</time>
      </trkpt>
      <trkpt lat="45.502" lon="6.03843">
        <ele>308.72</ele>
        <time>2011-04-03T15:47:07Z</time>
      </trkpt>
      <trkpt lat="45.50122" lon="6.03893">
        <ele>309.68</ele>
        <time>2011-04-03T15:47:24Z</time>
      </trkpt>
      <trkpt lat="45.50062" lon="6.0393">
        <ele>313.05</ele>
        <time>2011-04-03T15:47:38Z</time>
      </trkpt>
      <trkpt lat="45.50018" lon="6.0395">
        <ele>314.01</ele>
        <time>2011-04-03T15:47:48Z</time>
      </trkpt>
      <trkpt lat="45.49979" lon="6.03948">
        <ele>313.53</ele>
        <time>2011-04-03T15:47:55Z</time>
      </trkpt>
      <trkpt lat="45.49974" lon="6.03944">
        <ele>313.05</ele>
        <time>2011-04-03T15:47:56Z</time>
      </trkpt>
      <trkpt lat="45.49971" lon="6.03939">
        <ele>312.57</ele>
        <time>2011-04-03T15:47:57Z</time>
      </trkpt>
      <trkpt lat="45.4997" lon="6.03932">
        <ele>313.05</ele>
        <time>2011-04-03T15:47:58Z</time>
      </trkpt>
      <trkpt lat="45.49969" lon="6.03925">
        <ele>313.53</ele>
        <time>2011-04-03T15:47:59Z</time>
      </trkpt>
      <trkpt lat="45.49963" lon="6.03891">
        <ele>314.49</ele>
        <time>2011-04-03T15:48:05Z</time>
      </trkpt>
      <trkpt lat="45.49962" lon="6.03886">
        <ele>314.97</ele>
        <time>2011-04-03T15:48:06Z</time>
      </trkpt>
      <trkpt lat="45.49954" lon="6.03871">
        <ele>316.41</ele>
        <time>2011-04-03T15:48:09Z</time>
      </trkpt>
      <trkpt lat="45.49931" lon="6.03819">
        <ele>317.85</ele>
        <time>2011-04-03T15:48:21Z</time>
      </trkpt>
      <trkpt lat="45.49923" lon="6.038">
        <ele>317.85</ele>
        <time>2011-04-03T15:48:25Z</time>
      </trkpt>
      <trkpt lat="45.4992" lon="6.03794">
        <ele>317.37</ele>
        <time>2011-04-03T15:48:26Z</time>
      </trkpt>
      <trkpt lat="45.4991" lon="6.03769">
        <ele>316.41</ele>
        <time>2011-04-03T15:48:30Z</time>
      </trkpt>
      <trkpt lat="45.49908" lon="6.03761">
        <ele>315.93</ele>
        <time>2011-04-03T15:48:31Z</time>
      </trkpt>
      <trkpt lat="45.49906" lon="6.03752">
        <ele>314.97</ele>
        <time>2011-04-03T15:48:32Z</time>
      </trkpt>
      <trkpt lat="45.49905" lon="6.03743">
        <ele>314.49</ele>
        <time>2011-04-03T15:48:33Z</time>
      </trkpt>
      <trkpt lat="45.49905" lon="6.03732">
        <ele>314.01</ele>
        <time>2011-04-03T15:48:34Z</time>
      </trkpt>
      <trkpt lat="45.49905" lon="6.03722">
        <ele>314.49</ele>
        <time>2011-04-03T15:48:35Z</time>
      </trkpt>
      <trkpt lat="45.49909" lon="6.03612">
        <ele>313.53</ele>
        <time>2011-04-03T15:48:47Z</time>
      </trkpt>
      <trkpt lat="45.49912" lon="6.03556">
        <ele>316.89</ele>
        <time>2011-04-03T15:48:59Z</time>
      </trkpt>
      <trkpt lat="45.49915" lon="6.03504">
        <ele>318.33</ele>
        <time>2011-04-03T15:49:10Z</time>
      </trkpt>
      <trkpt lat="45.49913" lon="6.0343">
        <ele>317.85</ele>
        <time>2011-04-03T15:49:25Z</time>
      </trkpt>
      <trkpt lat="45.49911" lon="6.03418">
        <ele>317.85</ele>
        <time>2011-04-03T15:49:27Z</time>
      </trkpt>
      <trkpt lat="45.49906" lon="6.03401">
        <ele>317.37</ele>
        <time>2011-04-03T15:49:29Z</time>
      </trkpt>
      <trkpt lat="45.49905" lon="6.03391">
        <ele>315.93</ele>
        <time>2011-04-03T15:49:30Z</time>
      </trkpt>
      <trkpt lat="45.49905" lon="6.03367">
        <ele>314.97</ele>
        <time>2011-04-03T15:49:32Z</time>
      </trkpt>
      <trkpt lat="45.49897" lon="6.03257">
        <ele>314.49</ele>
        <time>2011-04-03T15:49:43Z</time>
      </trkpt>
      <trkpt lat="45.49905" lon="6.03156">
        <ele>313.53</ele>
        <time>2011-04-03T15:49:56Z</time>
      </trkpt>
      <trkpt lat="45.49921" lon="6.03046">
        <ele>311.6</ele>
        <time>2011-04-03T15:50:13Z</time>
      </trkpt>
      <trkpt lat="45.49925" lon="6.02974">
        <ele>310.16</ele>
        <time>2011-04-03T15:50:22Z</time>
      </trkpt>
      <trkpt lat="45.49925" lon="6.02967">
        <ele>311.12</ele>
        <time>2011-04-03T15:50:23Z</time>
      </trkpt>
      <trkpt lat="45.49925" lon="6.02961">
        <ele>310.64</ele>
        <time>2011-04-03T15:50:24Z</time>
      </trkpt>
      <trkpt lat="45.49925" lon="6.02934">
        <ele>310.64</ele>
        <time>2011-04-03T15:50:28Z</time>
      </trkpt>
      <trkpt lat="45.49926" lon="6.02927">
        <ele>310.16</ele>
        <time>2011-04-03T15:50:29Z</time>
      </trkpt>
      <trkpt lat="45.49927" lon="6.0292">
        <ele>310.16</ele>
        <time>2011-04-03T15:50:30Z</time>
      </trkpt>
      <trkpt lat="45.49931" lon="6.02894">
        <ele>310.16</ele>
        <time>2011-04-03T15:50:34Z</time>
      </trkpt>
      <trkpt lat="45.49931" lon="6.02888">
        <ele>310.64</ele>
        <time>2011-04-03T15:50:35Z</time>
      </trkpt>
      <trkpt lat="45.49931" lon="6.02881">
        <ele>310.16</ele>
        <time>2011-04-03T15:50:36Z</time>
      </trkpt>
      <trkpt lat="45.49932" lon="6.02834">
        <ele>311.12</ele>
        <time>2011-04-03T15:50:43Z</time>
      </trkpt>
      <trkpt lat="45.49934" lon="6.02815">
        <ele>311.12</ele>
        <time>2011-04-03T15:50:46Z</time>
      </trkpt>
      <trkpt lat="45.4995" lon="6.02745">
        <ele>312.57</ele>
        <time>2011-04-03T15:51:00Z</time>
      </trkpt>
      <trkpt lat="45.49949" lon="6.02728">
        <ele>313.53</ele>
        <time>2011-04-03T15:51:03Z</time>
      </trkpt>
      <trkpt lat="45.49948" lon="6.02722">
        <ele>313.53</ele>
        <time>2011-04-03T15:51:04Z</time>
      </trkpt>
      <trkpt lat="45.49947" lon="6.02716">
        <ele>313.53</ele>
        <time>2011-04-03T15:51:05Z</time>
      </trkpt>
      <trkpt lat="45.49942" lon="6.02697">
        <ele>313.53</ele>
        <time>2011-04-03T15:51:08Z</time>
      </trkpt>
      <trkpt lat="45.49937" lon="6.02679">
        <ele>314.49</ele>
        <time>2011-04-03T15:51:11Z</time>
      </trkpt>
      <trkpt lat="45.49935" lon="6.02673">
        <ele>314.01</ele>
        <time>2011-04-03T15:51:12Z</time>
      </trkpt>
      <trkpt lat="45.49934" lon="6.02667">
        <ele>314.01</ele>
        <time>2011-04-03T15:51:13Z</time>
      </trkpt>
      <trkpt lat="45.49932" lon="6.02661">
        <ele>313.53</ele>
        <time>2011-04-03T15:51:14Z</time>
      </trkpt>
      <trkpt lat="45.49931" lon="6.02654">
        <ele>314.01</ele>
        <time>2011-04-03T15:51:15Z</time>
      </trkpt>
      <trkpt lat="45.4993" lon="6.02647">
        <ele>314.01</ele>
        <time>2011-04-03T15:51:16Z</time>
      </trkpt>
      <trkpt lat="45.49929" lon="6.02641">
        <ele>314.01</ele>
        <time>2011-04-03T15:51:17Z</time>
      </trkpt>
      <trkpt lat="45.49914" lon="6.02588">
        <ele>314.01</ele>
        <time>2011-04-03T15:51:25Z</time>
      </trkpt>
      <trkpt lat="45.49878" lon="6.02523">
        <ele>313.53</ele>
        <time>2011-04-03T15:51:37Z</time>
      </trkpt>
      <trkpt lat="45.49876" lon="6.02517">
        <ele>313.05</ele>
        <time>2011-04-03T15:51:38Z</time>
      </trkpt>
      <trkpt lat="45.49857" lon="6.0242">
        <ele>314.01</ele>
        <time>2011-04-03T15:51:53Z</time>
      </trkpt>
      <trkpt lat="45.49855" lon="6.02407">
        <ele>314.01</ele>
        <time>2011-04-03T15:51:55Z</time>
      </trkpt>
      <trkpt lat="45.49854" lon="6.024">
        <ele>314.01</ele>
        <time>2011-04-03T15:51:56Z</time>
      </trkpt>
      <trkpt lat="45.49853" lon="6.02336">
        <ele>312.57</ele>
        <time>2011-04-03T15:52:06Z</time>
      </trkpt>
      <trkpt lat="45.49854" lon="6.02319">
        <ele>312.09</ele>
        <time>2011-04-03T15:52:08Z</time>
      </trkpt>
      <trkpt lat="45.49857" lon="6.02288">
        <ele>310.16</ele>
        <time>2011-04-03T15:52:11Z</time>
      </trkpt>
      <trkpt lat="45.49856" lon="6.02277">
        <ele>309.2</ele>
        <time>2011-04-03T15:52:12Z</time>
      </trkpt>
      <trkpt lat="45.49854" lon="6.02267">
        <ele>308.24</ele>
        <time>2011-04-03T15:52:13Z</time>
      </trkpt>
      <trkpt lat="45.49847" lon="6.02254">
        <ele>306.8</ele>
        <time>2011-04-03T15:52:15Z</time>
      </trkpt>
      <trkpt lat="45.49831" lon="6.02258">
        <ele>301.51</ele>
        <time>2011-04-03T15:52:19Z</time>
      </trkpt>
      <trkpt lat="45.49826" lon="6.02279">
        <ele>300.55</ele>
        <time>2011-04-03T15:52:20Z</time>
      </trkpt>
      <trkpt lat="45.49822" lon="6.02278">
        <ele>298.63</ele>
        <time>2011-04-03T15:52:21Z</time>
      </trkpt>
      <trkpt lat="45.49813" lon="6.02296">
        <ele>297.18</ele>
        <time>2011-04-03T15:52:22Z</time>
      </trkpt>
      <trkpt lat="45.49806" lon="6.02309">
        <ele>296.22</ele>
        <time>2011-04-03T15:52:23Z</time>
      </trkpt>
      <trkpt lat="45.498" lon="6.02311">
        <ele>294.78</ele>
        <time>2011-04-03T15:52:24Z</time>
      </trkpt>
      <trkpt lat="45.49791" lon="6.02344">
        <ele>293.34</ele>
        <time>2011-04-03T15:52:25Z</time>
      </trkpt>
      <trkpt lat="45.49783" lon="6.02357">
        <ele>291.42</ele>
        <time>2011-04-03T15:52:26Z</time>
      </trkpt>
      <trkpt lat="45.49775" lon="6.02376">
        <ele>289.97</ele>
        <time>2011-04-03T15:52:27Z</time>
      </trkpt>
      <trkpt lat="45.49761" lon="6.02433">
        <ele>287.57</ele>
        <time>2011-04-03T15:52:29Z</time>
      </trkpt>
      <trkpt lat="45.49759" lon="6.02457">
        <ele>286.61</ele>
        <time>2011-04-03T15:52:30Z</time>
      </trkpt>
      <trkpt lat="45.49748" lon="6.02468">
        <ele>286.13</ele>
        <time>2011-04-03T15:52:31Z</time>
      </trkpt>
      <trkpt lat="45.49736" lon="6.02477">
        <ele>284.69</ele>
        <time>2011-04-03T15:52:32Z</time>
      </trkpt>
      <trkpt lat="45.49714" lon="6.02486">
        <ele>283.25</ele>
        <time>2011-04-03T15:52:34Z</time>
      </trkpt>
      <trkpt lat="45.49703" lon="6.02491">
        <ele>282.77</ele>
        <time>2011-04-03T15:52:35Z</time>
      </trkpt>
      <trkpt lat="45.49694" lon="6.02498">
        <ele>282.28</ele>
        <time>2011-04-03T15:52:36Z</time>
      </trkpt>
      <trkpt lat="45.49686" lon="6.02507">
        <ele>282.28</ele>
        <time>2011-04-03T15:52:37Z</time>
      </trkpt>
      <trkpt lat="45.49678" lon="6.02517">
        <ele>282.28</ele>
        <time>2011-04-03T15:52:38Z</time>
      </trkpt>
      <trkpt lat="45.49663" lon="6.02533">
        <ele>281.8</ele>
        <time>2011-04-03T15:52:40Z</time>
      </trkpt>
      <trkpt lat="45.49656" lon="6.02537">
        <ele>281.8</ele>
        <time>2011-04-03T15:52:41Z</time>
      </trkpt>
      <trkpt lat="45.49649" lon="6.02537">
        <ele>282.28</ele>
        <time>2011-04-03T15:52:42Z</time>
      </trkpt>
      <trkpt lat="45.49644" lon="6.02535">
        <ele>281.8</ele>
        <time>2011-04-03T15:52:43Z</time>
      </trkpt>
      <trkpt lat="45.4964" lon="6.02528">
        <ele>281.8</ele>
        <time>2011-04-03T15:52:44Z</time>
      </trkpt>
      <trkpt lat="45.49637" lon="6.02522">
        <ele>281.8</ele>
        <time>2011-04-03T15:52:45Z</time>
      </trkpt>
      <trkpt lat="45.49632" lon="6.02517">
        <ele>281.32</ele>
        <time>2011-04-03T15:52:46Z</time>
      </trkpt>
      <trkpt lat="45.4963" lon="6.02511">
        <ele>281.8</ele>
        <time>2011-04-03T15:52:47Z</time>
      </trkpt>
      <trkpt lat="45.49627" lon="6.02505">
        <ele>281.32</ele>
        <time>2011-04-03T15:52:48Z</time>
      </trkpt>
      <trkpt lat="45.49625" lon="6.02499">
        <ele>282.28</ele>
        <time>2011-04-03T15:52:49Z</time>
      </trkpt>
      <trkpt lat="45.49623" lon="6.02494">
        <ele>282.28</ele>
        <time>2011-04-03T15:52:50Z</time>
      </trkpt>
      <trkpt lat="45.49621" lon="6.02488">
        <ele>282.28</ele>
        <time>2011-04-03T15:52:51Z</time>
      </trkpt>
      <trkpt lat="45.49603" lon="6.02436">
        <ele>281.32</ele>
        <time>2011-04-03T15:53:00Z</time>
      </trkpt>
      <trkpt lat="45.49601" lon="6.02431">
        <ele>281.32</ele>
        <time>2011-04-03T15:53:01Z</time>
      </trkpt>
      <trkpt lat="45.49599" lon="6.02426">
        <ele>281.32</ele>
        <time>2011-04-03T15:53:02Z</time>
      </trkpt>
      <trkpt lat="45.4959" lon="6.02411">
        <ele>281.8</ele>
        <time>2011-04-03T15:53:05Z</time>
      </trkpt>
      <trkpt lat="45.49586" lon="6.02406">
        <ele>282.28</ele>
        <time>2011-04-03T15:53:06Z</time>
      </trkpt>
      <trkpt lat="45.49582" lon="6.02401">
        <ele>281.8</ele>
        <time>2011-04-03T15:53:07Z</time>
      </trkpt>
      <trkpt lat="45.49549" lon="6.02373">
        <ele>281.8</ele>
        <time>2011-04-03T15:53:15Z</time>
      </trkpt>
      <trkpt lat="45.49545" lon="6.02371">
        <ele>281.8</ele>
        <time>2011-04-03T15:53:16Z</time>
      </trkpt>
      <trkpt lat="45.4954" lon="6.02369">
        <ele>281.8</ele>
        <time>2011-04-03T15:53:17Z</time>
      </trkpt>
      <trkpt lat="45.49537" lon="6.02366">
        <ele>281.8</ele>
        <time>2011-04-03T15:53:18Z</time>
      </trkpt>
      <trkpt lat="45.49533" lon="6.02363">
        <ele>282.28</ele>
        <time>2011-04-03T15:53:19Z</time>
      </trkpt>
      <trkpt lat="45.49529" lon="6.0236">
        <ele>282.28</ele>
        <time>2011-04-03T15:53:20Z</time>
      </trkpt>
      <trkpt lat="45.49526" lon="6.02358">
        <ele>281.8</ele>
        <time>2011-04-03T15:53:21Z</time>
      </trkpt>
      <trkpt lat="45.49522" lon="6.02355">
        <ele>281.8</ele>
        <time>2011-04-03T15:53:22Z</time>
      </trkpt>
      <trkpt lat="45.49514" lon="6.02348">
        <ele>281.8</ele>
        <time>2011-04-03T15:53:24Z</time>
      </trkpt>
      <trkpt lat="45.49509" lon="6.02345">
        <ele>281.32</ele>
        <time>2011-04-03T15:53:25Z</time>
      </trkpt>
      <trkpt lat="45.49496" lon="6.02336">
        <ele>281.32</ele>
        <time>2011-04-03T15:53:28Z</time>
      </trkpt>
      <trkpt lat="45.49492" lon="6.02333">
        <ele>282.28</ele>
        <time>2011-04-03T15:53:29Z</time>
      </trkpt>
      <trkpt lat="45.49487" lon="6.0233">
        <ele>281.32</ele>
        <time>2011-04-03T15:53:30Z</time>
      </trkpt>
      <trkpt lat="45.49483" lon="6.02327">
        <ele>281.8</ele>
        <time>2011-04-03T15:53:31Z</time>
      </trkpt>
      <trkpt lat="45.49478" lon="6.02324">
        <ele>281.8</ele>
        <time>2011-04-03T15:53:32Z</time>
      </trkpt>
      <trkpt lat="45.49455" lon="6.02311">
        <ele>281.8</ele>
        <time>2011-04-03T15:53:37Z</time>
      </trkpt>
      <trkpt lat="45.49444" lon="6.02307">
        <ele>281.32</ele>
        <time>2011-04-03T15:53:39Z</time>
      </trkpt>
      <trkpt lat="45.49435" lon="6.02304">
        <ele>281.8</ele>
        <time>2011-04-03T15:53:41Z</time>
      </trkpt>
      <trkpt lat="45.49425" lon="6.023">
        <ele>281.8</ele>
        <time>2011-04-03T15:53:43Z</time>
      </trkpt>
      <trkpt lat="45.4942" lon="6.023">
        <ele>281.32</ele>
        <time>2011-04-03T15:53:44Z</time>
      </trkpt>
      <trkpt lat="45.49414" lon="6.02299">
        <ele>281.32</ele>
        <time>2011-04-03T15:53:45Z</time>
      </trkpt>
      <trkpt lat="45.49389" lon="6.02294">
        <ele>280.84</ele>
        <time>2011-04-03T15:53:50Z</time>
      </trkpt>
      <trkpt lat="45.49384" lon="6.02291">
        <ele>281.32</ele>
        <time>2011-04-03T15:53:51Z</time>
      </trkpt>
      <trkpt lat="45.4938" lon="6.02287">
        <ele>280.84</ele>
        <time>2011-04-03T15:53:52Z</time>
      </trkpt>
      <trkpt lat="45.49377" lon="6.02281">
        <ele>281.32</ele>
        <time>2011-04-03T15:53:53Z</time>
      </trkpt>
      <trkpt lat="45.49376" lon="6.02274">
        <ele>281.32</ele>
        <time>2011-04-03T15:53:54Z</time>
      </trkpt>
      <trkpt lat="45.49374" lon="6.02266">
        <ele>280.84</ele>
        <time>2011-04-03T15:53:55Z</time>
      </trkpt>
      <trkpt lat="45.49373" lon="6.02258">
        <ele>280.84</ele>
        <time>2011-04-03T15:53:56Z</time>
      </trkpt>
      <trkpt lat="45.49363" lon="6.02222">
        <ele>280.36</ele>
        <time>2011-04-03T15:54:01Z</time>
      </trkpt>
      <trkpt lat="45.49362" lon="6.02216">
        <ele>280.36</ele>
        <time>2011-04-03T15:54:02Z</time>
      </trkpt>
      <trkpt lat="45.49361" lon="6.0221">
        <ele>280.36</ele>
        <time>2011-04-03T15:54:03Z</time>
      </trkpt>
      <trkpt lat="45.4936" lon="6.02206">
        <ele>280.36</ele>
        <time>2011-04-03T15:54:04Z</time>
      </trkpt>
      <trkpt lat="45.49357" lon="6.02204">
        <ele>279.88</ele>
        <time>2011-04-03T15:54:05Z</time>
      </trkpt>
      <trkpt lat="45.49355" lon="6.02204">
        <ele>280.36</ele>
        <time>2011-04-03T15:54:06Z</time>
      </trkpt>
      <trkpt lat="45.49322" lon="6.02212">
        <ele>281.32</ele>
        <time>2011-04-03T15:54:17Z</time>
      </trkpt>
      <trkpt lat="45.49276" lon="6.02229">
        <ele>280.84</ele>
        <time>2011-04-03T15:54:27Z</time>
      </trkpt>
      <trkpt lat="45.49271" lon="6.0223">
        <ele>280.84</ele>
        <time>2011-04-03T15:54:28Z</time>
      </trkpt>
      <trkpt lat="45.49266" lon="6.0223">
        <ele>281.32</ele>
        <time>2011-04-03T15:54:29Z</time>
      </trkpt>
      <trkpt lat="45.49257" lon="6.0223">
        <ele>281.32</ele>
        <time>2011-04-03T15:54:31Z</time>
      </trkpt>
      <trkpt lat="45.49252" lon="6.02231">
        <ele>280.84</ele>
        <time>2011-04-03T15:54:32Z</time>
      </trkpt>
      <trkpt lat="45.49247" lon="6.02233">
        <ele>280.36</ele>
        <time>2011-04-03T15:54:33Z</time>
      </trkpt>
      <trkpt lat="45.49237" lon="6.02238">
        <ele>280.84</ele>
        <time>2011-04-03T15:54:35Z</time>
      </trkpt>
      <trkpt lat="45.49233" lon="6.02239">
        <ele>281.8</ele>
        <time>2011-04-03T15:54:36Z</time>
      </trkpt>
      <trkpt lat="45.49218" lon="6.02242">
        <ele>280.84</ele>
        <time>2011-04-03T15:54:39Z</time>
      </trkpt>
      <trkpt lat="45.49146" lon="6.02263">
        <ele>280.84</ele>
        <time>2011-04-03T15:54:53Z</time>
      </trkpt>
      <trkpt lat="45.49081" lon="6.02272">
        <ele>280.36</ele>
        <time>2011-04-03T15:55:04Z</time>
      </trkpt>
      <trkpt lat="45.49075" lon="6.02272">
        <ele>280.84</ele>
        <time>2011-04-03T15:55:05Z</time>
      </trkpt>
      <trkpt lat="45.49069" lon="6.02271">
        <ele>279.88</ele>
        <time>2011-04-03T15:55:06Z</time>
      </trkpt>
      <trkpt lat="45.49046" lon="6.02263">
        <ele>280.36</ele>
        <time>2011-04-03T15:55:10Z</time>
      </trkpt>
      <trkpt lat="45.49041" lon="6.02264">
        <ele>280.36</ele>
        <time>2011-04-03T15:55:11Z</time>
      </trkpt>
      <trkpt lat="45.49035" lon="6.02266">
        <ele>280.36</ele>
        <time>2011-04-03T15:55:12Z</time>
      </trkpt>
      <trkpt lat="45.49023" lon="6.0227">
        <ele>280.36</ele>
        <time>2011-04-03T15:55:14Z</time>
      </trkpt>
      <trkpt lat="45.49017" lon="6.0227">
        <ele>280.36</ele>
        <time>2011-04-03T15:55:15Z</time>
      </trkpt>
      <trkpt lat="45.48981" lon="6.02268">
        <ele>279.88</ele>
        <time>2011-04-03T15:55:21Z</time>
      </trkpt>
      <trkpt lat="45.48976" lon="6.02265">
        <ele>279.88</ele>
        <time>2011-04-03T15:55:22Z</time>
      </trkpt>
      <trkpt lat="45.48972" lon="6.02261">
        <ele>279.88</ele>
        <time>2011-04-03T15:55:23Z</time>
      </trkpt>
      <trkpt lat="45.48968" lon="6.02256">
        <ele>281.32</ele>
        <time>2011-04-03T15:55:24Z</time>
      </trkpt>
      <trkpt lat="45.48965" lon="6.0225">
        <ele>280.36</ele>
        <time>2011-04-03T15:55:25Z</time>
      </trkpt>
      <trkpt lat="45.48961" lon="6.02244">
        <ele>280.36</ele>
        <time>2011-04-03T15:55:26Z</time>
      </trkpt>
      <trkpt lat="45.48957" lon="6.02239">
        <ele>279.4</ele>
        <time>2011-04-03T15:55:27Z</time>
      </trkpt>
      <trkpt lat="45.48948" lon="6.02227">
        <ele>278.92</ele>
        <time>2011-04-03T15:55:29Z</time>
      </trkpt>
      <trkpt lat="45.48863" lon="6.02143">
        <ele>279.88</ele>
        <time>2011-04-03T15:55:45Z</time>
      </trkpt>
      <trkpt lat="45.48766" lon="6.02103">
        <ele>280.36</ele>
        <time>2011-04-03T15:56:00Z</time>
      </trkpt>
      <trkpt lat="45.48761" lon="6.02102">
        <ele>279.88</ele>
        <time>2011-04-03T15:56:01Z</time>
      </trkpt>
      <trkpt lat="45.48755" lon="6.02101">
        <ele>280.36</ele>
        <time>2011-04-03T15:56:02Z</time>
      </trkpt>
      <trkpt lat="45.48749" lon="6.02101">
        <ele>280.36</ele>
        <time>2011-04-03T15:56:03Z</time>
      </trkpt>
      <trkpt lat="45.48743" lon="6.02104">
        <ele>279.88</ele>
        <time>2011-04-03T15:56:04Z</time>
      </trkpt>
      <trkpt lat="45.48738" lon="6.02105">
        <ele>279.88</ele>
        <time>2011-04-03T15:56:05Z</time>
      </trkpt>
      <trkpt lat="45.48733" lon="6.02104">
        <ele>279.88</ele>
        <time>2011-04-03T15:56:06Z</time>
      </trkpt>
      <trkpt lat="45.48727" lon="6.02101">
        <ele>280.36</ele>
        <time>2011-04-03T15:56:07Z</time>
      </trkpt>
      <trkpt lat="45.48722" lon="6.02098">
        <ele>280.36</ele>
        <time>2011-04-03T15:56:08Z</time>
      </trkpt>
      <trkpt lat="45.48717" lon="6.02094">
        <ele>280.36</ele>
        <time>2011-04-03T15:56:09Z</time>
      </trkpt>
      <trkpt lat="45.48712" lon="6.02091">
        <ele>280.36</ele>
        <time>2011-04-03T15:56:10Z</time>
      </trkpt>
      <trkpt lat="45.48671" lon="6.02052">
        <ele>280.36</ele>
        <time>2011-04-03T15:56:19Z</time>
      </trkpt>
      <trkpt lat="45.48669" lon="6.02045">
        <ele>280.36</ele>
        <time>2011-04-03T15:56:20Z</time>
      </trkpt>
      <trkpt lat="45.4867" lon="6.02039">
        <ele>279.88</ele>
        <time>2011-04-03T15:56:21Z</time>
      </trkpt>
      <trkpt lat="45.48672" lon="6.02035">
        <ele>279.4</ele>
        <time>2011-04-03T15:56:22Z</time>
      </trkpt>
      <trkpt lat="45.48674" lon="6.02031">
        <ele>279.4</ele>
        <time>2011-04-03T15:56:23Z</time>
      </trkpt>
      <trkpt lat="45.487" lon="6.0199">
        <ele>278.44</ele>
        <time>2011-04-03T15:56:35Z</time>
      </trkpt>
      <trkpt lat="45.48699" lon="6.01986">
        <ele>278.44</ele>
        <time>2011-04-03T15:56:36Z</time>
      </trkpt>
      <trkpt lat="45.48684" lon="6.01991">
        <ele>278.44</ele>
        <time>2011-04-03T15:56:43Z</time>
      </trkpt>
      <trkpt lat="45.48674" lon="6.01993">
        <ele>278.44</ele>
        <time>2011-04-03T15:56:46Z</time>
      </trkpt>
      <trkpt lat="45.48657" lon="6.01993">
        <ele>278.92</ele>
        <time>2011-04-03T15:56:52Z</time>
      </trkpt>
      <trkpt lat="45.48627" lon="6.01975">
        <ele>278.44</ele>
        <time>2011-04-03T15:57:02Z</time>
      </trkpt>
      <trkpt lat="45.48622" lon="6.01969">
        <ele>277</ele>
        <time>2011-04-03T15:57:04Z</time>
      </trkpt>
      <trkpt lat="45.48578" lon="6.01924">
        <ele>277.48</ele>
        <time>2011-04-03T15:57:19Z</time>
      </trkpt>
      <trkpt lat="45.48521" lon="6.01869">
        <ele>277.48</ele>
        <time>2011-04-03T15:57:37Z</time>
      </trkpt>
      <trkpt lat="45.48484" lon="6.01818">
        <ele>277.48</ele>
        <time>2011-04-03T15:57:51Z</time>
      </trkpt>
      <trkpt lat="45.48505" lon="6.01792">
        <ele>277.96</ele>
        <time>2011-04-03T15:58:00Z</time>
      </trkpt>
      <trkpt lat="45.48553" lon="6.01749">
        <ele>275.56</ele>
        <time>2011-04-03T15:58:15Z</time>
      </trkpt>
      <trkpt lat="45.48565" lon="6.0172">
        <ele>278.44</ele>
        <time>2011-04-03T15:58:22Z</time>
      </trkpt>
      <trkpt lat="45.48587" lon="6.01629">
        <ele>277.96</ele>
        <time>2011-04-03T15:58:39Z</time>
      </trkpt>
      <trkpt lat="45.48591" lon="6.01612">
        <ele>278.44</ele>
        <time>2011-04-03T15:58:42Z</time>
      </trkpt>
      <trkpt lat="45.48606" lon="6.01552">
        <ele>277.96</ele>
        <time>2011-04-03T15:58:52Z</time>
      </trkpt>
      <trkpt lat="45.48629" lon="6.01465">
        <ele>277</ele>
        <time>2011-04-03T15:59:07Z</time>
      </trkpt>
      <trkpt lat="45.48631" lon="6.01453">
        <ele>277</ele>
        <time>2011-04-03T15:59:09Z</time>
      </trkpt>
      <trkpt lat="45.48634" lon="6.01442">
        <ele>276.52</ele>
        <time>2011-04-03T15:59:11Z</time>
      </trkpt>
      <trkpt lat="45.48635" lon="6.01436">
        <ele>276.52</ele>
        <time>2011-04-03T15:59:12Z</time>
      </trkpt>
      <trkpt lat="45.48636" lon="6.01431">
        <ele>277.48</ele>
        <time>2011-04-03T15:59:13Z</time>
      </trkpt>
      <trkpt lat="45.48637" lon="6.01425">
        <ele>277.48</ele>
        <time>2011-04-03T15:59:14Z</time>
      </trkpt>
      <trkpt lat="45.48637" lon="6.0142">
        <ele>277.48</ele>
        <time>2011-04-03T15:59:15Z</time>
      </trkpt>
      <trkpt lat="45.48638" lon="6.01414">
        <ele>277</ele>
        <time>2011-04-03T15:59:16Z</time>
      </trkpt>
      <trkpt lat="45.48639" lon="6.01409">
        <ele>277</ele>
        <time>2011-04-03T15:59:17Z</time>
      </trkpt>
      <trkpt lat="45.48641" lon="6.01404">
        <ele>276.52</ele>
        <time>2011-04-03T15:59:18Z</time>
      </trkpt>
      <trkpt lat="45.48644" lon="6.014">
        <ele>276.52</ele>
        <time>2011-04-03T15:59:19Z</time>
      </trkpt>
      <trkpt lat="45.48653" lon="6.01374">
        <ele>277</ele>
        <time>2011-04-03T15:59:24Z</time>
      </trkpt>
      <trkpt lat="45.48656" lon="6.0137">
        <ele>276.52</ele>
        <time>2011-04-03T15:59:25Z</time>
      </trkpt>
      <trkpt lat="45.48687" lon="6.01323">
        <ele>277</ele>
        <time>2011-04-03T15:59:37Z</time>
      </trkpt>
      <trkpt lat="45.48696" lon="6.01311">
        <ele>276.52</ele>
        <time>2011-04-03T15:59:40Z</time>
      </trkpt>
      <trkpt lat="45.48699" lon="6.01308">
        <ele>276.52</ele>
        <time>2011-04-03T15:59:41Z</time>
      </trkpt>
      <trkpt lat="45.48702" lon="6.01303">
        <ele>276.04</ele>
        <time>2011-04-03T15:59:42Z</time>
      </trkpt>
      <trkpt lat="45.48705" lon="6.01299">
        <ele>276.04</ele>
        <time>2011-04-03T15:59:43Z</time>
      </trkpt>
      <trkpt lat="45.48709" lon="6.01295">
        <ele>276.04</ele>
        <time>2011-04-03T15:59:44Z</time>
      </trkpt>
      <trkpt lat="45.48715" lon="6.01287">
        <ele>276.04</ele>
        <time>2011-04-03T15:59:46Z</time>
      </trkpt>
      <trkpt lat="45.48723" lon="6.01274">
        <ele>276.04</ele>
        <time>2011-04-03T15:59:49Z</time>
      </trkpt>
      <trkpt lat="45.48726" lon="6.0127">
        <ele>276.52</ele>
        <time>2011-04-03T15:59:50Z</time>
      </trkpt>
      <trkpt lat="45.48739" lon="6.01241">
        <ele>276.04</ele>
        <time>2011-04-03T15:59:56Z</time>
      </trkpt>
      <trkpt lat="45.48739" lon="6.01235">
        <ele>276.04</ele>
        <time>2011-04-03T15:59:57Z</time>
      </trkpt>
      <trkpt lat="45.48738" lon="6.01229">
        <ele>276.52</ele>
        <time>2011-04-03T15:59:58Z</time>
      </trkpt>
      <trkpt lat="45.48718" lon="6.01203">
        <ele>277</ele>
        <time>2011-04-03T16:00:04Z</time>
      </trkpt>
      <trkpt lat="45.4871" lon="6.01195">
        <ele>276.52</ele>
        <time>2011-04-03T16:00:06Z</time>
      </trkpt>
      <trkpt lat="45.48706" lon="6.0119">
        <ele>276.52</ele>
        <time>2011-04-03T16:00:07Z</time>
      </trkpt>
      <trkpt lat="45.48702" lon="6.01186">
        <ele>276.52</ele>
        <time>2011-04-03T16:00:08Z</time>
      </trkpt>
      <trkpt lat="45.48697" lon="6.01182">
        <ele>276.52</ele>
        <time>2011-04-03T16:00:09Z</time>
      </trkpt>
      <trkpt lat="45.48693" lon="6.01179">
        <ele>276.04</ele>
        <time>2011-04-03T16:00:10Z</time>
      </trkpt>
      <trkpt lat="45.48688" lon="6.01176">
        <ele>276.52</ele>
        <time>2011-04-03T16:00:11Z</time>
      </trkpt>
      <trkpt lat="45.48684" lon="6.01173">
        <ele>276.04</ele>
        <time>2011-04-03T16:00:12Z</time>
      </trkpt>
      <trkpt lat="45.48681" lon="6.01169">
        <ele>276.04</ele>
        <time>2011-04-03T16:00:13Z</time>
      </trkpt>
      <trkpt lat="45.48678" lon="6.01164">
        <ele>276.52</ele>
        <time>2011-04-03T16:00:14Z</time>
      </trkpt>
      <trkpt lat="45.48677" lon="6.01159">
        <ele>276.04</ele>
        <time>2011-04-03T16:00:15Z</time>
      </trkpt>
      <trkpt lat="45.48714" lon="6.01105">
        <ele>276.04</ele>
        <time>2011-04-03T16:00:27Z</time>
      </trkpt>
      <trkpt lat="45.48726" lon="6.01079">
        <ele>276.04</ele>
        <time>2011-04-03T16:00:32Z</time>
      </trkpt>
      <trkpt lat="45.48764" lon="6.00984">
        <ele>275.56</ele>
        <time>2011-04-03T16:00:49Z</time>
      </trkpt>
      <trkpt lat="45.48766" lon="6.00978">
        <ele>275.56</ele>
        <time>2011-04-03T16:00:50Z</time>
      </trkpt>
      <trkpt lat="45.48783" lon="6.00926">
        <ele>276.04</ele>
        <time>2011-04-03T16:00:59Z</time>
      </trkpt>
      <trkpt lat="45.48793" lon="6.00897">
        <ele>275.56</ele>
        <time>2011-04-03T16:01:04Z</time>
      </trkpt>
      <trkpt lat="45.48794" lon="6.0089">
        <ele>275.56</ele>
        <time>2011-04-03T16:01:05Z</time>
      </trkpt>
      <trkpt lat="45.48795" lon="6.00883">
        <ele>275.56</ele>
        <time>2011-04-03T16:01:06Z</time>
      </trkpt>
      <trkpt lat="45.488" lon="6.00858">
        <ele>275.56</ele>
        <time>2011-04-03T16:01:10Z</time>
      </trkpt>
      <trkpt lat="45.48801" lon="6.00851">
        <ele>275.56</ele>
        <time>2011-04-03T16:01:11Z</time>
      </trkpt>
      <trkpt lat="45.48801" lon="6.00844">
        <ele>275.56</ele>
        <time>2011-04-03T16:01:12Z</time>
      </trkpt>
      <trkpt lat="45.48822" lon="6.00735">
        <ele>275.07</ele>
        <time>2011-04-03T16:01:29Z</time>
      </trkpt>
      <trkpt lat="45.48826" lon="6.00723">
        <ele>275.56</ele>
        <time>2011-04-03T16:01:31Z</time>
      </trkpt>
      <trkpt lat="45.48833" lon="6.007">
        <ele>275.56</ele>
        <time>2011-04-03T16:01:35Z</time>
      </trkpt>
      <trkpt lat="45.48868" lon="6.00618">
        <ele>276.04</ele>
        <time>2011-04-03T16:01:52Z</time>
      </trkpt>
      <trkpt lat="45.48877" lon="6.00565">
        <ele>276.04</ele>
        <time>2011-04-03T16:02:06Z</time>
      </trkpt>
      <trkpt lat="45.48861" lon="6.00565">
        <ele>276.52</ele>
        <time>2011-04-03T16:02:07Z</time>
      </trkpt>
      <trkpt lat="45.48856" lon="6.00563">
        <ele>276.04</ele>
        <time>2011-04-03T16:02:08Z</time>
      </trkpt>
      <trkpt lat="45.48852" lon="6.0056">
        <ele>276.04</ele>
        <time>2011-04-03T16:02:09Z</time>
      </trkpt>
      <trkpt lat="45.48849" lon="6.00557">
        <ele>276.52</ele>
        <time>2011-04-03T16:02:10Z</time>
      </trkpt>
      <trkpt lat="45.48846" lon="6.00554">
        <ele>277</ele>
        <time>2011-04-03T16:02:11Z</time>
      </trkpt>
      <trkpt lat="45.48823" lon="6.005">
        <ele>277.96</ele>
        <time>2011-04-03T16:02:26Z</time>
      </trkpt>
      <trkpt lat="45.48818" lon="6.00477">
        <ele>279.88</ele>
        <time>2011-04-03T16:02:36Z</time>
      </trkpt>
      <trkpt lat="45.48813" lon="6.00448">
        <ele>283.25</ele>
        <time>2011-04-03T16:02:52Z</time>
      </trkpt>
      <trkpt lat="45.48807" lon="6.00422">
        <ele>286.13</ele>
        <time>2011-04-03T16:03:06Z</time>
      </trkpt>
      <trkpt lat="45.48799" lon="6.00405">
        <ele>289.49</ele>
        <time>2011-04-03T16:03:17Z</time>
      </trkpt>
      <trkpt lat="45.48785" lon="6.00382">
        <ele>292.38</ele>
        <time>2011-04-03T16:03:30Z</time>
      </trkpt>
      <trkpt lat="45.48782" lon="6.00352">
        <ele>294.78</ele>
        <time>2011-04-03T16:03:44Z</time>
      </trkpt>
      <trkpt lat="45.48768" lon="6.00308">
        <ele>296.22</ele>
        <time>2011-04-03T16:04:01Z</time>
      </trkpt>
      <trkpt lat="45.48763" lon="6.00305">
        <ele>296.7</ele>
        <time>2011-04-03T16:04:06Z</time>
      </trkpt>
      <trkpt lat="45.48774" lon="6.00302">
        <ele>296.7</ele>
        <time>2011-04-03T16:04:15Z</time>
      </trkpt>
      <trkpt lat="45.48807" lon="6.00289">
        <ele>296.7</ele>
        <time>2011-04-03T16:04:27Z</time>
      </trkpt>
      <trkpt lat="45.48849" lon="6.0028">
        <ele>297.18</ele>
        <time>2011-04-03T16:04:42Z</time>
      </trkpt>
      <trkpt lat="45.4888" lon="6.00255">
        <ele>300.07</ele>
        <time>2011-04-03T16:04:56Z</time>
      </trkpt>
      <trkpt lat="45.48914" lon="6.00215">
        <ele>301.99</ele>
        <time>2011-04-03T16:05:12Z</time>
      </trkpt>
      <trkpt lat="45.48946" lon="6.00194">
        <ele>302.47</ele>
        <time>2011-04-03T16:05:26Z</time>
      </trkpt>
      <trkpt lat="45.48974" lon="6.0017">
        <ele>303.91</ele>
        <time>2011-04-03T16:05:41Z</time>
      </trkpt>
      <trkpt lat="45.49001" lon="6.00149">
        <ele>305.84</ele>
        <time>2011-04-03T16:05:57Z</time>
      </trkpt>
      <trkpt lat="45.49035" lon="6.00139">
        <ele>308.72</ele>
        <time>2011-04-03T16:06:14Z</time>
      </trkpt>
      <trkpt lat="45.49058" lon="6.00142">
        <ele>311.12</ele>
        <time>2011-04-03T16:06:26Z</time>
      </trkpt>
      <trkpt lat="45.4909" lon="6.00144">
        <ele>314.01</ele>
        <time>2011-04-03T16:06:42Z</time>
      </trkpt>
      <trkpt lat="45.49127" lon="6.00141">
        <ele>316.41</ele>
        <time>2011-04-03T16:06:58Z</time>
      </trkpt>
      <trkpt lat="45.49167" lon="6.00129">
        <ele>317.85</ele>
        <time>2011-04-03T16:07:13Z</time>
      </trkpt>
      <trkpt lat="45.4921" lon="6.00109">
        <ele>317.85</ele>
        <time>2011-04-03T16:07:28Z</time>
      </trkpt>
      <trkpt lat="45.49255" lon="6.00085">
        <ele>317.37</ele>
        <time>2011-04-03T16:07:43Z</time>
      </trkpt>
      <trkpt lat="45.49289" lon="6.00056">
        <ele>315.93</ele>
        <time>2011-04-03T16:07:56Z</time>
      </trkpt>
      <trkpt lat="45.49307" lon="6.00043">
        <ele>315.45</ele>
        <time>2011-04-03T16:08:01Z</time>
      </trkpt>
      <trkpt lat="45.4935" lon="6.00032">
        <ele>314.97</ele>
        <time>2011-04-03T16:08:13Z</time>
      </trkpt>
      <trkpt lat="45.49352" lon="6.00031">
        <ele>314.49</ele>
        <time>2011-04-03T16:08:27Z</time>
      </trkpt>
      <trkpt lat="45.49352" lon="6.00031">
        <ele>314.49</ele>
        <time>2011-04-03T16:08:45Z</time>
      </trkpt>
      <trkpt lat="45.49352" lon="6.00031">
        <ele>314.49</ele>
        <time>2011-04-03T16:09:05Z</time>
      </trkpt>
      <trkpt lat="45.4935" lon="6.00031">
        <ele>314.49</ele>
        <time>2011-04-03T16:09:50Z</time>
      </trkpt>
      <trkpt lat="45.4935" lon="6.00031">
        <ele>314.01</ele>
        <time>2011-04-03T16:10:31Z</time>
      </trkpt>
      <trkpt lat="45.4935" lon="6.00031">
        <ele>313.53</ele>
        <time>2011-04-03T16:11:13Z</time>
      </trkpt>
      <trkpt lat="45.4935" lon="6.00031">
        <ele>313.53</ele>
        <time>2011-04-03T16:11:57Z</time>
      </trkpt>
      <trkpt lat="45.49349" lon="6.00031">
        <ele>313.05</ele>
        <time>2011-04-03T16:12:41Z</time>
      </trkpt>
      <trkpt lat="45.49349" lon="6.00031">
        <ele>313.05</ele>
        <time>2011-04-03T16:13:21Z</time>
      </trkpt>
      <trkpt lat="45.49348" lon="6.0003">
        <ele>313.05</ele>
        <time>2011-04-03T16:13:56Z</time>
      </trkpt>
      <trkpt lat="45.49348" lon="6.0003">
        <ele>313.05</ele>
        <time>2011-04-03T16:14:31Z</time>
      </trkpt>
      <trkpt lat="45.49348" lon="6.0003">
        <ele>313.05</ele>
        <time>2011-04-03T16:15:07Z</time>
      </trkpt>
      <trkpt lat="45.49348" lon="6.00029">
        <ele>313.05</ele>
        <time>2011-04-03T16:15:51Z</time>
      </trkpt>
      <trkpt lat="45.49348" lon="6.00029">
        <ele>313.05</ele>
        <time>2011-04-03T16:16:27Z</time>
      </trkpt>
      <trkpt lat="45.49348" lon="6.0003">
        <ele>313.05</ele>
        <time>2011-04-03T16:17:05Z</time>
      </trkpt>
      <trkpt lat="45.49348" lon="6.00029">
        <ele>313.05</ele>
        <time>2011-04-03T16:17:38Z</time>
      </trkpt>
      <trkpt lat="45.49347" lon="6.00028">
        <ele>312.57</ele>
        <time>2011-04-03T16:18:07Z</time>
      </trkpt>
      <trkpt lat="45.49346" lon="6.00026">
        <ele>312.57</ele>
        <time>2011-04-03T16:18:08Z</time>
      </trkpt>
      <trkpt lat="45.49346" lon="6.00024">
        <ele>312.57</ele>
        <time>2011-04-03T16:18:09Z</time>
      </trkpt>
      <trkpt lat="45.4936" lon="6.00038">
        <ele>313.53</ele>
        <time>2011-04-03T16:18:19Z</time>
      </trkpt>
      <trkpt lat="45.49365" lon="6.00042">
        <ele>313.05</ele>
        <time>2011-04-03T16:18:20Z</time>
      </trkpt>
      <trkpt lat="45.49369" lon="6.00046">
        <ele>313.53</ele>
        <time>2011-04-03T16:18:21Z</time>
      </trkpt>
      <trkpt lat="45.49374" lon="6.0005">
        <ele>314.01</ele>
        <time>2011-04-03T16:18:22Z</time>
      </trkpt>
      <trkpt lat="45.4938" lon="6.00054">
        <ele>313.53</ele>
        <time>2011-04-03T16:18:23Z</time>
      </trkpt>
      <trkpt lat="45.49441" lon="6.00103">
        <ele>314.01</ele>
        <time>2011-04-03T16:18:40Z</time>
      </trkpt>
      <trkpt lat="45.49506" lon="6.00133">
        <ele>315.45</ele>
        <time>2011-04-03T16:18:58Z</time>
      </trkpt>
      <trkpt lat="45.49534" lon="6.00137">
        <ele>316.41</ele>
        <time>2011-04-03T16:19:08Z</time>
      </trkpt>
      <trkpt lat="45.49543" lon="6.00104">
        <ele>314.49</ele>
        <time>2011-04-03T16:19:17Z</time>
      </trkpt>
      <trkpt lat="45.49545" lon="6.00097">
        <ele>314.01</ele>
        <time>2011-04-03T16:19:18Z</time>
      </trkpt>
      <trkpt lat="45.49561" lon="6.00036">
        <ele>313.53</ele>
        <time>2011-04-03T16:19:27Z</time>
      </trkpt>
      <trkpt lat="45.49563" lon="6.0003">
        <ele>313.05</ele>
        <time>2011-04-03T16:19:28Z</time>
      </trkpt>
      <trkpt lat="45.49587" lon="5.99941">
        <ele>312.09</ele>
        <time>2011-04-03T16:19:41Z</time>
      </trkpt>
      <trkpt lat="45.49589" lon="5.99935">
        <ele>313.05</ele>
        <time>2011-04-03T16:19:42Z</time>
      </trkpt>
      <trkpt lat="45.49591" lon="5.99929">
        <ele>313.05</ele>
        <time>2011-04-03T16:19:43Z</time>
      </trkpt>
      <trkpt lat="45.49622" lon="5.9983">
        <ele>312.57</ele>
        <time>2011-04-03T16:19:59Z</time>
      </trkpt>
      <trkpt lat="45.49654" lon="5.99701">
        <ele>311.12</ele>
        <time>2011-04-03T16:20:18Z</time>
      </trkpt>
      <trkpt lat="45.49654" lon="5.99694">
        <ele>311.12</ele>
        <time>2011-04-03T16:20:19Z</time>
      </trkpt>
      <trkpt lat="45.49654" lon="5.99686">
        <ele>311.12</ele>
        <time>2011-04-03T16:20:20Z</time>
      </trkpt>
      <trkpt lat="45.49637" lon="5.99549">
        <ele>310.16</ele>
        <time>2011-04-03T16:20:38Z</time>
      </trkpt>
      <trkpt lat="45.49626" lon="5.99504">
        <ele>311.12</ele>
        <time>2011-04-03T16:20:44Z</time>
      </trkpt>
      <trkpt lat="45.49625" lon="5.99496">
        <ele>310.64</ele>
        <time>2011-04-03T16:20:45Z</time>
      </trkpt>
      <trkpt lat="45.49583" lon="5.99326">
        <ele>311.12</ele>
        <time>2011-04-03T16:21:06Z</time>
      </trkpt>
      <trkpt lat="45.49569" lon="5.99262">
        <ele>311.12</ele>
        <time>2011-04-03T16:21:15Z</time>
      </trkpt>
      <trkpt lat="45.49567" lon="5.99255">
        <ele>311.12</ele>
        <time>2011-04-03T16:21:16Z</time>
      </trkpt>
      <trkpt lat="45.49535" lon="5.99125">
        <ele>311.12</ele>
        <time>2011-04-03T16:21:36Z</time>
      </trkpt>
      <trkpt lat="45.49533" lon="5.99119">
        <ele>310.64</ele>
        <time>2011-04-03T16:21:37Z</time>
      </trkpt>
      <trkpt lat="45.49527" lon="5.99101">
        <ele>310.16</ele>
        <time>2011-04-03T16:21:40Z</time>
      </trkpt>
      <trkpt lat="45.49525" lon="5.99095">
        <ele>310.64</ele>
        <time>2011-04-03T16:21:41Z</time>
      </trkpt>
      <trkpt lat="45.49522" lon="5.99083">
        <ele>310.64</ele>
        <time>2011-04-03T16:21:43Z</time>
      </trkpt>
      <trkpt lat="45.49522" lon="5.99077">
        <ele>310.16</ele>
        <time>2011-04-03T16:21:44Z</time>
      </trkpt>
      <trkpt lat="45.49523" lon="5.99071">
        <ele>310.16</ele>
        <time>2011-04-03T16:21:45Z</time>
      </trkpt>
      <trkpt lat="45.49524" lon="5.99066">
        <ele>309.68</ele>
        <time>2011-04-03T16:21:46Z</time>
      </trkpt>
      <trkpt lat="45.49526" lon="5.99062">
        <ele>309.68</ele>
        <time>2011-04-03T16:21:47Z</time>
      </trkpt>
      <trkpt lat="45.49529" lon="5.9906">
        <ele>308.72</ele>
        <time>2011-04-03T16:21:48Z</time>
      </trkpt>
      <trkpt lat="45.49533" lon="5.99058">
        <ele>309.68</ele>
        <time>2011-04-03T16:21:49Z</time>
      </trkpt>
      <trkpt lat="45.49536" lon="5.99055">
        <ele>309.2</ele>
        <time>2011-04-03T16:21:50Z</time>
      </trkpt>
      <trkpt lat="45.49561" lon="5.99032">
        <ele>308.24</ele>
        <time>2011-04-03T16:21:58Z</time>
      </trkpt>
      <trkpt lat="45.49559" lon="5.99028">
        <ele>308.24</ele>
        <time>2011-04-03T16:21:59Z</time>
      </trkpt>
      <trkpt lat="45.49557" lon="5.99024">
        <ele>308.24</ele>
        <time>2011-04-03T16:22:00Z</time>
      </trkpt>
      <trkpt lat="45.49555" lon="5.9902">
        <ele>308.72</ele>
        <time>2011-04-03T16:22:01Z</time>
      </trkpt>
      <trkpt lat="45.49554" lon="5.99016">
        <ele>308.24</ele>
        <time>2011-04-03T16:22:02Z</time>
      </trkpt>
      <trkpt lat="45.49553" lon="5.99011">
        <ele>308.24</ele>
        <time>2011-04-03T16:22:03Z</time>
      </trkpt>
      <trkpt lat="45.49544" lon="5.98986">
        <ele>308.24</ele>
        <time>2011-04-03T16:22:08Z</time>
      </trkpt>
      <trkpt lat="45.49538" lon="5.98976">
        <ele>308.24</ele>
        <time>2011-04-03T16:22:10Z</time>
      </trkpt>
      <trkpt lat="45.49534" lon="5.98972">
        <ele>308.24</ele>
        <time>2011-04-03T16:22:11Z</time>
      </trkpt>
      <trkpt lat="45.4953" lon="5.98968">
        <ele>307.76</ele>
        <time>2011-04-03T16:22:12Z</time>
      </trkpt>
      <trkpt lat="45.49484" lon="5.98925">
        <ele>307.28</ele>
        <time>2011-04-03T16:22:25Z</time>
      </trkpt>
      <trkpt lat="45.49483" lon="5.98923">
        <ele>307.28</ele>
        <time>2011-04-03T16:22:26Z</time>
      </trkpt>
      <trkpt lat="45.49483" lon="5.98921">
        <ele>307.28</ele>
        <time>2011-04-03T16:22:27Z</time>
      </trkpt>
      <trkpt lat="45.49486" lon="5.98914">
        <ele>307.28</ele>
        <time>2011-04-03T16:22:31Z</time>
      </trkpt>
      <trkpt lat="45.49486" lon="5.98906">
        <ele>306.8</ele>
        <time>2011-04-03T16:22:34Z</time>
      </trkpt>
      <trkpt lat="45.49485" lon="5.98905">
        <ele>307.76</ele>
        <time>2011-04-03T16:22:35Z</time>
      </trkpt>
      <trkpt lat="45.49484" lon="5.98903">
        <ele>307.28</ele>
        <time>2011-04-03T16:22:36Z</time>
      </trkpt>
      <trkpt lat="45.49484" lon="5.98901">
        <ele>307.76</ele>
        <time>2011-04-03T16:22:37Z</time>
      </trkpt>
      <trkpt lat="45.49485" lon="5.98902">
        <ele>307.28</ele>
        <time>2011-04-03T16:22:38Z</time>
      </trkpt>
      <trkpt lat="45.49486" lon="5.98904">
        <ele>307.28</ele>
        <time>2011-04-03T16:22:39Z</time>
      </trkpt>
      <trkpt lat="45.49487" lon="5.98906">
        <ele>307.28</ele>
        <time>2011-04-03T16:22:40Z</time>
      </trkpt>
      <trkpt lat="45.49487" lon="5.98909">
        <ele>307.28</ele>
        <time>2011-04-03T16:22:41Z</time>
      </trkpt>
      <trkpt lat="45.49487" lon="5.98912">
        <ele>306.8</ele>
        <time>2011-04-03T16:22:42Z</time>
      </trkpt>
      <trkpt lat="45.49486" lon="5.98915">
        <ele>307.28</ele>
        <time>2011-04-03T16:22:43Z</time>
      </trkpt>
      <trkpt lat="45.49485" lon="5.98918">
        <ele>307.28</ele>
        <time>2011-04-03T16:22:44Z</time>
      </trkpt>
      <trkpt lat="45.49485" lon="5.98922">
        <ele>306.8</ele>
        <time>2011-04-03T16:22:45Z</time>
      </trkpt>
      <trkpt lat="45.49485" lon="5.98926">
        <ele>307.28</ele>
        <time>2011-04-03T16:22:46Z</time>
      </trkpt>
      <trkpt lat="45.49486" lon="5.98929">
        <ele>307.28</ele>
        <time>2011-04-03T16:22:47Z</time>
      </trkpt>
      <trkpt lat="45.49488" lon="5.98931">
        <ele>306.8</ele>
        <time>2011-04-03T16:22:48Z</time>
      </trkpt>
      <trkpt lat="45.49491" lon="5.98933">
        <ele>306.8</ele>
        <time>2011-04-03T16:22:49Z</time>
      </trkpt>
      <trkpt lat="45.49494" lon="5.98936">
        <ele>307.28</ele>
        <time>2011-04-03T16:22:50Z</time>
      </trkpt>
      <trkpt lat="45.49501" lon="5.98941">
        <ele>306.8</ele>
        <time>2011-04-03T16:22:53Z</time>
      </trkpt>
      <trkpt lat="45.49504" lon="5.98942">
        <ele>307.28</ele>
        <time>2011-04-03T16:22:54Z</time>
      </trkpt>
      <trkpt lat="45.49506" lon="5.98943">
        <ele>306.8</ele>
        <time>2011-04-03T16:22:55Z</time>
      </trkpt>
      <trkpt lat="45.49507" lon="5.98946">
        <ele>306.8</ele>
        <time>2011-04-03T16:22:56Z</time>
      </trkpt>
      <trkpt lat="45.49509" lon="5.98947">
        <ele>306.8</ele>
        <time>2011-04-03T16:22:57Z</time>
      </trkpt>
      <trkpt lat="45.49511" lon="5.98949">
        <ele>306.8</ele>
        <time>2011-04-03T16:22:58Z</time>
      </trkpt>
      <trkpt lat="45.49512" lon="5.9895">
        <ele>306.8</ele>
        <time>2011-04-03T16:22:59Z</time>
      </trkpt>
      <trkpt lat="45.49513" lon="5.98952">
        <ele>307.28</ele>
        <time>2011-04-03T16:23:10Z</time>
      </trkpt>
      <trkpt lat="45.49529" lon="5.98965">
        <ele>306.8</ele>
        <time>2011-04-03T16:23:20Z</time>
      </trkpt>
      <trkpt lat="45.49532" lon="5.98969">
        <ele>307.76</ele>
        <time>2011-04-03T16:23:41Z</time>
      </trkpt>
      <trkpt lat="45.49548" lon="5.99004">
        <ele>307.76</ele>
        <time>2011-04-03T16:23:48Z</time>
      </trkpt>
      <trkpt lat="45.4955" lon="5.99011">
        <ele>308.24</ele>
        <time>2011-04-03T16:23:49Z</time>
      </trkpt>
      <trkpt lat="45.49553" lon="5.99017">
        <ele>307.76</ele>
        <time>2011-04-03T16:23:50Z</time>
      </trkpt>
      <trkpt lat="45.49555" lon="5.99023">
        <ele>308.24</ele>
        <time>2011-04-03T16:23:51Z</time>
      </trkpt>
      <trkpt lat="45.49558" lon="5.99027">
        <ele>308.24</ele>
        <time>2011-04-03T16:23:52Z</time>
      </trkpt>
      <trkpt lat="45.49561" lon="5.9903">
        <ele>308.24</ele>
        <time>2011-04-03T16:23:53Z</time>
      </trkpt>
      <trkpt lat="45.49565" lon="5.99032">
        <ele>308.24</ele>
        <time>2011-04-03T16:23:54Z</time>
      </trkpt>
      <trkpt lat="45.49568" lon="5.99032">
        <ele>308.24</ele>
        <time>2011-04-03T16:23:55Z</time>
      </trkpt>
      <trkpt lat="45.49572" lon="5.99031">
        <ele>308.24</ele>
        <time>2011-04-03T16:23:56Z</time>
      </trkpt>
      <trkpt lat="45.49575" lon="5.99029">
        <ele>308.24</ele>
        <time>2011-04-03T16:23:57Z</time>
      </trkpt>
      <trkpt lat="45.49631" lon="5.98992">
        <ele>308.24</ele>
        <time>2011-04-03T16:24:11Z</time>
      </trkpt>
      <trkpt lat="45.49696" lon="5.98948">
        <ele>309.2</ele>
        <time>2011-04-03T16:24:26Z</time>
      </trkpt>
      <trkpt lat="45.49704" lon="5.98942">
        <ele>310.16</ele>
        <time>2011-04-03T16:24:28Z</time>
      </trkpt>
      <trkpt lat="45.49708" lon="5.98939">
        <ele>310.64</ele>
        <time>2011-04-03T16:24:29Z</time>
      </trkpt>
      <trkpt lat="45.4972" lon="5.98931">
        <ele>311.12</ele>
        <time>2011-04-03T16:24:32Z</time>
      </trkpt>
      <trkpt lat="45.49752" lon="5.98908">
        <ele>312.57</ele>
        <time>2011-04-03T16:24:41Z</time>
      </trkpt>
      <trkpt lat="45.49815" lon="5.98865">
        <ele>313.05</ele>
        <time>2011-04-03T16:24:56Z</time>
      </trkpt>
      <trkpt lat="45.49883" lon="5.98816">
        <ele>314.49</ele>
        <time>2011-04-03T16:25:12Z</time>
      </trkpt>
      <trkpt lat="45.49918" lon="5.98791">
        <ele>314.49</ele>
        <time>2011-04-03T16:25:20Z</time>
      </trkpt>
      <trkpt lat="45.49923" lon="5.98788">
        <ele>314.01</ele>
        <time>2011-04-03T16:25:21Z</time>
      </trkpt>
      <trkpt lat="45.49957" lon="5.98764">
        <ele>313.05</ele>
        <time>2011-04-03T16:25:28Z</time>
      </trkpt>
      <trkpt lat="45.50035" lon="5.98709">
        <ele>313.05</ele>
        <time>2011-04-03T16:25:45Z</time>
      </trkpt>
      <trkpt lat="45.50094" lon="5.98671">
        <ele>313.05</ele>
        <time>2011-04-03T16:25:57Z</time>
      </trkpt>
      <trkpt lat="45.50099" lon="5.9867">
        <ele>313.05</ele>
        <time>2011-04-03T16:25:58Z</time>
      </trkpt>
      <trkpt lat="45.50105" lon="5.98672">
        <ele>313.05</ele>
        <time>2011-04-03T16:25:59Z</time>
      </trkpt>
      <trkpt lat="45.5011" lon="5.98675">
        <ele>313.05</ele>
        <time>2011-04-03T16:26:00Z</time>
      </trkpt>
      <trkpt lat="45.50114" lon="5.98681">
        <ele>313.05</ele>
        <time>2011-04-03T16:26:01Z</time>
      </trkpt>
      <trkpt lat="45.50117" lon="5.98687">
        <ele>313.53</ele>
        <time>2011-04-03T16:26:02Z</time>
      </trkpt>
      <trkpt lat="45.5012" lon="5.98694">
        <ele>313.53</ele>
        <time>2011-04-03T16:26:03Z</time>
      </trkpt>
      <trkpt lat="45.50122" lon="5.987">
        <ele>313.53</ele>
        <time>2011-04-03T16:26:04Z</time>
      </trkpt>
      <trkpt lat="45.50166" lon="5.98798">
        <ele>314.49</ele>
        <time>2011-04-03T16:26:20Z</time>
      </trkpt>
      <trkpt lat="45.50219" lon="5.98916">
        <ele>315.45</ele>
        <time>2011-04-03T16:26:38Z</time>
      </trkpt>
      <trkpt lat="45.50221" lon="5.98922">
        <ele>315.93</ele>
        <time>2011-04-03T16:26:39Z</time>
      </trkpt>
      <trkpt lat="45.50223" lon="5.98926">
        <ele>316.41</ele>
        <time>2011-04-03T16:26:40Z</time>
      </trkpt>
      <trkpt lat="45.50225" lon="5.9893">
        <ele>316.41</ele>
        <time>2011-04-03T16:26:41Z</time>
      </trkpt>
      <trkpt lat="45.50229" lon="5.98933">
        <ele>316.89</ele>
        <time>2011-04-03T16:26:42Z</time>
      </trkpt>
      <trkpt lat="45.50231" lon="5.98937">
        <ele>316.89</ele>
        <time>2011-04-03T16:26:43Z</time>
      </trkpt>
      <trkpt lat="45.50233" lon="5.98942">
        <ele>316.89</ele>
        <time>2011-04-03T16:26:44Z</time>
      </trkpt>
      <trkpt lat="45.50254" lon="5.98985">
        <ele>316.89</ele>
        <time>2011-04-03T16:26:52Z</time>
      </trkpt>
      <trkpt lat="45.50258" lon="5.98992">
        <ele>315.93</ele>
        <time>2011-04-03T16:26:53Z</time>
      </trkpt>
      <trkpt lat="45.50314" lon="5.99112">
        <ele>316.89</ele>
        <time>2011-04-03T16:27:11Z</time>
      </trkpt>
      <trkpt lat="45.50317" lon="5.99118">
        <ele>316.89</ele>
        <time>2011-04-03T16:27:12Z</time>
      </trkpt>
      <trkpt lat="45.5034" lon="5.99168">
        <ele>317.85</ele>
        <time>2011-04-03T16:27:20Z</time>
      </trkpt>
      <trkpt lat="45.50363" lon="5.99221">
        <ele>320.26</ele>
        <time>2011-04-03T16:27:29Z</time>
      </trkpt>
      <trkpt lat="45.50366" lon="5.99225">
        <ele>321.22</ele>
        <time>2011-04-03T16:27:30Z</time>
      </trkpt>
      <trkpt lat="45.5037" lon="5.99228">
        <ele>320.74</ele>
        <time>2011-04-03T16:27:31Z</time>
      </trkpt>
      <trkpt lat="45.50406" lon="5.99253">
        <ele>322.66</ele>
        <time>2011-04-03T16:27:43Z</time>
      </trkpt>
      <trkpt lat="45.50428" lon="5.99282">
        <ele>325.06</ele>
        <time>2011-04-03T16:27:52Z</time>
      </trkpt>
      <trkpt lat="45.5043" lon="5.99287">
        <ele>325.54</ele>
        <time>2011-04-03T16:27:53Z</time>
      </trkpt>
      <trkpt lat="45.50445" lon="5.99336">
        <ele>326.99</ele>
        <time>2011-04-03T16:28:01Z</time>
      </trkpt>
      <trkpt lat="45.50459" lon="5.99382">
        <ele>329.39</ele>
        <time>2011-04-03T16:28:09Z</time>
      </trkpt>
      <trkpt lat="45.50463" lon="5.99405">
        <ele>330.35</ele>
        <time>2011-04-03T16:28:13Z</time>
      </trkpt>
      <trkpt lat="45.50477" lon="5.99458">
        <ele>333.71</ele>
        <time>2011-04-03T16:28:24Z</time>
      </trkpt>
      <trkpt lat="45.50509" lon="5.99452">
        <ele>333.71</ele>
        <time>2011-04-03T16:28:34Z</time>
      </trkpt>
      <trkpt lat="45.50571" lon="5.994">
        <ele>333.71</ele>
        <time>2011-04-03T16:28:49Z</time>
      </trkpt>
      <trkpt lat="45.50604" lon="5.99368">
        <ele>334.2</ele>
        <time>2011-04-03T16:28:57Z</time>
      </trkpt>
      <trkpt lat="45.50645" lon="5.99281">
        <ele>333.71</ele>
        <time>2011-04-03T16:29:11Z</time>
      </trkpt>
      <trkpt lat="45.50679" lon="5.9923">
        <ele>334.68</ele>
        <time>2011-04-03T16:29:21Z</time>
      </trkpt>
      <trkpt lat="45.50689" lon="5.99215">
        <ele>334.2</ele>
        <time>2011-04-03T16:29:24Z</time>
      </trkpt>
      <trkpt lat="45.50693" lon="5.9921">
        <ele>334.2</ele>
        <time>2011-04-03T16:29:25Z</time>
      </trkpt>
      <trkpt lat="45.50701" lon="5.99201">
        <ele>334.2</ele>
        <time>2011-04-03T16:29:27Z</time>
      </trkpt>
      <trkpt lat="45.50768" lon="5.99153">
        <ele>334.68</ele>
        <time>2011-04-03T16:29:42Z</time>
      </trkpt>
      <trkpt lat="45.50835" lon="5.9911">
        <ele>333.23</ele>
        <time>2011-04-03T16:29:55Z</time>
      </trkpt>
      <trkpt lat="45.50937" lon="5.99036">
        <ele>330.35</ele>
        <time>2011-04-03T16:30:13Z</time>
      </trkpt>
      <trkpt lat="45.51031" lon="5.98934">
        <ele>328.43</ele>
        <time>2011-04-03T16:30:30Z</time>
      </trkpt>
      <trkpt lat="45.51085" lon="5.98874">
        <ele>331.79</ele>
        <time>2011-04-03T16:30:44Z</time>
      </trkpt>
      <trkpt lat="45.51128" lon="5.98841">
        <ele>335.16</ele>
        <time>2011-04-03T16:30:58Z</time>
      </trkpt>
      <trkpt lat="45.51131" lon="5.98839">
        <ele>335.16</ele>
        <time>2011-04-03T16:30:59Z</time>
      </trkpt>
      <trkpt lat="45.51175" lon="5.98811">
        <ele>337.56</ele>
        <time>2011-04-03T16:31:14Z</time>
      </trkpt>
      <trkpt lat="45.51208" lon="5.98794">
        <ele>340.44</ele>
        <time>2011-04-03T16:31:26Z</time>
      </trkpt>
      <trkpt lat="45.51246" lon="5.98774">
        <ele>342.85</ele>
        <time>2011-04-03T16:31:42Z</time>
      </trkpt>
      <trkpt lat="45.51294" lon="5.98751">
        <ele>346.21</ele>
        <time>2011-04-03T16:32:00Z</time>
      </trkpt>
      <trkpt lat="45.51334" lon="5.98725">
        <ele>348.62</ele>
        <time>2011-04-03T16:32:16Z</time>
      </trkpt>
      <trkpt lat="45.51371" lon="5.98685">
        <ele>350.54</ele>
        <time>2011-04-03T16:32:32Z</time>
      </trkpt>
      <trkpt lat="45.51412" lon="5.98627">
        <ele>352.94</ele>
        <time>2011-04-03T16:32:50Z</time>
      </trkpt>
      <trkpt lat="45.51437" lon="5.98587">
        <ele>354.38</ele>
        <time>2011-04-03T16:33:03Z</time>
      </trkpt>
      <trkpt lat="45.51453" lon="5.98557">
        <ele>354.86</ele>
        <time>2011-04-03T16:33:16Z</time>
      </trkpt>
      <trkpt lat="45.51455" lon="5.98544">
        <ele>354.86</ele>
        <time>2011-04-03T16:33:28Z</time>
      </trkpt>
      <trkpt lat="45.51406" lon="5.98531">
        <ele>352.94</ele>
        <time>2011-04-03T16:33:40Z</time>
      </trkpt>
      <trkpt lat="45.51385" lon="5.9848">
        <ele>352.46</ele>
        <time>2011-04-03T16:33:48Z</time>
      </trkpt>
      <trkpt lat="45.5135" lon="5.98392">
        <ele>351.02</ele>
        <time>2011-04-03T16:34:02Z</time>
      </trkpt>
      <trkpt lat="45.5133" lon="5.9834">
        <ele>351.5</ele>
        <time>2011-04-03T16:34:13Z</time>
      </trkpt>
      <trkpt lat="45.51296" lon="5.98257">
        <ele>350.06</ele>
        <time>2011-04-03T16:34:27Z</time>
      </trkpt>
      <trkpt lat="45.51279" lon="5.98214">
        <ele>347.17</ele>
        <time>2011-04-03T16:34:32Z</time>
      </trkpt>
      <trkpt lat="45.5127" lon="5.98193">
        <ele>345.73</ele>
        <time>2011-04-03T16:34:34Z</time>
      </trkpt>
      <trkpt lat="45.5125" lon="5.98147">
        <ele>342.37</ele>
        <time>2011-04-03T16:34:38Z</time>
      </trkpt>
      <trkpt lat="45.51217" lon="5.98062">
        <ele>342.37</ele>
        <time>2011-04-03T16:34:47Z</time>
      </trkpt>
      <trkpt lat="45.51209" lon="5.98041">
        <ele>345.73</ele>
        <time>2011-04-03T16:34:50Z</time>
      </trkpt>
      <trkpt lat="45.51206" lon="5.98032">
        <ele>346.69</ele>
        <time>2011-04-03T16:34:52Z</time>
      </trkpt>
      <trkpt lat="45.51201" lon="5.98015">
        <ele>344.77</ele>
        <time>2011-04-03T16:34:55Z</time>
      </trkpt>
      <trkpt lat="45.51199" lon="5.98007">
        <ele>343.81</ele>
        <time>2011-04-03T16:34:56Z</time>
      </trkpt>
      <trkpt lat="45.51198" lon="5.97997">
        <ele>341.89</ele>
        <time>2011-04-03T16:34:57Z</time>
      </trkpt>
      <trkpt lat="45.51197" lon="5.97967">
        <ele>340.44</ele>
        <time>2011-04-03T16:35:00Z</time>
      </trkpt>
      <trkpt lat="45.51198" lon="5.9796">
        <ele>340.44</ele>
        <time>2011-04-03T16:35:01Z</time>
      </trkpt>
      <trkpt lat="45.51197" lon="5.97956">
        <ele>340.92</ele>
        <time>2011-04-03T16:35:02Z</time>
      </trkpt>
      <trkpt lat="45.51195" lon="5.97955">
        <ele>341.41</ele>
        <time>2011-04-03T16:35:03Z</time>
      </trkpt>
      <trkpt lat="45.51193" lon="5.97953">
        <ele>341.41</ele>
        <time>2011-04-03T16:35:04Z</time>
      </trkpt>
      <trkpt lat="45.51191" lon="5.97953">
        <ele>340.92</ele>
        <time>2011-04-03T16:35:05Z</time>
      </trkpt>
      <trkpt lat="45.51172" lon="5.97948">
        <ele>340.92</ele>
        <time>2011-04-03T16:35:10Z</time>
      </trkpt>
      <trkpt lat="45.51164" lon="5.97946">
        <ele>339.96</ele>
        <time>2011-04-03T16:35:12Z</time>
      </trkpt>
      <trkpt lat="45.51161" lon="5.97943">
        <ele>339.48</ele>
        <time>2011-04-03T16:35:13Z</time>
      </trkpt>
      <trkpt lat="45.5116" lon="5.97937">
        <ele>339</ele>
        <time>2011-04-03T16:35:14Z</time>
      </trkpt>
      <trkpt lat="45.5116" lon="5.9793">
        <ele>338.52</ele>
        <time>2011-04-03T16:35:15Z</time>
      </trkpt>
      <trkpt lat="45.5116" lon="5.97922">
        <ele>338.52</ele>
        <time>2011-04-03T16:35:16Z</time>
      </trkpt>
      <trkpt lat="45.5116" lon="5.97914">
        <ele>338.04</ele>
        <time>2011-04-03T16:35:17Z</time>
      </trkpt>
      <trkpt lat="45.5116" lon="5.97832">
        <ele>334.68</ele>
        <time>2011-04-03T16:35:25Z</time>
      </trkpt>
      <trkpt lat="45.51161" lon="5.97798">
        <ele>333.71</ele>
        <time>2011-04-03T16:35:28Z</time>
      </trkpt>
      <trkpt lat="45.51163" lon="5.97787">
        <ele>333.71</ele>
        <time>2011-04-03T16:35:29Z</time>
      </trkpt>
      <trkpt lat="45.51167" lon="5.97778">
        <ele>333.71</ele>
        <time>2011-04-03T16:35:30Z</time>
      </trkpt>
      <trkpt lat="45.51173" lon="5.97771">
        <ele>333.71</ele>
        <time>2011-04-03T16:35:31Z</time>
      </trkpt>
      <trkpt lat="45.51181" lon="5.97769">
        <ele>333.23</ele>
        <time>2011-04-03T16:35:32Z</time>
      </trkpt>
      <trkpt lat="45.51189" lon="5.97772">
        <ele>332.75</ele>
        <time>2011-04-03T16:35:33Z</time>
      </trkpt>
      <trkpt lat="45.51196" lon="5.97777">
        <ele>332.75</ele>
        <time>2011-04-03T16:35:34Z</time>
      </trkpt>
      <trkpt lat="45.51202" lon="5.97784">
        <ele>333.23</ele>
        <time>2011-04-03T16:35:35Z</time>
      </trkpt>
      <trkpt lat="45.51207" lon="5.97791">
        <ele>333.23</ele>
        <time>2011-04-03T16:35:36Z</time>
      </trkpt>
      <trkpt lat="45.51212" lon="5.97796">
        <ele>333.71</ele>
        <time>2011-04-03T16:35:37Z</time>
      </trkpt>
      <trkpt lat="45.51217" lon="5.97799">
        <ele>333.71</ele>
        <time>2011-04-03T16:35:38Z</time>
      </trkpt>
      <trkpt lat="45.51223" lon="5.97797">
        <ele>334.2</ele>
        <time>2011-04-03T16:35:39Z</time>
      </trkpt>
      <trkpt lat="45.51229" lon="5.97794">
        <ele>333.71</ele>
        <time>2011-04-03T16:35:40Z</time>
      </trkpt>
      <trkpt lat="45.51234" lon="5.97789">
        <ele>333.23</ele>
        <time>2011-04-03T16:35:41Z</time>
      </trkpt>
      <trkpt lat="45.51239" lon="5.97785">
        <ele>333.71</ele>
        <time>2011-04-03T16:35:42Z</time>
      </trkpt>
      <trkpt lat="45.51244" lon="5.9778">
        <ele>333.71</ele>
        <time>2011-04-03T16:35:43Z</time>
      </trkpt>
      <trkpt lat="45.51263" lon="5.97763">
        <ele>333.71</ele>
        <time>2011-04-03T16:35:47Z</time>
      </trkpt>
      <trkpt lat="45.51268" lon="5.9776">
        <ele>332.75</ele>
        <time>2011-04-03T16:35:48Z</time>
      </trkpt>
      <trkpt lat="45.51274" lon="5.97759">
        <ele>332.75</ele>
        <time>2011-04-03T16:35:49Z</time>
      </trkpt>
      <trkpt lat="45.5128" lon="5.9776">
        <ele>332.27</ele>
        <time>2011-04-03T16:35:50Z</time>
      </trkpt>
      <trkpt lat="45.51285" lon="5.97763">
        <ele>332.27</ele>
        <time>2011-04-03T16:35:51Z</time>
      </trkpt>
      <trkpt lat="45.5129" lon="5.97768">
        <ele>332.75</ele>
        <time>2011-04-03T16:35:52Z</time>
      </trkpt>
      <trkpt lat="45.51295" lon="5.97774">
        <ele>332.75</ele>
        <time>2011-04-03T16:35:53Z</time>
      </trkpt>
      <trkpt lat="45.51307" lon="5.97789">
        <ele>333.23</ele>
        <time>2011-04-03T16:35:56Z</time>
      </trkpt>
      <trkpt lat="45.51329" lon="5.97818">
        <ele>332.75</ele>
        <time>2011-04-03T16:36:01Z</time>
      </trkpt>
      <trkpt lat="45.51334" lon="5.97823">
        <ele>332.75</ele>
        <time>2011-04-03T16:36:02Z</time>
      </trkpt>
      <trkpt lat="45.51374" lon="5.97856">
        <ele>332.75</ele>
        <time>2011-04-03T16:36:09Z</time>
      </trkpt>
      <trkpt lat="45.5138" lon="5.97858">
        <ele>332.75</ele>
        <time>2011-04-03T16:36:10Z</time>
      </trkpt>
      <trkpt lat="45.51386" lon="5.97859">
        <ele>332.27</ele>
        <time>2011-04-03T16:36:11Z</time>
      </trkpt>
      <trkpt lat="45.51391" lon="5.97859">
        <ele>332.27</ele>
        <time>2011-04-03T16:36:12Z</time>
      </trkpt>
      <trkpt lat="45.51397" lon="5.97858">
        <ele>332.27</ele>
        <time>2011-04-03T16:36:13Z</time>
      </trkpt>
      <trkpt lat="45.51402" lon="5.97857">
        <ele>332.27</ele>
        <time>2011-04-03T16:36:14Z</time>
      </trkpt>
      <trkpt lat="45.51429" lon="5.97849">
        <ele>331.31</ele>
        <time>2011-04-03T16:36:22Z</time>
      </trkpt>
      <trkpt lat="45.51463" lon="5.97839">
        <ele>332.27</ele>
        <time>2011-04-03T16:36:30Z</time>
      </trkpt>
      <trkpt lat="45.51468" lon="5.97837">
        <ele>332.27</ele>
        <time>2011-04-03T16:36:31Z</time>
      </trkpt>
      <trkpt lat="45.51547" lon="5.97801">
        <ele>331.31</ele>
        <time>2011-04-03T16:36:47Z</time>
      </trkpt>
      <trkpt lat="45.51563" lon="5.97795">
        <ele>327.47</ele>
        <time>2011-04-03T16:36:50Z</time>
      </trkpt>
      <trkpt lat="45.51568" lon="5.97792">
        <ele>330.83</ele>
        <time>2011-04-03T16:36:51Z</time>
      </trkpt>
      <trkpt lat="45.51656" lon="5.97754">
        <ele>328.43</ele>
        <time>2011-04-03T16:37:06Z</time>
      </trkpt>
      <trkpt lat="45.51713" lon="5.97734">
        <ele>326.5</ele>
        <time>2011-04-03T16:37:15Z</time>
      </trkpt>
      <trkpt lat="45.51733" lon="5.97731">
        <ele>325.06</ele>
        <time>2011-04-03T16:37:18Z</time>
      </trkpt>
      <trkpt lat="45.51739" lon="5.97732">
        <ele>324.58</ele>
        <time>2011-04-03T16:37:19Z</time>
      </trkpt>
      <trkpt lat="45.51745" lon="5.97734">
        <ele>324.58</ele>
        <time>2011-04-03T16:37:20Z</time>
      </trkpt>
      <trkpt lat="45.51806" lon="5.97759">
        <ele>322.18</ele>
        <time>2011-04-03T16:37:31Z</time>
      </trkpt>
      <trkpt lat="45.51811" lon="5.97763">
        <ele>322.18</ele>
        <time>2011-04-03T16:37:32Z</time>
      </trkpt>
      <trkpt lat="45.51816" lon="5.97769">
        <ele>322.18</ele>
        <time>2011-04-03T16:37:33Z</time>
      </trkpt>
      <trkpt lat="45.5182" lon="5.97776">
        <ele>321.7</ele>
        <time>2011-04-03T16:37:34Z</time>
      </trkpt>
      <trkpt lat="45.51823" lon="5.97784">
        <ele>321.7</ele>
        <time>2011-04-03T16:37:35Z</time>
      </trkpt>
      <trkpt lat="45.51825" lon="5.97792">
        <ele>321.7</ele>
        <time>2011-04-03T16:37:36Z</time>
      </trkpt>
      <trkpt lat="45.51834" lon="5.97814">
        <ele>321.7</ele>
        <time>2011-04-03T16:37:39Z</time>
      </trkpt>
      <trkpt lat="45.51841" lon="5.97826">
        <ele>321.7</ele>
        <time>2011-04-03T16:37:41Z</time>
      </trkpt>
      <trkpt lat="45.51845" lon="5.97832">
        <ele>321.22</ele>
        <time>2011-04-03T16:37:42Z</time>
      </trkpt>
      <trkpt lat="45.51848" lon="5.97838">
        <ele>321.22</ele>
        <time>2011-04-03T16:37:43Z</time>
      </trkpt>
      <trkpt lat="45.51851" lon="5.97844">
        <ele>321.22</ele>
        <time>2011-04-03T16:37:44Z</time>
      </trkpt>
      <trkpt lat="45.51856" lon="5.97847">
        <ele>321.7</ele>
        <time>2011-04-03T16:37:45Z</time>
      </trkpt>
      <trkpt lat="45.51861" lon="5.97848">
        <ele>321.22</ele>
        <time>2011-04-03T16:37:46Z</time>
      </trkpt>
      <trkpt lat="45.51865" lon="5.97844">
        <ele>320.74</ele>
        <time>2011-04-03T16:37:47Z</time>
      </trkpt>
      <trkpt lat="45.51868" lon="5.97836">
        <ele>320.74</ele>
        <time>2011-04-03T16:37:48Z</time>
      </trkpt>
      <trkpt lat="45.51871" lon="5.97829">
        <ele>320.26</ele>
        <time>2011-04-03T16:37:49Z</time>
      </trkpt>
      <trkpt lat="45.51874" lon="5.97821">
        <ele>320.26</ele>
        <time>2011-04-03T16:37:50Z</time>
      </trkpt>
      <trkpt lat="45.51878" lon="5.97814">
        <ele>320.26</ele>
        <time>2011-04-03T16:37:51Z</time>
      </trkpt>
      <trkpt lat="45.51882" lon="5.97808">
        <ele>320.26</ele>
        <time>2011-04-03T16:37:52Z</time>
      </trkpt>
      <trkpt lat="45.51886" lon="5.97801">
        <ele>320.26</ele>
        <time>2011-04-03T16:37:53Z</time>
      </trkpt>
      <trkpt lat="45.51925" lon="5.97755">
        <ele>319.78</ele>
        <time>2011-04-03T16:38:02Z</time>
      </trkpt>
      <trkpt lat="45.51931" lon="5.97754">
        <ele>319.78</ele>
        <time>2011-04-03T16:38:03Z</time>
      </trkpt>
      <trkpt lat="45.51936" lon="5.97756">
        <ele>318.81</ele>
        <time>2011-04-03T16:38:04Z</time>
      </trkpt>
      <trkpt lat="45.51942" lon="5.97761">
        <ele>318.81</ele>
        <time>2011-04-03T16:38:05Z</time>
      </trkpt>
      <trkpt lat="45.51946" lon="5.97766">
        <ele>318.81</ele>
        <time>2011-04-03T16:38:06Z</time>
      </trkpt>
      <trkpt lat="45.51951" lon="5.9777">
        <ele>319.3</ele>
        <time>2011-04-03T16:38:07Z</time>
      </trkpt>
      <trkpt lat="45.51955" lon="5.97775">
        <ele>318.81</ele>
        <time>2011-04-03T16:38:08Z</time>
      </trkpt>
      <trkpt lat="45.5196" lon="5.97781">
        <ele>318.33</ele>
        <time>2011-04-03T16:38:09Z</time>
      </trkpt>
      <trkpt lat="45.52001" lon="5.97842">
        <ele>318.33</ele>
        <time>2011-04-03T16:38:19Z</time>
      </trkpt>
      <trkpt lat="45.52066" lon="5.97933">
        <ele>316.89</ele>
        <time>2011-04-03T16:38:34Z</time>
      </trkpt>
      <trkpt lat="45.5207" lon="5.9794">
        <ele>316.89</ele>
        <time>2011-04-03T16:38:35Z</time>
      </trkpt>
      <trkpt lat="45.52073" lon="5.97947">
        <ele>316.89</ele>
        <time>2011-04-03T16:38:36Z</time>
      </trkpt>
      <trkpt lat="45.52076" lon="5.97955">
        <ele>316.89</ele>
        <time>2011-04-03T16:38:37Z</time>
      </trkpt>
      <trkpt lat="45.52078" lon="5.97963">
        <ele>316.89</ele>
        <time>2011-04-03T16:38:38Z</time>
      </trkpt>
      <trkpt lat="45.52078" lon="5.97971">
        <ele>316.89</ele>
        <time>2011-04-03T16:38:39Z</time>
      </trkpt>
      <trkpt lat="45.52077" lon="5.9798">
        <ele>316.89</ele>
        <time>2011-04-03T16:38:40Z</time>
      </trkpt>
      <trkpt lat="45.52075" lon="5.97988">
        <ele>316.41</ele>
        <time>2011-04-03T16:38:41Z</time>
      </trkpt>
      <trkpt lat="45.52071" lon="5.97996">
        <ele>316.41</ele>
        <time>2011-04-03T16:38:42Z</time>
      </trkpt>
      <trkpt lat="45.52067" lon="5.98003">
        <ele>315.93</ele>
        <time>2011-04-03T16:38:43Z</time>
      </trkpt>
      <trkpt lat="45.52061" lon="5.98009">
        <ele>315.93</ele>
        <time>2011-04-03T16:38:44Z</time>
      </trkpt>
      <trkpt lat="45.52054" lon="5.98014">
        <ele>315.93</ele>
        <time>2011-04-03T16:38:45Z</time>
      </trkpt>
      <trkpt lat="45.52026" lon="5.98033">
        <ele>314.49</ele>
        <time>2011-04-03T16:38:49Z</time>
      </trkpt>
      <trkpt lat="45.5202" lon="5.9804">
        <ele>314.01</ele>
        <time>2011-04-03T16:38:50Z</time>
      </trkpt>
      <trkpt lat="45.52016" lon="5.98048">
        <ele>313.53</ele>
        <time>2011-04-03T16:38:51Z</time>
      </trkpt>
      <trkpt lat="45.52013" lon="5.98058">
        <ele>313.53</ele>
        <time>2011-04-03T16:38:52Z</time>
      </trkpt>
      <trkpt lat="45.52013" lon="5.98069">
        <ele>313.53</ele>
        <time>2011-04-03T16:38:53Z</time>
      </trkpt>
      <trkpt lat="45.52014" lon="5.98079">
        <ele>313.53</ele>
        <time>2011-04-03T16:38:54Z</time>
      </trkpt>
      <trkpt lat="45.52018" lon="5.98089">
        <ele>313.05</ele>
        <time>2011-04-03T16:38:55Z</time>
      </trkpt>
      <trkpt lat="45.52022" lon="5.98097">
        <ele>313.05</ele>
        <time>2011-04-03T16:38:56Z</time>
      </trkpt>
      <trkpt lat="45.52028" lon="5.98104">
        <ele>312.57</ele>
        <time>2011-04-03T16:38:57Z</time>
      </trkpt>
      <trkpt lat="45.52033" lon="5.98111">
        <ele>312.57</ele>
        <time>2011-04-03T16:38:58Z</time>
      </trkpt>
      <trkpt lat="45.5206" lon="5.98146">
        <ele>312.57</ele>
        <time>2011-04-03T16:39:03Z</time>
      </trkpt>
      <trkpt lat="45.52066" lon="5.98151">
        <ele>312.09</ele>
        <time>2011-04-03T16:39:04Z</time>
      </trkpt>
      <trkpt lat="45.52073" lon="5.98153">
        <ele>312.57</ele>
        <time>2011-04-03T16:39:05Z</time>
      </trkpt>
      <trkpt lat="45.52079" lon="5.98153">
        <ele>313.05</ele>
        <time>2011-04-03T16:39:06Z</time>
      </trkpt>
      <trkpt lat="45.52087" lon="5.98153">
        <ele>313.05</ele>
        <time>2011-04-03T16:39:07Z</time>
      </trkpt>
      <trkpt lat="45.52094" lon="5.9815">
        <ele>313.05</ele>
        <time>2011-04-03T16:39:08Z</time>
      </trkpt>
      <trkpt lat="45.52099" lon="5.98146">
        <ele>313.53</ele>
        <time>2011-04-03T16:39:09Z</time>
      </trkpt>
      <trkpt lat="45.52104" lon="5.9814">
        <ele>314.01</ele>
        <time>2011-04-03T16:39:10Z</time>
      </trkpt>
      <trkpt lat="45.52107" lon="5.98134">
        <ele>314.01</ele>
        <time>2011-04-03T16:39:11Z</time>
      </trkpt>
      <trkpt lat="45.52108" lon="5.98128">
        <ele>313.05</ele>
        <time>2011-04-03T16:39:12Z</time>
      </trkpt>
      <trkpt lat="45.5211" lon="5.98121">
        <ele>313.53</ele>
        <time>2011-04-03T16:39:13Z</time>
      </trkpt>
      <trkpt lat="45.52111" lon="5.98114">
        <ele>314.01</ele>
        <time>2011-04-03T16:39:14Z</time>
      </trkpt>
      <trkpt lat="45.52112" lon="5.98107">
        <ele>313.53</ele>
        <time>2011-04-03T16:39:15Z</time>
      </trkpt>
      <trkpt lat="45.52113" lon="5.981">
        <ele>314.01</ele>
        <time>2011-04-03T16:39:16Z</time>
      </trkpt>
      <trkpt lat="45.52114" lon="5.98093">
        <ele>314.01</ele>
        <time>2011-04-03T16:39:17Z</time>
      </trkpt>
      <trkpt lat="45.52115" lon="5.98087">
        <ele>314.97</ele>
        <time>2011-04-03T16:39:18Z</time>
      </trkpt>
      <trkpt lat="45.52116" lon="5.9808">
        <ele>315.45</ele>
        <time>2011-04-03T16:39:19Z</time>
      </trkpt>
      <trkpt lat="45.52118" lon="5.98066">
        <ele>315.45</ele>
        <time>2011-04-03T16:39:21Z</time>
      </trkpt>
      <trkpt lat="45.52125" lon="5.98042">
        <ele>316.41</ele>
        <time>2011-04-03T16:39:25Z</time>
      </trkpt>
      <trkpt lat="45.52129" lon="5.98037">
        <ele>315.93</ele>
        <time>2011-04-03T16:39:26Z</time>
      </trkpt>
      <trkpt lat="45.52133" lon="5.98035">
        <ele>316.89</ele>
        <time>2011-04-03T16:39:27Z</time>
      </trkpt>
      <trkpt lat="45.52137" lon="5.98033">
        <ele>317.37</ele>
        <time>2011-04-03T16:39:28Z</time>
      </trkpt>
      <trkpt lat="45.52142" lon="5.98034">
        <ele>316.89</ele>
        <time>2011-04-03T16:39:29Z</time>
      </trkpt>
      <trkpt lat="45.52146" lon="5.98036">
        <ele>317.37</ele>
        <time>2011-04-03T16:39:30Z</time>
      </trkpt>
      <trkpt lat="45.5215" lon="5.98038">
        <ele>317.85</ele>
        <time>2011-04-03T16:39:31Z</time>
      </trkpt>
      <trkpt lat="45.52153" lon="5.9804">
        <ele>317.85</ele>
        <time>2011-04-03T16:39:32Z</time>
      </trkpt>
      <trkpt lat="45.52164" lon="5.98046">
        <ele>317.37</ele>
        <time>2011-04-03T16:39:35Z</time>
      </trkpt>
      <trkpt lat="45.52168" lon="5.98049">
        <ele>317.85</ele>
        <time>2011-04-03T16:39:36Z</time>
      </trkpt>
      <trkpt lat="45.52216" lon="5.98126">
        <ele>317.85</ele>
        <time>2011-04-03T16:39:50Z</time>
      </trkpt>
      <trkpt lat="45.52223" lon="5.98136">
        <ele>317.85</ele>
        <time>2011-04-03T16:39:52Z</time>
      </trkpt>
      <trkpt lat="45.52228" lon="5.9814">
        <ele>317.37</ele>
        <time>2011-04-03T16:39:53Z</time>
      </trkpt>
      <trkpt lat="45.52233" lon="5.98143">
        <ele>317.37</ele>
        <time>2011-04-03T16:39:54Z</time>
      </trkpt>
      <trkpt lat="45.52239" lon="5.98144">
        <ele>317.85</ele>
        <time>2011-04-03T16:39:55Z</time>
      </trkpt>
      <trkpt lat="45.52244" lon="5.98145">
        <ele>317.85</ele>
        <time>2011-04-03T16:39:56Z</time>
      </trkpt>
      <trkpt lat="45.5225" lon="5.98144">
        <ele>317.85</ele>
        <time>2011-04-03T16:39:57Z</time>
      </trkpt>
      <trkpt lat="45.52255" lon="5.98143">
        <ele>317.85</ele>
        <time>2011-04-03T16:39:58Z</time>
      </trkpt>
      <trkpt lat="45.52259" lon="5.98141">
        <ele>317.85</ele>
        <time>2011-04-03T16:39:59Z</time>
      </trkpt>
      <trkpt lat="45.52273" lon="5.98133">
        <ele>318.33</ele>
        <time>2011-04-03T16:40:02Z</time>
      </trkpt>
      <trkpt lat="45.52281" lon="5.98127">
        <ele>318.81</ele>
        <time>2011-04-03T16:40:04Z</time>
      </trkpt>
      <trkpt lat="45.52285" lon="5.98124">
        <ele>318.33</ele>
        <time>2011-04-03T16:40:05Z</time>
      </trkpt>
      <trkpt lat="45.52289" lon="5.9812">
        <ele>318.81</ele>
        <time>2011-04-03T16:40:06Z</time>
      </trkpt>
      <trkpt lat="45.52318" lon="5.98088">
        <ele>319.78</ele>
        <time>2011-04-03T16:40:14Z</time>
      </trkpt>
      <trkpt lat="45.52358" lon="5.9804">
        <ele>320.74</ele>
        <time>2011-04-03T16:40:25Z</time>
      </trkpt>
      <trkpt lat="45.52368" lon="5.98024">
        <ele>320.74</ele>
        <time>2011-04-03T16:40:28Z</time>
      </trkpt>
      <trkpt lat="45.52393" lon="5.97986">
        <ele>321.22</ele>
        <time>2011-04-03T16:40:35Z</time>
      </trkpt>
      <trkpt lat="45.52398" lon="5.97982">
        <ele>321.22</ele>
        <time>2011-04-03T16:40:36Z</time>
      </trkpt>
      <trkpt lat="45.52402" lon="5.97979">
        <ele>321.22</ele>
        <time>2011-04-03T16:40:37Z</time>
      </trkpt>
      <trkpt lat="45.52475" lon="5.97937">
        <ele>321.7</ele>
        <time>2011-04-03T16:40:52Z</time>
      </trkpt>
      <trkpt lat="45.5255" lon="5.97856">
        <ele>321.7</ele>
        <time>2011-04-03T16:41:08Z</time>
      </trkpt>
      <trkpt lat="45.52618" lon="5.97778">
        <ele>319.3</ele>
        <time>2011-04-03T16:41:22Z</time>
      </trkpt>
      <trkpt lat="45.52698" lon="5.9768">
        <ele>317.85</ele>
        <time>2011-04-03T16:41:38Z</time>
      </trkpt>
      <trkpt lat="45.52766" lon="5.97595">
        <ele>314.49</ele>
        <time>2011-04-03T16:41:51Z</time>
      </trkpt>
      <trkpt lat="45.52859" lon="5.97513">
        <ele>312.09</ele>
        <time>2011-04-03T16:42:04Z</time>
      </trkpt>
      <trkpt lat="45.52918" lon="5.97467">
        <ele>311.12</ele>
        <time>2011-04-03T16:42:12Z</time>
      </trkpt>
      <trkpt lat="45.52925" lon="5.97459">
        <ele>310.64</ele>
        <time>2011-04-03T16:42:13Z</time>
      </trkpt>
      <trkpt lat="45.52931" lon="5.9745">
        <ele>310.64</ele>
        <time>2011-04-03T16:42:14Z</time>
      </trkpt>
      <trkpt lat="45.52986" lon="5.97352">
        <ele>309.2</ele>
        <time>2011-04-03T16:42:25Z</time>
      </trkpt>
      <trkpt lat="45.52991" lon="5.97345">
        <ele>309.2</ele>
        <time>2011-04-03T16:42:26Z</time>
      </trkpt>
      <trkpt lat="45.52997" lon="5.97339">
        <ele>308.72</ele>
        <time>2011-04-03T16:42:27Z</time>
      </trkpt>
      <trkpt lat="45.53032" lon="5.97312">
        <ele>309.2</ele>
        <time>2011-04-03T16:42:33Z</time>
      </trkpt>
      <trkpt lat="45.53046" lon="5.97297">
        <ele>309.68</ele>
        <time>2011-04-03T16:42:36Z</time>
      </trkpt>
      <trkpt lat="45.531" lon="5.97236">
        <ele>312.09</ele>
        <time>2011-04-03T16:42:50Z</time>
      </trkpt>
      <trkpt lat="45.5315" lon="5.97204">
        <ele>314.01</ele>
        <time>2011-04-03T16:43:01Z</time>
      </trkpt>
      <trkpt lat="45.53155" lon="5.97202">
        <ele>314.01</ele>
        <time>2011-04-03T16:43:02Z</time>
      </trkpt>
      <trkpt lat="45.53161" lon="5.97202">
        <ele>314.01</ele>
        <time>2011-04-03T16:43:03Z</time>
      </trkpt>
      <trkpt lat="45.53165" lon="5.97201">
        <ele>314.01</ele>
        <time>2011-04-03T16:43:04Z</time>
      </trkpt>
      <trkpt lat="45.5317" lon="5.97199">
        <ele>314.01</ele>
        <time>2011-04-03T16:43:05Z</time>
      </trkpt>
      <trkpt lat="45.53175" lon="5.97196">
        <ele>314.01</ele>
        <time>2011-04-03T16:43:06Z</time>
      </trkpt>
      <trkpt lat="45.5318" lon="5.97192">
        <ele>314.01</ele>
        <time>2011-04-03T16:43:07Z</time>
      </trkpt>
      <trkpt lat="45.53207" lon="5.97171">
        <ele>314.49</ele>
        <time>2011-04-03T16:43:13Z</time>
      </trkpt>
      <trkpt lat="45.53212" lon="5.97168">
        <ele>314.49</ele>
        <time>2011-04-03T16:43:14Z</time>
      </trkpt>
      <trkpt lat="45.53297" lon="5.97113">
        <ele>312.57</ele>
        <time>2011-04-03T16:43:29Z</time>
      </trkpt>
      <trkpt lat="45.53364" lon="5.9707">
        <ele>311.12</ele>
        <time>2011-04-03T16:43:40Z</time>
      </trkpt>
      <trkpt lat="45.5337" lon="5.97066">
        <ele>311.6</ele>
        <time>2011-04-03T16:43:41Z</time>
      </trkpt>
      <trkpt lat="45.53448" lon="5.97019">
        <ele>314.01</ele>
        <time>2011-04-03T16:43:55Z</time>
      </trkpt>
      <trkpt lat="45.53453" lon="5.97016">
        <ele>314.01</ele>
        <time>2011-04-03T16:43:56Z</time>
      </trkpt>
      <trkpt lat="45.53459" lon="5.97012">
        <ele>313.53</ele>
        <time>2011-04-03T16:43:57Z</time>
      </trkpt>
      <trkpt lat="45.53464" lon="5.97009">
        <ele>313.53</ele>
        <time>2011-04-03T16:43:58Z</time>
      </trkpt>
      <trkpt lat="45.53558" lon="5.96943">
        <ele>309.68</ele>
        <time>2011-04-03T16:44:14Z</time>
      </trkpt>
      <trkpt lat="45.53565" lon="5.96938">
        <ele>309.68</ele>
        <time>2011-04-03T16:44:15Z</time>
      </trkpt>
      <trkpt lat="45.53602" lon="5.96912">
        <ele>309.2</ele>
        <time>2011-04-03T16:44:21Z</time>
      </trkpt>
      <trkpt lat="45.53608" lon="5.96907">
        <ele>309.2</ele>
        <time>2011-04-03T16:44:22Z</time>
      </trkpt>
      <trkpt lat="45.53613" lon="5.96904">
        <ele>309.2</ele>
        <time>2011-04-03T16:44:23Z</time>
      </trkpt>
      <trkpt lat="45.53663" lon="5.96881">
        <ele>309.68</ele>
        <time>2011-04-03T16:44:32Z</time>
      </trkpt>
      <trkpt lat="45.53666" lon="5.96875">
        <ele>309.68</ele>
        <time>2011-04-03T16:44:33Z</time>
      </trkpt>
      <trkpt lat="45.5367" lon="5.96854">
        <ele>310.16</ele>
        <time>2011-04-03T16:44:36Z</time>
      </trkpt>
      <trkpt lat="45.53673" lon="5.96848">
        <ele>310.16</ele>
        <time>2011-04-03T16:44:37Z</time>
      </trkpt>
      <trkpt lat="45.53677" lon="5.96844">
        <ele>310.16</ele>
        <time>2011-04-03T16:44:38Z</time>
      </trkpt>
      <trkpt lat="45.53683" lon="5.96842">
        <ele>310.64</ele>
        <time>2011-04-03T16:44:39Z</time>
      </trkpt>
      <trkpt lat="45.53688" lon="5.9684">
        <ele>310.16</ele>
        <time>2011-04-03T16:44:40Z</time>
      </trkpt>
      <trkpt lat="45.53711" lon="5.96829">
        <ele>312.57</ele>
        <time>2011-04-03T16:44:45Z</time>
      </trkpt>
      <trkpt lat="45.53722" lon="5.96825">
        <ele>313.05</ele>
        <time>2011-04-03T16:44:47Z</time>
      </trkpt>
      <trkpt lat="45.53727" lon="5.96822">
        <ele>314.01</ele>
        <time>2011-04-03T16:44:48Z</time>
      </trkpt>
      <trkpt lat="45.53731" lon="5.96817">
        <ele>314.01</ele>
        <time>2011-04-03T16:44:49Z</time>
      </trkpt>
      <trkpt lat="45.53735" lon="5.96812">
        <ele>314.49</ele>
        <time>2011-04-03T16:44:50Z</time>
      </trkpt>
      <trkpt lat="45.53737" lon="5.96805">
        <ele>314.97</ele>
        <time>2011-04-03T16:44:51Z</time>
      </trkpt>
      <trkpt lat="45.53738" lon="5.96798">
        <ele>314.97</ele>
        <time>2011-04-03T16:44:52Z</time>
      </trkpt>
      <trkpt lat="45.53737" lon="5.9679">
        <ele>314.97</ele>
        <time>2011-04-03T16:44:53Z</time>
      </trkpt>
      <trkpt lat="45.53733" lon="5.96783">
        <ele>314.97</ele>
        <time>2011-04-03T16:44:54Z</time>
      </trkpt>
      <trkpt lat="45.53729" lon="5.96776">
        <ele>314.49</ele>
        <time>2011-04-03T16:44:55Z</time>
      </trkpt>
      <trkpt lat="45.53696" lon="5.96717">
        <ele>313.05</ele>
        <time>2011-04-03T16:45:03Z</time>
      </trkpt>
      <trkpt lat="45.53691" lon="5.96711">
        <ele>313.05</ele>
        <time>2011-04-03T16:45:04Z</time>
      </trkpt>
      <trkpt lat="45.53685" lon="5.96707">
        <ele>312.57</ele>
        <time>2011-04-03T16:45:05Z</time>
      </trkpt>
      <trkpt lat="45.53677" lon="5.96703">
        <ele>311.6</ele>
        <time>2011-04-03T16:45:06Z</time>
      </trkpt>
      <trkpt lat="45.5367" lon="5.96701">
        <ele>311.12</ele>
        <time>2011-04-03T16:45:07Z</time>
      </trkpt>
      <trkpt lat="45.53661" lon="5.96699">
        <ele>310.64</ele>
        <time>2011-04-03T16:45:08Z</time>
      </trkpt>
      <trkpt lat="45.53654" lon="5.96694">
        <ele>310.16</ele>
        <time>2011-04-03T16:45:09Z</time>
      </trkpt>
      <trkpt lat="45.5365" lon="5.96686">
        <ele>309.68</ele>
        <time>2011-04-03T16:45:10Z</time>
      </trkpt>
      <trkpt lat="45.5365" lon="5.96676">
        <ele>309.2</ele>
        <time>2011-04-03T16:45:11Z</time>
      </trkpt>
      <trkpt lat="45.53655" lon="5.96669">
        <ele>308.72</ele>
        <time>2011-04-03T16:45:12Z</time>
      </trkpt>
      <trkpt lat="45.53662" lon="5.96664">
        <ele>308.24</ele>
        <time>2011-04-03T16:45:13Z</time>
      </trkpt>
      <trkpt lat="45.53668" lon="5.96658">
        <ele>308.24</ele>
        <time>2011-04-03T16:45:14Z</time>
      </trkpt>
      <trkpt lat="45.53681" lon="5.96646">
        <ele>308.72</ele>
        <time>2011-04-03T16:45:16Z</time>
      </trkpt>
      <trkpt lat="45.53686" lon="5.96639">
        <ele>307.28</ele>
        <time>2011-04-03T16:45:17Z</time>
      </trkpt>
      <trkpt lat="45.53688" lon="5.96629">
        <ele>306.8</ele>
        <time>2011-04-03T16:45:18Z</time>
      </trkpt>
      <trkpt lat="45.53687" lon="5.9662">
        <ele>306.32</ele>
        <time>2011-04-03T16:45:19Z</time>
      </trkpt>
      <trkpt lat="45.53682" lon="5.96612">
        <ele>306.32</ele>
        <time>2011-04-03T16:45:20Z</time>
      </trkpt>
      <trkpt lat="45.53678" lon="5.96602">
        <ele>306.32</ele>
        <time>2011-04-03T16:45:21Z</time>
      </trkpt>
      <trkpt lat="45.53675" lon="5.96591">
        <ele>305.84</ele>
        <time>2011-04-03T16:45:22Z</time>
      </trkpt>
      <trkpt lat="45.53672" lon="5.9658">
        <ele>305.84</ele>
        <time>2011-04-03T16:45:23Z</time>
      </trkpt>
      <trkpt lat="45.53671" lon="5.96568">
        <ele>304.88</ele>
        <time>2011-04-03T16:45:24Z</time>
      </trkpt>
      <trkpt lat="45.53675" lon="5.96558">
        <ele>304.88</ele>
        <time>2011-04-03T16:45:25Z</time>
      </trkpt>
      <trkpt lat="45.53681" lon="5.9655">
        <ele>304.39</ele>
        <time>2011-04-03T16:45:26Z</time>
      </trkpt>
      <trkpt lat="45.53688" lon="5.96544">
        <ele>303.91</ele>
        <time>2011-04-03T16:45:27Z</time>
      </trkpt>
      <trkpt lat="45.53695" lon="5.96537">
        <ele>304.39</ele>
        <time>2011-04-03T16:45:28Z</time>
      </trkpt>
      <trkpt lat="45.53702" lon="5.96531">
        <ele>303.43</ele>
        <time>2011-04-03T16:45:29Z</time>
      </trkpt>
      <trkpt lat="45.5373" lon="5.96506">
        <ele>302.95</ele>
        <time>2011-04-03T16:45:33Z</time>
      </trkpt>
      <trkpt lat="45.53738" lon="5.96503">
        <ele>302.47</ele>
        <time>2011-04-03T16:45:34Z</time>
      </trkpt>
      <trkpt lat="45.53848" lon="5.96462">
        <ele>301.99</ele>
        <time>2011-04-03T16:45:49Z</time>
      </trkpt>
      <trkpt lat="45.53945" lon="5.964">
        <ele>300.07</ele>
        <time>2011-04-03T16:46:04Z</time>
      </trkpt>
      <trkpt lat="45.54038" lon="5.96335">
        <ele>299.11</ele>
        <time>2011-04-03T16:46:19Z</time>
      </trkpt>
      <trkpt lat="45.54114" lon="5.96276">
        <ele>298.63</ele>
        <time>2011-04-03T16:46:32Z</time>
      </trkpt>
      <trkpt lat="45.54229" lon="5.9621">
        <ele>297.67</ele>
        <time>2011-04-03T16:46:51Z</time>
      </trkpt>
      <trkpt lat="45.54315" lon="5.96165">
        <ele>296.7</ele>
        <time>2011-04-03T16:47:05Z</time>
      </trkpt>
      <trkpt lat="45.54438" lon="5.96128">
        <ele>295.26</ele>
        <time>2011-04-03T16:47:23Z</time>
      </trkpt>
      <trkpt lat="45.54471" lon="5.96117">
        <ele>295.26</ele>
        <time>2011-04-03T16:47:28Z</time>
      </trkpt>
      <trkpt lat="45.54477" lon="5.96113">
        <ele>295.74</ele>
        <time>2011-04-03T16:47:29Z</time>
      </trkpt>
      <trkpt lat="45.54483" lon="5.96107">
        <ele>295.26</ele>
        <time>2011-04-03T16:47:30Z</time>
      </trkpt>
      <trkpt lat="45.54494" lon="5.96096">
        <ele>295.26</ele>
        <time>2011-04-03T16:47:32Z</time>
      </trkpt>
      <trkpt lat="45.54512" lon="5.96085">
        <ele>295.26</ele>
        <time>2011-04-03T16:47:35Z</time>
      </trkpt>
      <trkpt lat="45.54519" lon="5.96082">
        <ele>295.26</ele>
        <time>2011-04-03T16:47:36Z</time>
      </trkpt>
      <trkpt lat="45.54525" lon="5.96078">
        <ele>294.78</ele>
        <time>2011-04-03T16:47:37Z</time>
      </trkpt>
      <trkpt lat="45.54625" lon="5.96018">
        <ele>292.86</ele>
        <time>2011-04-03T16:47:52Z</time>
      </trkpt>
      <trkpt lat="45.54717" lon="5.95964">
        <ele>292.86</ele>
        <time>2011-04-03T16:48:07Z</time>
      </trkpt>
      <trkpt lat="45.54833" lon="5.959">
        <ele>292.38</ele>
        <time>2011-04-03T16:48:25Z</time>
      </trkpt>
      <trkpt lat="45.54839" lon="5.95898">
        <ele>291.9</ele>
        <time>2011-04-03T16:48:26Z</time>
      </trkpt>
      <trkpt lat="45.54852" lon="5.95896">
        <ele>292.86</ele>
        <time>2011-04-03T16:48:28Z</time>
      </trkpt>
      <trkpt lat="45.54858" lon="5.95895">
        <ele>293.34</ele>
        <time>2011-04-03T16:48:29Z</time>
      </trkpt>
      <trkpt lat="45.5493" lon="5.95866">
        <ele>294.78</ele>
        <time>2011-04-03T16:48:42Z</time>
      </trkpt>
      <trkpt lat="45.54967" lon="5.95852">
        <ele>291.9</ele>
        <time>2011-04-03T16:48:47Z</time>
      </trkpt>
      <trkpt lat="45.55073" lon="5.95805">
        <ele>289.49</ele>
        <time>2011-04-03T16:49:01Z</time>
      </trkpt>
      <trkpt lat="45.55152" lon="5.95733">
        <ele>289.49</ele>
        <time>2011-04-03T16:49:15Z</time>
      </trkpt>
      <trkpt lat="45.55236" lon="5.95618">
        <ele>289.01</ele>
        <time>2011-04-03T16:49:33Z</time>
      </trkpt>
      <trkpt lat="45.55292" lon="5.9556">
        <ele>289.49</ele>
        <time>2011-04-03T16:49:46Z</time>
      </trkpt>
      <trkpt lat="45.55313" lon="5.95539">
        <ele>289.49</ele>
        <time>2011-04-03T16:49:51Z</time>
      </trkpt>
      <trkpt lat="45.55364" lon="5.95487">
        <ele>289.01</ele>
        <time>2011-04-03T16:50:03Z</time>
      </trkpt>
      <trkpt lat="45.55368" lon="5.95483">
        <ele>288.53</ele>
        <time>2011-04-03T16:50:04Z</time>
      </trkpt>
      <trkpt lat="45.55387" lon="5.95462">
        <ele>288.53</ele>
        <time>2011-04-03T16:50:09Z</time>
      </trkpt>
      <trkpt lat="45.55391" lon="5.95459">
        <ele>289.01</ele>
        <time>2011-04-03T16:50:10Z</time>
      </trkpt>
      <trkpt lat="45.55415" lon="5.95439">
        <ele>287.57</ele>
        <time>2011-04-03T16:50:16Z</time>
      </trkpt>
      <trkpt lat="45.55418" lon="5.95434">
        <ele>287.57</ele>
        <time>2011-04-03T16:50:17Z</time>
      </trkpt>
      <trkpt lat="45.55419" lon="5.95429">
        <ele>287.57</ele>
        <time>2011-04-03T16:50:18Z</time>
      </trkpt>
      <trkpt lat="45.55419" lon="5.95424">
        <ele>287.09</ele>
        <time>2011-04-03T16:50:19Z</time>
      </trkpt>
      <trkpt lat="45.55418" lon="5.95421">
        <ele>287.09</ele>
        <time>2011-04-03T16:50:20Z</time>
      </trkpt>
      <trkpt lat="45.55415" lon="5.9542">
        <ele>287.57</ele>
        <time>2011-04-03T16:50:21Z</time>
      </trkpt>
      <trkpt lat="45.55408" lon="5.95415">
        <ele>287.57</ele>
        <time>2011-04-03T16:50:23Z</time>
      </trkpt>
      <trkpt lat="45.55402" lon="5.95414">
        <ele>287.57</ele>
        <time>2011-04-03T16:50:24Z</time>
      </trkpt>
      <trkpt lat="45.55396" lon="5.95415">
        <ele>287.57</ele>
        <time>2011-04-03T16:50:25Z</time>
      </trkpt>
      <trkpt lat="45.55391" lon="5.95419">
        <ele>287.57</ele>
        <time>2011-04-03T16:50:26Z</time>
      </trkpt>
      <trkpt lat="45.55388" lon="5.95423">
        <ele>288.05</ele>
        <time>2011-04-03T16:50:27Z</time>
      </trkpt>
      <trkpt lat="45.55385" lon="5.95428">
        <ele>288.53</ele>
        <time>2011-04-03T16:50:28Z</time>
      </trkpt>
      <trkpt lat="45.55378" lon="5.95429">
        <ele>288.53</ele>
        <time>2011-04-03T16:50:29Z</time>
      </trkpt>
      <trkpt lat="45.55374" lon="5.95428">
        <ele>289.01</ele>
        <time>2011-04-03T16:50:30Z</time>
      </trkpt>
      <trkpt lat="45.55371" lon="5.95425">
        <ele>289.01</ele>
        <time>2011-04-03T16:50:31Z</time>
      </trkpt>
      <trkpt lat="45.55368" lon="5.95422">
        <ele>289.49</ele>
        <time>2011-04-03T16:50:32Z</time>
      </trkpt>
      <trkpt lat="45.55364" lon="5.9542">
        <ele>289.01</ele>
        <time>2011-04-03T16:50:33Z</time>
      </trkpt>
      <trkpt lat="45.5536" lon="5.95416">
        <ele>289.01</ele>
        <time>2011-04-03T16:50:34Z</time>
      </trkpt>
      <trkpt lat="45.55356" lon="5.95412">
        <ele>288.53</ele>
        <time>2011-04-03T16:50:35Z</time>
      </trkpt>
      <trkpt lat="45.55354" lon="5.95406">
        <ele>289.01</ele>
        <time>2011-04-03T16:50:36Z</time>
      </trkpt>
      <trkpt lat="45.55353" lon="5.954">
        <ele>289.01</ele>
        <time>2011-04-03T16:50:37Z</time>
      </trkpt>
      <trkpt lat="45.55353" lon="5.95393">
        <ele>289.01</ele>
        <time>2011-04-03T16:50:38Z</time>
      </trkpt>
      <trkpt lat="45.55354" lon="5.95387">
        <ele>288.05</ele>
        <time>2011-04-03T16:50:39Z</time>
      </trkpt>
      <trkpt lat="45.55358" lon="5.9538">
        <ele>289.49</ele>
        <time>2011-04-03T16:50:40Z</time>
      </trkpt>
      <trkpt lat="45.55362" lon="5.95375">
        <ele>289.49</ele>
        <time>2011-04-03T16:50:41Z</time>
      </trkpt>
      <trkpt lat="45.55365" lon="5.9537">
        <ele>289.49</ele>
        <time>2011-04-03T16:50:42Z</time>
      </trkpt>
      <trkpt lat="45.5537" lon="5.95366">
        <ele>289.49</ele>
        <time>2011-04-03T16:50:43Z</time>
      </trkpt>
      <trkpt lat="45.55415" lon="5.95321">
        <ele>287.57</ele>
        <time>2011-04-03T16:50:52Z</time>
      </trkpt>
      <trkpt lat="45.5549" lon="5.95225">
        <ele>286.61</ele>
        <time>2011-04-03T16:51:09Z</time>
      </trkpt>
      <trkpt lat="45.5556" lon="5.95136">
        <ele>287.09</ele>
        <time>2011-04-03T16:51:26Z</time>
      </trkpt>
      <trkpt lat="45.55624" lon="5.95057">
        <ele>287.09</ele>
        <time>2011-04-03T16:51:42Z</time>
      </trkpt>
      <trkpt lat="45.55652" lon="5.9502">
        <ele>287.09</ele>
        <time>2011-04-03T16:51:49Z</time>
      </trkpt>
      <trkpt lat="45.55665" lon="5.95006">
        <ele>287.09</ele>
        <time>2011-04-03T16:51:52Z</time>
      </trkpt>
      <trkpt lat="45.55722" lon="5.94928">
        <ele>287.09</ele>
        <time>2011-04-03T16:52:06Z</time>
      </trkpt>
      <trkpt lat="45.55735" lon="5.94912">
        <ele>286.61</ele>
        <time>2011-04-03T16:52:09Z</time>
      </trkpt>
      <trkpt lat="45.5574" lon="5.94908">
        <ele>286.61</ele>
        <time>2011-04-03T16:52:10Z</time>
      </trkpt>
      <trkpt lat="45.55745" lon="5.94904">
        <ele>286.61</ele>
        <time>2011-04-03T16:52:11Z</time>
      </trkpt>
      <trkpt lat="45.5575" lon="5.94901">
        <ele>286.61</ele>
        <time>2011-04-03T16:52:12Z</time>
      </trkpt>
      <trkpt lat="45.55755" lon="5.94897">
        <ele>286.61</ele>
        <time>2011-04-03T16:52:13Z</time>
      </trkpt>
      <trkpt lat="45.55758" lon="5.94893">
        <ele>286.13</ele>
        <time>2011-04-03T16:52:14Z</time>
      </trkpt>
      <trkpt lat="45.55763" lon="5.94888">
        <ele>286.13</ele>
        <time>2011-04-03T16:52:15Z</time>
      </trkpt>
      <trkpt lat="45.55766" lon="5.94884">
        <ele>286.61</ele>
        <time>2011-04-03T16:52:16Z</time>
      </trkpt>
      <trkpt lat="45.55769" lon="5.94879">
        <ele>286.61</ele>
        <time>2011-04-03T16:52:17Z</time>
      </trkpt>
      <trkpt lat="45.55769" lon="5.94873">
        <ele>286.13</ele>
        <time>2011-04-03T16:52:18Z</time>
      </trkpt>
      <trkpt lat="45.55767" lon="5.94867">
        <ele>286.61</ele>
        <time>2011-04-03T16:52:19Z</time>
      </trkpt>
      <trkpt lat="45.55765" lon="5.94862">
        <ele>287.09</ele>
        <time>2011-04-03T16:52:20Z</time>
      </trkpt>
      <trkpt lat="45.55765" lon="5.94857">
        <ele>287.09</ele>
        <time>2011-04-03T16:52:21Z</time>
      </trkpt>
      <trkpt lat="45.55767" lon="5.94853">
        <ele>287.09</ele>
        <time>2011-04-03T16:52:22Z</time>
      </trkpt>
      <trkpt lat="45.55769" lon="5.94851">
        <ele>287.09</ele>
        <time>2011-04-03T16:52:23Z</time>
      </trkpt>
      <trkpt lat="45.55788" lon="5.94837">
        <ele>287.09</ele>
        <time>2011-04-03T16:52:28Z</time>
      </trkpt>
      <trkpt lat="45.55843" lon="5.94808">
        <ele>285.17</ele>
        <time>2011-04-03T16:52:40Z</time>
      </trkpt>
      <trkpt lat="45.55848" lon="5.94805">
        <ele>285.17</ele>
        <time>2011-04-03T16:52:41Z</time>
      </trkpt>
      <trkpt lat="45.55852" lon="5.94803">
        <ele>285.17</ele>
        <time>2011-04-03T16:52:42Z</time>
      </trkpt>
      <trkpt lat="45.5587" lon="5.9479">
        <ele>285.17</ele>
        <time>2011-04-03T16:52:46Z</time>
      </trkpt>
      <trkpt lat="45.55872" lon="5.94784">
        <ele>286.13</ele>
        <time>2011-04-03T16:52:47Z</time>
      </trkpt>
      <trkpt lat="45.55874" lon="5.94775">
        <ele>285.65</ele>
        <time>2011-04-03T16:52:48Z</time>
      </trkpt>
      <trkpt lat="45.55907" lon="5.9466">
        <ele>284.69</ele>
        <time>2011-04-03T16:53:02Z</time>
      </trkpt>
      <trkpt lat="45.55949" lon="5.94579">
        <ele>284.21</ele>
        <time>2011-04-03T16:53:15Z</time>
      </trkpt>
      <trkpt lat="45.55953" lon="5.94575">
        <ele>284.21</ele>
        <time>2011-04-03T16:53:16Z</time>
      </trkpt>
      <trkpt lat="45.55986" lon="5.94557">
        <ele>284.21</ele>
        <time>2011-04-03T16:53:26Z</time>
      </trkpt>
      <trkpt lat="45.55994" lon="5.94555">
        <ele>284.21</ele>
        <time>2011-04-03T16:53:28Z</time>
      </trkpt>
      <trkpt lat="45.5606" lon="5.94539">
        <ele>284.21</ele>
        <time>2011-04-03T16:53:41Z</time>
      </trkpt>
      <trkpt lat="45.56065" lon="5.94535">
        <ele>284.21</ele>
        <time>2011-04-03T16:53:42Z</time>
      </trkpt>
      <trkpt lat="45.56069" lon="5.9453">
        <ele>283.73</ele>
        <time>2011-04-03T16:53:43Z</time>
      </trkpt>
      <trkpt lat="45.56073" lon="5.94524">
        <ele>283.73</ele>
        <time>2011-04-03T16:53:44Z</time>
      </trkpt>
      <trkpt lat="45.56076" lon="5.94516">
        <ele>283.73</ele>
        <time>2011-04-03T16:53:45Z</time>
      </trkpt>
      <trkpt lat="45.56078" lon="5.94509">
        <ele>284.21</ele>
        <time>2011-04-03T16:53:46Z</time>
      </trkpt>
      <trkpt lat="45.56083" lon="5.94493">
        <ele>284.21</ele>
        <time>2011-04-03T16:53:48Z</time>
      </trkpt>
      <trkpt lat="45.56085" lon="5.94485">
        <ele>284.21</ele>
        <time>2011-04-03T16:53:49Z</time>
      </trkpt>
      <trkpt lat="45.56086" lon="5.94476">
        <ele>284.21</ele>
        <time>2011-04-03T16:53:50Z</time>
      </trkpt>
      <trkpt lat="45.56089" lon="5.94468">
        <ele>284.21</ele>
        <time>2011-04-03T16:53:51Z</time>
      </trkpt>
      <trkpt lat="45.56092" lon="5.94459">
        <ele>284.21</ele>
        <time>2011-04-03T16:53:52Z</time>
      </trkpt>
      <trkpt lat="45.56108" lon="5.94386">
        <ele>283.73</ele>
        <time>2011-04-03T16:54:00Z</time>
      </trkpt>
      <trkpt lat="45.56109" lon="5.94368">
        <ele>283.73</ele>
        <time>2011-04-03T16:54:02Z</time>
      </trkpt>
      <trkpt lat="45.56109" lon="5.94358">
        <ele>283.73</ele>
        <time>2011-04-03T16:54:03Z</time>
      </trkpt>
      <trkpt lat="45.5611" lon="5.94349">
        <ele>283.73</ele>
        <time>2011-04-03T16:54:04Z</time>
      </trkpt>
      <trkpt lat="45.56111" lon="5.9434">
        <ele>283.73</ele>
        <time>2011-04-03T16:54:05Z</time>
      </trkpt>
      <trkpt lat="45.56112" lon="5.94331">
        <ele>283.25</ele>
        <time>2011-04-03T16:54:06Z</time>
      </trkpt>
      <trkpt lat="45.56119" lon="5.94277">
        <ele>283.25</ele>
        <time>2011-04-03T16:54:12Z</time>
      </trkpt>
      <trkpt lat="45.5612" lon="5.94268">
        <ele>283.25</ele>
        <time>2011-04-03T16:54:13Z</time>
      </trkpt>
      <trkpt lat="45.56119" lon="5.94258">
        <ele>283.25</ele>
        <time>2011-04-03T16:54:14Z</time>
      </trkpt>
      <trkpt lat="45.56118" lon="5.9425">
        <ele>283.25</ele>
        <time>2011-04-03T16:54:15Z</time>
      </trkpt>
      <trkpt lat="45.56116" lon="5.94241">
        <ele>283.25</ele>
        <time>2011-04-03T16:54:16Z</time>
      </trkpt>
      <trkpt lat="45.56114" lon="5.94232">
        <ele>283.25</ele>
        <time>2011-04-03T16:54:17Z</time>
      </trkpt>
      <trkpt lat="45.56114" lon="5.94223">
        <ele>283.25</ele>
        <time>2011-04-03T16:54:18Z</time>
      </trkpt>
      <trkpt lat="45.56117" lon="5.94216">
        <ele>283.25</ele>
        <time>2011-04-03T16:54:19Z</time>
      </trkpt>
      <trkpt lat="45.5612" lon="5.9421">
        <ele>283.25</ele>
        <time>2011-04-03T16:54:20Z</time>
      </trkpt>
      <trkpt lat="45.56123" lon="5.94204">
        <ele>283.25</ele>
        <time>2011-04-03T16:54:21Z</time>
      </trkpt>
      <trkpt lat="45.56124" lon="5.94199">
        <ele>282.77</ele>
        <time>2011-04-03T16:54:22Z</time>
      </trkpt>
      <trkpt lat="45.56121" lon="5.94183">
        <ele>283.25</ele>
        <time>2011-04-03T16:54:30Z</time>
      </trkpt>
      <trkpt lat="45.56122" lon="5.94164">
        <ele>283.25</ele>
        <time>2011-04-03T16:54:35Z</time>
      </trkpt>
      <trkpt lat="45.56121" lon="5.94159">
        <ele>283.73</ele>
        <time>2011-04-03T16:54:36Z</time>
      </trkpt>
      <trkpt lat="45.56121" lon="5.94152">
        <ele>283.25</ele>
        <time>2011-04-03T16:54:37Z</time>
      </trkpt>
      <trkpt lat="45.56123" lon="5.94145">
        <ele>283.25</ele>
        <time>2011-04-03T16:54:38Z</time>
      </trkpt>
      <trkpt lat="45.56127" lon="5.94139">
        <ele>282.77</ele>
        <time>2011-04-03T16:54:39Z</time>
      </trkpt>
      <trkpt lat="45.56133" lon="5.94132">
        <ele>283.73</ele>
        <time>2011-04-03T16:54:40Z</time>
      </trkpt>
      <trkpt lat="45.56138" lon="5.94125">
        <ele>283.25</ele>
        <time>2011-04-03T16:54:41Z</time>
      </trkpt>
      <trkpt lat="45.56173" lon="5.94089">
        <ele>282.77</ele>
        <time>2011-04-03T16:54:47Z</time>
      </trkpt>
      <trkpt lat="45.56178" lon="5.94085">
        <ele>283.25</ele>
        <time>2011-04-03T16:54:48Z</time>
      </trkpt>
      <trkpt lat="45.56189" lon="5.94075">
        <ele>282.77</ele>
        <time>2011-04-03T16:54:50Z</time>
      </trkpt>
      <trkpt lat="45.56194" lon="5.94072">
        <ele>282.28</ele>
        <time>2011-04-03T16:54:51Z</time>
      </trkpt>
      <trkpt lat="45.562" lon="5.9407">
        <ele>282.28</ele>
        <time>2011-04-03T16:54:52Z</time>
      </trkpt>
      <trkpt lat="45.56205" lon="5.94071">
        <ele>281.8</ele>
        <time>2011-04-03T16:54:53Z</time>
      </trkpt>
      <trkpt lat="45.5621" lon="5.94075">
        <ele>281.32</ele>
        <time>2011-04-03T16:54:54Z</time>
      </trkpt>
      <trkpt lat="45.56214" lon="5.94077">
        <ele>282.28</ele>
        <time>2011-04-03T16:54:55Z</time>
      </trkpt>
      <trkpt lat="45.5622" lon="5.94077">
        <ele>281.8</ele>
        <time>2011-04-03T16:54:56Z</time>
      </trkpt>
      <trkpt lat="45.56238" lon="5.94078">
        <ele>282.28</ele>
        <time>2011-04-03T16:54:59Z</time>
      </trkpt>
      <trkpt lat="45.56309" lon="5.94055">
        <ele>281.8</ele>
        <time>2011-04-03T16:55:11Z</time>
      </trkpt>
      <trkpt lat="45.56313" lon="5.9405">
        <ele>281.8</ele>
        <time>2011-04-03T16:55:12Z</time>
      </trkpt>
      <trkpt lat="45.56318" lon="5.94045">
        <ele>281.32</ele>
        <time>2011-04-03T16:55:13Z</time>
      </trkpt>
      <trkpt lat="45.56322" lon="5.94039">
        <ele>281.32</ele>
        <time>2011-04-03T16:55:14Z</time>
      </trkpt>
      <trkpt lat="45.56326" lon="5.94033">
        <ele>281.32</ele>
        <time>2011-04-03T16:55:15Z</time>
      </trkpt>
      <trkpt lat="45.56336" lon="5.9402">
        <ele>281.8</ele>
        <time>2011-04-03T16:55:17Z</time>
      </trkpt>
      <trkpt lat="45.56352" lon="5.94004">
        <ele>281.8</ele>
        <time>2011-04-03T16:55:20Z</time>
      </trkpt>
      <trkpt lat="45.56356" lon="5.94">
        <ele>281.32</ele>
        <time>2011-04-03T16:55:21Z</time>
      </trkpt>
      <trkpt lat="45.56381" lon="5.93977">
        <ele>281.32</ele>
        <time>2011-04-03T16:55:26Z</time>
      </trkpt>
      <trkpt lat="45.56393" lon="5.93965">
        <ele>281.32</ele>
        <time>2011-04-03T16:55:29Z</time>
      </trkpt>
      <trkpt lat="45.5641" lon="5.93951">
        <ele>280.84</ele>
        <time>2011-04-03T16:55:33Z</time>
      </trkpt>
      <trkpt lat="45.56412" lon="5.93951">
        <ele>281.32</ele>
        <time>2011-04-03T16:55:34Z</time>
      </trkpt>
      <trkpt lat="45.56423" lon="5.93947">
        <ele>280.84</ele>
        <time>2011-04-03T16:55:38Z</time>
      </trkpt>
      <trkpt lat="45.56433" lon="5.93935">
        <ele>280.84</ele>
        <time>2011-04-03T16:55:48Z</time>
      </trkpt>
      <trkpt lat="45.56433" lon="5.93935">
        <ele>280.84</ele>
        <time>2011-04-03T16:55:56Z</time>
      </trkpt>
    </trkseg>
  </trk>
</gpx>